# Wetter Temperatur Luftdruck Luftfeuchtigkeit Sichtweite Windgeschwindigkeit Windrichtung Zeit
1 Clouds 31 1005 68 10000 3.81 180 13:42 22.04.2021
2 Clouds 32 1004 66 10000 4.05 194 13:23 22.04.2021
3 Clouds 32 1004 64 10000 4.05 194 12:52 22.04.2021
4 Clouds 32 1004 64 10000 4.05 194 12:31 22.04.2021
5 Clouds 34 1004 49 10000 2.06 210 11:50 22.04.2021
6 Rain 35 1004 60 10000 4.22 190 11:28 22.04.2021
7 Clouds 34 1003 58 10000 4.22 190 10:59 22.04.2021
8 Clouds 34 1003 57 10000 4.22 190 10:40 22.04.2021
9 Clouds 35 1003 54 10000 0.45 209 10:19 22.04.2021
10 Clouds 35 1004 52 10000 3.69 195 09:36 22.04.2021
11 Clouds 35 1006 53 10000 2.81 176 08:51 22.04.2021
12 Clouds 36 1006 56 10000 2.03 204 08:23 22.04.2021
13 Clouds 35 1007 60 10000 0.45 226 07:49 22.04.2021
14 Clouds 35 1009 100 10000 2.03 204 07:31 22.04.2021
15 Rain 36 1010 100 10000 1.58 212 06:44 22.04.2021
16 Rain 34 1009 62 10000 1.58 242 06:18 22.04.2021
17 Rain 33 1009 67 10000 1.85 242 05:21 22.04.2021
18 Clouds 29 1009 94 7000 1.03 50 02:24 22.04.2021
19 Clouds 29 1006 78 10000 2.12 194 23:55 21.04.2021
20 Clouds 29 1006 78 10000 2.12 194 23:55 21.04.2021
21 Clouds 29 1006 78 10000 2.12 194 23:37 21.04.2021
22 Clouds 28 1007 89 10000 2.68 205 22:59 21.04.2021
23 Clouds 28 1006 78 10000 2.68 205 22:38 21.04.2021
24 Clouds 29 1006 78 10000 3.08 210 22:18 21.04.2021
25 Clouds 28 1006 79 10000 3.08 210 21:41 21.04.2021
26 Clear 28 1008 83 10000 3.38 209 21:19 21.04.2021
27 Clear 28 1008 83 10000 0.51 180 20:27 21.04.2021
28 Clouds 28 1007 79 10000 3.69 207 19:46 21.04.2021
29 Clouds 28 1008 78 10000 4.15 199 19:27 21.04.2021
30 Clouds 29 1008 78 10000 4.15 199 18:51 21.04.2021
31 Clouds 29 1008 77 10000 4.15 199 18:33 21.04.2021
32 Clouds 29 1009 75 10000 4.33 195 17:58 21.04.2021
33 Clouds 29 1009 73 10000 4.33 195 17:39 21.04.2021
34 Clouds 29 1009 73 10000 4.33 195 17:39 21.04.2021
35 Clouds 31 1009 73 10000 4.23 200 17:20 21.04.2021
36 Clouds 31 1008 72 10000 4.23 200 16:38 21.04.2021
37 Clouds 30 1007 71 10000 4.8 206 15:46 21.04.2021
38 Clouds 31 1007 71 10000 5.6 203 15:21 21.04.2021
39 Clouds 32 1007 70 10000 5.6 203 14:44 21.04.2021
40 Clouds 32 1007 69 10000 5.53 187 14:24 21.04.2021
41 Clouds 31 1006 69 10000 5.53 187 13:49 21.04.2021
42 Clouds 33 1006 70 10000 4.98 174 13:21 21.04.2021
43 Clouds 33 1005 70 10000 4.98 174 12:41 21.04.2021
44 Clouds 33 1005 68 10000 4.33 169 12:18 21.04.2021
45 Clouds 33 1006 66 10000 2.06 180 11:41 21.04.2021
46 Clouds 33 1006 66 10000 2.06 180 11:41 21.04.2021
47 Clouds 33 1006 66 10000 2.06 180 11:22 21.04.2021
48 Clouds 32 1007 70 10000 2.06 300 10:39 21.04.2021
49 Rain 32 1007 74 10000 4.12 350 09:56 21.04.2021
50 Rain 32 1008 74 10000 1.54 40 09:21 21.04.2021
51 Rain 32 1008 70 10000 2.57 80 08:44 21.04.2021
52 Rain 34 1009 66 10000 5.14 140 08:23 21.04.2021
53 Clouds 34 1010 62 10000 3.6 170 07:50 21.04.2021
54 Rain 33 1008 59 10000 3.45 164 07:26 21.04.2021
55 Clouds 33 1009 59 10000 3.23 169 05:57 21.04.2021
56 Clouds 28 1008 74 10000 2.58 166 01:51 21.04.2021
57 Clouds 28 1008 94 10000 0.51 40 00:20 21.04.2021
58 Clouds 28 1007 76 10000 2.3 163 23:38 20.04.2021
59 Clouds 28 1006 76 10000 2.64 169 22:46 20.04.2021
60 Clouds 29 1006 75 10000 3.02 172 22:23 20.04.2021
61 Clouds 29 1006 73 10000 3.02 172 21:49 20.04.2021
62 Clouds 29 1006 72 10000 3.47 178 21:29 20.04.2021
63 Clouds 29 1006 71 10000 3.47 178 20:59 20.04.2021
64 Clouds 29 1007 71 10000 3.47 178 20:38 20.04.2021
65 Clouds 29 1007 71 10000 3.94 181 20:18 20.04.2021
66 Clouds 30 1007 72 10000 3.94 181 19:45 20.04.2021
67 Clouds 30 1007 71 10000 4.46 183 19:27 20.04.2021
68 Clouds 30 1008 70 10000 4.46 183 18:42 20.04.2021
69 Clouds 30 1008 70 10000 4.93 184 18:22 20.04.2021
70 Clouds 30 1008 71 10000 4.93 184 17:40 20.04.2021
71 Clouds 30 1008 74 10000 2.57 160 16:50 20.04.2021
72 Clouds 30 1008 74 10000 2.57 170 16:18 20.04.2021
73 Clouds 31 1007 67 10000 5.9 181 15:30 20.04.2021
74 Clouds 31 1006 65 10000 5.86 169 14:59 20.04.2021
75 Clouds 31 1005 63 10000 5.86 169 14:35 20.04.2021
76 Clouds 31 1006 60 10000 0.45 230 13:54 20.04.2021
77 Clouds 32 1005 56 10000 5.38 139 13:24 20.04.2021
78 Clouds 32 1004 56 10000 5.38 139 12:48 20.04.2021
79 Clouds 33 1004 57 10000 4.7 140 12:22 20.04.2021
80 Clouds 34 1004 57 10000 4.7 140 11:46 20.04.2021
81 Clouds 34 1004 56 10000 3.78 147 11:22 20.04.2021
82 Clouds 34 1005 53 10000 0.45 66 10:44 20.04.2021
83 Clouds 34 1005 55 10000 3.25 162 10:23 20.04.2021
84 Clouds 34 1005 57 10000 3.25 162 09:44 20.04.2021
85 Clouds 33 1006 57 10000 2.74 179 08:56 20.04.2021
86 Clouds 33 1006 59 10000 2.21 200 08:29 20.04.2021
87 Clouds 33 1007 62 10000 2.21 200 07:49 20.04.2021
88 Clouds 31 1010 79 10000 2.06 180 06:49 20.04.2021
89 Rain 30 1011 78 8000 4.12 180 05:40 20.04.2021
90 Rain 32 1010 74 8000 0.85 178 04:42 20.04.2021
91 Clouds 27 1008 76 10000 0.68 277 01:58 20.04.2021
92 Rain 28 1007 75 10000 0.49 257 00:41 20.04.2021
93 Clouds 27 1006 74 10000 0.6 225 23:38 19.04.2021
94 Clouds 27 1006 73 10000 0.64 201 22:58 19.04.2021
95 Clouds 29 1006 73 10000 0.64 201 22:36 19.04.2021
96 Clouds 29 1007 72 10000 1.01 207 21:52 19.04.2021
97 Clouds 29 1007 72 10000 1.01 207 21:33 19.04.2021
98 Clouds 29 1007 71 10000 0.93 209 20:56 19.04.2021
99 Clouds 29 1007 71 10000 0.93 209 20:38 19.04.2021
100 Clouds 28 1008 70 10000 1.13 190 20:19 19.04.2021
101 Clouds 28 1008 69 10000 0.84 70 19:41 19.04.2021
102 Clouds 28 1008 69 10000 1.25 32 19:23 19.04.2021
103 Clouds 28 1008 67 10000 1.25 32 18:47 19.04.2021
104 Clouds 28 1008 67 10000 2.52 297 18:22 19.04.2021
105 Clouds 28 1008 66 10000 2.52 297 17:54 19.04.2021
106 Clouds 29 1008 66 10000 3.75 270 17:29 19.04.2021
107 Clouds 29 1008 65 10000 3.75 270 16:51 19.04.2021
108 Clouds 29 1008 65 10000 3.75 270 16:33 19.04.2021
109 Clouds 29 1008 65 10000 3.75 270 16:33 19.04.2021
110 Clouds 29 1007 66 10000 6.08 253 15:52 19.04.2021
111 Clouds 29 1007 64 10000 6.55 250 15:29 19.04.2021
112 Clouds 29 1006 63 10000 6.55 250 14:55 19.04.2021
113 Clouds 29 1006 63 10000 6.55 250 14:35 19.04.2021
114 Clouds 30 1006 63 10000 6.5 214 13:54 19.04.2021
115 Clouds 30 1005 62 10000 6.5 214 13:30 19.04.2021
116 Clouds 31 1005 61 10000 7.18 190 12:56 19.04.2021
117 Clouds 31 1004 59 10000 7.18 190 12:36 19.04.2021
118 Clouds 31 1006 83 10000 1.54 100 12:18 19.04.2021
119 Clouds 31 1007 83 10000 2.57 40 11:49 19.04.2021
120 Clouds 33 1005 53 10000 5.53 160 11:20 19.04.2021
121 Clouds 33 1005 52 10000 5.53 160 10:44 19.04.2021
122 Clouds 32 1007 79 5000 12.86 200 10:20 19.04.2021
123 Clouds 33 1005 54 10000 0.45 208 09:43 19.04.2021
124 Clouds 34 1007 52 10000 3.09 280 09:24 19.04.2021
125 Clouds 34 1008 55 10000 3.09 270 08:41 19.04.2021
126 Clouds 34 1007 57 10000 0.45 229 07:50 19.04.2021
127 Clouds 33 1008 58 10000 2.23 208 07:24 19.04.2021
128 Clouds 33 1008 59 10000 2.23 208 06:52 19.04.2021
129 Clouds 31 1010 69 10000 1.51 222 05:30 19.04.2021
130 Clouds 28 1008 80 10000 0.99 288 01:49 19.04.2021
131 Clouds 27 1009 94 10000 0.85 287 00:42 19.04.2021
132 Rain 28 1008 78 10000 1.01 236 23:21 18.04.2021
133 Rain 28 1008 80 10000 1.01 236 22:58 18.04.2021
134 Rain 27 1008 80 10000 1.01 236 22:34 18.04.2021
135 Rain 28 1008 80 10000 1.32 194 21:56 18.04.2021
136 Rain 28 1008 79 10000 2.06 187 21:28 18.04.2021
137 Rain 28 1009 74 10000 2.06 187 20:44 18.04.2021
138 Rain 28 1009 73 10000 0.13 290 20:25 18.04.2021
139 Rain 28 1009 76 10000 0.13 290 19:59 18.04.2021
140 Clouds 28 1009 76 10000 0.13 290 19:39 18.04.2021
141 Clouds 29 1009 75 10000 0.78 33 19:19 18.04.2021
142 Rain 28 1009 76 10000 0.78 33 18:45 18.04.2021
143 Rain 29 1009 75 10000 1.28 202 18:25 18.04.2021
144 Rain 29 1009 75 10000 1.28 202 18:25 18.04.2021
145 Rain 29 1010 69 10000 1.28 202 17:46 18.04.2021
146 Rain 29 1010 70 10000 2.88 224 17:27 18.04.2021
147 Rain 29 1009 68 10000 2.88 224 16:46 18.04.2021
148 Rain 29 1009 68 10000 2.88 224 16:46 18.04.2021
149 Rain 30 1009 66 10000 5.33 237 16:27 18.04.2021
150 Clouds 29 1010 74 10000 3.09 240 15:44 18.04.2021
151 Clouds 30 1008 62 10000 5.53 230 15:25 18.04.2021
152 Clouds 31 1008 61 10000 5.53 230 14:52 18.04.2021
153 Clouds 29 1008 60 10000 7.62 214 14:23 18.04.2021
154 Clouds 29 1007 58 10000 7.62 214 13:55 18.04.2021
155 Clouds 32 1007 57 10000 7.62 214 13:34 18.04.2021
156 Clouds 32 1007 83 10000 1.54 150 12:50 18.04.2021
157 Clouds 30 1007 89 10000 2.57 80 12:26 18.04.2021
158 Clouds 32 1005 56 10000 0.45 97 11:42 18.04.2021
159 Clouds 32 1006 55 10000 3.25 165 11:21 18.04.2021
160 Clouds 34 1006 54 10000 0.45 29 10:47 18.04.2021
161 Rain 31 1008 94 1500 7.72 190 10:22 18.04.2021
162 Rain 34 1006 50 10000 0.45 216 09:53 18.04.2021
163 Clouds 34 1006 51 10000 3.88 166 09:34 18.04.2021
164 Clouds 34 1007 52 10000 3.58 174 08:56 18.04.2021
165 Clouds 34 1007 54 10000 4.15 175 08:35 18.04.2021
166 Clouds 34 1008 56 10000 3.6 183 07:58 18.04.2021
167 Clouds 34 1009 59 10000 3.09 192 07:37 18.04.2021
168 Clouds 31 1011 69 10000 2.64 190 05:42 18.04.2021
169 Clouds 31 1011 69 10000 2.26 194 05:23 18.04.2021
170 Clouds 28 1012 94 8000 2.43 195 02:39 18.04.2021
171 Clouds 28 1010 76 10000 2 195 02:20 18.04.2021
172 Clouds 28 1009 74 10000 2.39 180 00:37 18.04.2021
173 Clouds 28 1009 74 8053 2.82 176 23:33 17.04.2021
174 Clouds 28 1009 74 10000 2.4 180 22:51 17.04.2021
175 Clouds 28 1009 74 10000 2.4 180 22:30 17.04.2021
176 Clouds 28 1009 73 10000 2.61 183 21:47 17.04.2021
177 Clouds 28 1009 72 10000 3.32 189 21:28 17.04.2021
178 Clouds 28 1009 71 10000 3.32 189 20:47 17.04.2021
179 Clouds 29 1010 71 10000 4.44 181 20:25 17.04.2021
180 Clouds 29 1010 70 10000 4.44 181 19:44 17.04.2021
181 Clouds 30 1010 69 10000 4.41 182 19:20 17.04.2021
182 Clouds 29 1010 68 10000 4.41 182 18:55 17.04.2021
183 Clouds 30 1011 68 10000 4.63 189 18:26 17.04.2021
184 Clouds 30 1011 66 10000 4.63 189 17:49 17.04.2021
185 Clouds 30 1011 66 10000 4.63 189 17:30 17.04.2021
186 Clouds 30 1010 64 10000 5.03 195 16:42 17.04.2021
187 Clouds 31 1010 63 10000 5.05 193 16:23 17.04.2021
188 Clouds 31 1009 60 10000 5.05 193 15:38 17.04.2021
189 Clouds 32 1009 57 10000 4.97 185 14:44 17.04.2021
190 Clouds 32 1008 57 10000 4.85 181 14:20 17.04.2021
191 Clouds 33 1008 56 10000 5.25 182 13:44 17.04.2021
192 Clouds 33 1007 54 10000 4.66 183 13:18 17.04.2021
193 Clouds 34 1007 53 10000 4.66 183 12:35 17.04.2021
194 Clouds 34 1006 52 10000 4.7 166 11:58 17.04.2021
195 Clouds 34 1006 52 10000 4.7 166 11:38 17.04.2021
196 Clouds 34 1006 52 10000 0.45 227 11:19 17.04.2021
197 Clouds 34 1006 50 10000 5.17 161 10:39 17.04.2021
198 Clouds 36 1007 50 10000 4.43 168 09:51 17.04.2021
199 Clouds 36 1007 50 10000 4.43 168 09:51 17.04.2021
200 Clouds 36 1008 46 10000 3.02 182 08:55 17.04.2021
201 Clouds 36 1008 46 10000 3.02 182 08:55 17.04.2021
202 Clouds 35 1008 47 10000 3.93 185 08:33 17.04.2021
203 Clouds 35 1008 47 10000 3.93 185 08:33 17.04.2021
204 Clouds 34 1009 49 10000 2.82 197 07:51 17.04.2021
205 Clouds 33 1011 53 10000 1.56 251 06:26 17.04.2021
206 Clouds 30 1011 66 10000 1.66 268 03:47 17.04.2021
207 Mist 27 1010 100 5000 1.76 208 01:35 17.04.2021
208 Clouds 27 1010 100 10000 1.52 212 00:40 17.04.2021
209 Clouds 27 1010 100 10000 1.62 216 00:19 17.04.2021
210 Clouds 28 1009 75 10000 1.62 216 23:35 16.04.2021
211 Clouds 28 1008 74 10000 2 198 22:52 16.04.2021
212 Clouds 28 1008 73 10000 2.5 183 22:25 16.04.2021
213 Clouds 28 1008 71 10000 2.5 183 21:57 16.04.2021
214 Rain 28 1010 89 10000 2.06 110 21:39 16.04.2021
215 Rain 28 1010 83 9000 1.54 160 20:57 16.04.2021
216 Rain 28 1011 83 7000 3.23 179 20:38 16.04.2021
217 Clouds 28 1011 83 7000 4.8 185 20:18 16.04.2021
218 Clouds 29 1009 73 10000 4.8 185 19:43 16.04.2021
219 Clouds 29 1010 73 10000 5.22 179 19:19 16.04.2021
220 Clouds 29 1010 72 10000 6.07 174 18:27 16.04.2021
221 Rain 30 1011 74 10000 2.57 160 17:49 16.04.2021
222 Clouds 30 1010 69 10000 6.09 178 17:20 16.04.2021
223 Clouds 31 1009 69 10000 6.09 178 16:45 16.04.2021
224 Clouds 31 1009 69 10000 5.55 174 16:26 16.04.2021
225 Clouds 30 1009 74 10000 4.12 170 15:55 16.04.2021
226 Clouds 30 1009 74 10000 3.6 180 15:29 16.04.2021
227 Clouds 30 1008 67 10000 5.2 181 14:44 16.04.2021
228 Clouds 30 1008 68 10000 5.92 186 14:23 16.04.2021
229 Clouds 31 1007 67 10000 6.23 198 13:55 16.04.2021
230 Clouds 31 1007 64 10000 5.74 186 13:22 16.04.2021
231 Clouds 32 1006 59 10000 5.74 186 12:53 16.04.2021
232 Clouds 32 1006 57 10000 5.74 186 12:34 16.04.2021
233 Clouds 33 1005 56 10000 5.71 166 11:59 16.04.2021
234 Clouds 32 1005 56 10000 5.71 166 11:39 16.04.2021
235 Clouds 35 1004 56 10000 5.4 166 11:20 16.04.2021
236 Clouds 34 1006 52 10000 7.2 160 10:41 16.04.2021
237 Clouds 34 1006 52 10000 7.2 160 10:20 16.04.2021
238 Rain 35 1007 46 10000 6.17 160 09:44 16.04.2021
239 Clouds 34 1006 52 10000 0.45 61 09:21 16.04.2021
240 Rain 34 1007 51 10000 0.45 83 08:42 16.04.2021
241 Rain 35 1007 55 10000 5.05 170 08:18 16.04.2021
242 Clouds 34 1008 56 10000 5.05 170 07:41 16.04.2021
243 Clouds 33 1009 60 10000 4.56 176 07:18 16.04.2021
244 Clouds 35 1009 63 10000 4.56 176 06:35 16.04.2021
245 Clouds 32 1011 74 10000 2.57 140 05:31 16.04.2021
246 Clouds 28 1008 77 10000 3.2 195 01:40 16.04.2021
247 Clouds 28 1009 94 10000 1.03 120 00:44 16.04.2021
248 Clouds 28 1008 89 10000 0.51 140 00:20 16.04.2021
249 Clouds 28 1007 75 10000 2.88 191 23:45 15.04.2021
250 Clouds 28 1007 75 10000 3.39 186 23:25 15.04.2021
251 Clouds 28 1007 74 10000 3.39 186 22:47 15.04.2021
252 Clouds 28 1007 74 10000 3.85 187 22:23 15.04.2021
253 Clouds 29 1007 74 10000 3.85 187 21:43 15.04.2021
254 Clouds 29 1007 74 10000 4.31 190 21:24 15.04.2021
255 Clouds 29 1007 74 10000 4.5 186 20:47 15.04.2021
256 Clouds 30 1007 73 10000 4.97 182 20:25 15.04.2021
257 Clouds 30 1007 73 10000 4.97 182 20:25 15.04.2021
258 Clouds 30 1007 72 10000 4.97 182 19:47 15.04.2021
259 Clouds 30 1007 71 10000 5.17 182 19:28 15.04.2021
260 Clouds 30 1008 71 10000 5.17 182 18:46 15.04.2021
261 Clouds 30 1008 70 10000 5.53 184 18:22 15.04.2021
262 Clouds 30 1008 70 10000 5.53 184 17:58 15.04.2021
263 Clouds 30 1009 70 10000 5.53 184 17:39 15.04.2021
264 Clouds 31 1008 69 10000 6.22 191 17:21 15.04.2021
265 Clouds 31 1008 68 10000 6.22 191 16:43 15.04.2021
266 Clouds 31 1008 67 10000 6.3 193 16:23 15.04.2021
267 Clouds 31 1008 66 10000 6.3 193 15:46 15.04.2021
268 Clouds 31 1008 63 10000 6.65 194 15:26 15.04.2021
269 Clouds 32 1007 58 10000 6.65 194 14:42 15.04.2021
270 Clouds 32 1006 58 10000 5.01 173 14:24 15.04.2021
271 Clouds 32 1006 55 10000 5.58 176 13:46 15.04.2021
272 Clouds 33 1006 54 10000 4.78 155 13:23 15.04.2021
273 Clouds 33 1005 55 10000 4.78 155 12:46 15.04.2021
274 Clouds 34 1005 56 10000 5.53 160 12:24 15.04.2021
275 Clouds 34 1005 56 10000 5.53 160 11:47 15.04.2021
276 Clouds 34 1005 54 10000 0.45 64 11:25 15.04.2021
277 Clouds 34 1005 49 10000 0.45 23 10:57 15.04.2021
278 Clouds 34 1005 54 10000 4.89 172 10:28 15.04.2021
279 Clouds 34 1005 53 10000 4.89 172 09:50 15.04.2021
280 Clouds 34 1006 52 10000 4.29 176 09:28 15.04.2021
281 Clouds 36 1007 51 10000 4.29 176 08:49 15.04.2021
282 Clouds 34 1007 53 10000 3.56 171 08:24 15.04.2021
283 Clouds 34 1009 55 10000 3.08 183 07:26 15.04.2021
284 Clouds 34 1009 57 10000 3.08 183 06:55 15.04.2021
285 Clouds 33 1009 58 10000 3.08 183 06:33 15.04.2021
286 Clouds 31 1010 62 10000 2.97 200 04:53 15.04.2021
287 Clouds 28 1009 70 10000 1.95 211 02:51 15.04.2021
288 Clouds 28 1008 70 10000 1.44 217 23:47 14.04.2021
289 Clouds 27 1008 72 10000 1.74 219 23:28 14.04.2021
290 Clouds 27 1008 75 10000 1.74 219 22:47 14.04.2021
291 Clouds 27 1008 76 10000 2.09 234 22:27 14.04.2021
292 Clouds 27 1008 76 10000 2.09 234 21:53 14.04.2021
293 Clouds 28 1008 76 10000 2.09 234 21:32 14.04.2021
294 Clouds 28 1008 75 10000 1.6 258 20:58 14.04.2021
295 Clouds 28 1008 74 10000 1.6 258 20:35 14.04.2021
296 Clouds 29 1009 73 10000 1.83 207 19:55 14.04.2021
297 Clouds 28 1009 72 10000 1.83 207 19:37 14.04.2021
298 Clouds 28 1009 72 10000 2.6 200 19:18 14.04.2021
299 Clouds 29 1009 71 10000 2.6 200 18:47 14.04.2021
300 Clouds 29 1010 71 10000 3.11 193 18:18 14.04.2021
301 Clouds 29 1010 70 10000 3.11 193 17:51 14.04.2021
302 Clouds 29 1010 69 10000 3.41 192 17:23 14.04.2021
303 Clouds 29 1011 73 10000 3.41 192 16:42 14.04.2021
304 Rain 29 1010 74 10000 4.01 213 16:21 14.04.2021
305 Clouds 29 1010 73 10000 4.01 213 15:39 14.04.2021
306 Clouds 29 1010 72 10000 4.1 220 15:18 14.04.2021
307 Clouds 30 1009 71 10000 4.1 220 14:41 14.04.2021
308 Clouds 30 1008 70 10000 4.74 204 14:21 14.04.2021
309 Clouds 30 1008 67 10000 4.74 204 13:47 14.04.2021
310 Clouds 31 1007 63 10000 5.56 172 12:47 14.04.2021
311 Clouds 31 1007 62 10000 5.6 177 12:24 14.04.2021
312 Clouds 32 1007 63 10000 5.6 177 11:42 14.04.2021
313 Clouds 32 1007 62 10000 5.2 168 11:23 14.04.2021
314 Clouds 32 1007 62 10000 5.2 168 11:23 14.04.2021
315 Clouds 33 1007 60 10000 5.2 168 10:34 14.04.2021
316 Clouds 33 1008 57 10000 5.36 178 09:43 14.04.2021
317 Clouds 33 1008 56 10000 6.04 179 09:25 14.04.2021
318 Clouds 33 1010 58 10000 5.14 120 08:56 14.04.2021
319 Clouds 34 1009 52 10000 5.69 184 08:30 14.04.2021
320 Clouds 33 1010 53 10000 0.45 81 07:51 14.04.2021
321 Clouds 34 1011 57 10000 4.26 188 06:35 14.04.2021
322 Clouds 32 1011 59 10000 3.58 195 05:50 14.04.2021
323 Clouds 28 1010 76 10000 3.53 197 02:40 14.04.2021
324 Clouds 28 1010 89 9000 2.06 320 00:57 14.04.2021
325 Clouds 28 1010 94 9000 1.03 70 00:32 14.04.2021
326 Clouds 28 1008 77 10000 3.08 209 23:34 13.04.2021
327 Clouds 28 1009 77 10000 3.47 196 22:45 13.04.2021
328 Clouds 28 1008 76 10000 3.71 185 22:22 13.04.2021
329 Clouds 29 1009 76 10000 3.71 185 21:49 13.04.2021
330 Clouds 29 1009 75 10000 3.71 185 21:31 13.04.2021
331 Clouds 29 1011 79 10000 2.57 240 20:52 13.04.2021
332 Clouds 29 1011 79 10000 1.03 220 20:25 13.04.2021
333 Clouds 29 1010 74 10000 4.56 191 19:59 13.04.2021
334 Clouds 29 1010 74 10000 4.8 186 19:26 13.04.2021
335 Clouds 29 1011 73 10000 4.8 186 18:57 13.04.2021
336 Clouds 29 1011 73 10000 4.8 186 18:31 13.04.2021
337 Clouds 29 1011 72 10000 4.69 185 17:41 13.04.2021
338 Clouds 29 1011 72 10000 5.18 180 17:22 13.04.2021
339 Clouds 30 1010 72 10000 5.18 180 16:49 13.04.2021
340 Clouds 29 1010 72 10000 5.18 180 16:31 13.04.2021
341 Clouds 30 1010 71 10000 5.5 178 15:56 13.04.2021
342 Clouds 30 1010 69 10000 5.5 178 15:38 13.04.2021
343 Clouds 30 1008 68 10000 5.37 185 14:58 13.04.2021
344 Clouds 30 1008 67 10000 5.16 177 14:25 13.04.2021
345 Clouds 30 1008 67 10000 5.16 177 14:25 13.04.2021
346 Clouds 30 1007 68 10000 5.16 177 13:57 13.04.2021
347 Clouds 31 1007 67 10000 5.16 177 13:38 13.04.2021
348 Clouds 31 1008 67 10000 6.3 181 13:20 13.04.2021
349 Clouds 32 1007 62 10000 6.3 181 12:46 13.04.2021
350 Clouds 32 1007 60 10000 5.63 177 12:22 13.04.2021
351 Clouds 33 1006 59 10000 5.63 177 11:37 13.04.2021
352 Clouds 33 1007 56 10000 5.31 176 10:58 13.04.2021
353 Clouds 33 1007 56 10000 5.31 176 10:58 13.04.2021
354 Clouds 33 1007 55 10000 0.45 236 10:40 13.04.2021
355 Clouds 33 1007 56 10000 0.45 196 10:19 13.04.2021
356 Clouds 34 1008 57 10000 0.45 230 09:49 13.04.2021
357 Clouds 34 1008 56 10000 0.45 247 09:23 13.04.2021
358 Clouds 34 1009 57 10000 5.53 180 08:43 13.04.2021
359 Clouds 34 1010 58 10000 4.85 179 08:21 13.04.2021
360 Clouds 33 1010 59 10000 4.85 179 07:43 13.04.2021
361 Clouds 34 1011 61 10000 4.37 177 07:22 13.04.2021
362 Clouds 33 1012 67 10000 3.73 178 06:19 13.04.2021
363 Clouds 29 1012 77 10000 2.45 192 03:41 13.04.2021
364 Clouds 27 1010 84 10000 2.12 216 01:31 13.04.2021
365 Clouds 27 1009 83 10000 2.64 218 23:50 12.04.2021
366 Clouds 27 1010 83 10000 2.64 218 23:32 12.04.2021
367 Clouds 27 1010 82 10000 3.04 208 22:46 12.04.2021
368 Clouds 27 1009 82 10000 3.13 196 22:28 12.04.2021
369 Clouds 27 1010 82 10000 3.13 196 21:48 12.04.2021
370 Clouds 27 1010 82 10000 3.15 182 21:24 12.04.2021
371 Clouds 27 1010 81 10000 2.13 158 20:46 12.04.2021
372 Clouds 27 1010 81 10000 3.94 166 20:26 12.04.2021
373 Clouds 28 1011 82 10000 3.94 166 19:58 12.04.2021
374 Clouds 28 1011 81 10000 3.94 166 19:39 12.04.2021
375 Rain 28 1011 81 10000 5.11 171 19:20 12.04.2021
376 Clouds 28 1012 79 10000 5.11 171 18:47 12.04.2021
377 Clouds 29 1012 78 10000 4.9 188 18:29 12.04.2021
378 Rain 29 1012 78 10000 4.9 188 17:46 12.04.2021
379 Clouds 29 1012 78 10000 4.93 203 17:25 12.04.2021
380 Clouds 29 1012 78 10000 4.93 203 16:49 12.04.2021
381 Clouds 29 1012 78 10000 5.5 200 16:28 12.04.2021
382 Rain 29 1011 77 10000 5.5 200 15:54 12.04.2021
383 Clouds 29 1011 77 10000 5.5 200 15:33 12.04.2021
384 Clouds 29 1010 76 10000 6.34 194 14:55 12.04.2021
385 Rain 29 1009 76 10000 6.34 194 14:37 12.04.2021
386 Clouds 29 1009 76 10000 5.57 177 13:56 12.04.2021
387 Clouds 30 1009 75 10000 5.57 177 13:33 12.04.2021
388 Rain 30 1009 73 10000 5.17 176 12:59 12.04.2021
389 Clouds 30 1009 72 10000 5.17 176 12:38 12.04.2021
390 Clouds 30 1009 74 10000 4.85 177 12:19 12.04.2021
391 Clouds 32 1008 69 10000 1.34 179 11:26 12.04.2021
392 Clouds 32 1008 69 10000 5.24 182 10:51 12.04.2021
393 Clouds 32 1010 66 9000 4.12 250 10:27 12.04.2021
394 Clouds 34 1010 69 10000 1.79 226 09:51 12.04.2021
395 Clouds 34 1011 70 8000 4.63 210 09:23 12.04.2021
396 Rain 34 1011 70 8000 4.63 210 08:44 12.04.2021
397 Rain 32 1013 66 8000 1.54 60 07:45 12.04.2021
398 Clouds 32 1013 62 8000 2.06 290 07:22 12.04.2021
399 Clouds 33 1013 67 10000 3.37 154 06:28 12.04.2021
400 Clouds 31 1014 70 8000 1.54 190 05:45 12.04.2021
401 Clouds 31 1014 70 8000 1.54 190 05:45 12.04.2021
402 Clouds 27 1011 83 10000 2.49 171 01:43 12.04.2021
403 Clouds 27 1010 82 10000 2.24 180 00:27 12.04.2021
404 Clouds 27 1010 81 10000 2.24 180 23:51 11.04.2021
405 Clouds 28 1010 81 10000 2.24 180 23:31 11.04.2021
406 Clouds 28 1010 80 10000 2.91 175 22:49 11.04.2021
407 Clouds 28 1010 80 10000 3.07 181 22:27 11.04.2021
408 Clouds 28 1010 79 10000 3.07 181 21:52 11.04.2021
409 Clouds 28 1010 79 10000 3.07 181 21:32 11.04.2021
410 Clouds 28 1011 78 10000 3.57 181 20:59 11.04.2021
411 Clouds 28 1011 78 10000 3.94 185 20:39 11.04.2021
412 Clouds 27 1011 77 10000 3.84 180 20:20 11.04.2021
413 Clouds 28 1012 77 10000 3.84 180 19:40 11.04.2021
414 Clouds 28 1012 77 10000 3.76 169 19:19 11.04.2021
415 Clouds 28 1012 76 10000 3.76 169 18:46 11.04.2021
416 Clouds 28 1012 76 10000 4.31 179 18:26 11.04.2021
417 Clouds 28 1012 76 10000 4.31 179 17:50 11.04.2021
418 Clouds 28 1012 77 10000 4.36 181 17:29 11.04.2021
419 Clouds 28 1012 77 10000 4.36 181 16:54 11.04.2021
420 Clouds 27 1012 77 10000 5.45 163 16:28 11.04.2021
421 Clouds 27 1012 77 10000 5.45 163 16:28 11.04.2021
422 Clouds 29 1011 79 10000 5.45 163 15:59 11.04.2021
423 Rain 29 1011 79 10000 5.45 163 15:40 11.04.2021
424 Rain 29 1011 78 10000 7.17 160 15:22 11.04.2021
425 Rain 29 1010 76 10000 7.17 160 14:48 11.04.2021
426 Rain 27 1011 88 10000 1.03 170 14:19 11.04.2021
427 Rain 31 1012 57 10000 5.62 179 13:39 11.04.2021
428 Rain 33 1011 56 10000 4.32 187 13:21 11.04.2021
429 Rain 34 1012 55 10000 4.74 177 12:25 11.04.2021
430 Rain 34 1011 100 10000 4.74 177 11:53 11.04.2021
431 Clouds 33 1009 64 10000 0.45 197 11:33 11.04.2021
432 Clouds 32 1009 64 10000 4.38 166 10:56 11.04.2021
433 Clouds 33 1008 63 10000 4.38 166 10:38 11.04.2021
434 Clouds 33 1008 64 10000 3.53 161 10:20 11.04.2021
435 Clouds 33 1009 65 10000 3.53 161 09:38 11.04.2021
436 Clouds 34 1009 64 10000 3.05 157 09:20 11.04.2021
437 Clouds 34 1010 67 10000 3.09 176 08:38 11.04.2021
438 Rain 33 1011 66 10000 3.14 163 07:37 11.04.2021
439 Clouds 33 1011 58 10000 2.54 148 07:18 11.04.2021
440 Clouds 33 1012 66 10000 2.76 150 05:44 11.04.2021
441 Clouds 32 1013 67 10000 2.81 164 05:21 11.04.2021
442 Clouds 30 1013 70 10000 2.81 164 04:35 11.04.2021
443 Clouds 28 1012 74 10000 2.29 196 02:58 11.04.2021
444 Clouds 28 1010 76 10000 2.05 216 00:40 11.04.2021
445 Clouds 28 1010 76 10000 2.05 216 00:40 11.04.2021
446 Clouds 28 1010 76 10000 2.05 216 00:40 11.04.2021
447 Clouds 28 1009 76 10000 2.49 205 23:52 10.04.2021
448 Clouds 28 1009 75 10000 2.49 205 23:30 10.04.2021
449 Clouds 28 1009 77 10000 2.77 207 22:51 10.04.2021
450 Clouds 28 1009 78 10000 3.1 196 22:25 10.04.2021
451 Clouds 29 1009 78 10000 3.1 196 21:51 10.04.2021
452 Clouds 29 1010 76 10000 3.4 188 21:23 10.04.2021
453 Clouds 29 1010 74 10000 3.4 188 20:53 10.04.2021
454 Clouds 29 1010 74 10000 3.4 188 20:32 10.04.2021
455 Clouds 29 1010 75 10000 4.36 181 19:46 10.04.2021
456 Clouds 29 1010 75 10000 4.36 181 19:46 10.04.2021
457 Clouds 29 1010 75 10000 4.56 179 19:27 10.04.2021
458 Clouds 29 1011 74 10000 4.56 179 18:54 10.04.2021
459 Clouds 29 1011 74 10000 4.56 179 18:35 10.04.2021
460 Clouds 29 1011 73 10000 4.65 179 17:54 10.04.2021
461 Clouds 29 1011 73 10000 4.65 179 17:34 10.04.2021
462 Clouds 30 1010 72 10000 4.51 173 16:31 10.04.2021
463 Clouds 29 1010 72 10000 4.47 174 15:56 10.04.2021
464 Clouds 29 1010 71 10000 4.47 174 15:35 10.04.2021
465 Clouds 30 1009 70 10000 4.39 173 14:50 10.04.2021
466 Clouds 30 1008 70 10000 4.19 180 14:25 10.04.2021
467 Clouds 30 1008 69 10000 4.27 178 13:47 10.04.2021
468 Clouds 30 1008 68 10000 4.61 187 13:28 10.04.2021
469 Clouds 31 1007 67 10000 4.61 187 12:37 10.04.2021
470 Clouds 32 1008 62 10000 3.09 240 11:52 10.04.2021
471 Clouds 33 1008 66 10000 4.12 230 11:28 10.04.2021
472 Clouds 33 1008 62 10000 5.14 240 10:57 10.04.2021
473 Clouds 34 1009 62 10000 5.14 240 10:39 10.04.2021
474 Clouds 35 1007 61 10000 4.6 193 10:21 10.04.2021
475 Clouds 36 1008 59 10000 4.32 184 09:29 10.04.2021
476 Clouds 35 1009 58 10000 4.32 184 08:58 10.04.2021
477 Clouds 35 1009 60 10000 4.35 173 08:31 10.04.2021
478 Rain 35 1010 56 10000 3.7 157 07:52 10.04.2021
479 Clouds 33 1010 55 10000 3.37 148 07:25 10.04.2021
480 Clouds 33 1011 57 10000 3.14 146 06:27 10.04.2021
481 Clouds 31 1011 70 10000 2.71 149 04:49 10.04.2021
482 Clouds 30 1010 77 10000 1.92 189 02:57 10.04.2021
483 Clouds 30 1010 77 10000 1.92 189 02:35 10.04.2021
484 Clouds 29 1009 78 10000 2.36 195 00:53 10.04.2021
485 Clouds 29 1008 78 10000 2.41 198 00:29 10.04.2021
486 Clouds 29 1007 77 10000 2.41 198 23:44 09.04.2021
487 Clouds 29 1007 78 10000 2.62 189 23:19 09.04.2021
488 Clouds 29 1007 78 10000 2.62 189 22:42 09.04.2021
489 Clouds 29 1007 78 10000 3.09 192 22:24 09.04.2021
490 Clouds 29 1007 76 10000 3.09 192 21:39 09.04.2021
491 Clouds 30 1008 76 10000 3.57 191 21:19 09.04.2021
492 Clouds 30 1008 75 10000 3.57 191 20:45 09.04.2021
493 Clouds 29 1008 75 10000 3.64 193 20:23 09.04.2021
494 Clouds 30 1009 75 10000 3.64 193 19:57 09.04.2021
495 Clouds 30 1009 75 10000 3.64 193 19:38 09.04.2021
496 Clouds 31 1009 74 10000 4.01 196 19:20 09.04.2021
497 Clouds 31 1009 74 10000 4.01 196 18:41 09.04.2021
498 Clouds 30 1009 72 10000 4.85 207 18:19 09.04.2021
499 Clouds 30 1009 70 10000 4.85 207 17:41 09.04.2021
500 Clouds 31 1009 67 10000 4.79 202 16:57 09.04.2021
501 Clouds 31 1008 66 10000 4.79 202 16:38 09.04.2021
502 Clouds 31 1008 65 10000 4.35 196 15:57 09.04.2021
503 Clouds 31 1008 65 10000 4.35 196 15:38 09.04.2021
504 Clouds 31 1008 63 10000 3.8 192 15:19 09.04.2021
505 Clouds 31 1007 63 10000 3.8 192 14:41 09.04.2021
506 Rain 31 1007 66 10000 3.09 120 13:54 09.04.2021
507 Clouds 31 1007 66 10000 3.09 120 13:26 09.04.2021
508 Clouds 31 1007 66 10000 2.57 130 12:58 09.04.2021
509 Clouds 31 1007 70 10000 3.6 120 12:37 09.04.2021
510 Rain 32 1007 70 10000 3.09 110 11:47 09.04.2021
511 Rain 30 1007 74 10000 4.63 100 11:23 09.04.2021
512 Rain 30 1007 89 10000 3.6 200 10:48 09.04.2021
513 Rain 32 1006 55 10000 0.45 239 10:30 09.04.2021
514 Clouds 32 1008 78 1000 11.83 320 09:50 09.04.2021
515 Clouds 34 1006 54 10000 3.89 202 09:24 09.04.2021
516 Clouds 34 1007 56 10000 3.89 202 08:52 09.04.2021
517 Clouds 34 1009 57 10000 0.45 226 07:39 09.04.2021
518 Clouds 33 1009 59 10000 3.05 206 06:56 09.04.2021
519 Clouds 32 1010 63 10000 2.81 204 05:56 09.04.2021
520 Clouds 30 1010 74 10000 2 204 03:53 09.04.2021
521 Clouds 29 1008 81 10000 1.62 223 01:48 09.04.2021
522 Clouds 28 1007 79 10000 2.19 216 00:37 09.04.2021
523 Clouds 27 1008 89 10000 2.57 110 00:19 09.04.2021
524 Clouds 28 1007 78 10000 2.88 201 23:24 08.04.2021
525 Clouds 28 1006 78 10000 2.88 201 22:43 08.04.2021
526 Clouds 27 1007 78 10000 2.86 190 22:22 08.04.2021
527 Clouds 27 1007 77 10000 2.86 190 21:55 08.04.2021
528 Clouds 27 1007 77 10000 2.86 190 21:55 08.04.2021
529 Clouds 27 1007 77 10000 2.86 190 21:55 08.04.2021
530 Clouds 27 1006 78 10000 2.86 190 21:36 08.04.2021
531 Clouds 29 1007 78 10000 3.07 189 21:18 08.04.2021
532 Clouds 27 1008 83 10000 3.09 210 20:49 08.04.2021
533 Clouds 27 1009 89 10000 2.06 200 20:26 08.04.2021
534 Clouds 28 1008 77 10000 2.48 234 19:45 08.04.2021
535 Clouds 28 1008 76 10000 3.61 263 19:20 08.04.2021
536 Clouds 28 1008 75 10000 3.61 263 18:46 08.04.2021
537 Clouds 28 1008 76 10000 3.94 248 18:21 08.04.2021
538 Clouds 28 1009 75 10000 3.94 248 17:49 08.04.2021
539 Clouds 30 1008 75 10000 4.78 226 17:24 08.04.2021
540 Clouds 28 1008 75 10000 4.78 226 16:51 08.04.2021
541 Clouds 31 1008 75 10000 4.78 226 16:31 08.04.2021
542 Clouds 31 1008 75 10000 4.44 193 15:48 08.04.2021
543 Clear 30 1008 74 10000 3.96 169 15:28 08.04.2021
544 Clear 30 1007 72 10000 3.96 169 14:46 08.04.2021
545 Clouds 31 1007 71 10000 4.52 165 14:27 08.04.2021
546 Clouds 30 1006 70 10000 4.2 176 13:57 08.04.2021
547 Clouds 30 1006 69 10000 4.2 176 13:39 08.04.2021
548 Clouds 31 1007 62 10000 4.12 180 13:21 08.04.2021
549 Clouds 31 1006 65 10000 4.56 187 12:38 08.04.2021
550 Clouds 32 1006 58 10000 4.63 170 12:18 08.04.2021
551 Clouds 33 1006 55 10000 4.63 190 11:42 08.04.2021
552 Clouds 34 1005 64 10000 4.68 182 10:58 08.04.2021
553 Clouds 33 1005 63 10000 4.68 182 10:32 08.04.2021
554 Clouds 34 1007 46 10000 2.57 280 09:59 08.04.2021
555 Clouds 34 1008 46 10000 2.06 270 09:40 08.04.2021
556 Clouds 34 1009 52 10000 2.57 270 08:45 08.04.2021
557 Clouds 33 1010 52 10000 3.6 260 08:27 08.04.2021
558 Rain 33 1011 55 10000 1.54 300 07:57 08.04.2021
559 Clouds 33 1011 55 10000 1.54 300 07:27 08.04.2021
560 Mist 29 1012 78 5000 1 241 03:31 08.04.2021
561 Clouds 28 1009 77 10000 1.87 261 00:54 08.04.2021
562 Clouds 29 1008 76 10000 2.01 245 23:57 07.04.2021
563 Clouds 29 1008 76 10000 2.01 245 23:38 07.04.2021
564 Rain 29 1008 76 10000 2.27 234 23:19 07.04.2021
565 Clouds 26 1008 75 10000 2.27 234 22:43 07.04.2021
566 Clouds 26 1008 76 10000 2.71 243 22:25 07.04.2021
567 Clouds 26 1008 79 10000 2.71 243 21:44 07.04.2021
568 Clouds 27 1009 79 10000 3.99 248 21:22 07.04.2021
569 Clouds 27 1009 79 10000 3.29 249 20:43 07.04.2021
570 Clouds 27 1009 78 10000 4.1 248 20:21 07.04.2021
571 Clouds 28 1010 77 10000 4.1 248 19:43 07.04.2021
572 Clouds 28 1010 76 10000 4.56 240 19:25 07.04.2021
573 Clouds 28 1010 75 10000 4.56 240 18:47 07.04.2021
574 Clouds 28 1010 74 10000 4.4 234 18:19 07.04.2021
575 Clouds 27 1011 73 10000 4.4 234 17:54 07.04.2021
576 Clouds 28 1011 73 10000 4.4 234 17:36 07.04.2021
577 Clouds 29 1010 71 10000 4.13 209 16:49 07.04.2021
578 Clouds 29 1010 70 10000 4.2 199 16:23 07.04.2021
579 Clouds 29 1010 70 10000 4.2 199 15:57 07.04.2021
580 Clouds 29 1010 70 10000 4.2 199 15:38 07.04.2021
581 Clouds 29 1009 68 10000 4.49 187 14:56 07.04.2021
582 Clouds 31 1008 67 10000 2.97 152 14:29 07.04.2021
583 Clouds 29 1008 65 10000 2.3 136 13:49 07.04.2021
584 Clouds 31 1008 67 10000 1.66 123 13:23 07.04.2021
585 Clouds 31 1008 67 10000 1.66 123 13:23 07.04.2021
586 Clouds 31 1008 65 10000 1.66 123 12:50 07.04.2021
587 Clouds 32 1007 61 10000 0.89 97 12:24 07.04.2021
588 Clouds 32 1007 60 10000 1.69 139 11:48 07.04.2021
589 Clouds 32 1007 61 10000 2.2 145 11:25 07.04.2021
590 Rain 31 1007 61 10000 2.2 145 10:52 07.04.2021
591 Clouds 32 1008 62 10000 1.22 137 09:57 07.04.2021
592 Clouds 32 1008 63 10000 1.22 137 09:38 07.04.2021
593 Clouds 32 1008 62 10000 0.94 330 09:19 07.04.2021
594 Clouds 32 1009 63 10000 0.39 231 08:33 07.04.2021
595 Clouds 32 1009 63 10000 0.94 330 08:33 07.04.2021
596 Clouds 31 1010 64 10000 1.68 319 07:58 07.04.2021
597 Clouds 31 1011 66 10000 1.68 319 07:30 07.04.2021
598 Clouds 31 1011 66 10000 2.68 326 06:59 07.04.2021
599 Clouds 31 1012 67 10000 3.04 327 06:21 07.04.2021
600 Clouds 28 1013 78 10000 3.51 346 03:54 07.04.2021
601 Clouds 27 1010 85 10000 2.01 333 23:52 06.04.2021
602 Clouds 27 1010 85 10000 2.01 333 23:52 06.04.2021
603 Clouds 27 1010 85 10000 2.22 309 23:23 06.04.2021
604 Clouds 27 1010 84 10000 2.22 309 22:59 06.04.2021
605 Clouds 27 1010 84 10000 1.61 270 22:22 06.04.2021
606 Clouds 27 1010 84 10000 1.61 270 21:59 06.04.2021
607 Clouds 29 1010 84 10000 1.61 270 21:39 06.04.2021
608 Clouds 29 1010 83 10000 1.95 214 21:21 06.04.2021
609 Clouds 29 1010 83 10000 1.95 214 20:51 06.04.2021
610 Clouds 29 1010 83 10000 3.15 186 20:21 06.04.2021
611 Clouds 29 1011 83 10000 3.15 186 19:51 06.04.2021
612 Clouds 29 1011 83 10000 3.15 186 19:33 06.04.2021
613 Clouds 29 1011 83 8321 3.34 178 18:49 06.04.2021
614 Clouds 29 1011 82 8321 3.34 178 18:31 06.04.2021
615 Rain 29 1012 83 10000 3.44 180 17:53 06.04.2021
616 Rain 29 1012 82 10000 3.44 180 17:30 06.04.2021
617 Clouds 29 1012 82 10000 3.68 184 16:59 06.04.2021
618 Clouds 29 1012 82 10000 3.68 184 16:39 06.04.2021
619 Clouds 30 1011 81 10000 4.38 175 15:44 06.04.2021
620 Clouds 30 1011 80 10000 4.97 174 15:22 06.04.2021
621 Clouds 30 1010 80 10000 4.97 174 14:39 06.04.2021
622 Clouds 30 1010 79 10000 5.2 175 14:18 06.04.2021
623 Clouds 30 1009 77 10000 4.91 165 13:43 06.04.2021
624 Clouds 30 1009 76 10000 6.6 171 13:23 06.04.2021
625 Clouds 30 1009 74 10000 3.09 200 12:42 06.04.2021
626 Clouds 32 1009 74 10000 3.09 200 12:22 06.04.2021
627 Clouds 30 1009 79 10000 2.57 220 11:51 06.04.2021
628 Clouds 30 1009 79 10000 2.57 230 11:21 06.04.2021
629 Clouds 30 1009 89 10000 3.09 250 10:47 06.04.2021
630 Clouds 29 1010 94 10000 2.06 300 10:28 06.04.2021
631 Clouds 29 1010 89 10000 3.6 270 09:49 06.04.2021
632 Clouds 29 1011 94 8000 3.09 300 09:30 06.04.2021
633 Rain 26 1011 94 7000 3.6 230 08:45 06.04.2021
634 Rain 26 1011 94 7000 4.63 220 08:19 06.04.2021
635 Rain 32 1012 66 8000 2.06 160 06:55 06.04.2021
636 Rain 31 1013 66 6000 2.06 100 05:41 06.04.2021
637 Clouds 29 1011 80 10000 1.73 194 02:57 06.04.2021
638 Clouds 28 1009 83 10000 1.18 196 00:45 06.04.2021
639 Clouds 28 1008 83 10000 1.76 189 00:21 06.04.2021
640 Clouds 28 1008 82 10000 1.76 189 23:43 05.04.2021
641 Clouds 28 1008 82 10000 1.99 186 23:20 05.04.2021
642 Clouds 28 1008 82 10000 1.99 186 22:48 05.04.2021
643 Clouds 28 1008 82 10000 2.38 185 22:26 05.04.2021
644 Clouds 28 1008 82 10000 2.38 185 21:44 05.04.2021
645 Clouds 28 1008 82 10000 2.87 182 21:22 05.04.2021
646 Clouds 28 1008 81 10000 2.87 182 20:45 05.04.2021
647 Clouds 28 1009 81 10000 3.41 173 20:26 05.04.2021
648 Clouds 28 1009 81 10000 3.41 173 19:43 05.04.2021
649 Clouds 28 1009 81 10000 3.79 171 19:23 05.04.2021
650 Clouds 28 1010 80 10000 3.79 171 18:54 05.04.2021
651 Clouds 29 1010 80 10000 3.79 171 18:36 05.04.2021
652 Clouds 29 1010 80 10000 3.89 167 18:18 05.04.2021
653 Clouds 29 1010 80 10000 3.89 167 17:42 05.04.2021
654 Clouds 29 1010 80 10000 3.83 168 17:19 05.04.2021
655 Clouds 29 1010 79 10000 3.83 168 16:43 05.04.2021
656 Clouds 28 1009 79 10000 3.46 159 16:20 05.04.2021
657 Clouds 28 1009 79 10000 3.46 159 15:52 05.04.2021
658 Clouds 29 1009 79 10000 4.41 196 15:27 05.04.2021
659 Clouds 30 1008 78 10000 4.41 196 14:47 05.04.2021
660 Clouds 27 1008 78 10000 4.19 183 14:27 05.04.2021
661 Clouds 28 1008 76 10000 1.81 186 13:31 05.04.2021
662 Clouds 28 1007 76 10000 3.9 175 12:48 05.04.2021
663 Clouds 28 1007 74 9524 6.47 173 12:26 05.04.2021
664 Clouds 28 1007 74 9524 6.47 173 11:55 05.04.2021
665 Rain 29 1006 76 9524 6.47 173 11:33 05.04.2021
666 Clouds 30 1007 77 10000 0.45 187 10:59 05.04.2021
667 Clouds 30 1007 78 10000 6.55 191 10:40 05.04.2021
668 Rain 30 1009 78 6000 4.12 290 10:19 05.04.2021
669 Rain 30 1009 78 6000 4.12 300 09:45 05.04.2021
670 Rain 30 1010 78 6000 3.6 300 09:22 05.04.2021
671 Rain 31 1011 78 6000 3.6 260 08:40 05.04.2021
672 Rain 30 1011 78 6000 3.6 260 08:20 05.04.2021
673 Rain 31 1012 78 6000 3.6 270 07:35 05.04.2021
674 Rain 28 1011 77 10000 3.2 6 04:25 05.04.2021
675 Clouds 25 1010 94 7000 2.57 20 01:35 05.04.2021
676 Clouds 25 1010 94 7000 2.57 30 00:29 05.04.2021
677 Clouds 25 1008 80 10000 3.29 347 23:43 04.04.2021
678 Clouds 25 1008 79 10000 3.42 354 23:20 04.04.2021
679 Clouds 25 1008 78 10000 3.42 354 22:50 04.04.2021
680 Clouds 25 1008 78 10000 3.71 352 22:28 04.04.2021
681 Clouds 25 1008 77 10000 3.58 358 21:25 04.04.2021
682 Clouds 25 1008 76 10000 3.58 358 20:54 04.04.2021
683 Clouds 27 1008 76 10000 1.2 172 20:29 04.04.2021
684 Clouds 29 1009 76 10000 1.2 172 19:43 04.04.2021
685 Clouds 29 1009 75 10000 1.4 167 19:22 04.04.2021
686 Clouds 29 1010 74 10000 1.4 167 18:57 04.04.2021
687 Clouds 29 1010 73 10000 1.4 167 18:38 04.04.2021
688 Clouds 29 1010 74 10000 1.46 172 18:20 04.04.2021
689 Clouds 29 1010 75 10000 1.46 172 17:37 04.04.2021
690 Clouds 29 1010 75 10000 1.46 172 17:37 04.04.2021
691 Clouds 29 1010 75 10000 1.96 174 17:18 04.04.2021
692 Clouds 29 1010 76 10000 1.96 174 16:41 04.04.2021
693 Clouds 29 1009 76 10000 2.72 187 15:58 04.04.2021
694 Clouds 29 1009 76 10000 2.72 187 15:33 04.04.2021
695 Clouds 29 1008 76 10000 4.17 170 14:43 04.04.2021
696 Clouds 29 1008 76 10000 4.77 172 14:25 04.04.2021
697 Clouds 30 1007 73 10000 5.44 163 13:29 04.04.2021
698 Clouds 30 1006 71 10000 5.44 163 12:53 04.04.2021
699 Clouds 30 1006 70 10000 5.44 163 12:32 04.04.2021
700 Clouds 30 1005 69 10000 5.61 162 11:52 04.04.2021
701 Clouds 30 1005 67 10000 5.61 162 11:31 04.04.2021
702 Clouds 30 1005 70 10000 6.28 156 10:56 04.04.2021
703 Rain 30 1005 70 10000 6.28 156 10:32 04.04.2021
704 Rain 30 1005 74 10000 8.21 177 09:52 04.04.2021
705 Rain 31 1008 100 8000 5.14 190 09:24 04.04.2021
706 Rain 31 1009 100 1500 8.75 190 08:50 04.04.2021
707 Rain 29 1009 66 10000 6.69 170 08:32 04.04.2021
708 Rain 29 1009 66 10000 6.69 170 08:32 04.04.2021
709 Rain 31 1007 68 10000 6.29 151 07:22 04.04.2021
710 Rain 31 1008 67 10000 6.29 151 06:34 04.04.2021
711 Clouds 30 1008 73 10000 3.65 173 04:34 04.04.2021
712 Clouds 29 1007 83 10000 3.09 120 01:21 04.04.2021
713 Clouds 29 1006 84 10000 1.54 130 00:19 04.04.2021
714 Clouds 29 1005 74 10000 4.08 188 23:47 03.04.2021
715 Clouds 29 1005 74 10000 4.49 192 23:18 03.04.2021
716 Clouds 29 1005 74 10000 4.49 192 22:48 03.04.2021
717 Clouds 29 1005 75 10000 5.41 190 22:19 03.04.2021
718 Clouds 29 1005 76 10000 5.41 190 21:47 03.04.2021
719 Clouds 29 1007 79 10000 3.09 160 21:23 03.04.2021
720 Clouds 29 1007 74 10000 2.06 160 20:48 03.04.2021
721 Clouds 29 1007 74 10000 2.06 110 20:26 03.04.2021
722 Clouds 29 1006 75 10000 5.91 173 19:48 03.04.2021
723 Clouds 30 1006 73 10000 6.55 171 19:24 03.04.2021
724 Rain 30 1006 68 10000 6.55 171 18:46 03.04.2021
725 Rain 30 1006 71 10000 6.68 169 18:23 03.04.2021
726 Rain 30 1006 68 10000 6.68 169 17:51 03.04.2021
727 Clouds 31 1006 67 10000 6.34 171 17:21 03.04.2021
728 Rain 31 1006 67 10000 6.34 171 16:49 03.04.2021
729 Clouds 31 1006 67 10000 5.75 179 16:21 03.04.2021
730 Clouds 31 1005 67 10000 5.75 179 15:46 03.04.2021
731 Clouds 31 1005 67 10000 5.12 190 15:22 03.04.2021
732 Clouds 31 1003 67 10000 5.12 190 14:44 03.04.2021
733 Rain 31 1003 67 10000 6.94 186 14:22 03.04.2021
734 Clouds 31 1003 65 10000 6.94 186 13:49 03.04.2021
735 Clouds 32 1003 64 10000 7.15 187 13:23 03.04.2021
736 Clouds 32 1003 64 10000 7.15 187 12:52 03.04.2021
737 Clouds 32 1003 63 10000 6.83 190 12:21 03.04.2021
738 Clouds 33 1002 64 10000 6.83 190 11:39 03.04.2021
739 Clouds 34 1003 62 10000 0.45 258 10:56 03.04.2021
740 Rain 33 1003 62 10000 7.51 186 10:36 03.04.2021
741 Clouds 35 1004 52 10000 3.09 170 10:18 03.04.2021
742 Clouds 35 1005 47 10000 3.09 180 09:28 03.04.2021
743 Clouds 35 1005 49 10000 3.6 170 08:54 03.04.2021
744 Clouds 36 1006 52 10000 3.09 160 08:28 03.04.2021
745 Clouds 34 1007 55 10000 4.12 170 07:29 03.04.2021
746 Clouds 34 1007 63 10000 5.33 174 06:39 03.04.2021
747 Clear 31 1007 76 10000 3.36 154 03:53 03.04.2021
748 Clear 31 1006 79 10000 3.44 149 02:51 03.04.2021
749 Clouds 28 1006 80 10000 3.48 145 02:25 03.04.2021
750 Clouds 29 1005 89 8000 3.09 110 00:21 03.04.2021
751 Clouds 29 1004 78 10000 3.18 159 23:49 02.04.2021
752 Clouds 29 1004 78 10000 3.28 161 23:24 02.04.2021
753 Clouds 29 1004 77 10000 3.28 161 22:53 02.04.2021
754 Clouds 29 1004 78 10000 3.28 161 22:34 02.04.2021
755 Clouds 29 1004 77 10000 2.94 169 21:46 02.04.2021
756 Clouds 29 1004 77 10000 3.42 181 21:24 02.04.2021
757 Clouds 29 1004 76 10000 3.42 181 20:52 02.04.2021
758 Clouds 29 1005 75 10000 3.74 189 20:33 02.04.2021
759 Clouds 29 1005 74 10000 4.94 190 19:58 02.04.2021
760 Clouds 29 1006 74 10000 4.94 190 19:39 02.04.2021
761 Clouds 29 1006 73 10000 5.21 191 19:20 02.04.2021
762 Clouds 29 1006 73 10000 5.21 191 18:39 02.04.2021
763 Clouds 30 1007 79 10000 4.63 190 18:20 02.04.2021
764 Clouds 30 1007 79 10000 5.14 200 17:37 02.04.2021
765 Clouds 30 1007 74 10000 3.6 180 16:48 02.04.2021
766 Clouds 30 1006 74 10000 4.12 200 16:22 02.04.2021
767 Clouds 31 1006 58 10000 4.12 180 15:33 02.04.2021
768 Clouds 31 1005 67 10000 7.15 178 14:55 02.04.2021
769 Clouds 31 1004 66 10000 7.15 178 14:31 02.04.2021
770 Clouds 31 1004 66 10000 7.15 178 14:31 02.04.2021
771 Clouds 32 1003 61 10000 7.52 175 13:44 02.04.2021
772 Clouds 32 1003 59 10000 7.07 176 13:23 02.04.2021
773 Clouds 33 1002 57 10000 0.45 257 12:41 02.04.2021
774 Clouds 34 1002 53 10000 6.32 172 12:20 02.04.2021
775 Clouds 34 1002 52 10000 6.32 172 11:56 02.04.2021
776 Clouds 34 1002 52 10000 5.54 166 11:20 02.04.2021
777 Clouds 34 1002 50 10000 5.54 166 10:46 02.04.2021
778 Clouds 34 1003 50 10000 5.23 164 10:28 02.04.2021
779 Clouds 34 1003 52 10000 5.23 164 09:53 02.04.2021
780 Clouds 34 1003 52 10000 5.23 164 09:53 02.04.2021
781 Clouds 36 1004 54 10000 5.55 168 09:27 02.04.2021
782 Clouds 35 1004 55 10000 0.45 173 08:54 02.04.2021
783 Clouds 34 1005 54 10000 5.6 173 08:30 02.04.2021
784 Clouds 34 1006 56 10000 0.45 194 07:30 02.04.2021
785 Clouds 34 1006 56 10000 0.45 194 07:30 02.04.2021
786 Clouds 35 1006 58 10000 5.9 183 06:47 02.04.2021
787 Clouds 33 1007 63 10000 0.45 213 05:28 02.04.2021
788 Clouds 30 1006 73 10000 4.51 179 02:30 02.04.2021
789 Clouds 30 1005 76 10000 3.43 175 00:50 02.04.2021
790 Clouds 30 1005 76 10000 3.44 187 00:18 02.04.2021
791 Clouds 30 1004 77 10000 3.44 187 23:35 01.04.2021
792 Clouds 30 1004 77 10000 3.59 192 22:55 01.04.2021
793 Clouds 30 1004 77 10000 3.75 193 22:19 01.04.2021
794 Clouds 30 1004 77 10000 3.75 193 21:49 01.04.2021
795 Clouds 30 1004 77 10000 4.07 191 21:26 01.04.2021
796 Clouds 30 1004 76 10000 4.02 203 20:45 01.04.2021
797 Clouds 30 1004 76 10000 4.25 199 20:25 01.04.2021
798 Clouds 30 1004 75 10000 4.25 199 19:54 01.04.2021
799 Clouds 30 1005 75 10000 4.25 199 19:35 01.04.2021
800 Clouds 30 1005 73 10000 4.5 190 18:46 01.04.2021
801 Clouds 30 1005 72 10000 5.4 187 18:18 01.04.2021
802 Clouds 30 1005 72 10000 5.4 187 17:52 01.04.2021
803 Clouds 30 1005 72 10000 5.4 187 17:32 01.04.2021
804 Clouds 31 1005 71 10000 6.67 188 16:51 01.04.2021
805 Clouds 31 1005 70 10000 6.67 188 16:30 01.04.2021
806 Clouds 31 1004 69 10000 7.19 195 15:47 01.04.2021
807 Rain 31 1004 68 10000 7.75 193 15:20 01.04.2021
808 Clouds 31 1003 67 10000 7.75 193 14:45 01.04.2021
809 Clouds 31 1003 67 10000 7.75 193 14:45 01.04.2021
810 Rain 31 1003 67 10000 7.54 185 14:26 01.04.2021
811 Clouds 31 1002 66 10000 7.54 185 13:56 01.04.2021
812 Clouds 32 1002 66 10000 7.54 185 13:31 01.04.2021
813 Clouds 32 1002 61 10000 7.03 178 12:54 01.04.2021
814 Clouds 32 1002 61 10000 7.03 178 12:32 01.04.2021
815 Clouds 33 1001 55 10000 5.99 165 11:50 01.04.2021
816 Clouds 35 1001 54 10000 5.7 165 11:25 01.04.2021
817 Clouds 35 1002 55 10000 5.7 165 10:58 01.04.2021
818 Clouds 36 1002 57 10000 5.7 165 10:40 01.04.2021
819 Clouds 36 1002 58 10000 6.03 169 10:21 01.04.2021
820 Clouds 36 1003 56 10000 6.03 169 09:30 01.04.2021
821 Clouds 35 1004 61 10000 5.56 172 08:33 01.04.2021
822 Clouds 36 1004 62 10000 4.04 174 07:59 01.04.2021
823 Clouds 34 1005 62 10000 3.17 187 07:21 01.04.2021
824 Clouds 34 1006 63 10000 3.17 187 06:50 01.04.2021
825 Clouds 31 1007 72 10000 2.4 200 03:52 01.04.2021
826 Clouds 30 1005 79 10000 2.06 170 01:52 01.04.2021
827 Clouds 30 1003 73 10000 2.86 195 23:51 31.03.2021
828 Clouds 30 1003 73 10000 2.86 195 23:32 31.03.2021
829 Clouds 29 1004 84 10000 4.12 190 22:42 31.03.2021
830 Clouds 29 1004 84 10000 4.12 190 22:21 31.03.2021
831 Clouds 29 1004 84 10000 4.63 190 21:47 31.03.2021
832 Clouds 29 1003 76 10000 4.69 192 21:24 31.03.2021
833 Clouds 29 1003 76 10000 4.69 192 20:58 31.03.2021
834 Clouds 29 1003 76 10000 4.69 192 20:40 31.03.2021
835 Clouds 29 1003 75 10000 5.6 188 20:18 31.03.2021
836 Clouds 29 1003 75 10000 5.6 188 19:41 31.03.2021
837 Clouds 29 1003 74 10000 5.9 189 19:19 31.03.2021
838 Clouds 29 1004 73 10000 5.9 189 18:51 31.03.2021
839 Clouds 30 1004 72 10000 6.49 189 18:22 31.03.2021
840 Clouds 30 1004 69 10000 6.49 189 17:37 31.03.2021
841 Clouds 30 1004 70 10000 6.98 188 17:18 31.03.2021
842 Clouds 30 1003 70 10000 6.98 188 16:49 31.03.2021
843 Clouds 30 1003 71 10000 7.2 188 16:29 31.03.2021
844 Clouds 30 1003 71 10000 0.45 310 15:51 31.03.2021
845 Clouds 31 1003 66 10000 5.66 190 15:20 31.03.2021
846 Clouds 31 1003 66 10000 5.66 190 15:20 31.03.2021
847 Rain 31 1003 66 10000 6.69 200 14:46 31.03.2021
848 Rain 31 1002 67 10000 7.66 189 14:24 31.03.2021
849 Rain 31 1002 67 10000 7.66 189 14:24 31.03.2021
850 Clouds 31 1002 61 10000 7.66 189 13:43 31.03.2021
851 Rain 33 1001 57 10000 8.05 189 13:19 31.03.2021
852 Clouds 33 1001 55 10000 8.05 189 12:37 31.03.2021
853 Clouds 35 1001 52 10000 5.92 162 12:18 31.03.2021
854 Rain 36 1001 52 10000 6.12 161 11:22 31.03.2021
855 Rain 36 1001 51 10000 6.12 161 10:48 31.03.2021
856 Rain 36 1002 51 10000 5.94 164 10:26 31.03.2021
857 Rain 36 1002 50 10000 5.94 164 09:45 31.03.2021
858 Rain 36 1002 51 10000 5.13 169 09:26 31.03.2021
859 Rain 35 1003 52 10000 5.02 168 08:41 31.03.2021
860 Rain 35 1003 53 10000 4.81 174 08:21 31.03.2021
861 Clouds 34 1004 58 10000 4.76 180 07:19 31.03.2021
862 Clouds 32 1006 68 10000 3.99 187 04:34 31.03.2021
863 Clouds 29 1005 79 10000 3.78 191 02:32 31.03.2021
864 Rain 30 1004 84 10000 2.06 170 00:54 31.03.2021
865 Rain 30 1004 84 10000 2.57 180 00:22 31.03.2021
866 Clouds 30 1003 76 10000 3.66 186 23:54 30.03.2021
867 Clouds 29 1003 84 10000 3.6 190 23:19 30.03.2021
868 Clouds 29 1004 84 10000 3.6 190 22:47 30.03.2021
869 Clouds 29 1004 84 10000 3.6 190 22:29 30.03.2021
870 Clouds 29 1004 84 10000 3.6 190 21:55 30.03.2021
871 Clouds 29 1004 84 10000 3.09 190 21:24 30.03.2021
872 Rain 29 1004 84 10000 3.09 180 20:58 30.03.2021
873 Clouds 29 1005 84 10000 2.57 180 20:30 30.03.2021
874 Clouds 29 1005 84 10000 4.63 190 19:52 30.03.2021
875 Clouds 29 1005 84 10000 3.6 190 19:29 30.03.2021
876 Clouds 29 1004 76 10000 4.65 196 18:47 30.03.2021
877 Clouds 30 1005 79 10000 4.63 190 18:24 30.03.2021
878 Clouds 30 1005 79 10000 4.63 190 17:42 30.03.2021
879 Clouds 30 1005 79 10000 4.63 190 17:24 30.03.2021
880 Clouds 29 1004 73 10000 4.74 194 16:46 30.03.2021
881 Clouds 29 1004 73 10000 4.97 193 16:25 30.03.2021
882 Clouds 30 1003 71 10000 6.82 205 15:22 30.03.2021
883 Clouds 30 1003 70 10000 8.3 185 14:59 30.03.2021
884 Clouds 31 1003 69 10000 6.82 205 14:40 30.03.2021
885 Clouds 31 1002 67 10000 8.26 181 14:18 30.03.2021
886 Clouds 31 1002 64 10000 8.26 181 13:42 30.03.2021
887 Rain 32 1002 61 10000 7.8 187 12:58 30.03.2021
888 Rain 32 1002 60 10000 7.8 187 12:39 30.03.2021
889 Rain 33 1001 61 10000 5.88 169 12:19 30.03.2021
890 Rain 35 1001 57 10000 5.91 165 11:24 30.03.2021
891 Rain 35 1002 55 10000 0.45 233 10:59 30.03.2021
892 Rain 35 1002 56 10000 5.91 165 10:37 30.03.2021
893 Rain 35 1003 58 10000 6.03 172 10:18 30.03.2021
894 Rain 36 1003 58 10000 0.45 234 09:38 30.03.2021
895 Clouds 36 1005 44 10000 4.63 220 09:20 30.03.2021
896 Clouds 35 1004 61 10000 5.69 176 08:39 30.03.2021
897 Clouds 34 1005 60 10000 0.45 221 07:53 30.03.2021
898 Rain 34 1006 60 10000 0.45 245 07:23 30.03.2021
899 Clouds 33 1007 65 10000 5 187 06:19 30.03.2021
900 Rain 32 1007 68 10000 4.73 191 05:24 30.03.2021
901 Clouds 29 1005 79 10000 4.37 185 01:29 30.03.2021
902 Clear 29 1004 77 10000 4.69 180 23:51 29.03.2021
903 Clouds 29 1004 76 10000 5.18 178 22:55 29.03.2021
904 Clear 29 1004 76 10000 4.94 178 22:33 29.03.2021
905 Clouds 29 1004 75 10000 5.14 178 21:52 29.03.2021
906 Clouds 29 1004 75 10000 5.14 178 21:31 29.03.2021
907 Clouds 29 1004 75 10000 5.42 181 20:50 29.03.2021
908 Clear 29 1005 75 10000 5.43 190 20:28 29.03.2021
909 Clear 30 1005 75 10000 5.43 190 19:50 29.03.2021
910 Clear 29 1005 75 10000 6.08 194 19:27 29.03.2021
911 Clear 30 1005 74 10000 6.08 194 18:51 29.03.2021
912 Clear 30 1005 74 10000 6.52 193 18:27 29.03.2021
913 Rain 30 1006 73 10000 6.52 193 17:52 29.03.2021
914 Rain 30 1005 73 10000 6.52 193 17:32 29.03.2021
915 Clear 29 1005 72 10000 7.01 190 16:50 29.03.2021
916 Clear 30 1005 71 10000 7.36 193 16:24 29.03.2021
917 Clear 30 1004 69 10000 7.36 193 15:40 29.03.2021
918 Rain 30 1004 70 10000 5.66 190 15:22 29.03.2021
919 Clear 30 1003 67 10000 7.5 193 14:46 29.03.2021
920 Clear 31 1003 62 10000 7.54 188 13:56 29.03.2021
921 Clear 32 1003 60 10000 7.54 188 13:36 29.03.2021
922 Clouds 33 1003 46 10000 4.63 190 12:57 29.03.2021
923 Rain 33 1002 56 10000 6.29 178 12:39 29.03.2021
924 Clear 34 1002 52 10000 5.54 168 11:43 29.03.2021
925 Clear 35 1002 51 10000 5.8 173 11:25 29.03.2021
926 Rain 34 1003 50 10000 5.8 173 10:45 29.03.2021
927 Rain 35 1003 54 10000 5.82 174 10:19 29.03.2021
928 Rain 35 1004 55 10000 0.45 236 09:31 29.03.2021
929 Rain 35 1005 57 10000 5.73 176 08:34 29.03.2021
930 Clouds 34 1006 59 10000 5.63 179 07:54 29.03.2021
931 Clouds 35 1007 62 10000 5.42 183 06:57 29.03.2021
932 Clouds 34 1008 60 10000 4.72 184 06:22 29.03.2021
933 Clouds 30 1007 74 10000 5.07 188 02:33 29.03.2021
934 Clouds 29 1007 83 10000 3.09 170 00:30 29.03.2021
935 Clouds 29 1007 79 10000 3.6 170 23:58 28.03.2021
936 Clouds 28 1007 83 10000 2.57 170 23:25 28.03.2021
937 Clouds 28 1007 83 10000 2.06 180 22:48 28.03.2021
938 Clouds 29 1007 79 10000 3.6 180 22:28 28.03.2021
939 Clouds 29 1007 79 10000 3.6 180 21:47 28.03.2021
940 Clouds 29 1008 79 10000 4.12 180 21:25 28.03.2021
941 Clouds 29 1008 79 10000 5.14 190 20:54 28.03.2021
942 Clouds 29 1008 79 10000 5.14 190 20:35 28.03.2021
943 Clouds 29 1008 84 10000 4.63 190 20:00 28.03.2021
944 Clouds 29 1008 79 10000 4.63 190 19:41 28.03.2021
945 Clouds 29 1008 79 10000 4.63 190 19:20 28.03.2021
946 Clouds 29 1009 79 10000 5.14 200 18:49 28.03.2021
947 Clear 29 1008 73 10000 6.03 182 18:19 28.03.2021
948 Clear 29 1007 73 10000 6.03 182 17:37 28.03.2021
949 Clear 29 1007 72 10000 7.07 191 16:57 28.03.2021
950 Clear 29 1007 70 10000 7.21 194 16:29 28.03.2021
951 Clear 30 1006 69 10000 7.21 194 15:58 28.03.2021
952 Rain 30 1005 67 10000 6.67 187 15:24 28.03.2021
953 Rain 30 1005 65 10000 6.67 187 14:47 28.03.2021
954 Clouds 31 1005 66 10000 5.66 200 14:18 28.03.2021
955 Clouds 32 1004 61 10000 6.13 186 13:35 28.03.2021
956 Clouds 33 1003 60 10000 6.08 190 12:57 28.03.2021
957 Clouds 33 1004 49 10000 4.12 190 12:34 28.03.2021
958 Rain 34 1003 54 10000 6.04 190 11:55 28.03.2021
959 Rain 35 1004 44 10000 4.12 210 11:37 28.03.2021
960 Rain 34 1004 52 10000 0.45 204 10:49 28.03.2021
961 Rain 35 1004 52 10000 5.35 186 10:31 28.03.2021
962 Rain 35 1005 51 10000 0.45 212 09:51 28.03.2021
963 Rain 35 1005 52 10000 5.8 176 09:28 28.03.2021
964 Clouds 34 1005 53 10000 0.45 219 08:51 28.03.2021
965 Clouds 34 1006 54 10000 5.8 176 08:33 28.03.2021
966 Rain 35 1009 49 10000 3.6 170 07:41 28.03.2021
967 Clouds 34 1008 58 10000 5.45 176 06:20 28.03.2021
968 Clouds 32 1009 68 10000 5.09 188 03:50 28.03.2021
969 Clouds 29 1008 79 10000 3.6 190 00:36 28.03.2021
970 Clouds 29 1008 79 10000 3.09 180 23:53 27.03.2021
971 Clouds 29 1008 79 10000 3.09 190 23:34 27.03.2021
972 Clouds 28 1008 83 10000 3.6 200 22:40 27.03.2021
973 Clouds 28 1008 83 10000 3.6 200 22:21 27.03.2021
974 Clouds 29 1008 79 10000 4.12 190 21:42 27.03.2021
975 Clouds 29 1008 79 10000 4.12 190 21:21 27.03.2021
976 Clouds 29 1008 79 10000 4.63 200 20:56 27.03.2021
977 Clouds 28 1006 75 10000 5.53 190 20:37 27.03.2021
978 Clouds 28 1006 75 10000 5.53 190 20:37 27.03.2021
979 Clouds 29 1007 75 10000 6.13 190 19:47 27.03.2021
980 Clouds 29 1007 75 10000 6.76 190 19:27 27.03.2021
981 Clouds 29 1007 75 10000 6.76 190 18:58 27.03.2021
982 Clouds 30 1007 75 10000 6.76 190 18:39 27.03.2021
983 Clouds 29 1009 79 10000 5.66 190 18:20 27.03.2021
984 Clouds 29 1009 79 10000 5.14 190 17:29 27.03.2021
985 Clouds 29 1009 79 10000 5.14 200 16:57 27.03.2021
986 Clouds 29 1009 79 10000 5.14 200 16:38 27.03.2021
987 Clouds 29 1009 79 10000 5.14 200 16:19 27.03.2021
988 Clouds 29 1007 73 10000 6.21 175 15:38 27.03.2021
989 Clouds 29 1006 72 10000 5.99 171 14:55 27.03.2021
990 Clouds 30 1006 70 10000 5.93 181 14:23 27.03.2021
991 Clouds 30 1005 69 10000 5.93 181 13:37 27.03.2021
992 Clouds 30 1005 68 10000 6.46 195 13:19 27.03.2021
993 Clouds 32 1005 66 10000 6.46 195 12:39 27.03.2021
994 Clouds 33 1004 63 10000 6.53 195 11:48 27.03.2021
995 Clouds 34 1004 62 10000 6.53 195 11:30 27.03.2021
996 Clouds 34 1004 58 10000 5.94 193 10:48 27.03.2021
997 Clouds 34 1004 57 10000 5.15 191 10:29 27.03.2021
998 Rain 34 1005 54 10000 5.15 191 09:42 27.03.2021
999 Clouds 35 1005 54 10000 0.45 297 09:18 27.03.2021
1000 Clouds 34 1005 57 10000 5.2 179 08:36 27.03.2021
1001 Clouds 34 1006 57 10000 5.7 175 07:41 27.03.2021
1002 Clouds 34 1007 59 10000 5.96 183 06:58 27.03.2021
1003 Clouds 33 1008 60 10000 0.45 252 06:37 27.03.2021
1004 Clouds 33 1009 65 10000 5.33 186 04:41 27.03.2021
1005 Clouds 29 1008 77 10000 3.96 171 01:28 27.03.2021
1006 Clouds 29 1008 83 10000 2.57 160 00:32 27.03.2021
1007 Clouds 28 1008 83 10000 2.06 170 23:58 26.03.2021
1008 Clouds 28 1008 83 10000 2.57 180 23:23 26.03.2021
1009 Rain 28 1008 83 10000 2.06 190 22:37 26.03.2021
1010 Clouds 28 1008 83 10000 2.06 170 21:41 26.03.2021
1011 Clouds 28 1008 83 10000 2.06 170 21:22 26.03.2021
1012 Clouds 28 1008 83 10000 2.57 170 20:49 26.03.2021
1013 Clouds 29 1008 79 10000 2.57 170 20:30 26.03.2021
1014 Clouds 29 1008 79 10000 2.57 170 20:30 26.03.2021
1015 Clouds 29 1008 79 10000 2.57 170 20:30 26.03.2021
1016 Rain 29 1009 79 10000 3.6 170 19:50 26.03.2021
1017 Clouds 29 1009 79 10000 4.12 170 19:30 26.03.2021
1018 Clouds 29 1008 75 10000 5.47 188 18:47 26.03.2021
1019 Clouds 29 1008 74 10000 5.74 194 18:28 26.03.2021
1020 Clouds 29 1009 73 10000 5.74 194 17:50 26.03.2021
1021 Clouds 29 1009 73 10000 6.43 188 17:18 26.03.2021
1022 Clouds 29 1009 72 10000 6.43 188 16:34 26.03.2021
1023 Clouds 29 1009 72 10000 6.89 186 15:58 26.03.2021
1024 Clouds 29 1009 72 10000 6.89 186 15:58 26.03.2021
1025 Clouds 29 1009 71 10000 6.48 187 15:24 26.03.2021
1026 Clouds 30 1008 69 10000 6.48 187 14:39 26.03.2021
1027 Clouds 30 1007 67 10000 6.22 188 13:43 26.03.2021
1028 Clouds 31 1007 66 10000 6.36 189 13:21 26.03.2021
1029 Clouds 31 1006 64 10000 6.36 189 12:34 26.03.2021
1030 Clouds 33 1006 60 10000 6.42 192 11:40 26.03.2021
1031 Clouds 33 1005 60 10000 6.62 193 11:19 26.03.2021
1032 Clouds 33 1005 60 10000 6.62 193 10:41 26.03.2021
1033 Clouds 34 1005 57 10000 5.06 193 09:58 26.03.2021
1034 Clouds 34 1005 55 10000 5.06 193 09:40 26.03.2021
1035 Clouds 34 1005 55 10000 5.06 193 09:40 26.03.2021
1036 Clouds 35 1006 51 10000 4.66 184 08:45 26.03.2021
1037 Clouds 34 1006 52 10000 5.46 183 08:24 26.03.2021
1038 Clouds 34 1007 52 10000 5.46 183 07:42 26.03.2021
1039 Clouds 34 1008 53 10000 5.84 182 07:20 26.03.2021
1040 Clouds 34 1008 54 10000 5.84 182 06:54 26.03.2021
1041 Clouds 33 1009 57 10000 5.79 183 05:31 26.03.2021
1042 Clouds 30 1010 74 10000 5.21 182 02:32 26.03.2021
1043 Clouds 29 1008 78 10000 4.48 179 00:33 26.03.2021
1044 Clouds 29 1008 77 10000 4.05 173 23:46 25.03.2021
1045 Clouds 29 1007 77 10000 3.98 178 23:21 25.03.2021
1046 Clouds 29 1007 76 10000 3.98 178 22:39 25.03.2021
1047 Clouds 29 1007 75 10000 4.44 178 21:53 25.03.2021
1048 Clouds 29 1007 75 10000 4.44 178 21:35 25.03.2021
1049 Clouds 28 1007 75 10000 4.7 178 20:47 25.03.2021
1050 Clouds 28 1007 75 10000 4.83 180 20:28 25.03.2021
1051 Clouds 29 1009 79 9000 4.12 190 19:51 25.03.2021
1052 Clouds 29 1007 74 10000 4.83 180 19:32 25.03.2021
1053 Clouds 30 1008 73 10000 5.58 179 18:58 25.03.2021
1054 Clouds 30 1008 73 10000 5.58 179 18:39 25.03.2021
1055 Clouds 30 1009 73 10000 6.1 175 18:21 25.03.2021
1056 Clouds 29 1009 74 10000 6.1 175 17:37 25.03.2021
1057 Clouds 29 1010 84 9000 4.12 190 16:57 25.03.2021
1058 Clouds 29 1009 74 10000 6.37 168 16:34 25.03.2021
1059 Clouds 30 1008 74 10000 6.04 178 15:49 25.03.2021
1060 Clouds 30 1008 73 10000 5.66 186 15:26 25.03.2021
1061 Clouds 31 1007 71 10000 5.66 186 14:50 25.03.2021
1062 Clouds 31 1007 70 10000 5.84 186 14:30 25.03.2021
1063 Clouds 31 1006 66 10000 6.18 188 13:28 25.03.2021
1064 Clouds 31 1006 63 10000 6.23 193 12:46 25.03.2021
1065 Clouds 32 1006 64 10000 6.43 196 12:22 25.03.2021
1066 Clouds 32 1006 63 10000 6.43 196 12:22 25.03.2021
1067 Clouds 32 1006 62 10000 6.43 196 11:57 25.03.2021
1068 Clouds 32 1006 60 10000 6.43 196 11:39 25.03.2021
1069 Clouds 32 1005 59 10000 6.83 192 11:21 25.03.2021
1070 Clouds 32 1006 54 10000 6.83 192 10:45 25.03.2021
1071 Clouds 34 1006 53 10000 0.45 210 10:19 25.03.2021
1072 Clouds 33 1006 51 10000 0.45 194 09:47 25.03.2021
1073 Clouds 36 1006 50 10000 0.45 220 09:29 25.03.2021
1074 Clouds 34 1006 49 10000 0.45 218 08:36 25.03.2021
1075 Rain 36 1007 49 10000 6.04 190 07:43 25.03.2021
1076 Rain 35 1008 47 10000 5.14 182 06:43 25.03.2021
1077 Rain 35 1009 47 10000 4.89 174 06:23 25.03.2021
1078 Rain 34 1011 55 8000 3.09 150 04:51 25.03.2021
1079 Clouds 30 1010 72 10000 3.25 162 02:28 25.03.2021
1080 Clouds 28 1009 83 6000 2.57 110 00:19 25.03.2021
1081 Rain 28 1008 89 8000 2.57 60 23:40 24.03.2021
1082 Rain 28 1008 89 8000 2.57 60 23:19 24.03.2021
1083 Rain 29 1007 76 10000 2.04 187 22:39 24.03.2021
1084 Rain 29 1006 75 10000 2.2 195 21:51 24.03.2021
1085 Rain 29 1006 74 10000 2.2 195 21:33 24.03.2021
1086 Rain 29 1007 72 10000 2.54 185 20:59 24.03.2021
1087 Rain 29 1007 72 10000 2.54 185 20:41 24.03.2021
1088 Rain 29 1007 71 10000 3.1 177 20:18 24.03.2021
1089 Rain 29 1008 69 10000 3.1 177 19:33 24.03.2021
1090 Clouds 29 1008 68 10000 3.49 184 18:53 24.03.2021
1091 Clouds 29 1008 66 10000 3.8 197 18:24 24.03.2021
1092 Rain 30 1009 63 10000 3.8 197 17:53 24.03.2021
1093 Rain 30 1009 63 10000 3.8 197 17:32 24.03.2021
1094 Rain 30 1009 62 10000 4.2 193 16:57 24.03.2021
1095 Clouds 30 1010 62 10000 3.09 170 16:39 24.03.2021
1096 Clouds 30 1009 59 10000 4.45 187 16:19 24.03.2021
1097 Clouds 30 1009 61 10000 4.45 187 15:37 24.03.2021
1098 Clouds 31 1008 61 10000 5.37 182 15:18 24.03.2021
1099 Clouds 32 1007 54 10000 5.47 179 14:29 24.03.2021
1100 Rain 33 1007 52 10000 5.47 179 13:58 24.03.2021
1101 Clouds 32 1006 49 10000 5.12 188 13:28 24.03.2021
1102 Clouds 33 1006 49 10000 5.9 178 12:50 24.03.2021
1103 Clouds 33 1006 48 10000 5.9 178 12:30 24.03.2021
1104 Clouds 34 1005 45 10000 5.91 182 11:54 24.03.2021
1105 Clouds 35 1006 36 10000 3.6 120 11:36 24.03.2021
1106 Clouds 35 1006 36 10000 2.57 130 10:49 24.03.2021
1107 Rain 36 1006 36 10000 2.57 70 10:28 24.03.2021
1108 Rain 36 1007 36 10000 3.09 130 09:54 24.03.2021
1109 Clouds 36 1007 38 10000 1.54 270 09:29 24.03.2021
1110 Clouds 36 1008 38 10000 3.09 150 08:57 24.03.2021
1111 Clouds 36 1008 36 10000 3.6 40 08:34 24.03.2021
1112 Clouds 36 1009 38 10000 1.54 130 07:45 24.03.2021
1113 Clouds 35 1009 38 10000 2.57 20 07:18 24.03.2021
1114 Clouds 36 1008 42 10000 1.54 52 06:41 24.03.2021
1115 Clouds 28 1011 65 10000 2.06 340 01:26 24.03.2021
1116 Clouds 28 1010 69 10000 2.57 30 00:36 24.03.2021
1117 Clouds 29 1009 69 10000 1.54 20 23:43 23.03.2021
1118 Clouds 29 1008 60 10000 1.81 84 23:18 23.03.2021
1119 Clouds 29 1008 59 10000 1.81 84 22:44 23.03.2021
1120 Clouds 28 1009 65 10000 1.98 86 22:24 23.03.2021
1121 Clouds 29 1010 65 10000 1.98 86 21:41 23.03.2021
1122 Clouds 29 1010 65 10000 1.89 96 21:22 23.03.2021
1123 Clouds 29 1010 65 10000 1.89 96 20:43 23.03.2021
1124 Clouds 29 1010 65 10000 2.39 106 20:25 23.03.2021
1125 Clear 30 1009 57 10000 2.39 106 19:45 23.03.2021
1126 Rain 30 1009 57 10000 2.73 131 19:25 23.03.2021
1127 Clouds 30 1011 56 10000 2.73 131 18:43 23.03.2021
1128 Clouds 30 1011 57 10000 3.31 133 18:22 23.03.2021
1129 Clouds 30 1011 59 10000 3.31 133 17:45 23.03.2021
1130 Clouds 31 1011 61 10000 3.26 139 17:21 23.03.2021
1131 Clouds 31 1011 61 10000 3.26 139 17:21 23.03.2021
1132 Clouds 32 1011 64 10000 2.04 163 16:26 23.03.2021
1133 Rain 32 1011 61 10000 2.04 163 15:59 23.03.2021
1134 Rain 32 1011 60 10000 2.04 163 15:38 23.03.2021
1135 Rain 32 1011 51 10000 2.57 330 14:52 23.03.2021
1136 Rain 33 1011 48 10000 1.54 120 14:21 23.03.2021
1137 Rain 34 1010 48 10000 1.03 120 13:50 23.03.2021
1138 Rain 33 1010 48 10000 1.54 80 13:26 23.03.2021
1139 Clouds 33 1009 48 10000 2.57 70 12:47 23.03.2021
1140 Rain 32 1009 46 10000 1.03 80 12:27 23.03.2021
1141 Clouds 33 1009 46 10000 1.54 80 11:56 23.03.2021
1142 Clouds 33 1009 46 10000 2.06 0 11:36 23.03.2021
1143 Clouds 35 1009 46 10000 2.57 70 10:44 23.03.2021
1144 Clouds 36 1009 43 10000 3.09 110 10:22 23.03.2021
1145 Clouds 36 1009 46 10000 3.09 0 09:57 23.03.2021
1146 Clouds 34 1010 43 10000 3.09 0 09:29 23.03.2021
1147 Clouds 34 1010 46 10000 3.09 50 08:58 23.03.2021
1148 Clouds 34 1011 40 10000 3.09 90 08:39 23.03.2021
1149 Clouds 34 1011 40 10000 3.09 90 08:20 23.03.2021
1150 Clouds 33 1012 43 10000 4.12 10 07:28 23.03.2021
1151 Clouds 33 1013 43 10000 4.12 40 06:57 23.03.2021
1152 Clouds 33 1013 43 10000 4.12 40 06:57 23.03.2021
1153 Clouds 34 1013 100 10000 2.49 36 06:18 23.03.2021
1154 Clouds 29 1013 55 10000 0.45 66 03:20 23.03.2021
1155 Clouds 26 1012 69 10000 1.03 50 00:42 23.03.2021
1156 Clouds 27 1012 69 10000 1.54 20 23:24 22.03.2021
1157 Clouds 27 1010 67 10000 4.15 91 22:46 22.03.2021
1158 Clouds 27 1010 67 10000 2.33 66 22:22 22.03.2021
1159 Clouds 27 1010 67 10000 2.33 66 21:52 22.03.2021
1160 Clouds 27 1010 67 10000 2.33 66 21:52 22.03.2021
1161 Clouds 27 1010 68 10000 2.26 23 21:29 22.03.2021
1162 Clouds 29 1011 68 10000 2.26 23 20:54 22.03.2021
1163 Clouds 29 1011 68 10000 2.26 23 20:30 22.03.2021
1164 Clouds 29 1011 68 10000 2.13 357 19:59 22.03.2021
1165 Clouds 29 1011 68 10000 2.13 357 19:59 22.03.2021
1166 Clouds 29 1011 68 10000 2.13 357 19:40 22.03.2021
1167 Clouds 28 1013 69 10000 2.57 20 19:21 22.03.2021
1168 Clouds 28 1013 69 10000 2.57 20 19:21 22.03.2021
1169 Clouds 28 1012 69 10000 1.53 83 18:42 22.03.2021
1170 Clouds 29 1013 69 10000 3.6 20 18:23 22.03.2021
1171 Clouds 28 1012 66 10000 1.16 114 17:51 22.03.2021
1172 Clouds 29 1012 66 10000 1.81 142 17:23 22.03.2021
1173 Clouds 29 1012 66 10000 1.81 142 16:58 22.03.2021
1174 Clouds 29 1012 67 10000 1.81 142 16:39 22.03.2021
1175 Clouds 29 1012 68 10000 2.92 116 15:55 22.03.2021
1176 Clouds 29 1012 68 10000 2.92 116 15:37 22.03.2021
1177 Clouds 29 1011 67 10000 3.89 99 15:18 22.03.2021
1178 Clouds 29 1011 67 10000 3.89 99 15:18 22.03.2021
1179 Clouds 30 1011 67 10000 3.89 99 14:44 22.03.2021
1180 Clouds 29 1011 67 10000 3.9 88 14:24 22.03.2021
1181 Rain 30 1010 67 10000 3.9 88 13:38 22.03.2021
1182 Rain 29 1010 67 10000 2.87 70 13:18 22.03.2021
1183 Rain 30 1009 67 10000 2.11 88 12:41 22.03.2021
1184 Rain 32 1009 70 10000 3.04 96 12:19 22.03.2021
1185 Rain 30 1008 72 10000 3.04 96 11:44 22.03.2021
1186 Rain 33 1010 57 10000 3.64 101 11:21 22.03.2021
1187 Clouds 33 1010 62 9000 5.14 60 10:43 22.03.2021
1188 Clouds 32 1010 62 9000 5.14 60 10:24 22.03.2021
1189 Clouds 33 1010 58 9000 4.12 50 09:39 22.03.2021
1190 Clouds 33 1010 58 9000 4.12 50 09:20 22.03.2021
1191 Clouds 33 1012 55 9000 4.12 120 08:42 22.03.2021
1192 Clouds 33 1012 55 9000 4.12 120 08:24 22.03.2021
1193 Clouds 33 1012 55 9000 4.12 120 07:44 22.03.2021
1194 Clouds 33 1013 66 9000 4.12 80 06:52 22.03.2021
1195 Clouds 31 1014 78 9000 2.57 30 05:43 22.03.2021
1196 Rain 28 1011 71 10000 6.4 88 01:58 22.03.2021
1197 Clouds 30 1009 67 10000 3.05 107 00:27 22.03.2021
1198 Clouds 29 1008 66 10000 3.05 107 23:53 21.03.2021
1199 Clouds 28 1009 78 9000 3.09 150 23:19 21.03.2021
1200 Clouds 28 1008 67 10000 1.94 125 22:55 21.03.2021
1201 Clouds 28 1008 71 10000 1.53 136 21:56 21.03.2021
1202 Clouds 29 1008 72 10000 1.53 136 21:38 21.03.2021
1203 Rain 29 1009 84 10000 3.6 130 21:20 21.03.2021
1204 Clouds 29 1009 84 10000 2.57 60 20:41 21.03.2021
1205 Clear 29 1008 77 10000 4.65 165 20:22 21.03.2021
1206 Rain 29 1008 77 10000 4.65 165 19:50 21.03.2021
1207 Rain 29 1008 77 10000 4.65 165 19:50 21.03.2021
1208 Rain 29 1009 79 10000 2.06 150 19:21 21.03.2021
1209 Rain 29 1009 79 10000 1.54 170 18:46 21.03.2021
1210 Rain 29 1009 79 10000 1.03 150 18:27 21.03.2021
1211 Rain 29 1009 74 10000 3.09 190 17:45 21.03.2021
1212 Rain 29 1008 79 10000 2.57 190 17:19 21.03.2021
1213 Rain 29 1008 79 10000 3.09 210 16:54 21.03.2021
1214 Rain 30 1008 74 10000 3.6 200 16:29 21.03.2021
1215 Rain 30 1007 72 10000 5.06 175 15:55 21.03.2021
1216 Rain 30 1007 72 10000 5.06 175 15:36 21.03.2021
1217 Rain 30 1007 74 10000 3.6 190 15:18 21.03.2021
1218 Rain 30 1006 70 10000 5.1 177 14:41 21.03.2021
1219 Rain 30 1006 70 10000 5.14 177 14:23 21.03.2021
1220 Rain 30 1005 67 10000 5.14 177 13:52 21.03.2021
1221 Rain 31 1004 64 10000 5.05 180 12:46 21.03.2021
1222 Rain 32 1005 55 10000 2.57 190 12:27 21.03.2021
1223 Rain 32 1005 55 10000 2.57 190 12:27 21.03.2021
1224 Clouds 33 1004 52 10000 4.12 200 11:51 21.03.2021
1225 Clouds 34 1004 49 10000 4.63 210 11:27 21.03.2021
1226 Rain 34 1004 49 10000 4.63 200 10:55 21.03.2021
1227 Rain 34 1003 58 10000 4.37 180 10:35 21.03.2021
1228 Rain 35 1005 49 10000 4.12 190 09:58 21.03.2021
1229 Rain 35 1005 49 10000 4.63 200 09:38 21.03.2021
1230 Rain 35 1005 49 10000 4.63 200 09:19 21.03.2021
1231 Clouds 34 1007 55 10000 4.63 210 08:39 21.03.2021
1232 Clouds 35 1005 58 10000 4.81 166 08:20 21.03.2021
1233 Clouds 34 1006 59 10000 4.81 166 07:36 21.03.2021
1234 Clouds 35 1007 60 10000 4.55 167 06:50 21.03.2021
1235 Clouds 33 1009 65 10000 3.74 172 04:58 21.03.2021
1236 Clouds 33 1009 65 10000 3.74 172 04:58 21.03.2021
1237 Clouds 28 1008 83 10000 2.06 170 00:59 21.03.2021
1238 Clouds 28 1007 83 10000 2.06 160 00:39 21.03.2021
1239 Clouds 28 1007 83 10000 2.06 160 00:21 21.03.2021
1240 Clouds 28 1007 83 10000 2.06 160 23:47 20.03.2021
1241 Clouds 28 1007 83 10000 2.06 160 23:20 20.03.2021
1242 Clouds 28 1006 83 10000 2.06 190 22:47 20.03.2021
1243 Clouds 28 1006 83 10000 2.57 180 22:18 20.03.2021
1244 Clouds 28 1006 83 10000 2.06 190 21:44 20.03.2021
1245 Clouds 28 1006 83 10000 3.09 190 21:24 20.03.2021
1246 Clouds 28 1006 79 10000 4.63 190 20:42 20.03.2021
1247 Clouds 28 1006 79 10000 4.63 190 20:22 20.03.2021
1248 Clouds 28 1006 79 10000 4.63 190 19:47 20.03.2021
1249 Clouds 28 1007 79 10000 4.12 190 19:26 20.03.2021
1250 Clouds 29 1007 79 10000 5.14 190 18:48 20.03.2021
1251 Clouds 29 1007 79 10000 5.66 200 18:25 20.03.2021
1252 Clouds 29 1007 74 10000 3.09 190 17:53 20.03.2021
1253 Clouds 29 1007 79 10000 4.12 200 17:29 20.03.2021
1254 Rain 29 1007 79 10000 4.63 190 16:45 20.03.2021
1255 Rain 29 1007 79 10000 5.66 200 16:20 20.03.2021
1256 Rain 29 1006 79 10000 5.14 210 15:57 20.03.2021
1257 Rain 29 1006 70 10000 5.66 200 15:39 20.03.2021
1258 Rain 30 1006 70 10000 4.12 200 14:45 20.03.2021
1259 Rain 30 1005 68 10000 6.49 182 14:23 20.03.2021
1260 Clear 30 1005 64 10000 6.49 182 13:33 20.03.2021
1261 Clear 31 1004 60 10000 6.07 170 12:52 20.03.2021
1262 Clear 32 1004 57 10000 5.61 167 12:26 20.03.2021
1263 Clear 32 1003 55 10000 5.61 167 11:46 20.03.2021
1264 Clouds 33 1004 49 10000 5.14 210 11:28 20.03.2021
1265 Clouds 33 1004 46 10000 4.63 190 10:55 20.03.2021
1266 Clouds 34 1004 49 10000 4.63 200 10:28 20.03.2021
1267 Rain 35 1004 52 10000 4.12 170 09:56 20.03.2021
1268 Clouds 35 1004 49 10000 4.63 190 09:27 20.03.2021
1269 Clouds 35 1005 49 10000 5.14 210 08:56 20.03.2021
1270 Clouds 34 1004 57 10000 5.26 168 08:30 20.03.2021
1271 Clouds 34 1004 57 10000 5.26 168 08:30 20.03.2021
1272 Clear 35 1005 59 10000 5.35 175 07:52 20.03.2021
1273 Clear 34 1005 59 10000 5.35 175 07:31 20.03.2021
1274 Clouds 34 1006 59 10000 0.45 203 06:47 20.03.2021
1275 Clouds 34 1007 62 10000 4.62 175 06:19 20.03.2021
1276 Clouds 32 1008 67 10000 3.86 176 03:59 20.03.2021
1277 Clouds 32 1008 68 10000 3.86 176 03:41 20.03.2021
1278 Clouds 28 1007 83 9000 2.57 160 23:58 19.03.2021
1279 Clouds 29 1006 83 9000 2.57 150 23:30 19.03.2021
1280 Clouds 28 1006 83 9000 2.57 170 22:49 19.03.2021
1281 Clouds 28 1006 83 9000 2.06 170 22:28 19.03.2021
1282 Clouds 28 1006 83 9000 3.09 180 21:56 19.03.2021
1283 Clouds 28 1006 83 9000 3.6 180 21:22 19.03.2021
1284 Clouds 28 1006 83 9000 4.12 190 20:57 19.03.2021
1285 Clouds 28 1006 83 9000 5.14 190 20:39 19.03.2021
1286 Rain 28 1006 83 9000 5.14 190 20:21 19.03.2021
1287 Clear 28 1005 76 10000 5.1 185 19:43 19.03.2021
1288 Clear 28 1006 76 10000 5.73 185 19:19 19.03.2021
1289 Clear 28 1006 75 10000 5.39 190 18:40 19.03.2021
1290 Clear 29 1007 75 10000 5.89 195 18:18 19.03.2021
1291 Clear 29 1007 75 10000 5.89 195 18:18 19.03.2021
1292 Clear 29 1007 75 10000 0.45 244 17:51 19.03.2021
1293 Rain 29 1007 75 10000 6.2 197 17:27 19.03.2021
1294 Clear 29 1007 74 10000 6.2 197 16:52 19.03.2021
1295 Clear 29 1007 74 10000 6.59 190 16:27 19.03.2021
1296 Clear 29 1007 74 10000 6.59 190 15:46 19.03.2021
1297 Clear 29 1007 73 10000 6.86 184 15:22 19.03.2021
1298 Clear 29 1006 72 10000 6.86 184 14:45 19.03.2021
1299 Clear 29 1006 71 10000 6.59 178 14:26 19.03.2021
1300 Clouds 30 1006 66 10000 4.63 200 13:39 19.03.2021
1301 Clouds 32 1005 66 10000 6.32 167 12:50 19.03.2021
1302 Clouds 32 1005 63 10000 6.32 167 12:32 19.03.2021
1303 Clouds 33 1004 60 10000 6.08 165 11:40 19.03.2021
1304 Rain 33 1004 59 10000 5.64 167 10:53 19.03.2021
1305 Rain 33 1004 57 10000 5.64 167 10:30 19.03.2021
1306 Rain 33 1004 55 10000 5.71 167 09:49 19.03.2021
1307 Rain 34 1004 54 10000 5.71 167 09:30 19.03.2021
1308 Rain 35 1005 56 10000 5.69 165 08:54 19.03.2021
1309 Rain 34 1005 56 10000 5.69 165 08:36 19.03.2021
1310 Rain 34 1006 58 10000 5.39 165 07:54 19.03.2021
1311 Clouds 34 1006 58 10000 5.39 165 07:35 19.03.2021
1312 Clouds 34 1007 60 10000 0.45 267 06:43 19.03.2021
1313 Clouds 30 1009 72 10000 4.05 185 02:45 19.03.2021
1314 Clouds 29 1008 78 10000 3.38 180 00:52 19.03.2021
1315 Clouds 29 1007 78 10000 3.48 179 23:30 18.03.2021
1316 Clouds 29 1007 78 10000 3.48 179 23:30 18.03.2021
1317 Clear 29 1007 78 10000 3.87 186 22:58 18.03.2021
1318 Clear 29 1007 78 10000 3.87 186 22:38 18.03.2021
1319 Clear 29 1007 78 10000 4.36 190 22:18 18.03.2021
1320 Clear 29 1007 78 10000 4.36 190 21:39 18.03.2021
1321 Clear 29 1007 78 10000 4.36 190 21:39 18.03.2021
1322 Clear 29 1007 77 10000 4.87 186 20:44 18.03.2021
1323 Clear 28 1007 77 10000 5.16 184 20:25 18.03.2021
1324 Clear 28 1007 77 10000 5.16 184 19:45 18.03.2021
1325 Clear 28 1007 77 10000 5.15 187 19:25 18.03.2021
1326 Clear 28 1008 76 10000 5.15 187 18:55 18.03.2021
1327 Clear 28 1008 76 10000 5.12 190 18:33 18.03.2021
1328 Clear 29 1008 75 10000 5.4 194 17:50 18.03.2021
1329 Clear 29 1008 76 10000 5.55 190 17:25 18.03.2021
1330 Clear 29 1008 74 10000 5.55 190 16:47 18.03.2021
1331 Clear 29 1008 74 10000 5.61 188 16:29 18.03.2021
1332 Clear 29 1008 73 10000 5.61 188 15:46 18.03.2021
1333 Rain 31 1007 72 10000 5.88 190 15:23 18.03.2021
1334 Rain 31 1007 72 10000 5.88 190 14:53 18.03.2021
1335 Rain 30 1007 71 10000 5.88 190 14:32 18.03.2021
1336 Rain 30 1006 70 10000 5.46 182 13:53 18.03.2021
1337 Rain 31 1006 69 10000 5.04 172 13:26 18.03.2021
1338 Clouds 31 1006 65 10000 4.89 177 12:44 18.03.2021
1339 Clouds 31 1005 63 10000 5.24 175 12:25 18.03.2021
1340 Rain 32 1005 61 10000 5.24 175 11:52 18.03.2021
1341 Rain 33 1006 52 10000 4.63 200 11:32 18.03.2021
1342 Rain 33 1005 60 10000 5.28 174 10:45 18.03.2021
1343 Rain 34 1006 49 10000 4.12 200 10:27 18.03.2021
1344 Clouds 34 1006 44 10000 3.09 190 09:54 18.03.2021
1345 Clouds 35 1006 46 10000 3.09 190 09:29 18.03.2021
1346 Clouds 35 1007 46 10000 2.57 180 08:50 18.03.2021
1347 Clouds 35 1007 46 10000 3.09 200 08:30 18.03.2021
1348 Clouds 34 1007 59 10000 4.77 166 07:52 18.03.2021
1349 Clouds 34 1007 59 10000 3.91 167 07:24 18.03.2021
1350 Clouds 34 1010 49 10000 3.09 0 06:29 18.03.2021
1351 Clouds 33 1009 62 10000 2.87 184 05:54 18.03.2021
1352 Clouds 29 1009 75 10000 2.54 200 02:29 18.03.2021
1353 Clouds 28 1008 83 9000 2.57 170 23:59 17.03.2021
1354 Rain 27 1007 78 10000 3.47 187 22:54 17.03.2021
1355 Rain 28 1007 78 10000 3.93 181 22:27 17.03.2021
1356 Rain 28 1007 78 10000 3.93 181 21:57 17.03.2021
1357 Rain 28 1006 78 10000 3.93 181 21:39 17.03.2021
1358 Clouds 28 1007 78 10000 4.12 182 21:19 17.03.2021
1359 Rain 28 1007 78 10000 4.12 182 20:43 17.03.2021
1360 Clouds 28 1007 77 10000 4.55 184 20:24 17.03.2021
1361 Rain 28 1007 77 10000 4.55 184 19:46 17.03.2021
1362 Rain 28 1007 77 10000 5.4 186 19:22 17.03.2021
1363 Rain 28 1008 77 10000 5.4 186 18:55 17.03.2021
1364 Rain 28 1008 77 10000 5.05 189 18:37 17.03.2021
1365 Clouds 28 1008 76 10000 5.61 192 17:49 17.03.2021
1366 Clouds 28 1008 76 10000 5.83 185 17:27 17.03.2021
1367 Clouds 28 1008 75 10000 5.83 185 16:47 17.03.2021
1368 Clouds 29 1008 74 10000 6.12 180 16:25 17.03.2021
1369 Clouds 29 1008 73 10000 6.12 180 15:56 17.03.2021
1370 Rain 29 1008 73 10000 6.12 180 15:36 17.03.2021
1371 Rain 29 1007 71 10000 5.78 175 14:45 17.03.2021
1372 Rain 29 1007 71 10000 5.08 181 14:27 17.03.2021
1373 Rain 29 1007 71 10000 5.08 181 13:55 17.03.2021
1374 Rain 29 1007 70 10000 5.08 181 13:31 17.03.2021
1375 Rain 30 1006 69 10000 4.96 179 12:54 17.03.2021
1376 Rain 30 1006 68 10000 4.96 179 12:34 17.03.2021
1377 Rain 30 1006 65 10000 5.39 179 11:51 17.03.2021
1378 Rain 32 1005 64 10000 5.62 182 11:23 17.03.2021
1379 Rain 31 1005 64 10000 5.62 182 10:55 17.03.2021
1380 Rain 33 1005 63 10000 5.62 182 10:31 17.03.2021
1381 Rain 32 1006 62 10000 5.63 178 09:49 17.03.2021
1382 Clouds 33 1006 62 10000 5.46 176 09:28 17.03.2021
1383 Clouds 34 1006 61 10000 0.45 241 08:59 17.03.2021
1384 Clouds 34 1007 62 10000 5.46 176 08:39 17.03.2021
1385 Clear 33 1007 62 10000 4.96 180 07:50 17.03.2021
1386 Clear 33 1008 62 10000 4.96 180 07:32 17.03.2021
1387 Clouds 32 1009 63 10000 4.91 181 06:46 17.03.2021
1388 Clouds 30 1010 70 10000 4.43 182 04:26 17.03.2021
1389 Clouds 30 1010 72 10000 3.92 178 03:25 17.03.2021
1390 Clouds 28 1009 89 9000 2.57 170 00:40 17.03.2021
1391 Clouds 30 1008 77 10000 3.93 189 23:38 16.03.2021
1392 Clouds 28 1008 83 9000 2.57 170 23:18 16.03.2021
1393 Clouds 28 1008 78 10000 3.09 190 22:40 16.03.2021
1394 Clouds 28 1008 78 10000 3.09 190 22:21 16.03.2021
1395 Clouds 28 1008 83 10000 3.6 190 21:39 16.03.2021
1396 Clouds 28 1008 83 10000 3.6 190 21:21 16.03.2021
1397 Clouds 28 1009 83 10000 4.12 200 20:46 16.03.2021
1398 Clear 29 1007 76 10000 5.46 183 20:18 16.03.2021
1399 Clouds 28 1009 83 10000 3.09 180 19:43 16.03.2021
1400 Clouds 28 1009 83 10000 3.09 180 19:24 16.03.2021
1401 Clouds 29 1008 75 10000 5.25 190 18:47 16.03.2021
1402 Clouds 29 1008 75 10000 5.5 191 18:29 16.03.2021
1403 Clouds 28 1010 83 10000 3.6 190 17:50 16.03.2021
1404 Clouds 28 1010 79 10000 4.12 180 17:32 16.03.2021
1405 Clouds 29 1010 79 10000 4.12 180 16:53 16.03.2021
1406 Clouds 29 1010 79 10000 4.12 180 16:53 16.03.2021
1407 Clouds 30 1009 74 10000 5.23 187 16:31 16.03.2021
1408 Clouds 28 1009 78 10000 3.09 210 15:47 16.03.2021
1409 Clouds 30 1008 72 10000 5.64 172 15:22 16.03.2021
1410 Clouds 30 1008 72 10000 5.64 172 15:22 16.03.2021
1411 Clouds 31 1008 71 10000 5.64 172 14:59 16.03.2021
1412 Clouds 31 1008 70 10000 5.64 172 14:40 16.03.2021
1413 Clouds 31 1007 70 10000 4.96 160 14:21 16.03.2021
1414 Clouds 30 1007 69 10000 4.96 160 13:55 16.03.2021
1415 Clouds 30 1006 68 10000 5.18 170 13:28 16.03.2021
1416 Clouds 30 1006 66 10000 5.18 170 12:54 16.03.2021
1417 Rain 30 1006 66 10000 4.42 166 12:35 16.03.2021
1418 Clouds 31 1006 63 10000 5.14 181 11:54 16.03.2021
1419 Rain 32 1007 55 9000 4.63 190 11:28 16.03.2021
1420 Rain 32 1006 61 10000 5.57 184 10:45 16.03.2021
1421 Rain 33 1007 49 9000 5.14 210 10:20 16.03.2021
1422 Clouds 32 1006 58 10000 5.43 181 09:39 16.03.2021
1423 Clouds 34 1008 52 9000 5.14 190 09:19 16.03.2021
1424 Clouds 34 1007 57 10000 5.62 174 08:49 16.03.2021
1425 Clouds 33 1007 56 10000 5.62 174 08:31 16.03.2021
1426 Clouds 33 1008 59 10000 5.61 175 07:38 16.03.2021
1427 Clouds 33 1010 52 9000 5.14 170 06:57 16.03.2021
1428 Clouds 33 1011 52 9000 4.12 180 06:37 16.03.2021
1429 Clouds 32 1010 62 10000 5.14 181 05:35 16.03.2021
1430 Clouds 29 1010 73 10000 4.56 179 02:46 16.03.2021
1431 Clouds 29 1010 74 10000 4.71 177 02:24 16.03.2021
1432 Clouds 28 1009 83 10000 4.13 179 00:25 16.03.2021
1433 Clouds 27 1008 83 10000 2.06 160 23:29 15.03.2021
1434 Clouds 27 1008 83 10000 1.54 170 22:56 15.03.2021
1435 Clouds 27 1008 83 10000 1.54 170 22:56 15.03.2021
1436 Clouds 27 1008 83 10000 1.54 170 22:36 15.03.2021
1437 Clouds 27 1008 83 10000 1.54 170 22:18 15.03.2021
1438 Clouds 27 1008 83 10000 2.57 200 21:39 15.03.2021
1439 Clouds 28 1007 76 10000 4.24 190 21:21 15.03.2021
1440 Clouds 28 1007 76 10000 4.24 190 20:44 15.03.2021
1441 Clouds 29 1007 76 10000 4.61 191 20:25 15.03.2021
1442 Clouds 28 1008 75 10000 4.61 191 19:53 15.03.2021
1443 Clouds 28 1008 75 10000 4.67 195 19:34 15.03.2021
1444 Clouds 29 1008 75 10000 5.17 197 18:57 15.03.2021
1445 Clouds 28 1008 75 10000 5.17 197 18:33 15.03.2021
1446 Clouds 28 1009 74 10000 5.54 196 17:56 15.03.2021
1447 Clouds 28 1009 75 10000 0.45 284 17:38 15.03.2021
1448 Clear 28 1009 75 10000 5.66 193 17:19 15.03.2021
1449 Clear 28 1009 74 10000 5.66 193 16:41 15.03.2021
1450 Clear 29 1009 73 10000 5.89 186 15:48 15.03.2021
1451 Clear 29 1009 73 10000 6.41 184 15:27 15.03.2021
1452 Clear 29 1008 72 10000 6.41 184 14:46 15.03.2021
1453 Clear 29 1008 72 10000 6.26 176 14:28 15.03.2021
1454 Clear 29 1007 71 10000 6.26 176 13:58 15.03.2021
1455 Clear 30 1007 70 10000 6.26 176 13:35 15.03.2021
1456 Clear 29 1007 69 10000 6.01 180 12:51 15.03.2021
1457 Clouds 30 1007 66 10000 4.63 170 12:20 15.03.2021
1458 Clear 32 1006 66 10000 5.83 175 11:59 15.03.2021
1459 Clear 32 1006 66 10000 5.83 175 11:40 15.03.2021
1460 Clear 32 1006 65 10000 5.7 179 11:21 15.03.2021
1461 Clear 33 1006 60 10000 5.7 179 10:39 15.03.2021
1462 Clear 34 1006 60 10000 5.3 177 10:21 15.03.2021
1463 Clouds 34 1007 52 10000 4.12 170 09:40 15.03.2021
1464 Clouds 34 1007 52 10000 4.12 170 09:20 15.03.2021
1465 Clouds 34 1009 49 10000 4.63 180 08:42 15.03.2021
1466 Clouds 34 1009 49 10000 4.63 180 08:21 15.03.2021
1467 Clouds 33 1009 52 9000 4.12 190 07:33 15.03.2021
1468 Clear 33 1009 57 10000 5.02 175 06:48 15.03.2021
1469 Clear 33 1010 60 10000 5.56 179 05:35 15.03.2021
1470 Clear 30 1011 69 10000 4.57 179 03:19 15.03.2021
1471 Clear 29 1009 76 10000 4.11 185 00:27 15.03.2021
1472 Clear 29 1008 77 10000 4.06 191 23:23 14.03.2021
1473 Clear 29 1008 77 10000 4.06 191 22:49 14.03.2021
1474 Clear 28 1008 77 10000 3.82 180 22:28 14.03.2021
1475 Clear 28 1008 78 10000 3.82 180 21:52 14.03.2021
1476 Clear 28 1008 77 10000 4.34 178 21:23 14.03.2021
1477 Clear 30 1008 77 10000 4.34 178 20:52 14.03.2021
1478 Clear 30 1008 76 10000 4.65 187 20:29 14.03.2021
1479 Clouds 28 1010 78 10000 2.57 190 19:58 14.03.2021
1480 Clouds 28 1010 78 10000 2.06 190 19:40 14.03.2021
1481 Clouds 28 1010 78 10000 2.06 190 19:18 14.03.2021
1482 Clear 29 1009 75 10000 5.48 189 18:36 14.03.2021
1483 Clear 29 1010 75 10000 6.04 192 17:47 14.03.2021
1484 Clear 30 1010 75 10000 6.07 188 17:27 14.03.2021
1485 Clear 30 1010 74 10000 6.07 188 16:54 14.03.2021
1486 Clear 31 1010 74 10000 6.07 188 16:35 14.03.2021
1487 Clear 31 1010 73 10000 6.25 187 15:59 14.03.2021
1488 Clear 30 1010 73 10000 6.25 187 15:40 14.03.2021
1489 Clear 30 1009 72 10000 6.08 183 14:51 14.03.2021
1490 Clear 31 1008 72 10000 6.08 183 14:30 14.03.2021
1491 Clouds 30 1008 72 10000 5.9 179 13:52 14.03.2021
1492 Clouds 30 1008 72 10000 5.9 179 13:52 14.03.2021
1493 Clouds 31 1008 72 10000 5.9 179 13:33 14.03.2021
1494 Clouds 32 1007 69 10000 6.11 183 12:48 14.03.2021
1495 Clouds 32 1008 69 10000 6.29 186 12:29 14.03.2021
1496 Clouds 31 1007 68 10000 6.29 186 11:59 14.03.2021
1497 Clouds 31 1007 67 10000 6.29 186 11:37 14.03.2021
1498 Clouds 33 1006 65 10000 6.45 185 10:59 14.03.2021
1499 Clouds 33 1007 64 10000 6.45 185 10:38 14.03.2021
1500 Clouds 34 1006 63 10000 0.45 343 10:19 14.03.2021
1501 Clouds 32 1007 62 10000 0.45 197 09:44 14.03.2021
1502 Clouds 32 1007 63 10000 6.13 180 09:23 14.03.2021
1503 Clouds 32 1007 63 10000 6.13 180 08:51 14.03.2021
1504 Clouds 33 1009 58 10000 4.63 170 08:32 14.03.2021
1505 Clouds 33 1008 65 10000 6.26 175 07:48 14.03.2021
1506 Clouds 33 1008 65 10000 6.26 175 07:48 14.03.2021
1507 Clouds 34 1010 55 10000 3.09 140 07:20 14.03.2021
1508 Clouds 33 1012 55 10000 2.06 130 05:33 14.03.2021
1509 Clouds 28 1011 94 10000 2.66 194 00:53 14.03.2021
1510 Clouds 28 1010 94 10000 1.03 0 00:20 14.03.2021
1511 Clouds 28 1010 89 10000 2.06 120 23:53 13.03.2021
1512 Clouds 28 1010 89 10000 2.06 120 23:53 13.03.2021
1513 Clouds 28 1010 89 10000 1.54 110 23:35 13.03.2021
1514 Clouds 28 1010 83 10000 1.03 0 22:54 13.03.2021
1515 Clear 28 1009 78 10000 3.56 180 22:32 13.03.2021
1516 Clear 28 1009 77 10000 3.22 176 21:48 13.03.2021
1517 Clear 29 1009 77 10000 3.04 168 21:26 13.03.2021
1518 Clouds 28 1011 83 10000 2.06 170 20:53 13.03.2021
1519 Clear 29 1009 77 10000 3.04 168 20:31 13.03.2021
1520 Clear 29 1009 77 10000 3.77 180 19:54 13.03.2021
1521 Clear 29 1009 77 10000 3.77 180 19:31 13.03.2021
1522 Clouds 29 1010 76 10000 4.09 178 18:44 13.03.2021
1523 Clouds 29 1010 76 10000 5.07 182 18:23 13.03.2021
1524 Clouds 29 1011 76 10000 5.07 182 17:59 13.03.2021
1525 Clouds 29 1010 75 10000 5.07 182 17:40 13.03.2021
1526 Clouds 29 1011 75 10000 4.84 179 17:21 13.03.2021
1527 Clouds 29 1012 75 10000 4.84 179 16:43 13.03.2021
1528 Clouds 29 1012 75 10000 5.36 179 16:19 13.03.2021
1529 Clouds 30 1011 74 10000 5.71 180 15:27 13.03.2021
1530 Clouds 30 1011 74 10000 5.71 180 14:47 13.03.2021
1531 Clouds 30 1010 74 10000 5.99 179 14:28 13.03.2021
1532 Clouds 30 1010 72 10000 5.99 179 13:47 13.03.2021
1533 Clouds 30 1009 71 10000 5.96 191 13:24 13.03.2021
1534 Clouds 31 1009 69 10000 5.96 191 12:43 13.03.2021
1535 Clouds 31 1008 68 10000 5.55 195 12:20 13.03.2021
1536 Clouds 31 1008 65 10000 5.55 195 11:49 13.03.2021
1537 Clouds 32 1008 65 10000 5.81 186 11:28 13.03.2021
1538 Clouds 32 1008 65 10000 5.81 186 10:50 13.03.2021
1539 Clouds 32 1008 64 10000 5.01 187 10:29 13.03.2021
1540 Clouds 33 1008 62 10000 5.01 187 09:47 13.03.2021
1541 Clouds 34 1009 62 10000 4.59 175 08:58 13.03.2021
1542 Clouds 34 1009 62 10000 4.59 175 08:39 13.03.2021
1543 Clouds 33 1010 62 10000 5.32 171 08:19 13.03.2021
1544 Clouds 34 1010 62 10000 5.32 171 07:41 13.03.2021
1545 Clouds 33 1014 58 9000 2.57 140 05:50 13.03.2021
1546 Clouds 30 1014 74 9000 3.09 110 02:43 13.03.2021
1547 Clouds 28 1013 67 10000 0.45 27 00:50 13.03.2021
1548 Clouds 28 1012 78 10000 3.09 100 23:51 12.03.2021
1549 Clouds 28 1012 83 10000 2.06 100 23:32 12.03.2021
1550 Clouds 29 1012 58 10000 3.91 181 22:42 12.03.2021
1551 Clouds 29 1012 57 10000 4.03 183 22:23 12.03.2021
1552 Clouds 29 1011 89 10000 1.79 149 21:42 12.03.2021
1553 Clouds 28 1011 88 10000 1.34 171 21:21 12.03.2021
1554 Clouds 29 1012 57 10000 4.84 188 20:55 12.03.2021
1555 Clouds 29 1012 56 10000 4.84 188 20:32 12.03.2021
1556 Clouds 29 1012 88 10000 2.68 156 19:55 12.03.2021
1557 Clouds 29 1012 88 10000 2.24 147 19:36 12.03.2021
1558 Clouds 29 1012 89 10000 3.13 165 18:55 12.03.2021
1559 Clouds 29 1012 88 10000 2.24 139 18:34 12.03.2021
1560 Clouds 29 1013 68 10000 3.58 188 17:47 12.03.2021
1561 Clouds 29 1013 68 10000 3.13 182 17:29 12.03.2021
1562 Clouds 30 1012 72 10000 4.88 180 16:54 12.03.2021
1563 Clouds 30 1012 72 10000 4.88 180 16:33 12.03.2021
1564 Rain 30 1012 72 10000 5.17 181 15:50 12.03.2021
1565 Rain 30 1011 72 10000 5.46 181 15:21 12.03.2021
1566 Rain 30 1011 71 10000 5.46 181 14:46 12.03.2021
1567 Clear 30 1011 70 10000 5.16 176 14:19 12.03.2021
1568 Clear 31 1010 68 10000 5.16 176 13:41 12.03.2021
1569 Clouds 31 1010 67 10000 4.72 189 13:20 12.03.2021
1570 Clouds 30 1009 66 10000 4.72 189 12:52 12.03.2021
1571 Rain 32 1009 65 10000 4.78 188 12:30 12.03.2021
1572 Rain 34 1009 49 9000 2.57 170 11:58 12.03.2021
1573 Rain 34 1009 43 9000 2.57 130 11:40 12.03.2021
1574 Clouds 34 1009 43 9000 2.57 130 11:18 12.03.2021
1575 Clouds 34 1009 41 9000 3.6 100 10:44 12.03.2021
1576 Rain 35 1008 60 10000 3.99 190 10:22 12.03.2021
1577 Rain 35 1009 58 10000 3.35 178 09:29 12.03.2021
1578 Rain 35 1009 59 10000 3.35 178 08:57 12.03.2021
1579 Clouds 34 1009 60 10000 3.35 178 08:39 12.03.2021
1580 Clouds 36 1012 46 9000 3.09 130 07:41 12.03.2021
1581 Clouds 35 1012 46 9000 3.09 130 07:19 12.03.2021
1582 Clear 33 1012 58 10000 4.36 167 06:41 12.03.2021
1583 Clear 34 1014 100 10000 4.29 156 05:43 12.03.2021
1584 Clear 29 1012 80 10000 1.8 192 00:52 12.03.2021
1585 Clear 26 1012 94 10000 2.06 60 23:40 11.03.2021
1586 Clear 29 1011 80 10000 1.82 176 22:58 11.03.2021
1587 Clear 28 1012 83 10000 2.06 100 22:38 11.03.2021
1588 Clear 28 1012 83 10000 2.06 100 22:18 11.03.2021
1589 Clouds 27 1012 83 10000 1.03 170 21:42 11.03.2021
1590 Clouds 27 1012 83 10000 1.03 170 21:21 11.03.2021
1591 Clouds 27 1012 83 10000 2.17 196 20:49 11.03.2021
1592 Clouds 28 1012 83 10000 2.06 170 20:22 11.03.2021
1593 Clear 29 1011 78 10000 3.52 197 19:48 11.03.2021
1594 Clear 29 1011 77 10000 3.52 197 19:30 11.03.2021
1595 Clouds 29 1011 77 10000 3.21 187 18:51 11.03.2021
1596 Rain 29 1012 77 10000 3.21 187 18:33 11.03.2021
1597 Clouds 28 1013 79 10000 2.57 180 17:50 11.03.2021
1598 Clouds 28 1013 79 10000 3.09 190 17:30 11.03.2021
1599 Clouds 30 1012 76 10000 3.69 198 16:31 11.03.2021
1600 Clouds 29 1011 75 10000 4.23 203 15:50 11.03.2021
1601 Rain 30 1011 75 10000 4.23 203 15:31 11.03.2021
1602 Rain 31 1011 74 10000 4.78 190 14:58 11.03.2021
1603 Rain 30 1011 73 10000 4.78 190 14:38 11.03.2021
1604 Rain 30 1010 73 10000 4.74 186 14:18 11.03.2021
1605 Clouds 31 1009 72 10000 4.74 186 13:43 11.03.2021
1606 Clouds 31 1009 70 10000 4.34 207 13:21 11.03.2021
1607 Rain 30 1009 70 10000 4.34 207 12:49 11.03.2021
1608 Clouds 31 1009 68 10000 3.27 231 12:27 11.03.2021
1609 Clouds 31 1008 65 10000 3.27 231 11:45 11.03.2021
1610 Clouds 32 1008 65 10000 1.96 198 11:27 11.03.2021
1611 Clouds 32 1008 64 10000 1.96 198 10:48 11.03.2021
1612 Clouds 33 1008 63 10000 4.03 173 10:22 11.03.2021
1613 Clouds 33 1010 43 10000 2.06 130 09:45 11.03.2021
1614 Clouds 35 1010 41 10000 3.09 170 09:24 11.03.2021
1615 Clouds 35 1011 44 10000 3.09 140 08:47 11.03.2021
1616 Clouds 34 1011 69 10000 3.58 215 08:20 11.03.2021
1617 Clouds 33 1011 64 10000 5.18 165 07:34 11.03.2021
1618 Clear 33 1011 63 10000 5.44 170 06:50 11.03.2021
1619 Clear 33 1011 61 10000 5.44 170 06:30 11.03.2021
1620 Clear 32 1015 58 10000 1.03 0 04:44 11.03.2021
1621 Clear 28 1012 80 10000 2.16 202 01:23 11.03.2021
1622 Clouds 25 1012 83 9000 2.33 196 23:48 10.03.2021
1623 Clouds 26 1011 88 9000 1.54 60 23:19 10.03.2021
1624 Clouds 26 1011 88 9000 1.54 60 23:19 10.03.2021
1625 Clear 28 1010 80 10000 2.24 221 22:39 10.03.2021
1626 Clear 28 1010 80 10000 2.24 221 22:39 10.03.2021
1627 Clouds 26 1011 83 9000 2.75 230 21:47 10.03.2021
1628 Clouds 26 1011 83 9000 3.43 194 21:26 10.03.2021
1629 Clouds 26 1011 83 9000 3.43 194 20:51 10.03.2021
1630 Clouds 26 1012 78 9000 3 205 20:33 10.03.2021
1631 Clouds 27 1012 78 9000 2.57 120 19:54 10.03.2021
1632 Clear 28 1011 74 10000 3.48 190 19:34 10.03.2021
1633 Clouds 27 1013 78 9000 1.54 110 18:56 10.03.2021
1634 Clouds 27 1013 74 9000 2.57 170 18:37 10.03.2021
1635 Clouds 28 1013 74 9000 2.57 170 18:18 10.03.2021
1636 Clouds 28 1013 74 9000 2.57 200 17:41 10.03.2021
1637 Clouds 28 1013 74 9000 2.57 200 17:19 10.03.2021
1638 Clouds 28 1013 74 9000 3.6 190 16:48 10.03.2021
1639 Clear 30 1012 73 10000 5.64 177 16:25 10.03.2021
1640 Clear 29 1012 71 10000 5.64 177 15:51 10.03.2021
1641 Clear 31 1011 71 10000 5.33 180 15:25 10.03.2021
1642 Clear 31 1011 75 10000 5.33 180 14:57 10.03.2021
1643 Clear 29 1011 73 10000 5.53 181 14:22 10.03.2021
1644 Clear 29 1010 76 10000 5.53 181 13:54 10.03.2021
1645 Clear 30 1010 77 10000 5.53 181 13:31 10.03.2021
1646 Clouds 30 1009 70 10000 5.48 175 12:48 10.03.2021
1647 Clouds 32 1010 100 10000 5.8 181 12:24 10.03.2021
1648 Clouds 32 1009 71 10000 3.13 123 11:50 10.03.2021
1649 Clouds 32 1009 58 8000 5.66 150 11:25 10.03.2021
1650 Clouds 32 1008 62 10000 3.78 179 10:51 10.03.2021
1651 Clouds 33 1008 61 10000 0.45 222 10:32 10.03.2021
1652 Rain 33 1010 55 9000 4.63 240 09:55 10.03.2021
1653 Clouds 33 1010 55 9000 4.63 220 09:37 10.03.2021
1654 Clouds 33 1008 62 10000 3.72 155 09:18 10.03.2021
1655 Clouds 34 1010 55 9000 5.66 220 08:43 10.03.2021
1656 Clouds 33 1009 62 10000 4.38 150 08:25 10.03.2021
1657 Clouds 32 1010 63 10000 4.38 150 07:42 10.03.2021
1658 Clouds 33 1011 64 10000 2.64 123 07:24 10.03.2021
1659 Rain 33 1013 52 9000 2.06 0 06:51 10.03.2021
1660 Clear 30 1013 75 10000 1.85 290 02:43 10.03.2021
1661 Clouds 27 1012 89 6000 2.28 211 00:27 10.03.2021
1662 Clouds 26 1012 94 6000 3.04 215 23:27 09.03.2021
1663 Clouds 26 1012 88 6000 1.54 50 22:50 09.03.2021
1664 Clouds 27 1012 89 6000 1.54 60 22:31 09.03.2021
1665 Clouds 27 1012 89 8000 1.54 40 21:58 09.03.2021
1666 Clouds 27 1012 89 10000 1.03 0 21:37 09.03.2021
1667 Clouds 27 1012 89 10000 1.03 0 21:18 09.03.2021
1668 Clouds 27 1012 89 10000 0.51 110 20:43 09.03.2021
1669 Clouds 27 1012 89 10000 1.03 110 20:22 09.03.2021
1670 Clouds 27 1012 89 10000 1.03 110 20:22 09.03.2021
1671 Clouds 27 1012 83 10000 1.54 120 19:56 09.03.2021
1672 Clouds 27 1013 89 10000 2.06 130 19:29 09.03.2021
1673 Clouds 27 1013 83 10000 1.54 140 18:54 09.03.2021
1674 Clouds 28 1013 83 10000 2.06 140 18:29 09.03.2021
1675 Clouds 28 1013 83 10000 2.57 170 17:57 09.03.2021
1676 Clouds 28 1013 83 10000 3.09 170 17:35 09.03.2021
1677 Clear 27 1012 77 10000 4.96 191 16:57 09.03.2021
1678 Clear 27 1012 77 10000 4.96 191 16:39 09.03.2021
1679 Clear 27 1012 77 10000 5.06 189 16:19 09.03.2021
1680 Clear 27 1011 77 10000 5.06 189 15:44 09.03.2021
1681 Clear 29 1011 76 10000 5.29 185 15:23 09.03.2021
1682 Clear 29 1011 76 10000 5.29 185 14:40 09.03.2021
1683 Clear 30 1011 75 10000 5.45 182 14:22 09.03.2021
1684 Clear 30 1010 75 10000 5.45 182 13:39 09.03.2021
1685 Clouds 31 1010 74 10000 5.26 187 13:20 09.03.2021
1686 Clouds 30 1010 72 10000 5.36 185 12:42 09.03.2021
1687 Clouds 30 1009 71 10000 5.34 180 12:22 09.03.2021
1688 Clouds 30 1009 70 10000 5.34 180 11:42 09.03.2021
1689 Clouds 33 1010 52 10000 2.06 170 11:21 09.03.2021
1690 Clouds 33 1010 52 10000 2.06 170 11:21 09.03.2021
1691 Clouds 32 1008 66 10000 5.38 178 10:56 09.03.2021
1692 Clouds 33 1010 51 10000 2.57 210 10:38 09.03.2021
1693 Clouds 33 1010 51 10000 2.57 210 10:19 09.03.2021
1694 Clouds 33 1010 55 10000 3.09 180 09:43 09.03.2021
1695 Rain 32 1011 55 10000 4.12 180 09:24 09.03.2021
1696 Clouds 33 1011 58 10000 6.69 160 08:46 09.03.2021
1697 Clouds 33 1011 53 10000 0.89 47 08:23 09.03.2021
1698 Clouds 34 1010 57 10000 3.8 162 07:40 09.03.2021
1699 Clouds 33 1011 58 10000 4.05 161 07:21 09.03.2021
1700 Clouds 34 1014 55 8000 1.54 0 05:55 09.03.2021
1701 Clear 33 1013 62 10000 3.44 149 05:37 09.03.2021
1702 Clouds 27 1013 89 8000 2.26 171 00:30 09.03.2021
1703 Clouds 27 1012 89 8000 3.09 100 23:43 08.03.2021
1704 Clear 28 1011 75 10000 2.88 192 23:25 08.03.2021
1705 Clear 28 1011 74 10000 2.88 192 22:48 08.03.2021
1706 Clear 28 1010 74 10000 3.11 187 22:29 08.03.2021
1707 Clear 28 1010 74 10000 3.11 187 21:56 08.03.2021
1708 Clear 28 1010 73 10000 3.11 187 21:35 08.03.2021
1709 Clear 28 1010 73 10000 3.49 192 20:48 08.03.2021
1710 Clouds 28 1011 73 10000 4.14 197 20:27 08.03.2021
1711 Clouds 28 1011 73 10000 4.14 197 19:59 08.03.2021
1712 Clouds 28 1011 72 10000 4.14 197 19:36 08.03.2021
1713 Clear 29 1012 71 10000 4.37 203 18:42 08.03.2021
1714 Clear 29 1012 70 10000 4.77 200 18:23 08.03.2021
1715 Clear 29 1012 67 10000 4.77 200 17:51 08.03.2021
1716 Clear 29 1012 67 10000 4.77 200 17:51 08.03.2021
1717 Clear 29 1012 67 10000 4.77 200 17:32 08.03.2021
1718 Clear 29 1013 68 10000 5.39 197 16:49 08.03.2021
1719 Clear 29 1013 68 10000 5.61 192 16:29 08.03.2021
1720 Clear 29 1012 69 10000 5.61 192 15:52 08.03.2021
1721 Clear 29 1012 69 10000 5.54 185 15:29 08.03.2021
1722 Clear 30 1012 69 10000 5.54 185 14:49 08.03.2021
1723 Clear 30 1011 69 10000 5.19 174 14:20 08.03.2021
1724 Clear 31 1011 67 10000 5.19 174 13:43 08.03.2021
1725 Clouds 31 1010 67 10000 5.02 167 13:20 08.03.2021
1726 Clouds 30 1010 64 10000 5.02 167 12:46 08.03.2021
1727 Clouds 31 1010 63 10000 5.26 164 12:27 08.03.2021
1728 Clouds 32 1009 56 10000 0.45 220 11:40 08.03.2021
1729 Clouds 32 1009 52 10000 5.06 171 11:19 08.03.2021
1730 Clouds 33 1009 54 10000 5.06 171 10:43 08.03.2021
1731 Clouds 33 1009 53 10000 4.41 149 10:25 08.03.2021
1732 Clouds 34 1008 51 10000 4.41 149 09:41 08.03.2021
1733 Clouds 34 1008 50 10000 5.5 167 09:23 08.03.2021
1734 Clouds 34 1008 50 10000 5.5 167 09:23 08.03.2021
1735 Clouds 34 1009 49 10000 5.77 167 08:29 08.03.2021
1736 Clear 34 1011 51 10000 5.64 163 07:24 08.03.2021
1737 Rain 34 1012 52 10000 5.77 165 06:45 08.03.2021
1738 Clear 33 1014 61 10000 4.74 191 03:39 08.03.2021
1739 Clouds 27 1013 89 9000 2.57 100 00:45 08.03.2021
1740 Clouds 28 1012 89 10000 2.06 100 00:20 08.03.2021
1741 Clouds 28 1012 83 10000 3.09 120 23:39 07.03.2021
1742 Clear 28 1011 76 10000 4.59 175 23:20 07.03.2021
1743 Clear 28 1011 76 10000 4.59 175 22:44 07.03.2021
1744 Clouds 28 1010 75 10000 4.91 181 22:26 07.03.2021
1745 Clouds 28 1010 75 10000 4.91 181 21:45 07.03.2021
1746 Clear 28 1010 74 10000 5.21 179 21:26 07.03.2021
1747 Clear 29 1011 73 10000 5.21 179 20:49 07.03.2021
1748 Clear 29 1011 73 10000 5.21 179 20:31 07.03.2021
1749 Clear 29 1011 75 10000 5.44 175 19:57 07.03.2021
1750 Clear 29 1011 75 10000 5.44 175 19:38 07.03.2021
1751 Clouds 29 1011 75 10000 5.56 184 19:20 07.03.2021
1752 Clouds 29 1012 74 10000 5.56 184 18:42 07.03.2021
1753 Clouds 29 1012 74 10000 5.15 190 18:19 07.03.2021
1754 Clouds 29 1012 73 10000 5.15 190 17:41 07.03.2021
1755 Clouds 29 1012 72 10000 5.29 187 17:20 07.03.2021
1756 Clouds 29 1012 72 10000 5.29 187 16:58 07.03.2021
1757 Clouds 29 1012 71 10000 5.29 187 16:38 07.03.2021
1758 Clear 29 1012 71 10000 5.95 188 16:19 07.03.2021
1759 Clear 29 1011 70 10000 5.95 188 15:42 07.03.2021
1760 Clouds 29 1012 74 10000 4.12 200 15:22 07.03.2021
1761 Clouds 29 1011 74 10000 4.63 170 14:30 07.03.2021
1762 Rain 30 1010 67 10000 5.69 194 13:59 07.03.2021
1763 Clear 30 1010 66 10000 5.69 194 13:40 07.03.2021
1764 Clear 30 1010 66 10000 5.7 184 13:21 07.03.2021
1765 Clear 30 1009 64 10000 5.7 184 12:45 07.03.2021
1766 Clear 32 1009 63 10000 5.74 181 12:27 07.03.2021
1767 Clear 32 1008 61 10000 5.74 181 11:41 07.03.2021
1768 Rain 33 1008 61 10000 5.2 180 11:21 07.03.2021
1769 Rain 34 1008 57 10000 5.2 180 10:39 07.03.2021
1770 Rain 34 1008 54 10000 5.13 178 10:21 07.03.2021
1771 Rain 34 1008 54 10000 5.13 178 09:40 07.03.2021
1772 Rain 34 1008 54 10000 4.75 173 09:21 07.03.2021
1773 Rain 34 1009 56 10000 4.75 173 08:45 07.03.2021
1774 Rain 34 1009 55 10000 5.23 171 08:23 07.03.2021
1775 Rain 34 1010 56 10000 4.08 173 07:25 07.03.2021
1776 Clear 29 1012 73 10000 2.85 178 02:40 07.03.2021
1777 Clear 28 1010 78 10000 3.55 177 00:38 07.03.2021
1778 Clear 28 1010 77 10000 3.44 173 23:41 06.03.2021
1779 Clear 28 1009 76 10000 3 173 23:22 06.03.2021
1780 Rain 27 1010 76 10000 3 173 22:47 06.03.2021
1781 Rain 27 1009 75 10000 2.86 179 22:25 06.03.2021
1782 Rain 28 1009 76 10000 2.86 179 21:54 06.03.2021
1783 Clear 28 1009 75 10000 3.57 189 21:21 06.03.2021
1784 Rain 28 1009 75 10000 3.57 189 20:48 06.03.2021
1785 Rain 28 1010 75 10000 4.61 192 20:26 06.03.2021
1786 Clear 28 1010 75 10000 4.61 192 19:41 06.03.2021
1787 Rain 28 1010 75 10000 5.2 184 19:19 06.03.2021
1788 Rain 28 1010 75 10000 4.8 194 18:45 06.03.2021
1789 Rain 28 1011 74 10000 5.23 195 18:23 06.03.2021
1790 Rain 27 1011 74 10000 5.23 195 17:56 06.03.2021
1791 Rain 27 1011 74 10000 5.23 195 17:38 06.03.2021
1792 Rain 27 1011 73 10000 5.49 195 17:18 06.03.2021
1793 Rain 28 1011 72 10000 5.49 195 16:41 06.03.2021
1794 Rain 28 1011 72 10000 5.66 190 16:21 06.03.2021
1795 Rain 28 1011 71 10000 5.66 190 15:47 06.03.2021
1796 Rain 28 1011 71 10000 5.66 190 15:47 06.03.2021
1797 Rain 28 1011 71 10000 5.64 184 15:29 06.03.2021
1798 Rain 29 1011 79 10000 4.12 200 14:49 06.03.2021
1799 Rain 29 1011 79 10000 4.12 190 14:25 06.03.2021
1800 Rain 30 1009 68 10000 5.47 182 13:39 06.03.2021
1801 Rain 30 1009 67 10000 4.88 184 13:20 06.03.2021
1802 Rain 32 1009 64 10000 4.88 184 12:44 06.03.2021
1803 Rain 33 1009 61 10000 4.47 182 12:19 06.03.2021
1804 Clear 33 1009 58 10000 4.47 182 11:48 06.03.2021
1805 Clear 34 1009 51 10000 4 178 11:21 06.03.2021
1806 Clear 34 1009 49 10000 4 178 10:48 06.03.2021
1807 Clear 34 1009 50 10000 4.13 176 10:18 06.03.2021
1808 Clear 34 1009 53 10000 4.13 176 09:41 06.03.2021
1809 Clear 34 1009 53 10000 4.25 175 09:19 06.03.2021
1810 Clear 34 1010 52 10000 4.25 175 08:36 06.03.2021
1811 Clouds 34 1012 44 10000 3.6 220 07:57 06.03.2021
1812 Clear 34 1011 53 10000 4.21 176 07:23 06.03.2021
1813 Clear 34 1012 54 10000 4.21 176 06:48 06.03.2021
1814 Clear 33 1013 56 10000 4.02 182 05:34 06.03.2021
1815 Rain 29 1014 79 10000 3.93 178 02:25 06.03.2021
1816 Clouds 28 1013 89 10000 2.06 170 00:47 06.03.2021
1817 Clouds 27 1012 83 10000 2.57 160 23:52 05.03.2021
1818 Clouds 27 1012 83 10000 2.06 160 23:24 05.03.2021
1819 Clouds 28 1011 76 10000 4.4 187 22:45 05.03.2021
1820 Clouds 28 1011 76 10000 4.58 189 22:22 05.03.2021
1821 Clouds 28 1011 76 10000 4.58 189 21:52 05.03.2021
1822 Clouds 28 1011 76 10000 4.58 189 21:33 05.03.2021
1823 Clouds 27 1012 83 10000 2.06 180 20:54 05.03.2021
1824 Clouds 27 1012 83 10000 2.57 180 20:27 05.03.2021
1825 Clouds 28 1013 78 10000 2.57 180 19:56 05.03.2021
1826 Clouds 28 1013 78 10000 2.57 170 19:26 05.03.2021
1827 Clouds 28 1012 75 10000 5.4 186 18:57 05.03.2021
1828 Clouds 28 1013 78 10000 4.63 210 18:39 05.03.2021
1829 Clouds 28 1013 78 10000 4.63 210 18:18 05.03.2021
1830 Clouds 28 1014 83 10000 3.09 200 17:35 05.03.2021
1831 Clouds 28 1013 78 10000 5.14 200 16:49 05.03.2021
1832 Rain 29 1012 73 10000 6.12 186 16:25 05.03.2021
1833 Rain 29 1013 74 10000 3.6 200 15:58 05.03.2021
1834 Rain 29 1012 74 10000 4.12 200 15:39 05.03.2021
1835 Rain 29 1012 74 10000 4.12 200 15:20 05.03.2021
1836 Clear 29 1011 68 10000 5.84 180 14:38 05.03.2021
1837 Clear 29 1011 68 10000 5.84 180 14:38 05.03.2021
1838 Rain 30 1010 67 10000 5.75 171 13:55 05.03.2021
1839 Rain 30 1010 67 10000 5.75 171 13:55 05.03.2021
1840 Rain 31 1010 66 10000 5.74 170 13:22 05.03.2021
1841 Clouds 31 1009 66 10000 5.74 170 12:49 05.03.2021
1842 Clouds 32 1009 60 10000 5.8 173 11:54 05.03.2021
1843 Clouds 32 1009 59 10000 5.8 173 11:36 05.03.2021
1844 Clouds 32 1009 58 10000 5.82 176 11:18 05.03.2021
1845 Clouds 32 1009 58 10000 5.82 176 11:18 05.03.2021
1846 Clouds 33 1008 55 10000 0.45 196 10:40 05.03.2021
1847 Clouds 33 1008 53 10000 5.67 176 10:21 05.03.2021
1848 Clouds 33 1008 52 10000 5.67 176 09:47 05.03.2021
1849 Clouds 33 1009 52 10000 0.45 217 09:26 05.03.2021
1850 Clouds 34 1009 52 10000 5.42 176 08:40 05.03.2021
1851 Clouds 33 1009 53 10000 5.07 175 08:22 05.03.2021
1852 Clouds 33 1010 55 10000 5.07 175 07:39 05.03.2021
1853 Clear 34 1011 56 10000 4.8 180 06:49 05.03.2021
1854 Clear 35 1011 56 10000 4.8 180 06:30 05.03.2021
1855 Clear 29 1012 72 10000 3.4 203 01:47 05.03.2021
1856 Clear 29 1012 72 10000 3.4 203 01:47 05.03.2021
1857 Clouds 28 1012 83 10000 2.57 180 00:26 05.03.2021
1858 Clouds 28 1012 83 10000 2.06 170 23:26 04.03.2021
1859 Clear 27 1010 77 10000 3.54 202 22:37 04.03.2021
1860 Clear 28 1010 77 10000 3.85 203 21:56 04.03.2021
1861 Clear 28 1010 76 10000 3.85 203 21:34 04.03.2021
1862 Clear 28 1010 76 10000 3.85 203 21:34 04.03.2021
1863 Clear 28 1010 76 10000 4.17 197 20:59 04.03.2021
1864 Clear 28 1010 76 10000 4.17 197 20:59 04.03.2021
1865 Clear 28 1010 75 10000 4.17 197 20:40 04.03.2021
1866 Clear 28 1011 75 10000 4.21 194 20:21 04.03.2021
1867 Clear 27 1011 75 10000 4.21 194 19:53 04.03.2021
1868 Clear 28 1011 75 10000 4.61 191 19:26 04.03.2021
1869 Clear 29 1011 74 10000 4.74 193 18:54 04.03.2021
1870 Clear 29 1011 75 10000 4.74 193 18:30 04.03.2021
1871 Clear 29 1011 74 10000 5.07 197 17:57 04.03.2021
1872 Clear 29 1011 74 10000 5.07 197 17:39 04.03.2021
1873 Clear 29 1011 73 10000 5.15 198 17:18 04.03.2021
1874 Clear 30 1011 74 10000 5.15 198 16:42 04.03.2021
1875 Clear 29 1011 73 10000 4.97 197 16:23 04.03.2021
1876 Clear 29 1011 72 10000 4.97 197 15:45 04.03.2021
1877 Clear 29 1011 71 10000 5.04 192 15:25 04.03.2021
1878 Rain 30 1011 69 10000 5.04 192 14:42 04.03.2021
1879 Clear 30 1010 69 10000 5.03 189 14:18 04.03.2021
1880 Clear 30 1010 68 10000 5.03 189 13:40 04.03.2021
1881 Rain 31 1010 67 10000 5.11 187 13:19 04.03.2021
1882 Clouds 31 1009 65 10000 5.18 189 12:42 04.03.2021
1883 Clouds 31 1009 61 10000 5.1 186 11:52 04.03.2021
1884 Clouds 31 1009 60 10000 5.1 186 11:32 04.03.2021
1885 Clouds 32 1009 59 10000 5.16 188 10:58 04.03.2021
1886 Clouds 32 1009 58 10000 5.16 188 10:36 04.03.2021
1887 Clouds 33 1009 56 10000 0.45 201 09:53 04.03.2021
1888 Clouds 33 1009 56 10000 4.13 183 09:28 04.03.2021
1889 Clouds 33 1009 54 10000 0.45 229 08:51 04.03.2021
1890 Clouds 33 1010 54 10000 3.81 179 08:25 04.03.2021
1891 Clouds 32 1011 54 10000 3.81 179 07:36 04.03.2021
1892 Clouds 32 1012 57 10000 4.31 168 06:31 04.03.2021
1893 Clouds 32 1012 58 10000 3.84 161 05:57 04.03.2021
1894 Clouds 28 1014 94 6000 2.57 110 02:29 04.03.2021
1895 Clouds 26 1012 94 8000 3.09 110 23:42 03.03.2021
1896 Clouds 27 1012 94 10000 2.06 110 22:29 03.03.2021
1897 Clouds 27 1012 89 10000 1.03 0 21:59 03.03.2021
1898 Clouds 27 1012 89 10000 2.57 110 21:41 03.03.2021
1899 Clouds 27 1012 89 10000 2.57 110 21:22 03.03.2021
1900 Clouds 27 1012 89 10000 3.53 211 20:43 03.03.2021
1901 Clouds 27 1013 89 10000 1.03 150 20:24 03.03.2021
1902 Clouds 27 1013 83 10000 2.06 140 19:48 03.03.2021
1903 Clouds 27 1014 89 10000 1.54 130 19:29 03.03.2021
1904 Clouds 27 1014 78 10000 2.57 160 18:53 03.03.2021
1905 Clouds 27 1014 78 10000 2.57 180 18:34 03.03.2021
1906 Clouds 27 1014 78 10000 2.57 170 17:57 03.03.2021
1907 Clouds 27 1014 78 10000 2.06 140 17:21 03.03.2021
1908 Clouds 27 1014 78 10000 2.57 170 16:51 03.03.2021
1909 Clouds 27 1014 78 10000 3.6 180 16:27 03.03.2021
1910 Clouds 29 1013 77 10000 5.55 173 15:53 03.03.2021
1911 Clouds 29 1013 77 10000 5.55 173 15:32 03.03.2021
1912 Clouds 30 1012 74 10000 6.28 174 14:39 03.03.2021
1913 Clouds 28 1012 74 10000 6.8 172 14:20 03.03.2021
1914 Clouds 29 1012 73 10000 6.8 172 13:39 03.03.2021
1915 Clouds 28 1011 71 10000 7.07 179 13:21 03.03.2021
1916 Rain 28 1010 69 10000 7.07 179 12:41 03.03.2021
1917 Rain 28 1011 70 10000 4.63 160 12:22 03.03.2021
1918 Clouds 29 1009 68 10000 7.05 169 11:44 03.03.2021
1919 Clouds 31 1009 68 10000 7.22 167 11:26 03.03.2021
1920 Clouds 31 1009 68 10000 7.22 167 10:45 03.03.2021
1921 Clouds 32 1009 68 10000 7.3 170 10:21 03.03.2021
1922 Rain 32 1010 66 10000 5.66 180 09:41 03.03.2021
1923 Rain 31 1010 66 10000 8.23 180 08:52 03.03.2021
1924 Rain 35 1011 100 10000 5.26 176 08:24 03.03.2021
1925 Clouds 33 1010 62 10000 5.26 176 07:55 03.03.2021
1926 Clouds 34 1010 60 10000 4.4 169 07:26 03.03.2021
1927 Clouds 33 1011 62 10000 3.83 157 06:21 03.03.2021
1928 Clouds 32 1012 66 10000 3.83 157 05:31 03.03.2021
1929 Clouds 32 1013 70 10000 3.38 155 04:36 03.03.2021
1930 Clear 32 1013 70 10000 3.22 192 03:53 03.03.2021
1931 Clouds 29 1011 83 10000 2.57 190 00:19 03.03.2021
1932 Clouds 27 1011 89 10000 2.06 190 23:32 02.03.2021
1933 Clouds 28 1010 83 10000 1.54 170 22:50 02.03.2021
1934 Clear 29 1009 77 10000 3.38 195 22:21 02.03.2021
1935 Clear 29 1009 77 10000 3.38 195 21:51 02.03.2021
1936 Clouds 28 1010 83 10000 2.57 180 21:32 02.03.2021
1937 Clouds 28 1010 83 10000 2.57 170 20:55 02.03.2021
1938 Clouds 28 1010 78 10000 2.57 180 20:36 02.03.2021
1939 Clouds 28 1010 78 10000 2.57 180 20:18 02.03.2021
1940 Clouds 28 1011 78 10000 3.09 190 19:43 02.03.2021
1941 Clouds 28 1011 78 10000 3.09 190 19:25 02.03.2021
1942 Clouds 28 1011 83 10000 3.09 200 18:41 02.03.2021
1943 Clouds 28 1011 83 10000 3.09 200 18:21 02.03.2021
1944 Clouds 28 1012 74 10000 3.6 190 17:54 02.03.2021
1945 Clouds 28 1011 74 10000 3.6 190 17:36 02.03.2021
1946 Clouds 28 1011 74 10000 3.6 190 17:36 02.03.2021
1947 Clouds 28 1011 74 10000 3.6 190 17:18 02.03.2021
1948 Clear 28 1010 73 10000 5.3 188 16:38 02.03.2021
1949 Clear 30 1010 71 10000 5.24 189 15:52 02.03.2021
1950 Clear 30 1010 70 10000 5.34 188 15:25 02.03.2021
1951 Clouds 29 1010 66 10000 3.6 180 14:29 02.03.2021
1952 Clear 30 1009 66 10000 5.29 188 13:59 02.03.2021
1953 Clear 30 1009 66 10000 5.29 188 13:39 02.03.2021
1954 Clear 30 1009 65 10000 4.99 188 13:20 02.03.2021
1955 Clear 31 1008 62 10000 4.99 188 12:31 02.03.2021
1956 Clear 31 1008 59 10000 5.12 183 11:59 02.03.2021
1957 Clear 32 1008 57 10000 5.12 183 11:38 02.03.2021
1958 Clear 32 1008 57 10000 0.45 292 11:19 02.03.2021
1959 Clear 32 1008 57 10000 5.32 178 10:39 02.03.2021
1960 Clear 33 1008 57 10000 5.32 179 10:20 02.03.2021
1961 Clear 33 1008 56 10000 5.32 179 09:40 02.03.2021
1962 Clear 33 1008 56 10000 5.35 180 09:19 02.03.2021
1963 Clear 33 1009 56 10000 5.35 180 08:38 02.03.2021
1964 Clear 33 1010 57 10000 5.39 176 07:58 02.03.2021
1965 Clear 34 1010 57 10000 5.39 176 07:38 02.03.2021
1966 Clear 33 1011 56 10000 4.91 173 06:34 02.03.2021
1967 Clear 32 1012 59 10000 4.23 174 05:46 02.03.2021
1968 Clear 32 1012 61 10000 3.89 182 05:27 02.03.2021
1969 Clear 28 1012 78 10000 3.02 189 01:44 02.03.2021
1970 Clear 28 1012 78 10000 3.02 189 01:44 02.03.2021
1971 Clouds 29 1012 78 10000 1.54 140 01:26 02.03.2021
1972 Clouds 29 1012 83 10000 2.94 175 00:28 02.03.2021
1973 Clouds 28 1011 83 10000 1.03 0 23:26 01.03.2021
1974 Clouds 29 1010 75 10000 3.21 179 22:42 01.03.2021
1975 Clouds 29 1010 75 10000 3.78 187 22:21 01.03.2021
1976 Clouds 28 1011 78 10000 2.06 190 21:45 01.03.2021
1977 Clouds 29 1010 77 10000 4.24 192 21:23 01.03.2021
1978 Clouds 29 1010 77 10000 4.24 192 21:23 01.03.2021
1979 Clouds 29 1010 76 10000 4.24 192 20:47 01.03.2021
1980 Clouds 29 1010 75 10000 4.49 187 20:27 01.03.2021
1981 Clouds 29 1010 75 10000 4.49 187 19:54 01.03.2021
1982 Clouds 29 1011 75 10000 4.55 191 19:33 01.03.2021
1983 Clouds 29 1011 74 10000 4.63 180 18:46 01.03.2021
1984 Clouds 29 1011 74 10000 5.09 173 18:24 01.03.2021
1985 Clouds 29 1012 74 10000 5.09 173 17:53 01.03.2021
1986 Clouds 29 1012 73 10000 5.09 173 17:30 01.03.2021
1987 Clear 29 1011 72 10000 5.38 175 16:59 01.03.2021
1988 Clear 29 1011 72 10000 5.38 175 16:59 01.03.2021
1989 Clear 29 1012 71 10000 5.38 175 16:40 01.03.2021
1990 Clear 29 1012 71 10000 5.36 175 16:22 01.03.2021
1991 Clear 29 1012 69 10000 5.36 175 15:39 01.03.2021
1992 Clear 30 1012 69 10000 4.99 175 15:18 01.03.2021
1993 Clear 30 1011 69 10000 4.99 175 14:43 01.03.2021
1994 Clear 30 1011 68 10000 4.81 175 14:25 01.03.2021
1995 Clear 30 1010 65 10000 4.81 175 13:39 01.03.2021
1996 Clear 30 1010 62 10000 5.03 171 13:20 01.03.2021
1997 Clear 30 1010 62 10000 5.03 171 13:20 01.03.2021
1998 Clear 30 1009 57 10000 5.03 171 12:44 01.03.2021
1999 Clear 31 1009 57 10000 5.11 178 12:25 01.03.2021
2000 Clear 31 1009 53 10000 5.11 178 11:57 01.03.2021
2001 Rain 31 1009 52 10000 5.11 178 11:30 01.03.2021
2002 Clear 32 1009 52 10000 0.45 305 10:43 01.03.2021
2003 Clear 34 1009 51 10000 0.45 27 10:22 01.03.2021
2004 Clear 33 1009 49 10000 4.91 186 09:56 01.03.2021
2005 Clear 33 1009 47 10000 4.91 186 09:36 01.03.2021
2006 Clear 34 1009 53 10000 5.21 183 08:57 01.03.2021
2007 Clear 35 1010 55 10000 5.21 183 08:36 01.03.2021
2008 Clear 34 1011 57 10000 5.17 180 07:34 01.03.2021
2009 Clear 33 1011 59 10000 5.3 184 06:31 01.03.2021
2010 Clear 30 1012 71 10000 4 184 02:40 01.03.2021
2011 Clouds 26 1010 88 8000 2.06 130 23:54 28.02.2021
2012 Rain 26 1010 83 10000 2.57 160 23:21 28.02.2021
2013 Rain 26 1010 83 10000 2.57 150 22:44 28.02.2021
2014 Clouds 26 1010 83 10000 2.57 150 22:21 28.02.2021
2015 Clouds 26 1010 83 10000 2.06 130 21:46 28.02.2021
2016 Clouds 26 1010 83 10000 1.54 150 21:23 28.02.2021
2017 Rain 26 1010 83 10000 2.06 170 20:46 28.02.2021
2018 Rain 26 1010 83 10000 2.06 180 20:27 28.02.2021
2019 Rain 27 1011 78 10000 2.57 170 19:47 28.02.2021
2020 Clouds 27 1011 78 10000 2.57 180 19:27 28.02.2021
2021 Clouds 27 1011 83 10000 2.57 170 18:47 28.02.2021
2022 Clouds 27 1011 83 10000 2.57 170 18:27 28.02.2021
2023 Clouds 27 1010 73 10000 6.28 187 17:56 28.02.2021
2024 Clouds 27 1010 72 10000 6.28 187 17:37 28.02.2021
2025 Clouds 28 1010 72 10000 6.39 189 17:19 28.02.2021
2026 Clouds 28 1009 72 10000 6.39 189 16:46 28.02.2021
2027 Clouds 30 1009 72 10000 6.51 187 16:26 28.02.2021
2028 Rain 29 1009 72 10000 6.51 187 15:51 28.02.2021
2029 Rain 31 1009 71 10000 6.27 179 15:26 28.02.2021
2030 Clear 31 1008 70 10000 6.27 179 14:58 28.02.2021
2031 Rain 29 1008 69 10000 6.27 179 14:32 28.02.2021
2032 Rain 29 1008 68 10000 6.08 170 13:56 28.02.2021
2033 Rain 29 1007 67 10000 6.08 170 13:36 28.02.2021
2034 Rain 29 1007 66 10000 5.91 172 13:18 28.02.2021
2035 Rain 30 1007 64 10000 5.91 172 12:48 28.02.2021
2036 Rain 30 1007 63 10000 5.91 172 12:30 28.02.2021
2037 Rain 31 1007 61 10000 6.07 176 11:55 28.02.2021
2038 Rain 31 1006 60 10000 6.07 176 11:36 28.02.2021
2039 Rain 31 1006 59 10000 6.3 179 11:18 28.02.2021
2040 Rain 32 1006 56 10000 6.3 179 10:30 28.02.2021
2041 Rain 33 1007 40 9000 4.63 210 09:58 28.02.2021
2042 Rain 33 1007 49 9000 4.63 200 09:36 28.02.2021
2043 Clouds 34 1008 49 9000 4.63 210 08:59 28.02.2021
2044 Clouds 34 1007 50 10000 5.96 176 08:37 28.02.2021
2045 Clouds 34 1007 51 10000 5.47 176 08:19 28.02.2021
2046 Clouds 35 1008 57 10000 5.47 176 07:43 28.02.2021
2047 Clouds 35 1008 57 10000 5.54 175 07:43 28.02.2021
2048 Clouds 34 1008 58 10000 5.12 179 07:24 28.02.2021
2049 Clouds 34 1009 59 10000 5.02 180 06:23 28.02.2021
2050 Clouds 31 1010 65 10000 4.27 178 03:48 28.02.2021
2051 Clouds 28 1009 71 10000 4.16 173 02:25 28.02.2021
2052 Clouds 26 1008 77 10000 3.87 171 01:20 28.02.2021
2053 Mist 26 1008 94 4900 2.06 120 00:38 28.02.2021
2054 Rain 26 1007 94 4900 2.06 110 23:50 27.02.2021
2055 Mist 26 1007 88 5000 2.06 120 23:21 27.02.2021
2056 Mist 26 1007 94 5000 2.06 130 22:49 27.02.2021
2057 Clear 26 1007 94 6000 1.54 130 22:23 27.02.2021
2058 Clear 26 1007 89 7000 2.06 140 21:55 27.02.2021
2059 Clear 26 1007 89 7000 2.06 170 21:35 27.02.2021
2060 Rain 27 1007 83 7000 2.06 170 20:54 27.02.2021
2061 Clear 26 1007 89 7000 2.06 190 20:35 27.02.2021
2062 Clear 26 1007 89 7000 2.06 190 20:35 27.02.2021
2063 Rain 27 1008 83 8000 2.57 190 19:58 27.02.2021
2064 Rain 27 1008 83 8000 2.57 190 19:39 27.02.2021
2065 Rain 27 1008 83 8000 2.57 190 19:21 27.02.2021
2066 Rain 28 1007 73 10000 4.59 191 18:38 27.02.2021
2067 Rain 28 1007 72 10000 5.58 194 18:18 27.02.2021
2068 Rain 28 1007 70 10000 5.58 194 17:43 27.02.2021
2069 Rain 28 1007 69 10000 6.06 194 17:20 27.02.2021
2070 Rain 29 1007 68 10000 6.06 194 16:50 27.02.2021
2071 Rain 29 1007 67 10000 6.06 194 16:30 27.02.2021
2072 Rain 29 1007 61 10000 3.6 180 15:49 27.02.2021
2073 Rain 29 1007 54 10000 3.6 170 15:30 27.02.2021
2074 Rain 29 1006 45 10000 2.57 170 14:41 27.02.2021
2075 Rain 30 1006 45 10000 2.57 170 14:23 27.02.2021
2076 Rain 31 1005 54 10000 5.03 167 13:47 27.02.2021
2077 Rain 32 1005 51 10000 4.62 163 13:25 27.02.2021
2078 Rain 32 1004 48 10000 4.62 163 12:51 27.02.2021
2079 Rain 32 1004 45 10000 4.36 165 12:27 27.02.2021
2080 Clouds 34 1004 41 10000 4.36 165 11:55 27.02.2021
2081 Rain 34 1004 38 10000 4.36 165 11:31 27.02.2021
2082 Rain 34 1003 34 10000 4.54 173 10:59 27.02.2021
2083 Rain 35 1003 38 10000 4.54 173 10:41 27.02.2021
2084 Clouds 35 1003 40 10000 4.85 175 10:18 27.02.2021
2085 Rain 34 1004 42 10000 4.85 175 09:35 27.02.2021
2086 Rain 35 1004 44 10000 5.24 172 08:45 27.02.2021
2087 Rain 35 1005 40 10000 4.6 172 08:24 27.02.2021
2088 Rain 36 1005 39 10000 4.6 172 07:59 27.02.2021
2089 Rain 35 1006 34 10000 4.6 172 07:31 27.02.2021
2090 Mist 28 1008 94 2700 1.03 0 02:31 27.02.2021
2091 Clear 26 1006 88 6000 2.06 110 00:32 27.02.2021
2092 Clear 26 1005 89 8000 1.54 140 23:43 26.02.2021
2093 Rain 26 1005 89 8000 1.54 140 23:23 26.02.2021
2094 Clear 26 1005 89 10000 1.54 150 22:38 26.02.2021
2095 Clear 26 1005 89 10000 1.54 150 22:19 26.02.2021
2096 Clear 27 1006 83 10000 2.57 160 21:36 26.02.2021
2097 Clear 27 1006 83 10000 3.09 160 20:56 26.02.2021
2098 Clear 27 1006 83 10000 3.09 160 20:56 26.02.2021
2099 Clear 27 1006 83 10000 3.09 170 20:37 26.02.2021
2100 Clear 27 1006 83 10000 3.09 170 20:37 26.02.2021
2101 Clear 27 1006 83 10000 3.09 170 20:18 26.02.2021
2102 Rain 27 1006 83 10000 3.09 170 19:27 26.02.2021
2103 Rain 27 1007 78 10000 3.6 200 18:57 26.02.2021
2104 Clear 28 1007 74 10000 3.6 190 18:25 26.02.2021
2105 Clear 28 1007 74 10000 3.6 190 17:59 26.02.2021
2106 Rain 27 1007 74 10000 3.09 200 17:38 26.02.2021
2107 Rain 27 1007 74 10000 3.09 200 17:18 26.02.2021
2108 Clear 29 1006 68 10000 4.73 204 16:46 26.02.2021
2109 Rain 29 1006 68 10000 5.76 199 16:27 26.02.2021
2110 Rain 30 1006 62 10000 5.76 199 15:44 26.02.2021
2111 Rain 30 1005 61 10000 6.45 190 15:24 26.02.2021
2112 Rain 30 1005 60 10000 6.45 190 14:57 26.02.2021
2113 Rain 30 1004 58 10000 6.45 190 14:35 26.02.2021
2114 Rain 31 1003 55 10000 6.03 172 13:54 26.02.2021
2115 Rain 31 1003 55 10000 5.43 173 13:34 26.02.2021
2116 Rain 31 1003 54 10000 4.41 169 12:57 26.02.2021
2117 Rain 33 1003 51 10000 5.03 172 12:28 26.02.2021
2118 Rain 33 1003 44 10000 5.03 172 11:43 26.02.2021
2119 Rain 33 1002 44 10000 4.9 177 11:20 26.02.2021
2120 Rain 35 1002 44 10000 4.9 177 10:37 26.02.2021
2121 Clear 36 1003 43 10000 3.57 183 09:48 26.02.2021
2122 Rain 36 1003 41 10000 2.45 194 09:28 26.02.2021
2123 Rain 36 1005 26 10000 1.54 190 08:39 26.02.2021
2124 Clear 36 1004 33 10000 2.04 212 07:58 26.02.2021
2125 Clear 35 1005 35 10000 1.61 243 07:22 26.02.2021
2126 Clear 34 1006 36 10000 1.61 243 06:35 26.02.2021
2127 Clear 32 1007 39 10000 1.51 275 05:19 26.02.2021
2128 Clouds 28 1008 61 8000 1.54 200 02:39 26.02.2021
2129 Rain 26 1006 89 8000 1.54 160 00:33 26.02.2021
2130 Clouds 26 1005 83 8000 1.54 180 23:40 25.02.2021
2131 Clouds 26 1005 83 8000 1.54 180 23:19 25.02.2021
2132 Rain 26 1005 83 8000 2.06 180 22:38 25.02.2021
2133 Clouds 27 1005 83 8000 2.06 190 21:53 25.02.2021
2134 Clouds 27 1006 83 8000 2.57 200 21:33 25.02.2021
2135 Clouds 27 1006 74 8000 2.06 200 20:56 25.02.2021
2136 Clouds 27 1006 74 8000 2.06 200 20:37 25.02.2021
2137 Rain 27 1006 74 8000 2.06 200 20:18 25.02.2021
2138 Rain 27 1006 78 8000 2.57 210 19:46 25.02.2021
2139 Rain 27 1007 74 8000 3.6 210 19:19 25.02.2021
2140 Rain 28 1007 69 8000 3.6 210 18:44 25.02.2021
2141 Rain 28 1007 69 9000 4.12 210 18:18 25.02.2021
2142 Clouds 28 1007 61 9000 4.12 210 17:35 25.02.2021
2143 Rain 29 1006 68 10000 5.63 197 16:59 25.02.2021
2144 Rain 29 1006 67 10000 5.63 197 16:33 25.02.2021
2145 Rain 29 1005 63 10000 6.03 200 15:49 25.02.2021
2146 Rain 30 1005 62 10000 6.37 202 15:28 25.02.2021
2147 Rain 30 1005 62 10000 6.37 202 15:28 25.02.2021
2148 Rain 30 1005 62 10000 6.37 202 14:37 25.02.2021
2149 Rain 31 1004 59 10000 6.31 198 14:18 25.02.2021
2150 Rain 32 1004 54 10000 6.31 198 13:41 25.02.2021
2151 Rain 32 1004 55 10000 5.54 173 13:20 25.02.2021
2152 Clouds 32 1003 52 10000 5.54 173 12:38 25.02.2021
2153 Rain 32 1003 52 10000 5.54 173 12:38 25.02.2021
2154 Rain 34 1003 52 10000 4.7 147 12:20 25.02.2021
2155 Clouds 33 1003 53 10000 4.7 147 11:42 25.02.2021
2156 Rain 35 1004 32 10000 3.74 168 10:51 25.02.2021
2157 Rain 35 1005 32 10000 3.09 280 10:33 25.02.2021
2158 Rain 35 1004 47 10000 2.62 201 09:45 25.02.2021
2159 Rain 35 1004 47 10000 2.62 201 09:45 25.02.2021
2160 Rain 35 1004 39 10000 2.16 229 09:23 25.02.2021
2161 Clouds 35 1005 40 10000 2.34 239 08:32 25.02.2021
2162 Clouds 35 1006 40 10000 2.34 239 07:59 25.02.2021
2163 Rain 34 1006 41 10000 2.34 239 07:38 25.02.2021
2164 Clouds 34 1007 45 10000 2.69 245 06:57 25.02.2021
2165 Clouds 32 1009 51 10000 2.54 241 05:24 25.02.2021
2166 Clouds 29 1008 77 10000 1.97 206 01:45 25.02.2021
2167 Clouds 27 1007 79 10000 2.03 201 00:48 25.02.2021
2168 Clouds 27 1007 79 10000 2.39 200 00:19 25.02.2021
2169 Clouds 27 1007 78 10000 2.39 200 23:35 24.02.2021
2170 Clouds 27 1007 77 10000 3.12 195 22:47 24.02.2021
2171 Clouds 26 1008 88 8000 1.03 140 22:29 24.02.2021
2172 Clouds 26 1008 83 8000 2.06 150 21:48 24.02.2021
2173 Clouds 27 1007 75 10000 4.64 190 21:24 24.02.2021
2174 Clouds 27 1007 75 10000 4.64 190 20:48 24.02.2021
2175 Clouds 27 1007 74 10000 5.17 189 20:25 24.02.2021
2176 Clouds 27 1007 73 10000 5.17 189 19:40 24.02.2021
2177 Clear 27 1007 72 10000 5.35 196 19:20 24.02.2021
2178 Clear 27 1007 72 10000 5.22 192 19:20 24.02.2021
2179 Clear 27 1008 72 10000 5.35 196 18:48 24.02.2021
2180 Rain 28 1008 72 10000 5.52 194 18:29 24.02.2021
2181 Rain 28 1008 70 10000 5.52 194 17:39 24.02.2021
2182 Rain 27 1008 69 10000 6.29 192 17:20 24.02.2021
2183 Rain 27 1008 68 10000 6.29 192 16:45 24.02.2021
2184 Rain 27 1008 67 10000 6.92 190 16:20 24.02.2021
2185 Rain 27 1008 66 10000 6.92 190 15:47 24.02.2021
2186 Rain 27 1007 64 10000 6.92 187 15:25 24.02.2021
2187 Rain 29 1007 64 10000 6.92 187 14:35 24.02.2021
2188 Rain 29 1007 61 10000 6.04 185 13:59 24.02.2021
2189 Rain 29 1006 61 10000 0.45 239 13:40 24.02.2021
2190 Rain 29 1006 61 10000 5.46 176 13:22 24.02.2021
2191 Rain 29 1006 58 10000 5.78 176 12:45 24.02.2021
2192 Clouds 29 1006 58 10000 4.97 158 12:27 24.02.2021
2193 Rain 30 1006 54 10000 4.97 158 11:50 24.02.2021
2194 Rain 32 1006 54 10000 4.94 167 11:21 24.02.2021
2195 Rain 33 1006 50 10000 5.14 176 10:32 24.02.2021
2196 Rain 33 1006 49 10000 5.14 176 09:50 24.02.2021
2197 Rain 34 1008 43 9000 5.14 190 09:20 24.02.2021
2198 Rain 33 1007 50 10000 0.45 186 08:37 24.02.2021
2199 Clouds 33 1007 49 10000 5.04 179 08:19 24.02.2021
2200 Clouds 32 1008 51 10000 0.45 227 07:20 24.02.2021
2201 Clouds 33 1009 52 10000 5.09 184 06:42 24.02.2021
2202 Clouds 30 1011 64 10000 4.51 186 03:40 24.02.2021
2203 Rain 26 1010 89 10000 1.54 180 00:37 24.02.2021
2204 Clouds 26 1009 89 8000 2.06 160 23:29 23.02.2021
2205 Rain 26 1009 89 10000 2.57 180 22:40 23.02.2021
2206 Rain 27 1007 78 10000 4.07 177 22:19 23.02.2021
2207 Rain 26 1009 89 8000 2.57 190 21:44 23.02.2021
2208 Rain 26 1009 89 8000 2.57 190 21:22 23.02.2021
2209 Clouds 26 1009 89 8000 3.09 190 20:48 23.02.2021
2210 Rain 26 1009 83 10000 3.6 190 20:29 23.02.2021
2211 Clear 26 1008 77 10000 4.92 183 19:48 23.02.2021
2212 Clear 27 1008 77 10000 4.98 186 19:27 23.02.2021
2213 Clouds 27 1010 83 10000 3.6 190 18:56 23.02.2021
2214 Rain 28 1008 76 10000 4.98 186 18:32 23.02.2021
2215 Rain 28 1009 75 10000 4.83 193 17:54 23.02.2021
2216 Rain 28 1009 75 10000 4.83 193 17:33 23.02.2021
2217 Clear 28 1009 73 10000 4.87 197 16:56 23.02.2021
2218 Clear 28 1009 72 10000 4.49 202 16:28 23.02.2021
2219 Rain 30 1009 70 10000 4.49 202 15:58 23.02.2021
2220 Rain 29 1009 69 10000 4.49 202 15:38 23.02.2021
2221 Rain 30 1008 68 10000 4.33 195 15:18 23.02.2021
2222 Rain 29 1008 66 10000 4.33 195 14:43 23.02.2021
2223 Rain 29 1008 66 10000 4.46 189 14:25 23.02.2021
2224 Rain 29 1008 63 10000 4.24 190 13:44 23.02.2021
2225 Rain 29 1007 63 10000 4.54 189 13:24 23.02.2021
2226 Rain 30 1007 60 10000 4.54 189 12:51 23.02.2021
2227 Rain 30 1007 59 10000 4.67 185 12:20 23.02.2021
2228 Rain 31 1007 55 10000 4.67 185 11:48 23.02.2021
2229 Rain 31 1006 54 10000 4.45 184 11:21 23.02.2021
2230 Rain 32 1006 54 10000 4.45 184 10:49 23.02.2021
2231 Rain 32 1008 43 10000 3.6 200 10:30 23.02.2021
2232 Clouds 32 1009 46 10000 3.09 210 09:43 23.02.2021
2233 Clouds 32 1007 54 10000 4.47 178 09:24 23.02.2021
2234 Clouds 32 1008 56 10000 4.47 178 08:49 23.02.2021
2235 Clouds 34 1008 56 10000 4.2 179 08:22 23.02.2021
2236 Clouds 34 1009 57 10000 4.2 179 07:49 23.02.2021
2237 Clouds 31 1011 61 10000 4.6 185 05:31 23.02.2021
2238 Clouds 31 1012 63 10000 4.24 187 04:32 23.02.2021
2239 Mist 27 1013 88 5000 2.06 120 02:34 23.02.2021
2240 Clouds 25 1011 94 7000 3.09 100 00:20 23.02.2021
2241 Clouds 25 1011 94 8000 2.57 100 23:46 22.02.2021
2242 Clouds 25 1010 94 8000 2.06 100 23:20 22.02.2021
2243 Clouds 25 1010 88 9000 1.54 120 22:39 22.02.2021
2244 Clouds 25 1010 88 9000 1.54 120 22:20 22.02.2021
2245 Clouds 26 1010 83 9000 1.03 140 21:40 22.02.2021
2246 Clouds 26 1010 83 9000 1.03 140 21:21 22.02.2021
2247 Rain 26 1010 83 9000 2.06 180 20:50 22.02.2021
2248 Clouds 26 1009 76 10000 4.81 175 20:27 22.02.2021
2249 Clouds 26 1009 75 10000 4.81 175 19:51 22.02.2021
2250 Clear 26 1010 75 10000 4.48 178 19:30 22.02.2021
2251 Clouds 27 1010 74 10000 5.08 179 18:49 22.02.2021
2252 Rain 27 1010 74 10000 5.08 179 18:30 22.02.2021
2253 Rain 27 1010 73 10000 5.63 182 17:54 22.02.2021
2254 Rain 27 1011 73 10000 5.55 185 17:22 22.02.2021
2255 Rain 27 1011 73 10000 5.55 185 17:22 22.02.2021
2256 Rain 27 1011 73 10000 5.55 185 17:22 22.02.2021
2257 Rain 27 1011 73 10000 5.55 185 17:22 22.02.2021
2258 Rain 27 1010 72 10000 5.55 185 16:53 22.02.2021
2259 Rain 27 1010 72 10000 5.55 185 16:31 22.02.2021
2260 Rain 27 1010 71 10000 5.95 189 15:39 22.02.2021
2261 Rain 27 1010 70 10000 6.07 191 15:21 22.02.2021
2262 Rain 27 1010 68 10000 6.07 191 14:42 22.02.2021
2263 Rain 28 1010 65 9000 3.6 210 14:21 22.02.2021
2264 Rain 29 1009 64 10000 5.94 190 13:41 22.02.2021
2265 Rain 29 1009 61 10000 5.5 192 12:55 22.02.2021
2266 Rain 30 1008 59 10000 4.92 193 12:23 22.02.2021
2267 Rain 31 1008 58 10000 4.92 193 11:57 22.02.2021
2268 Rain 31 1008 57 10000 4.92 193 11:32 22.02.2021
2269 Rain 31 1008 54 10000 4.86 192 10:59 22.02.2021
2270 Rain 31 1007 52 10000 4.86 192 10:41 22.02.2021
2271 Rain 32 1007 50 10000 5.24 189 10:20 22.02.2021
2272 Rain 32 1008 51 10000 5.24 189 09:39 22.02.2021
2273 Clouds 33 1009 40 10000 1.54 160 09:21 22.02.2021
2274 Clouds 33 1009 40 10000 1.54 160 09:21 22.02.2021
2275 Clear 33 1008 54 10000 4.7 186 08:49 22.02.2021
2276 Clear 34 1009 54 10000 3.17 183 08:21 22.02.2021
2277 Clear 34 1009 54 10000 3.17 183 07:48 22.02.2021
2278 Clouds 33 1011 46 9000 2.06 0 07:22 22.02.2021
2279 Clouds 32 1011 57 10000 2.2 195 06:27 22.02.2021
2280 Clouds 29 1013 61 10000 2.54 206 04:28 22.02.2021
2281 Clouds 29 1013 65 10000 2.71 209 03:23 22.02.2021
2282 Mist 25 1013 94 3000 3.09 100 00:56 22.02.2021
2283 Mist 25 1012 94 4900 1.54 110 00:30 22.02.2021
2284 Clouds 25 1012 88 7000 2.06 110 23:57 21.02.2021
2285 Clouds 25 1011 88 8000 1.03 130 23:25 21.02.2021
2286 Clouds 25 1011 88 8000 1.03 140 22:30 21.02.2021
2287 Clouds 25 1011 83 8000 1.03 140 21:52 21.02.2021
2288 Clouds 25 1011 83 8000 1.03 140 21:52 21.02.2021
2289 Clouds 25 1011 83 8000 1.54 160 21:34 21.02.2021
2290 Clouds 25 1011 83 8000 1.54 160 21:34 21.02.2021
2291 Clouds 25 1011 83 8000 1.54 170 20:58 21.02.2021
2292 Clouds 26 1011 78 9000 2.06 160 20:36 21.02.2021
2293 Clouds 26 1011 78 9000 2.06 160 20:18 21.02.2021
2294 Clouds 26 1012 73 9000 2.06 180 19:43 21.02.2021
2295 Clouds 26 1010 69 10000 3.88 177 19:23 21.02.2021
2296 Clear 26 1013 69 10000 3.09 200 18:29 21.02.2021
2297 Clouds 27 1011 65 10000 4.17 184 17:58 21.02.2021
2298 Clouds 27 1011 63 10000 4.35 188 17:26 21.02.2021
2299 Rain 27 1011 61 10000 4.35 188 16:53 21.02.2021
2300 Clouds 27 1011 60 10000 4.35 188 16:31 21.02.2021
2301 Clouds 27 1011 59 10000 4.34 191 15:47 21.02.2021
2302 Clouds 28 1011 57 10000 4.14 203 15:19 21.02.2021
2303 Clouds 28 1011 54 10000 4.14 203 14:41 21.02.2021
2304 Clouds 28 1010 54 10000 4.02 201 14:20 21.02.2021
2305 Clouds 29 1010 48 10000 4 201 13:43 21.02.2021
2306 Clouds 30 1010 45 10000 4.81 198 13:22 21.02.2021
2307 Clouds 32 1009 39 10000 3.86 198 12:29 21.02.2021
2308 Clouds 32 1009 38 10000 3.86 198 11:43 21.02.2021
2309 Clear 33 1010 31 10000 3.09 100 10:58 21.02.2021
2310 Clear 33 1010 31 10000 2.06 40 10:23 21.02.2021
2311 Clear 33 1010 31 10000 3.6 60 09:53 21.02.2021
2312 Clouds 33 1009 34 10000 1.99 155 09:28 21.02.2021
2313 Clouds 33 1009 35 10000 1.99 155 08:49 21.02.2021
2314 Clouds 33 1010 35 10000 1.78 138 08:19 21.02.2021
2315 Clouds 34 1011 36 10000 2.51 151 07:33 21.02.2021
2316 Clouds 33 1012 38 10000 2.54 134 06:52 21.02.2021
2317 Clouds 27 1014 48 10000 0.43 96 02:49 21.02.2021
2318 Clouds 26 1014 49 10000 0.66 282 02:29 21.02.2021
2319 Clouds 25 1013 68 10000 0.7 269 00:42 21.02.2021
2320 Clouds 25 1013 68 10000 0.81 213 00:18 21.02.2021
2321 Clouds 25 1011 58 10000 0.95 225 23:18 20.02.2021
2322 Clouds 25 1011 58 10000 0.95 225 22:41 20.02.2021
2323 Clouds 25 1011 58 10000 1.15 227 22:21 20.02.2021
2324 Clouds 25 1011 57 10000 1.15 227 21:41 20.02.2021
2325 Clouds 25 1011 57 10000 1.45 216 21:20 20.02.2021
2326 Clouds 25 1011 56 10000 1.51 182 20:42 20.02.2021
2327 Clouds 26 1012 55 10000 1.43 186 20:21 20.02.2021
2328 Clouds 28 1012 54 10000 1.43 186 19:52 20.02.2021
2329 Clouds 28 1012 54 10000 1.87 189 19:23 20.02.2021
2330 Clouds 27 1012 52 10000 1.87 189 18:38 20.02.2021
2331 Clouds 27 1012 52 10000 2.32 186 18:19 20.02.2021
2332 Clouds 27 1013 52 10000 2.32 186 17:37 20.02.2021
2333 Clouds 28 1013 50 10000 2.48 195 16:54 20.02.2021
2334 Clouds 27 1013 50 10000 2.48 195 16:32 20.02.2021
2335 Clouds 27 1012 49 10000 2.92 215 15:46 20.02.2021
2336 Clouds 27 1012 49 10000 3.28 200 15:21 20.02.2021
2337 Clouds 27 1012 48 10000 3.28 200 14:44 20.02.2021
2338 Clouds 28 1013 47 10000 1.03 130 14:23 20.02.2021
2339 Clouds 28 1012 45 10000 1.54 130 13:41 20.02.2021
2340 Clouds 30 1011 45 10000 2.64 131 13:22 20.02.2021
2341 Clouds 30 1011 44 10000 2.64 131 12:49 20.02.2021
2342 Clear 30 1010 43 10000 2.69 101 12:22 20.02.2021
2343 Clear 31 1010 45 10000 2.69 101 11:42 20.02.2021
2344 Clear 32 1010 41 10000 2.79 86 11:23 20.02.2021
2345 Clear 32 1010 40 10000 2.79 86 10:43 20.02.2021
2346 Clear 32 1010 40 10000 2.94 84 09:50 20.02.2021
2347 Clear 31 1010 41 10000 2.87 84 09:20 20.02.2021
2348 Clear 32 1011 42 10000 2.87 84 08:34 20.02.2021
2349 Clear 32 1012 43 10000 0.45 82 07:54 20.02.2021
2350 Clear 26 1015 53 10000 0.45 92 02:45 20.02.2021
2351 Clear 24 1017 64 10000 1.54 120 02:21 20.02.2021
2352 Clear 22 1016 73 10000 3.09 20 01:22 20.02.2021
2353 Clear 23 1015 68 10000 2.57 50 00:45 20.02.2021
2354 Clear 23 1015 68 10000 3.09 40 23:43 19.02.2021
2355 Clear 23 1014 64 10000 3.6 40 22:51 19.02.2021
2356 Clear 24 1014 64 10000 3.6 40 22:26 19.02.2021
2357 Clear 24 1014 64 10000 3.6 40 21:48 19.02.2021
2358 Clouds 25 1013 54 10000 3.72 71 21:28 19.02.2021
2359 Clear 24 1015 60 10000 3.6 40 20:47 19.02.2021
2360 Clouds 26 1013 51 10000 3.95 71 20:27 19.02.2021
2361 Clouds 26 1013 51 10000 3.95 71 19:50 19.02.2021
2362 Clouds 28 1013 50 10000 4.23 72 19:20 19.02.2021
2363 Clouds 27 1014 52 10000 2.81 76 18:54 19.02.2021
2364 Clouds 27 1014 52 10000 2.81 76 18:31 19.02.2021
2365 Clouds 29 1014 52 10000 2.49 93 17:45 19.02.2021
2366 Clouds 29 1014 51 10000 2.51 104 16:50 19.02.2021
2367 Clouds 29 1014 50 10000 2.67 90 16:23 19.02.2021
2368 Clouds 30 1014 50 10000 2.67 90 15:57 19.02.2021
2369 Clouds 30 1014 50 10000 2.67 90 15:30 19.02.2021
2370 Clouds 30 1013 49 10000 2.93 65 14:56 19.02.2021
2371 Clouds 30 1013 48 10000 2.93 65 14:36 19.02.2021
2372 Clouds 30 1013 48 10000 3.13 42 13:57 19.02.2021
2373 Clouds 29 1012 47 10000 3.13 42 13:37 19.02.2021
2374 Clouds 29 1012 45 10000 2.41 48 12:59 19.02.2021
2375 Clouds 29 1012 45 10000 2.41 48 12:41 19.02.2021
2376 Clouds 30 1012 44 10000 2.58 54 12:20 19.02.2021
2377 Clouds 30 1012 43 10000 2.58 54 11:44 19.02.2021
2378 Clouds 32 1012 48 10000 0.89 22 11:19 19.02.2021
2379 Clouds 31 1011 42 10000 3.22 65 10:38 19.02.2021
2380 Clouds 31 1011 40 10000 0.45 59 10:19 19.02.2021
2381 Clouds 32 1011 42 10000 3.64 69 09:37 19.02.2021
2382 Clouds 32 1011 42 10000 3.64 69 09:37 19.02.2021
2383 Clouds 31 1012 42 10000 3.99 73 09:18 19.02.2021
2384 Clouds 32 1012 43 10000 3.99 73 08:42 19.02.2021
2385 Clear 31 1013 43 10000 0.45 82 08:21 19.02.2021
2386 Clear 32 1014 43 10000 0.45 13 07:45 19.02.2021
2387 Clear 30 1014 43 10000 0.45 87 07:25 19.02.2021
2388 Clear 31 1015 45 10000 0.45 74 06:44 19.02.2021
2389 Clear 27 1017 49 10000 0.89 64 04:42 19.02.2021
2390 Clear 25 1017 53 10000 1.34 79 02:50 19.02.2021
2391 Clear 24 1016 61 10000 6.79 83 01:33 19.02.2021
2392 Clear 23 1016 68 10000 6.51 85 00:35 19.02.2021
2393 Clear 23 1016 68 10000 6.51 85 23:47 18.02.2021
2394 Clear 23 1016 68 10000 2.57 40 23:29 18.02.2021
2395 Clear 24 1015 60 10000 3.6 10 22:37 18.02.2021
2396 Clear 24 1015 60 10000 3.6 10 22:18 18.02.2021
2397 Clear 24 1015 64 10000 3.6 30 21:40 18.02.2021
2398 Clear 25 1014 56 10000 4.28 74 21:21 18.02.2021
2399 Clear 26 1014 54 10000 4.28 74 20:39 18.02.2021
2400 Clear 26 1014 54 10000 4.27 84 20:21 18.02.2021
2401 Clear 27 1014 52 10000 4.27 84 19:43 18.02.2021
2402 Rain 27 1014 52 10000 0.45 61 19:20 18.02.2021
2403 Clear 28 1014 51 10000 3.6 101 18:50 18.02.2021
2404 Clear 28 1014 50 10000 0.45 43 18:26 18.02.2021
2405 Clear 28 1014 50 10000 0.45 65 17:49 18.02.2021
2406 Clear 29 1014 51 10000 1.51 160 17:24 18.02.2021
2407 Clear 29 1014 51 10000 1.51 160 16:46 18.02.2021
2408 Clear 29 1014 51 10000 2.1 177 16:28 18.02.2021
2409 Clear 29 1014 51 10000 2.1 177 15:43 18.02.2021
2410 Clear 29 1014 51 10000 3.31 180 15:23 18.02.2021
2411 Clear 29 1014 50 10000 3.31 180 14:53 18.02.2021
2412 Clear 29 1013 50 10000 3.31 180 14:32 18.02.2021
2413 Clear 29 1013 48 10000 2.52 164 13:50 18.02.2021
2414 Clear 29 1013 48 10000 2.52 164 13:50 18.02.2021
2415 Clear 29 1012 48 10000 2.67 137 13:21 18.02.2021
2416 Clear 29 1013 45 10000 2.57 110 12:54 18.02.2021
2417 Clear 30 1013 45 10000 3.09 110 12:30 18.02.2021
2418 Clear 30 1012 45 10000 3.08 104 11:47 18.02.2021
2419 Clear 31 1013 42 10000 2.57 90 11:27 18.02.2021
2420 Clear 32 1011 42 10000 0.45 53 10:57 18.02.2021
2421 Clear 32 1011 42 10000 3.68 89 10:36 18.02.2021
2422 Clear 32 1011 42 10000 4.11 82 10:18 18.02.2021
2423 Clear 32 1012 42 10000 4.6 81 09:28 18.02.2021
2424 Clear 32 1012 42 10000 0.89 74 08:49 18.02.2021
2425 Clear 32 1013 43 10000 0.89 62 08:31 18.02.2021
2426 Clear 32 1013 44 10000 0.45 53 07:48 18.02.2021
2427 Clear 32 1014 45 10000 0.45 65 07:20 18.02.2021
2428 Clear 30 1017 45 10000 8.23 100 05:42 18.02.2021
2429 Clear 30 1017 45 10000 8.23 100 05:42 18.02.2021
2430 Clear 30 1017 45 10000 8.23 100 05:42 18.02.2021
2431 Clouds 25 1014 73 9000 3.6 100 00:26 18.02.2021
2432 Clear 28 1012 76 10000 3.8 97 23:38 17.02.2021
2433 Mist 25 1013 94 5000 2.57 110 23:38 17.02.2021
2434 Clear 27 1012 80 10000 3.8 97 22:59 17.02.2021
2435 Clear 27 1012 79 10000 3.8 97 22:39 17.02.2021
2436 Clear 28 1012 79 10000 2.58 102 22:19 17.02.2021
2437 Clear 27 1012 78 10000 2.58 102 21:42 17.02.2021
2438 Clear 27 1011 77 10000 1.84 135 21:19 17.02.2021
2439 Clear 27 1011 77 10000 1.84 135 20:40 17.02.2021
2440 Clear 28 1012 76 10000 2.04 165 19:59 17.02.2021
2441 Clear 28 1012 76 10000 2.04 165 19:37 17.02.2021
2442 Clouds 28 1012 76 10000 2.31 181 18:58 17.02.2021
2443 Clouds 27 1014 83 8000 2.57 160 18:37 17.02.2021
2444 Clouds 27 1014 83 8000 2.06 160 17:47 17.02.2021
2445 Clouds 27 1014 83 8000 2.06 170 17:23 17.02.2021
2446 Clouds 27 1014 78 8000 2.57 170 16:54 17.02.2021
2447 Clouds 28 1013 78 8000 2.57 170 16:29 17.02.2021
2448 Clouds 28 1013 78 8000 3.6 170 15:59 17.02.2021
2449 Clouds 27 1013 78 8000 3.09 170 15:40 17.02.2021
2450 Clouds 28 1012 78 8000 3.09 190 15:21 17.02.2021
2451 Clouds 28 1012 78 8000 3.09 190 14:44 17.02.2021
2452 Clouds 28 1012 74 8000 3.09 200 14:25 17.02.2021
2453 Clouds 28 1010 73 10000 4.43 191 13:43 17.02.2021
2454 Clouds 30 1010 70 10000 4.94 191 12:59 17.02.2021
2455 Clouds 30 1010 70 10000 5.4 185 12:26 17.02.2021
2456 Clouds 29 1009 68 10000 5.4 185 11:50 17.02.2021
2457 Clouds 30 1009 64 10000 0.45 213 11:30 17.02.2021
2458 Clouds 33 1010 58 8000 5.14 260 10:59 17.02.2021
2459 Clouds 32 1008 62 10000 6.74 184 10:40 17.02.2021
2460 Clouds 33 1009 61 10000 4.69 179 10:20 17.02.2021
2461 Clouds 33 1008 58 10000 4.69 179 09:41 17.02.2021
2462 Clouds 34 1009 57 10000 1.9 191 09:18 17.02.2021
2463 Clouds 34 1009 54 10000 1.9 191 08:42 17.02.2021
2464 Clouds 33 1011 49 8000 4.12 120 08:20 17.02.2021
2465 Clouds 32 1010 59 10000 4.22 162 07:24 17.02.2021
2466 Clear 30 1013 71 10000 3.78 179 03:55 17.02.2021
2467 Mist 28 1013 89 5000 2.06 80 02:33 17.02.2021
2468 Mist 26 1012 94 3000 2.06 120 01:49 17.02.2021
2469 Mist 26 1011 94 4000 2.57 100 00:30 17.02.2021
2470 Mist 27 1011 89 5000 2.06 110 23:50 16.02.2021
2471 Rain 26 1011 94 7000 1.03 90 23:32 16.02.2021
2472 Clouds 27 1010 89 9000 2.06 100 22:42 16.02.2021
2473 Clouds 27 1010 89 9000 2.06 100 22:22 16.02.2021
2474 Clouds 27 1010 83 9000 1.54 120 21:40 16.02.2021
2475 Clouds 27 1010 83 9000 1.54 120 21:40 16.02.2021
2476 Clouds 27 1010 83 9000 1.54 120 21:22 16.02.2021
2477 Clouds 27 1010 83 9000 2.06 140 20:58 16.02.2021
2478 Clouds 27 1010 83 9000 2.06 180 20:38 16.02.2021
2479 Clouds 27 1010 83 9000 2.06 180 20:20 16.02.2021
2480 Clouds 27 1010 83 9000 2.57 180 19:40 16.02.2021
2481 Clouds 27 1010 83 9000 2.57 180 19:21 16.02.2021
2482 Clouds 27 1011 83 9000 3.6 200 18:38 16.02.2021
2483 Clear 27 1009 74 10000 5.01 180 18:19 16.02.2021
2484 Clouds 28 1011 78 9000 3.09 180 17:49 16.02.2021
2485 Clouds 28 1011 74 9000 3.09 190 17:23 16.02.2021
2486 Clouds 28 1010 72 10000 5.43 179 16:47 16.02.2021
2487 Clouds 28 1010 72 10000 5.77 177 16:24 16.02.2021
2488 Clouds 28 1010 70 10000 5.77 177 15:47 16.02.2021
2489 Clouds 28 1010 70 10000 5.84 173 15:26 16.02.2021
2490 Clouds 29 1009 68 10000 5.84 173 14:48 16.02.2021
2491 Clouds 30 1009 68 10000 5.43 170 14:29 16.02.2021
2492 Clouds 29 1009 67 10000 5.43 170 13:56 16.02.2021
2493 Clouds 29 1008 66 10000 5.43 170 13:33 16.02.2021
2494 Clouds 29 1008 63 10000 4.87 163 12:44 16.02.2021
2495 Clouds 29 1008 61 10000 4.68 167 12:24 16.02.2021
2496 Rain 30 1007 58 10000 4.68 167 11:49 16.02.2021
2497 Rain 32 1007 56 10000 4.74 171 11:23 16.02.2021
2498 Clouds 31 1007 56 10000 4.74 171 10:55 16.02.2021
2499 Rain 31 1007 56 10000 4.74 171 10:36 16.02.2021
2500 Rain 31 1007 57 10000 4.95 175 10:18 16.02.2021
2501 Clouds 32 1007 57 10000 4.95 175 09:44 16.02.2021
2502 Clouds 32 1008 56 10000 5.17 177 09:25 16.02.2021
2503 Clouds 32 1008 55 10000 5.17 177 08:42 16.02.2021
2504 Clouds 32 1008 56 10000 5.39 180 08:19 16.02.2021
2505 Clouds 32 1009 57 10000 5.39 180 07:21 16.02.2021
2506 Clear 30 1011 63 10000 5.59 180 05:28 16.02.2021
2507 Clouds 26 1010 100 7000 2.06 90 00:45 16.02.2021
2508 Clouds 27 1009 88 10000 4.6 172 23:39 15.02.2021
2509 Clouds 27 1009 88 10000 4.67 174 23:20 15.02.2021
2510 Clouds 27 1008 77 10000 4.67 174 22:43 15.02.2021
2511 Clouds 26 1009 89 10000 1.03 120 22:20 15.02.2021
2512 Clouds 26 1008 77 10000 4.37 178 21:38 15.02.2021
2513 Clear 26 1008 77 10000 4.57 184 21:20 15.02.2021
2514 Clear 26 1008 77 10000 4.57 184 20:45 15.02.2021
2515 Clear 26 1008 77 10000 4.57 184 20:45 15.02.2021
2516 Clear 27 1008 77 10000 4.76 185 20:26 15.02.2021
2517 Clear 27 1008 77 10000 4.76 185 20:26 15.02.2021
2518 Clouds 27 1010 83 10000 2.57 190 19:44 15.02.2021
2519 Clouds 27 1008 76 10000 4.97 185 19:23 15.02.2021
2520 Clouds 27 1009 75 10000 5 190 18:46 15.02.2021
2521 Clouds 28 1009 75 10000 5.28 192 18:26 15.02.2021
2522 Clouds 28 1009 74 10000 5.28 192 17:42 15.02.2021
2523 Clouds 28 1009 74 10000 5.75 192 17:24 15.02.2021
2524 Clouds 28 1009 73 10000 5.75 192 16:55 15.02.2021
2525 Clouds 28 1009 73 10000 6.01 192 16:27 15.02.2021
2526 Clouds 28 1009 71 10000 6.01 192 15:51 15.02.2021
2527 Clouds 28 1009 71 10000 5.72 189 15:23 15.02.2021
2528 Clouds 28 1009 70 10000 5.72 189 14:59 15.02.2021
2529 Clouds 29 1009 69 10000 5.72 189 14:36 15.02.2021
2530 Clouds 28 1009 68 10000 5.48 184 14:18 15.02.2021
2531 Clouds 29 1008 68 10000 5.54 183 13:45 15.02.2021
2532 Clouds 29 1008 68 10000 4.9 178 13:19 15.02.2021
2533 Clouds 29 1008 65 10000 4.9 178 12:43 15.02.2021
2534 Clouds 30 1008 63 10000 4.16 175 12:20 15.02.2021
2535 Clouds 30 1007 61 10000 4.16 175 11:42 15.02.2021
2536 Clouds 31 1007 59 10000 4.09 181 11:19 15.02.2021
2537 Clouds 32 1007 59 10000 0.45 244 10:46 15.02.2021
2538 Clouds 32 1007 57 10000 4.12 190 10:23 15.02.2021
2539 Clouds 32 1007 56 10000 4.12 190 09:54 15.02.2021
2540 Clouds 32 1007 56 10000 4.12 190 09:33 15.02.2021
2541 Clouds 32 1008 54 10000 4.53 188 08:44 15.02.2021
2542 Clouds 31 1009 57 10000 4.92 184 07:39 15.02.2021
2543 Clouds 31 1010 58 10000 5.43 183 06:53 15.02.2021
2544 Clouds 31 1010 59 10000 5.43 183 06:34 15.02.2021
2545 Mist 27 1013 88 4800 2.57 110 02:28 15.02.2021
2546 Clouds 25 1011 94 8000 2.57 70 00:41 15.02.2021
2547 Clouds 26 1011 94 10000 1.03 120 23:33 14.02.2021
2548 Clouds 25 1011 94 10000 4.27 179 22:54 14.02.2021
2549 Clouds 25 1011 94 10000 4.27 179 22:36 14.02.2021
2550 Clouds 26 1009 78 10000 4.46 179 22:18 14.02.2021
2551 Clouds 26 1009 78 10000 4.46 179 22:18 14.02.2021
2552 Clouds 26 1009 78 10000 4.46 179 21:42 14.02.2021
2553 Clouds 25 1011 88 10000 2.06 200 21:21 14.02.2021
2554 Rain 26 1011 89 10000 2.06 190 20:39 14.02.2021
2555 Clouds 26 1011 89 10000 2.06 190 20:20 14.02.2021
2556 Rain 26 1011 83 10000 2.06 200 19:40 14.02.2021
2557 Rain 27 1010 76 10000 5.23 189 18:51 14.02.2021
2558 Rain 27 1010 76 10000 5.35 196 18:29 14.02.2021
2559 Rain 27 1010 74 10000 5.35 196 17:51 14.02.2021
2560 Rain 27 1010 72 10000 5.35 196 17:32 14.02.2021
2561 Rain 27 1010 70 10000 5.33 192 16:44 14.02.2021
2562 Rain 27 1010 70 10000 5.36 193 16:25 14.02.2021
2563 Rain 27 1010 70 10000 5.36 193 15:47 14.02.2021
2564 Rain 28 1010 69 10000 5.48 192 15:29 14.02.2021
2565 Clouds 28 1010 67 10000 5.48 192 14:43 14.02.2021
2566 Rain 28 1010 66 10000 5.11 182 14:24 14.02.2021
2567 Clouds 29 1009 64 10000 5.11 182 13:42 14.02.2021
2568 Clouds 29 1009 62 10000 4.03 186 13:23 14.02.2021
2569 Clouds 30 1009 58 10000 4.28 189 12:24 14.02.2021
2570 Clouds 30 1009 58 10000 4.28 189 11:59 14.02.2021
2571 Rain 30 1009 57 10000 4.28 189 11:40 14.02.2021
2572 Rain 31 1008 56 10000 4.78 192 11:20 14.02.2021
2573 Rain 31 1009 54 10000 4.72 192 10:24 14.02.2021
2574 Clouds 32 1009 53 10000 4.72 192 09:40 14.02.2021
2575 Clouds 32 1009 53 10000 4.83 187 09:21 14.02.2021
2576 Clouds 32 1009 50 10000 4.83 187 08:57 14.02.2021
2577 Clouds 33 1010 53 10000 4.59 182 07:59 14.02.2021
2578 Clouds 32 1011 54 10000 4.38 178 06:59 14.02.2021
2579 Clouds 31 1013 57 10000 4.46 177 05:44 14.02.2021
2580 Clouds 29 1013 69 10000 4.42 170 03:57 14.02.2021
2581 Clouds 27 1013 73 10000 3.43 165 02:29 14.02.2021
2582 Mist 25 1013 94 4000 2.57 80 00:59 14.02.2021
2583 Clouds 25 1012 94 7000 2.06 100 00:41 14.02.2021
2584 Clouds 25 1012 94 9000 2.06 110 23:49 13.02.2021
2585 Clouds 26 1012 94 9000 2.06 130 23:25 13.02.2021
2586 Clouds 26 1012 89 9000 1.54 130 22:50 13.02.2021
2587 Clouds 26 1012 94 9000 1.54 170 22:21 13.02.2021
2588 Clouds 26 1012 94 9000 3.86 172 21:49 13.02.2021
2589 Clouds 26 1012 89 9000 1.54 160 21:26 13.02.2021
2590 Clouds 26 1012 89 9000 2.57 180 20:43 13.02.2021
2591 Rain 26 1012 89 9000 3.09 180 20:22 13.02.2021
2592 Rain 26 1011 78 10000 4.41 192 19:47 13.02.2021
2593 Clouds 27 1011 78 10000 4.74 198 19:23 13.02.2021
2594 Clouds 27 1011 77 10000 5.05 195 18:49 13.02.2021
2595 Clouds 27 1011 77 10000 5.57 195 18:24 13.02.2021
2596 Clouds 27 1011 76 10000 5.57 195 17:43 13.02.2021
2597 Clouds 27 1011 76 10000 5.9 193 17:23 13.02.2021
2598 Clouds 27 1011 73 10000 5.9 193 16:44 13.02.2021
2599 Clear 27 1011 72 10000 5.8 191 16:26 13.02.2021
2600 Clear 27 1011 69 10000 5.8 191 15:41 13.02.2021
2601 Clouds 27 1012 69 9000 5.39 188 15:22 13.02.2021
2602 Clear 28 1010 68 10000 5.39 188 14:33 13.02.2021
2603 Clear 28 1010 66 10000 4.46 181 13:48 13.02.2021
2604 Clear 29 1010 65 10000 3.32 164 13:25 13.02.2021
2605 Clear 29 1010 63 10000 3.52 163 12:50 13.02.2021
2606 Clear 29 1009 61 10000 3.42 177 12:19 13.02.2021
2607 Clear 30 1009 61 10000 3.42 177 12:19 13.02.2021
2608 Clear 30 1009 60 10000 3.42 177 11:45 13.02.2021
2609 Clear 30 1009 58 10000 3.42 177 11:45 13.02.2021
2610 Clear 32 1009 57 10000 4.1 194 11:20 13.02.2021
2611 Clear 31 1009 55 10000 4.1 194 10:47 13.02.2021
2612 Clear 32 1008 55 10000 4.35 199 10:26 13.02.2021
2613 Clear 32 1009 55 10000 4.35 199 09:56 13.02.2021
2614 Clear 33 1009 55 10000 4.35 199 09:30 13.02.2021
2615 Clear 33 1009 55 10000 4.28 195 08:59 13.02.2021
2616 Clear 33 1009 55 10000 4.28 195 08:39 13.02.2021
2617 Clear 33 1011 58 10000 2.24 160 07:52 13.02.2021
2618 Clear 31 1011 57 10000 4.08 186 06:41 13.02.2021
2619 Clear 30 1012 55 10000 3.67 174 05:27 13.02.2021
2620 Clear 29 1013 67 10000 3.55 172 03:58 13.02.2021
2621 Clear 28 1012 75 10000 3.24 174 01:48 13.02.2021
2622 Clear 26 1012 94 6000 3.55 171 00:36 13.02.2021
2623 Clear 25 1012 94 6000 3.37 173 23:54 12.02.2021
2624 Clear 25 1012 94 6000 3.3 177 23:24 12.02.2021
2625 Clear 25 1012 88 7000 3.3 177 22:42 12.02.2021
2626 Clear 25 1012 88 7000 3.31 174 22:21 12.02.2021
2627 Clouds 25 1012 88 7000 3.31 174 21:45 12.02.2021
2628 Clouds 25 1012 83 7000 1.54 150 21:26 12.02.2021
2629 Clouds 25 1012 83 7000 1.54 150 20:46 12.02.2021
2630 Clouds 26 1012 78 7000 2.06 150 20:28 12.02.2021
2631 Clear 26 1010 74 10000 2.71 199 19:57 12.02.2021
2632 Clear 26 1011 73 10000 2.71 199 19:37 12.02.2021
2633 Clear 26 1010 70 10000 3.77 196 18:55 12.02.2021
2634 Rain 26 1011 69 10000 4.42 195 18:29 12.02.2021
2635 Clear 28 1011 63 10000 4.42 195 17:44 12.02.2021
2636 Clear 27 1011 60 10000 4.69 190 17:21 12.02.2021
2637 Clear 30 1010 54 10000 4.29 182 16:27 12.02.2021
2638 Clear 28 1010 51 10000 4.29 182 15:46 12.02.2021
2639 Clear 29 1010 52 10000 2.66 151 15:21 12.02.2021
2640 Clear 28 1010 53 10000 2.66 151 14:42 12.02.2021
2641 Clouds 29 1011 39 10000 0.51 0 13:59 12.02.2021
2642 Clear 30 1009 51 10000 2.51 101 13:40 12.02.2021
2643 Clouds 31 1010 35 10000 2.57 340 12:56 12.02.2021
2644 Clouds 31 1009 48 10000 2.64 90 12:36 12.02.2021
2645 Rain 31 1009 41 10000 1.86 111 11:58 12.02.2021
2646 Rain 31 1008 40 10000 1.86 111 11:37 12.02.2021
2647 Rain 32 1008 39 10000 1.38 124 11:18 12.02.2021
2648 Clouds 32 1008 39 10000 1.38 124 10:40 12.02.2021
2649 Clouds 33 1008 39 10000 1.24 118 09:48 12.02.2021
2650 Clouds 33 1009 38 10000 1.03 106 09:24 12.02.2021
2651 Clouds 33 1009 37 10000 1.03 106 08:49 12.02.2021
2652 Clear 33 1009 38 10000 1.24 110 08:27 12.02.2021
2653 Clear 33 1010 37 10000 1.24 110 07:53 12.02.2021
2654 Clear 33 1010 37 10000 1.24 110 07:53 12.02.2021
2655 Clear 33 1010 38 10000 1.24 110 07:31 12.02.2021
2656 Clouds 32 1011 40 10000 1.51 105 06:55 12.02.2021
2657 Clouds 31 1012 40 10000 1.62 126 05:39 12.02.2021
2658 Clouds 29 1013 44 10000 1.9 111 04:22 12.02.2021
2659 Clouds 24 1013 73 10000 2.57 40 01:23 12.02.2021
2660 Clouds 25 1012 73 10000 0.95 87 23:40 11.02.2021
2661 Clouds 26 1010 60 10000 0.87 105 23:22 11.02.2021
2662 Clouds 26 1010 59 10000 0.87 105 22:45 11.02.2021
2663 Clouds 27 1010 58 10000 0.94 127 22:24 11.02.2021
2664 Clouds 27 1010 58 10000 0.94 127 21:46 11.02.2021
2665 Clouds 27 1010 57 10000 1.66 138 21:26 11.02.2021
2666 Rain 27 1010 56 10000 1.66 138 20:58 11.02.2021
2667 Clouds 26 1010 55 10000 1.66 138 20:39 11.02.2021
2668 Clouds 28 1010 54 10000 3.05 121 20:21 11.02.2021
2669 Clouds 28 1010 57 10000 3.05 121 19:47 11.02.2021
2670 Clouds 28 1010 57 10000 2.08 117 19:26 11.02.2021
2671 Rain 28 1011 57 10000 2.08 117 18:43 11.02.2021
2672 Rain 28 1010 56 10000 2.33 75 18:21 11.02.2021
2673 Rain 29 1010 56 10000 2.33 75 17:48 11.02.2021
2674 Rain 29 1010 54 10000 3.12 60 17:21 11.02.2021
2675 Rain 29 1010 53 10000 3.12 60 16:46 11.02.2021
2676 Rain 29 1010 52 10000 3.1 50 16:27 11.02.2021
2677 Rain 30 1010 51 10000 3.1 50 15:47 11.02.2021
2678 Rain 30 1010 50 10000 2.82 46 15:26 11.02.2021
2679 Rain 31 1010 49 10000 2.82 46 14:56 11.02.2021
2680 Rain 29 1010 48 10000 2.82 46 14:31 11.02.2021
2681 Rain 30 1009 47 10000 2.17 48 13:44 11.02.2021
2682 Rain 30 1009 47 10000 1.51 18 13:21 11.02.2021
2683 Rain 30 1008 46 10000 1.78 12 12:56 11.02.2021
2684 Rain 31 1008 50 10000 1.78 12 12:35 11.02.2021
2685 Rain 32 1008 41 10000 1.86 343 11:48 11.02.2021
2686 Rain 31 1008 43 10000 1.96 324 11:28 11.02.2021
2687 Rain 31 1008 41 10000 1.96 324 10:55 11.02.2021
2688 Rain 31 1007 41 10000 1.96 324 10:37 11.02.2021
2689 Clouds 32 1008 42 10000 1.63 316 10:19 11.02.2021
2690 Clouds 32 1008 42 10000 1.63 316 09:38 11.02.2021
2691 Clouds 32 1008 43 10000 1.67 332 09:18 11.02.2021
2692 Clouds 32 1008 43 10000 1.67 332 08:44 11.02.2021
2693 Clouds 33 1010 44 10000 1.81 352 07:43 11.02.2021
2694 Clouds 32 1011 48 10000 1.8 13 06:44 11.02.2021
2695 Clear 31 1012 49 10000 2.05 22 05:54 11.02.2021
2696 Clear 28 1013 53 10000 0.45 73 03:43 11.02.2021
2697 Clear 26 1012 58 10000 1.39 70 02:21 11.02.2021
2698 Clouds 24 1011 83 10000 2.06 50 00:23 11.02.2021
2699 Clouds 25 1011 78 10000 2.06 60 23:48 10.02.2021
2700 Clouds 25 1009 69 10000 0.3 294 23:19 10.02.2021
2701 Clouds 25 1009 67 10000 0.3 294 22:43 10.02.2021
2702 Clouds 25 1009 67 10000 1.21 160 22:23 10.02.2021
2703 Clouds 25 1009 66 10000 1.21 160 21:39 10.02.2021
2704 Clouds 25 1009 66 10000 1.66 161 21:20 10.02.2021
2705 Clouds 25 1009 66 10000 1.66 161 21:20 10.02.2021
2706 Clouds 25 1009 65 10000 1.66 161 20:50 10.02.2021
2707 Clouds 26 1009 63 10000 2.07 167 20:28 10.02.2021
2708 Clouds 26 1010 63 10000 2.07 167 19:50 10.02.2021
2709 Clouds 26 1010 62 10000 2.33 158 19:27 10.02.2021
2710 Clouds 26 1010 64 10000 2.7 175 18:48 10.02.2021
2711 Clouds 26 1010 65 10000 2.45 151 18:26 10.02.2021
2712 Clouds 27 1010 69 10000 2.45 151 17:59 10.02.2021
2713 Clouds 29 1010 71 10000 1.46 119 17:26 10.02.2021
2714 Rain 29 1010 69 10000 1.46 119 16:59 10.02.2021
2715 Clouds 29 1010 68 10000 1.46 119 16:38 10.02.2021
2716 Clouds 28 1010 68 10000 0.89 67 16:19 10.02.2021
2717 Rain 30 1010 66 10000 0.34 57 15:24 10.02.2021
2718 Rain 28 1009 66 10000 0.34 57 14:52 10.02.2021
2719 Clouds 30 1009 65 10000 0.34 57 14:34 10.02.2021
2720 Rain 28 1009 64 10000 0.51 205 13:54 10.02.2021
2721 Rain 29 1008 64 10000 1.95 186 13:30 10.02.2021
2722 Clouds 29 1008 62 10000 2.39 198 12:53 10.02.2021
2723 Clouds 29 1008 62 10000 2.39 198 12:30 10.02.2021
2724 Clouds 29 1008 61 10000 1.42 194 11:57 10.02.2021
2725 Clouds 30 1008 60 10000 1.42 194 11:39 10.02.2021
2726 Clouds 30 1008 59 10000 1.19 160 11:20 10.02.2021
2727 Clouds 31 1007 55 10000 1.17 133 10:23 10.02.2021
2728 Clouds 32 1009 42 10000 2.57 320 09:56 10.02.2021
2729 Clouds 31 1007 55 10000 1.17 133 09:31 10.02.2021
2730 Clouds 30 1008 54 10000 1.26 84 08:53 10.02.2021
2731 Clouds 30 1008 56 10000 1.26 84 08:32 10.02.2021
2732 Clouds 32 1009 59 10000 1.92 66 07:34 10.02.2021
2733 Clouds 30 1012 54 10000 2.57 330 06:21 10.02.2021
2734 Clouds 23 1012 83 9000 2.57 30 01:28 10.02.2021
2735 Clouds 23 1011 83 9000 3.09 30 23:59 09.02.2021
2736 Clouds 25 1010 83 8000 2.57 50 23:32 09.02.2021
2737 Clouds 24 1010 83 8000 2.57 70 22:45 09.02.2021
2738 Clouds 25 1009 86 10000 1.89 307 22:24 09.02.2021
2739 Clouds 24 1010 83 8000 3.6 100 21:48 09.02.2021
2740 Clouds 26 1010 78 8000 3.09 110 21:24 09.02.2021
2741 Clouds 25 1011 78 8000 2.57 110 20:44 09.02.2021
2742 Clouds 26 1009 86 10000 1.71 241 20:25 09.02.2021
2743 Rain 27 1010 83 10000 1.71 241 19:44 09.02.2021
2744 Clouds 27 1009 83 10000 1.62 223 19:23 09.02.2021
2745 Clouds 27 1009 84 10000 2.3 210 18:49 09.02.2021
2746 Clouds 27 1009 85 10000 2.3 210 18:30 09.02.2021
2747 Clouds 27 1010 83 8154 2.59 199 17:50 09.02.2021
2748 Clouds 27 1010 83 8154 2.59 199 17:50 09.02.2021
2749 Clouds 29 1010 82 10000 2.39 188 17:27 09.02.2021
2750 Clouds 29 1010 80 10000 2.39 188 16:54 09.02.2021
2751 Clouds 27 1010 80 10000 1.65 205 16:20 09.02.2021
2752 Clouds 27 1010 80 10000 1.65 205 15:58 09.02.2021
2753 Clouds 27 1010 80 10000 1.65 205 15:39 09.02.2021
2754 Clouds 26 1011 78 8000 0.51 190 15:20 09.02.2021
2755 Clouds 26 1010 78 6000 1.54 140 14:42 09.02.2021
2756 Clouds 29 1009 79 8132 3.47 214 14:21 09.02.2021
2757 Clouds 28 1008 79 8132 3.47 214 13:41 09.02.2021
2758 Clouds 28 1008 77 10000 2.51 175 13:20 09.02.2021
2759 Clouds 28 1008 77 10000 2.51 175 13:20 09.02.2021
2760 Clouds 28 1007 76 10000 2.51 175 12:43 09.02.2021
2761 Clouds 31 1008 61 10000 0.83 109 12:24 09.02.2021
2762 Clouds 31 1007 70 10000 0.89 15 11:44 09.02.2021
2763 Clouds 31 1007 69 10000 0.45 43 11:21 09.02.2021
2764 Clouds 31 1009 100 10000 1.43 360 10:57 09.02.2021
2765 Clouds 31 1008 65 7000 3.09 40 10:21 09.02.2021
2766 Clouds 31 1008 65 7000 1.54 40 09:52 09.02.2021
2767 Clouds 29 1009 74 6000 2.57 100 09:26 09.02.2021
2768 Rain 29 1009 65 7000 5.14 330 08:56 09.02.2021
2769 Rain 29 1009 65 6000 5.66 350 08:29 09.02.2021
2770 Rain 30 1010 65 7000 6.17 340 07:41 09.02.2021
2771 Clouds 29 1012 78 6000 5.14 300 05:34 09.02.2021
2772 Clouds 28 1012 74 8000 4.12 240 03:48 09.02.2021
2773 Clouds 26 1011 83 8000 4.12 220 01:51 09.02.2021
2774 Clouds 27 1010 83 8000 3.09 220 00:21 09.02.2021
2775 Clouds 27 1009 83 8000 1.54 200 23:23 08.02.2021
2776 Clouds 27 1008 78 10000 1.64 256 22:59 08.02.2021
2777 Clouds 27 1008 78 10000 1.64 256 22:41 08.02.2021
2778 Clouds 27 1008 77 10000 2.31 254 22:21 08.02.2021
2779 Clouds 27 1008 76 10000 2.31 254 21:44 08.02.2021
2780 Clouds 27 1010 78 8000 3.6 200 21:21 08.02.2021
2781 Clouds 27 1010 78 8000 3.6 190 20:44 08.02.2021
2782 Clouds 27 1010 78 8000 2.57 180 20:24 08.02.2021
2783 Clouds 27 1011 78 8000 2.57 190 19:51 08.02.2021
2784 Clouds 28 1011 78 8000 3.6 200 19:30 08.02.2021
2785 Clouds 28 1010 75 10000 5.5 196 18:59 08.02.2021
2786 Clouds 28 1010 75 10000 5.5 196 18:40 08.02.2021
2787 Clouds 29 1010 75 10000 5.81 196 18:18 08.02.2021
2788 Clouds 29 1010 75 10000 5.81 196 17:41 08.02.2021
2789 Clouds 29 1010 74 10000 6.09 202 17:22 08.02.2021
2790 Clouds 29 1010 74 10000 6.09 202 16:40 08.02.2021
2791 Clouds 30 1010 74 10000 6.48 199 16:20 08.02.2021
2792 Clouds 30 1010 72 10000 6.48 199 15:38 08.02.2021
2793 Clouds 29 1010 72 10000 6.4 199 15:19 08.02.2021
2794 Clouds 28 1010 74 8000 5.14 200 14:51 08.02.2021
2795 Clouds 29 1009 72 10000 6.54 199 14:29 08.02.2021
2796 Clouds 31 1008 72 10000 6.54 199 13:54 08.02.2021
2797 Clouds 31 1008 71 10000 5.51 196 13:28 08.02.2021
2798 Clouds 31 1008 71 10000 5.63 190 13:28 08.02.2021
2799 Clouds 30 1007 66 10000 5.51 196 12:42 08.02.2021
2800 Clouds 30 1007 63 10000 5.33 188 12:24 08.02.2021
2801 Clouds 31 1007 58 10000 5.33 188 11:39 08.02.2021
2802 Clouds 31 1006 57 10000 4.95 169 10:47 08.02.2021
2803 Clouds 32 1008 58 8000 8.23 40 10:26 08.02.2021
2804 Clouds 33 1006 58 10000 4.88 177 09:59 08.02.2021
2805 Clouds 33 1007 57 10000 4.88 177 09:37 08.02.2021
2806 Clouds 34 1007 57 10000 4.5 175 08:57 08.02.2021
2807 Clouds 34 1007 58 10000 4.54 171 08:27 08.02.2021
2808 Clouds 33 1008 59 10000 4.54 171 07:49 08.02.2021
2809 Clouds 33 1011 58 8000 2.06 170 06:51 08.02.2021
2810 Clear 31 1011 67 10000 2.33 170 05:18 08.02.2021
2811 Mist 27 1012 100 3000 2.57 120 02:27 08.02.2021
2812 Clear 27 1011 94 8000 1.54 120 00:26 08.02.2021
2813 Clear 26 1010 89 8000 1.54 110 23:55 07.02.2021
2814 Clear 26 1010 94 8000 1.03 120 23:30 07.02.2021
2815 Clear 26 1010 89 8000 2.65 186 22:59 07.02.2021
2816 Clear 26 1010 89 8000 2.06 160 22:41 07.02.2021
2817 Clear 26 1010 89 8000 2.06 160 22:41 07.02.2021
2818 Clear 27 1009 79 10000 3.06 188 22:22 07.02.2021
2819 Clear 26 1010 89 8000 2.06 200 21:50 07.02.2021
2820 Clear 26 1010 89 8000 2.06 170 21:25 07.02.2021
2821 Clear 26 1010 89 8000 2.06 170 20:51 07.02.2021
2822 Clear 26 1011 89 8000 2.06 130 20:32 07.02.2021
2823 Clear 27 1011 89 8000 3.53 181 19:54 07.02.2021
2824 Clear 27 1011 83 8000 2.57 210 19:29 07.02.2021
2825 Clear 27 1011 89 8000 2.06 200 18:51 07.02.2021
2826 Clear 27 1011 83 8000 3.09 190 18:31 07.02.2021
2827 Clouds 27 1011 83 8000 2.57 180 17:58 07.02.2021
2828 Clouds 27 1011 78 8000 2.57 190 17:40 07.02.2021
2829 Clouds 27 1011 78 8000 2.57 190 17:18 07.02.2021
2830 Clouds 27 1012 83 8000 3.09 190 16:43 07.02.2021
2831 Clouds 28 1011 74 8000 3.09 180 16:22 07.02.2021
2832 Rain 28 1011 69 8000 3.09 180 15:46 07.02.2021
2833 Clouds 28 1011 69 8000 3.6 190 15:27 07.02.2021
2834 Clouds 28 1011 69 8000 3.6 180 14:47 07.02.2021
2835 Clouds 29 1011 65 8000 4.12 180 14:29 07.02.2021
2836 Clear 30 1010 64 10000 4.55 196 13:52 07.02.2021
2837 Clear 31 1009 62 10000 4.55 196 13:34 07.02.2021
2838 Clouds 31 1009 58 10000 5.13 193 12:44 07.02.2021
2839 Clouds 32 1008 56 10000 5.08 201 12:22 07.02.2021
2840 Clouds 32 1008 54 10000 5.08 201 11:50 07.02.2021
2841 Clouds 33 1008 53 10000 4.94 208 11:27 07.02.2021
2842 Clouds 32 1007 48 10000 4.94 208 10:49 07.02.2021
2843 Clouds 32 1007 48 10000 4.94 208 10:49 07.02.2021
2844 Clouds 33 1007 46 10000 3.91 197 10:25 07.02.2021
2845 Clouds 33 1007 40 10000 3.91 197 09:48 07.02.2021
2846 Clouds 33 1007 40 10000 2.98 181 09:21 07.02.2021
2847 Clouds 33 1008 41 10000 3.05 155 08:26 07.02.2021
2848 Clouds 33 1009 45 10000 3.05 155 07:32 07.02.2021
2849 Clear 33 1011 47 10000 2.2 140 05:57 07.02.2021
2850 Clouds 30 1013 54 10000 0.98 126 03:50 07.02.2021
2851 Clouds 27 1011 68 10000 1.14 271 01:37 07.02.2021
2852 Clear 26 1011 83 10000 1.36 215 00:35 07.02.2021
2853 Clear 26 1011 83 10000 1.8 189 23:46 06.02.2021
2854 Clear 26 1009 67 10000 2.02 183 22:41 06.02.2021
2855 Rain 27 1009 65 10000 2.35 185 21:42 06.02.2021
2856 Rain 27 1009 65 10000 2.61 198 21:22 06.02.2021
2857 Rain 27 1009 65 10000 2.61 198 20:52 06.02.2021
2858 Rain 27 1009 63 10000 2.8 200 20:25 06.02.2021
2859 Clear 28 1010 62 10000 2.8 200 19:57 06.02.2021
2860 Rain 28 1010 62 10000 2.8 200 19:32 06.02.2021
2861 Rain 28 1010 59 10000 3.25 187 18:52 06.02.2021
2862 Rain 28 1010 58 10000 3.25 187 18:32 06.02.2021
2863 Rain 27 1010 52 10000 3.63 192 17:49 06.02.2021
2864 Rain 29 1010 52 10000 3.87 197 17:22 06.02.2021
2865 Rain 28 1010 50 10000 3.87 197 16:59 06.02.2021
2866 Rain 28 1010 49 10000 3.87 197 16:41 06.02.2021
2867 Rain 28 1010 49 10000 3.69 196 16:22 06.02.2021
2868 Rain 29 1010 48 10000 3.69 196 15:48 06.02.2021
2869 Rain 29 1010 48 10000 3.18 199 15:22 06.02.2021
2870 Rain 29 1010 47 10000 3.18 199 14:45 06.02.2021
2871 Rain 29 1009 46 10000 3.44 202 14:26 06.02.2021
2872 Rain 30 1009 45 10000 3.44 202 13:49 06.02.2021
2873 Rain 30 1009 45 10000 4.34 204 13:29 06.02.2021
2874 Rain 32 1008 43 10000 5.1 205 12:22 06.02.2021
2875 Clear 32 1008 42 10000 5.1 205 11:48 06.02.2021
2876 Clear 33 1008 42 10000 4.17 201 11:25 06.02.2021
2877 Rain 33 1007 40 10000 4.17 201 10:57 06.02.2021
2878 Rain 33 1007 39 10000 4.17 201 10:39 06.02.2021
2879 Rain 33 1007 39 10000 2.21 186 09:59 06.02.2021
2880 Rain 33 1007 39 10000 2.21 186 09:37 06.02.2021
2881 Clear 33 1007 38 10000 1.59 151 09:18 06.02.2021
2882 Clear 34 1008 40 10000 0.45 55 08:33 06.02.2021
2883 Rain 33 1009 40 10000 1.84 122 08:00 06.02.2021
2884 Clouds 31 1011 40 10000 2.84 109 05:44 06.02.2021
2885 Clouds 29 1013 48 10000 2.31 91 03:58 06.02.2021
2886 Clouds 27 1012 50 10000 1.48 12 01:58 06.02.2021
2887 Clouds 25 1012 68 8000 1.23 349 00:48 06.02.2021
2888 Clouds 25 1012 68 8000 1.23 349 00:48 06.02.2021
2889 Clouds 26 1012 64 8000 1.54 20 00:19 06.02.2021
2890 Clouds 26 1011 64 8000 0.14 332 23:43 05.02.2021
2891 Rain 26 1011 64 8000 0.85 184 23:24 05.02.2021
2892 Clouds 26 1010 52 10000 0.85 184 22:47 05.02.2021
2893 Rain 26 1009 52 10000 1.12 174 22:20 05.02.2021
2894 Rain 26 1009 51 10000 1.12 174 21:45 05.02.2021
2895 Clouds 27 1009 52 10000 1.26 159 21:26 05.02.2021
2896 Clouds 28 1010 51 10000 1.26 159 20:46 05.02.2021
2897 Clouds 28 1010 51 10000 1.69 138 19:52 05.02.2021
2898 Clouds 27 1010 48 10000 2.45 177 19:20 05.02.2021
2899 Clouds 27 1010 47 10000 2.45 177 18:53 05.02.2021
2900 Clouds 28 1011 46 10000 2.97 176 18:23 05.02.2021
2901 Clouds 28 1011 48 10000 2.97 176 17:44 05.02.2021
2902 Rain 27 1013 57 10000 2.88 183 17:22 05.02.2021
2903 Clouds 28 1013 51 10000 2.88 183 16:49 05.02.2021
2904 Rain 28 1012 61 10000 2.66 194 16:24 05.02.2021
2905 Rain 29 1011 45 10000 2.66 194 15:54 05.02.2021
2906 Rain 29 1012 48 10000 1.54 120 15:26 05.02.2021
2907 Rain 29 1011 42 10000 2.68 208 14:41 05.02.2021
2908 Rain 30 1010 42 10000 2.67 204 14:23 05.02.2021
2909 Rain 31 1010 42 10000 2.67 204 13:59 05.02.2021
2910 Rain 29 1010 41 10000 2.67 204 13:36 05.02.2021
2911 Rain 30 1009 40 10000 2.02 208 12:55 05.02.2021
2912 Clear 30 1009 39 10000 2.02 208 12:36 05.02.2021
2913 Clear 31 1009 37 10000 1.01 251 11:41 05.02.2021
2914 Rain 33 1009 38 10000 0.68 323 11:21 05.02.2021
2915 Rain 33 1009 38 10000 0.68 323 10:57 05.02.2021
2916 Rain 33 1009 36 10000 1.25 26 10:27 05.02.2021
2917 Rain 33 1009 35 10000 1.25 26 09:47 05.02.2021
2918 Clear 33 1009 34 10000 1.75 40 09:28 05.02.2021
2919 Rain 33 1009 35 10000 1.75 40 08:53 05.02.2021
2920 Clear 33 1010 35 10000 2.16 58 08:22 05.02.2021
2921 Clear 33 1011 35 10000 2.16 58 07:36 05.02.2021
2922 Clear 32 1011 36 10000 0.45 5 06:52 05.02.2021
2923 Clear 31 1013 37 10000 0.45 84 05:37 05.02.2021
2924 Clear 28 1014 44 10000 1.53 67 03:18 05.02.2021
2925 Mist 26 1015 57 5000 2.57 80 02:24 05.02.2021
2926 Mist 25 1013 78 5000 1.07 289 00:40 05.02.2021
2927 Mist 25 1013 78 5000 0.57 222 00:20 05.02.2021
2928 Mist 25 1013 78 5000 0.57 222 23:55 04.02.2021
2929 Mist 25 1013 78 5000 0.57 222 23:37 04.02.2021
2930 Mist 25 1013 78 5000 1.23 172 23:19 04.02.2021
2931 Clouds 25 1011 61 10000 1.23 172 22:49 04.02.2021
2932 Rain 26 1011 61 10000 1.53 145 22:25 04.02.2021
2933 Rain 26 1011 60 10000 1.53 145 21:42 04.02.2021
2934 Rain 26 1010 59 10000 2.28 126 21:20 04.02.2021
2935 Rain 26 1011 57 10000 2.28 126 20:48 04.02.2021
2936 Clear 28 1011 56 10000 2.85 119 20:29 04.02.2021
2937 Rain 27 1012 55 10000 2.85 119 19:43 04.02.2021
2938 Rain 28 1012 54 10000 2.17 172 18:57 04.02.2021
2939 Rain 29 1012 52 10000 2.03 168 18:26 04.02.2021
2940 Rain 29 1012 51 10000 2.03 168 17:53 04.02.2021
2941 Rain 29 1012 50 10000 2.3 167 17:27 04.02.2021
2942 Rain 29 1013 49 10000 2.3 167 16:56 04.02.2021
2943 Rain 29 1012 48 10000 2.3 167 16:38 04.02.2021
2944 Clear 30 1012 47 10000 2.55 183 16:18 04.02.2021
2945 Clear 30 1012 46 10000 2.55 183 15:39 04.02.2021
2946 Clear 30 1012 46 10000 3.04 193 15:20 04.02.2021
2947 Clear 30 1012 45 10000 3.04 193 14:47 04.02.2021
2948 Clear 29 1012 45 10000 3.31 183 14:20 04.02.2021
2949 Clear 30 1011 44 10000 3.31 183 13:45 04.02.2021
2950 Rain 30 1011 42 10000 2.6 149 13:25 04.02.2021
2951 Rain 30 1011 41 10000 2.6 149 12:52 04.02.2021
2952 Clear 32 1010 39 10000 2.58 105 11:57 04.02.2021
2953 Rain 32 1010 39 10000 2.58 105 11:37 04.02.2021
2954 Rain 33 1011 37 9000 3.6 80 10:58 04.02.2021
2955 Rain 33 1011 42 9000 4.12 70 10:34 04.02.2021
2956 Clear 33 1011 42 9000 4.12 50 09:45 04.02.2021
2957 Clear 33 1012 42 9000 4.63 60 09:22 04.02.2021
2958 Clear 33 1012 42 9000 4.63 60 09:22 04.02.2021
2959 Clear 33 1010 40 10000 0.45 50 08:51 04.02.2021
2960 Clear 33 1011 41 10000 0.45 42 08:26 04.02.2021
2961 Clear 33 1014 40 9000 5.66 100 07:56 04.02.2021
2962 Clear 33 1014 40 9000 4.63 100 07:33 04.02.2021
2963 Clouds 32 1013 41 10000 0.89 58 06:45 04.02.2021
2964 Clear 30 1016 45 10000 6.17 110 05:45 04.02.2021
2965 Fog 27 1016 94 500 2.57 120 02:40 04.02.2021
2966 Clear 27 1014 73 10000 1.69 90 02:18 04.02.2021
2967 Rain 26 1014 88 4000 1.48 158 00:20 04.02.2021
2968 Rain 26 1013 88 4000 1.48 158 23:30 03.02.2021
2969 Rain 27 1011 72 10000 1.97 177 22:38 03.02.2021
2970 Rain 27 1011 72 10000 2.45 178 22:20 03.02.2021
2971 Rain 27 1011 72 10000 2.45 178 21:51 03.02.2021
2972 Rain 26 1013 83 7000 3.07 181 21:24 03.02.2021
2973 Rain 26 1013 78 7000 3.07 181 20:51 03.02.2021
2974 Rain 26 1013 83 7000 3.07 181 20:31 03.02.2021
2975 Rain 26 1013 78 7000 1.03 160 19:55 03.02.2021
2976 Rain 27 1013 83 7000 2.57 140 19:25 03.02.2021
2977 Rain 27 1014 83 7000 1.54 130 18:58 03.02.2021
2978 Rain 27 1014 78 8000 1.03 110 18:38 03.02.2021
2979 Rain 27 1014 78 8000 1.03 110 18:19 03.02.2021
2980 Rain 27 1014 74 8000 3.51 169 17:44 03.02.2021
2981 Rain 27 1014 73 9000 1.54 20 17:24 03.02.2021
2982 Rain 28 1012 62 10000 3.85 168 16:42 03.02.2021
2983 Rain 28 1012 63 10000 3.64 180 16:22 03.02.2021
2984 Rain 28 1012 63 10000 3.64 180 15:40 03.02.2021
2985 Rain 29 1012 64 10000 4.29 182 15:22 03.02.2021
2986 Rain 29 1012 57 10000 4.29 182 14:45 03.02.2021
2987 Clear 29 1012 55 10000 4.33 184 14:22 03.02.2021
2988 Rain 30 1011 52 10000 4.33 184 13:44 03.02.2021
2989 Rain 30 1010 50 10000 4.94 193 13:19 03.02.2021
2990 Clear 31 1010 42 10000 5.01 191 12:40 03.02.2021
2991 Clear 31 1010 41 10000 4.76 178 12:20 03.02.2021
2992 Clear 34 1010 39 10000 4.76 178 11:42 03.02.2021
2993 Clear 34 1009 39 10000 2.86 142 11:23 03.02.2021
2994 Clear 34 1009 38 10000 2.86 142 10:41 03.02.2021
2995 Clear 34 1009 37 10000 2.52 108 10:19 03.02.2021
2996 Clear 34 1009 36 10000 0.45 79 09:40 03.02.2021
2997 Clear 34 1009 37 10000 1.34 77 09:20 03.02.2021
2998 Clear 34 1010 38 10000 0.89 74 08:46 03.02.2021
2999 Clear 34 1012 38 9000 5.14 120 07:58 03.02.2021
3000 Clear 33 1011 44 10000 0.45 88 06:43 03.02.2021
3001 Clear 32 1012 45 10000 0.45 51 06:20 03.02.2021
3002 Clear 31 1013 50 10000 0.45 73 04:45 03.02.2021
3003 Clear 31 1014 50 10000 3.43 105 03:52 03.02.2021
3004 Mist 27 1014 83 4000 2.04 118 02:42 03.02.2021
3005 Rain 28 1012 67 10000 1.89 142 01:48 03.02.2021
3006 Rain 26 1012 88 5000 2.06 90 00:24 03.02.2021
3007 Rain 27 1012 83 6000 2.06 90 23:44 02.02.2021
3008 Clear 27 1012 83 6000 2.06 120 23:26 02.02.2021
3009 Rain 27 1010 71 10000 2.91 180 22:47 02.02.2021
3010 Rain 27 1010 70 10000 3.27 177 22:21 02.02.2021
3011 Rain 28 1010 66 10000 3.27 177 21:46 02.02.2021
3012 Rain 28 1010 64 10000 3.02 176 21:27 02.02.2021
3013 Rain 27 1012 78 10000 3.02 176 20:49 02.02.2021
3014 Rain 28 1010 62 10000 3.53 167 20:23 02.02.2021
3015 Rain 27 1012 73 10000 3.53 167 19:55 02.02.2021
3016 Rain 27 1013 73 10000 4.02 163 19:37 02.02.2021
3017 Rain 29 1011 61 10000 4.12 164 19:18 02.02.2021
3018 Rain 29 1011 61 10000 4.12 164 18:41 02.02.2021
3019 Rain 29 1011 60 10000 3.77 166 18:22 02.02.2021
3020 Rain 29 1012 59 10000 3.77 166 17:39 02.02.2021
3021 Rain 30 1012 59 10000 3.86 166 17:21 02.02.2021
3022 Rain 29 1012 57 10000 3.86 166 16:50 02.02.2021
3023 Rain 30 1012 56 10000 3.86 166 16:30 02.02.2021
3024 Rain 30 1012 52 10000 3.76 177 15:57 02.02.2021
3025 Rain 30 1012 52 10000 3.76 177 15:32 02.02.2021
3026 Rain 31 1011 50 10000 3.86 196 14:55 02.02.2021
3027 Clear 31 1011 49 10000 3.86 196 14:34 02.02.2021
3028 Rain 30 1011 44 10000 4.44 194 13:59 02.02.2021
3029 Rain 31 1010 43 10000 4.44 194 13:41 02.02.2021
3030 Rain 31 1010 41 10000 4.54 184 13:22 02.02.2021
3031 Rain 31 1011 37 10000 2.06 110 12:51 02.02.2021
3032 Rain 33 1010 37 10000 3.24 177 11:56 02.02.2021
3033 Rain 34 1010 36 10000 3.24 177 11:38 02.02.2021
3034 Clear 35 1009 35 10000 1.51 165 11:18 02.02.2021
3035 Rain 34 1009 32 10000 1.51 165 10:43 02.02.2021
3036 Rain 34 1009 34 10000 1.03 142 10:25 02.02.2021
3037 Rain 34 1009 33 10000 1.03 142 09:41 02.02.2021
3038 Rain 34 1009 36 10000 1.36 116 09:20 02.02.2021
3039 Rain 34 1010 40 10000 1.36 116 08:36 02.02.2021
3040 Rain 34 1011 40 10000 1.83 112 07:44 02.02.2021
3041 Clouds 33 1012 42 10000 2.64 135 06:47 02.02.2021
3042 Clouds 33 1013 43 10000 0.45 67 06:29 02.02.2021
3043 Rain 33 1013 46 10000 2.86 130 05:50 02.02.2021
3044 Rain 30 1014 59 10000 1.52 186 02:53 02.02.2021
3045 Rain 27 1014 83 4000 1.54 40 02:24 02.02.2021
3046 Rain 27 1013 83 6000 1.59 179 00:37 02.02.2021
3047 Rain 27 1012 83 8000 1.71 190 23:45 01.02.2021
3048 Rain 27 1011 66 10000 1.8 186 22:52 01.02.2021
3049 Rain 27 1011 66 10000 1.8 186 22:34 01.02.2021
3050 Rain 27 1011 67 10000 2.02 182 21:55 01.02.2021
3051 Rain 28 1011 67 10000 2.02 182 21:37 01.02.2021
3052 Rain 29 1011 67 10000 2.23 185 21:18 01.02.2021
3053 Rain 28 1011 66 10000 2.23 185 20:40 01.02.2021
3054 Rain 29 1011 66 10000 2.06 191 20:22 01.02.2021
3055 Rain 27 1011 65 10000 2.06 191 19:41 01.02.2021
3056 Rain 27 1012 65 10000 2.4 192 19:21 01.02.2021
3057 Rain 27 1012 65 10000 2.4 192 19:21 01.02.2021
3058 Rain 29 1012 64 10000 2.72 188 18:49 01.02.2021
3059 Rain 28 1012 63 10000 3.03 185 18:29 01.02.2021
3060 Rain 28 1012 60 10000 3.03 185 17:48 01.02.2021
3061 Rain 29 1012 58 10000 3.67 180 17:26 01.02.2021
3062 Rain 28 1013 57 9000 1.03 310 16:58 01.02.2021
3063 Rain 31 1012 53 10000 3.67 180 16:30 01.02.2021
3064 Rain 29 1012 52 10000 4.03 187 15:48 01.02.2021
3065 Rain 31 1012 51 10000 3.39 196 15:19 01.02.2021
3066 Rain 30 1012 50 10000 3.39 196 14:52 01.02.2021
3067 Rain 30 1012 50 10000 3.39 196 14:52 01.02.2021
3068 Rain 30 1011 49 10000 3.39 196 14:33 01.02.2021
3069 Rain 31 1011 46 10000 2.32 208 13:51 01.02.2021
3070 Rain 31 1011 45 10000 1.05 222 13:28 01.02.2021
3071 Rain 31 1010 44 10000 1.08 219 12:58 01.02.2021
3072 Rain 32 1010 43 10000 1.08 219 12:40 01.02.2021
3073 Rain 32 1010 43 10000 1.08 219 12:40 01.02.2021
3074 Rain 32 1010 43 10000 0.45 311 12:21 01.02.2021
3075 Rain 32 1010 42 10000 0.45 311 11:40 01.02.2021
3076 Rain 34 1010 41 10000 0.85 354 11:19 01.02.2021
3077 Rain 34 1009 40 10000 0.85 354 10:44 01.02.2021
3078 Rain 34 1009 40 10000 1.42 20 10:19 01.02.2021
3079 Rain 35 1009 39 10000 1.42 20 09:43 01.02.2021
3080 Rain 33 1010 39 10000 0.45 101 09:20 01.02.2021
3081 Rain 34 1010 40 10000 1.61 42 08:44 01.02.2021
3082 Clear 33 1011 41 10000 1.98 62 07:37 01.02.2021
3083 Clear 32 1013 46 10000 2.73 85 05:59 01.02.2021
3084 Mist 27 1015 65 4000 1.54 70 02:49 01.02.2021
3085 Mist 26 1013 78 5000 0.52 344 00:40 01.02.2021
3086 Mist 26 1013 78 5000 0.69 264 23:42 31.01.2021
3087 Clear 26 1011 62 10000 0.88 244 22:43 31.01.2021
3088 Clear 26 1011 62 10000 0.86 213 22:24 31.01.2021
3089 Rain 26 1011 62 10000 0.86 213 21:50 31.01.2021
3090 Rain 26 1011 61 10000 1.3 199 21:23 31.01.2021
3091 Rain 26 1011 61 10000 1.3 199 21:23 31.01.2021
3092 Rain 27 1011 60 10000 1.3 199 20:49 31.01.2021
3093 Rain 28 1012 60 10000 1.54 184 20:21 31.01.2021
3094 Mist 25 1014 73 5000 2.06 70 19:56 31.01.2021
3095 Rain 26 1012 58 10000 1.54 184 19:37 31.01.2021
3096 Rain 27 1012 57 10000 1.98 187 19:19 31.01.2021
3097 Rain 28 1013 57 10000 1.98 187 18:41 31.01.2021
3098 Mist 26 1014 69 5000 2.52 180 18:21 31.01.2021
3099 Rain 27 1014 61 8000 2.52 180 17:46 31.01.2021
3100 Rain 27 1014 61 8000 2.44 187 17:23 31.01.2021
3101 Rain 27 1014 65 8000 2.44 187 16:50 31.01.2021
3102 Rain 27 1014 65 8000 2.44 187 16:50 31.01.2021
3103 Clouds 27 1014 61 8000 1.54 20 16:31 31.01.2021
3104 Clear 28 1012 53 10000 2.19 201 15:52 31.01.2021
3105 Rain 30 1012 52 10000 2.19 201 15:34 31.01.2021
3106 Clouds 28 1013 54 9000 1.54 340 14:42 31.01.2021
3107 Rain 28 1013 54 9000 1.54 340 14:24 31.01.2021
3108 Clear 31 1011 48 10000 2.54 206 13:53 31.01.2021
3109 Clear 29 1011 48 10000 2.54 206 13:34 31.01.2021
3110 Rain 31 1011 45 10000 1.42 189 12:49 31.01.2021
3111 Clear 31 1010 44 10000 1.02 146 12:22 31.01.2021
3112 Rain 31 1010 43 10000 1.02 146 11:44 31.01.2021
3113 Rain 33 1010 43 10000 1.18 105 11:25 31.01.2021
3114 Rain 32 1010 42 10000 1.18 105 10:57 31.01.2021
3115 Clear 33 1010 42 10000 1.18 105 10:35 31.01.2021
3116 Clear 33 1010 42 10000 1.71 71 09:55 31.01.2021
3117 Clear 32 1010 42 10000 2.36 78 09:27 31.01.2021
3118 Clear 32 1011 44 10000 2.36 78 08:34 31.01.2021
3119 Clear 31 1012 44 10000 0.45 68 06:58 31.01.2021
3120 Clear 31 1014 44 10000 0.89 60 05:40 31.01.2021
3121 Clear 25 1014 73 8000 1.2 90 00:47 31.01.2021
3122 Clear 25 1013 73 8000 0.54 106 00:22 31.01.2021
3123 Clear 26 1012 58 10000 0.54 106 23:34 30.01.2021
3124 Clear 26 1011 57 10000 1.15 127 22:57 30.01.2021
3125 Clear 26 1011 57 10000 1.15 127 22:30 30.01.2021
3126 Clear 26 1011 57 10000 1.15 127 22:30 30.01.2021
3127 Clear 26 1011 57 10000 2.2 148 21:40 30.01.2021
3128 Clear 26 1011 58 10000 1.74 156 21:22 30.01.2021
3129 Clear 26 1011 59 10000 1.74 156 20:47 30.01.2021
3130 Clear 26 1011 59 10000 1.74 156 20:47 30.01.2021
3131 Clear 27 1011 58 10000 2.24 160 20:28 30.01.2021
3132 Clear 27 1011 57 10000 2.24 160 19:46 30.01.2021
3133 Clouds 27 1012 56 10000 2.76 160 19:26 30.01.2021
3134 Clouds 27 1012 55 10000 2.78 181 18:43 30.01.2021
3135 Clouds 27 1012 54 10000 3.23 175 18:22 30.01.2021
3136 Clouds 26 1014 61 9000 1.03 70 17:59 30.01.2021
3137 Rain 27 1013 61 9000 1.54 70 17:20 30.01.2021
3138 Clouds 27 1013 65 9000 3.17 185 16:47 30.01.2021
3139 Clear 28 1012 54 10000 3.05 183 16:25 30.01.2021
3140 Clouds 27 1013 57 9000 3.05 183 15:57 30.01.2021
3141 Clouds 28 1013 54 9000 3.05 183 15:39 30.01.2021
3142 Clear 29 1011 52 10000 1.6 169 15:20 30.01.2021
3143 Clear 29 1011 52 10000 1.6 169 14:47 30.01.2021
3144 Clear 29 1011 51 10000 0.57 50 14:21 30.01.2021
3145 Clear 29 1010 49 10000 0.57 50 13:32 30.01.2021
3146 Rain 30 1010 48 10000 0.76 92 12:49 30.01.2021
3147 Rain 30 1009 47 10000 1.43 58 12:29 30.01.2021
3148 Clouds 31 1009 45 10000 1.43 58 11:59 30.01.2021
3149 Rain 31 1009 45 10000 1.43 58 11:31 30.01.2021
3150 Clouds 32 1009 44 10000 0.45 91 10:48 30.01.2021
3151 Clouds 32 1009 44 10000 0.45 61 09:51 30.01.2021
3152 Clouds 32 1010 44 10000 2.09 63 09:30 30.01.2021
3153 Clouds 32 1010 44 10000 2.22 69 08:47 30.01.2021
3154 Clouds 32 1011 46 10000 2.46 56 07:49 30.01.2021
3155 Clouds 32 1013 52 10000 1.79 9 06:51 30.01.2021
3156 Clouds 30 1013 49 10000 0.45 69 05:43 30.01.2021
3157 Clouds 28 1014 51 10000 0.45 66 03:35 30.01.2021
3158 Clouds 26 1015 69 9000 2.57 110 02:24 30.01.2021
3159 Clouds 26 1013 61 10000 2.1 97 01:29 30.01.2021
3160 Clouds 26 1013 69 8000 2.06 130 00:39 30.01.2021
3161 Clouds 27 1012 59 10000 2.33 110 00:20 30.01.2021
3162 Clouds 26 1013 69 8000 1.03 120 23:45 29.01.2021
3163 Clouds 27 1011 58 10000 2.66 112 23:21 29.01.2021
3164 Clouds 26 1011 59 10000 2.66 112 22:44 29.01.2021
3165 Clouds 28 1011 61 10000 2.58 115 22:19 29.01.2021
3166 Clouds 27 1011 61 10000 2.18 117 21:28 29.01.2021
3167 Clouds 28 1011 60 10000 2.18 117 20:45 29.01.2021
3168 Clouds 28 1011 61 10000 1.79 122 20:26 29.01.2021
3169 Clouds 28 1012 61 10000 1.79 122 19:57 29.01.2021
3170 Clouds 27 1012 60 10000 1.79 122 19:38 29.01.2021
3171 Clouds 29 1012 59 10000 2.22 180 19:18 29.01.2021
3172 Clouds 29 1012 58 10000 2.9 183 18:21 29.01.2021
3173 Rain 29 1012 56 10000 2.9 183 17:38 29.01.2021
3174 Rain 29 1012 56 10000 3.39 181 17:20 29.01.2021
3175 Rain 30 1012 55 10000 3.39 181 16:45 29.01.2021
3176 Rain 30 1012 55 10000 3.39 188 16:23 29.01.2021
3177 Rain 30 1012 55 10000 3.39 188 15:42 29.01.2021
3178 Rain 30 1012 55 10000 3.6 186 15:24 29.01.2021
3179 Rain 30 1011 54 10000 3.6 186 14:32 29.01.2021
3180 Rain 30 1011 53 10000 3.57 185 13:59 29.01.2021
3181 Clouds 30 1010 53 10000 3.57 185 13:37 29.01.2021
3182 Clouds 31 1010 52 10000 3.52 171 13:18 29.01.2021
3183 Clouds 31 1010 51 10000 2.43 129 12:24 29.01.2021
3184 Clouds 31 1010 50 10000 2.43 129 11:46 29.01.2021
3185 Clouds 32 1010 49 10000 2.59 96 11:19 29.01.2021
3186 Clouds 32 1010 49 10000 2.59 96 11:19 29.01.2021
3187 Clouds 32 1009 49 10000 2.59 96 10:48 29.01.2021
3188 Clouds 34 1011 100 10000 3.08 85 10:27 29.01.2021
3189 Clouds 32 1011 45 9000 4.12 100 09:45 29.01.2021
3190 Clouds 33 1010 47 10000 3.3 84 08:57 29.01.2021
3191 Clouds 33 1010 48 10000 3.3 84 08:33 29.01.2021
3192 Clouds 32 1011 47 10000 0.45 60 07:58 29.01.2021
3193 Clouds 32 1012 47 10000 0.45 83 07:39 29.01.2021
3194 Clouds 32 1012 47 10000 0.45 83 07:39 29.01.2021
3195 Clear 32 1012 48 10000 4.3 84 07:19 29.01.2021
3196 Clear 30 1014 51 10000 0.89 62 05:20 29.01.2021
3197 Clouds 27 1015 61 10000 4.12 80 02:53 29.01.2021
3198 Rain 26 1013 65 8000 1.03 0 00:39 29.01.2021
3199 Rain 26 1013 65 8000 1.03 0 00:20 29.01.2021
3200 Rain 26 1012 61 8000 1.54 130 23:43 28.01.2021
3201 Clouds 28 1012 61 8000 2.06 130 23:24 28.01.2021
3202 Clear 27 1011 62 10000 3.88 113 22:46 28.01.2021
3203 Rain 29 1010 64 10000 3.91 112 22:26 28.01.2021
3204 Clear 28 1010 60 10000 3.91 112 21:56 28.01.2021
3205 Rain 28 1010 60 10000 3.91 112 21:34 28.01.2021
3206 Clear 28 1011 65 10000 3.57 129 20:57 28.01.2021
3207 Rain 28 1011 70 10000 3.57 129 20:39 28.01.2021
3208 Rain 30 1011 73 10000 2.98 144 20:18 28.01.2021
3209 Clear 28 1011 75 10000 2.49 173 19:40 28.01.2021
3210 Rain 29 1011 75 10000 3.13 163 19:19 28.01.2021
3211 Rain 29 1011 74 10000 3.13 163 18:43 28.01.2021
3212 Rain 27 1012 78 8000 1.54 150 18:20 28.01.2021
3213 Clouds 29 1010 72 10000 3.51 165 17:45 28.01.2021
3214 Rain 31 1011 71 10000 3.4 171 17:26 28.01.2021
3215 Rain 31 1010 69 10000 3.4 171 16:44 28.01.2021
3216 Rain 31 1010 69 10000 2.39 175 16:23 28.01.2021
3217 Rain 31 1010 66 10000 2.39 175 15:43 28.01.2021
3218 Rain 30 1010 63 10000 2.69 190 15:18 28.01.2021
3219 Rain 30 1010 61 10000 2.69 190 14:42 28.01.2021
3220 Rain 30 1010 61 10000 2.69 190 14:42 28.01.2021
3221 Rain 31 1010 60 10000 3.43 184 14:23 28.01.2021
3222 Rain 31 1009 51 10000 3.43 184 13:48 28.01.2021
3223 Clouds 32 1008 48 10000 3.23 189 12:56 28.01.2021
3224 Clouds 31 1008 47 10000 3.2 188 12:36 28.01.2021
3225 Clouds 32 1008 48 10000 2.25 187 11:59 28.01.2021
3226 Clouds 33 1008 48 10000 2.25 187 11:41 28.01.2021
3227 Rain 35 1008 47 10000 1.51 155 11:20 28.01.2021
3228 Clouds 34 1008 49 10000 1.51 155 10:53 28.01.2021
3229 Clouds 33 1008 55 10000 1.51 155 10:34 28.01.2021
3230 Clouds 34 1008 46 10000 1.77 115 09:49 28.01.2021
3231 Rain 34 1008 46 10000 2.06 93 09:24 28.01.2021
3232 Rain 34 1008 48 10000 2.06 93 08:55 28.01.2021
3233 Rain 33 1009 47 10000 2.46 76 08:19 28.01.2021
3234 Rain 34 1009 50 10000 2.05 85 07:44 28.01.2021
3235 Clouds 33 1013 49 8000 2.57 60 06:50 28.01.2021
3236 Clouds 32 1013 55 8000 2.06 100 06:25 28.01.2021
3237 Clear 30 1013 62 10000 1.25 101 04:27 28.01.2021
3238 Clear 29 1012 81 10000 0.85 176 01:39 28.01.2021
3239 Clear 26 1012 89 8000 1.9 191 23:48 27.01.2021
3240 Clear 26 1011 89 8000 1.54 180 23:24 27.01.2021
3241 Clear 26 1011 89 8000 3.09 190 22:42 27.01.2021
3242 Clear 26 1011 89 8000 3.09 190 22:22 27.01.2021
3243 Clear 26 1011 89 8000 3.09 200 21:43 27.01.2021
3244 Clouds 26 1012 89 8000 2.57 190 21:24 27.01.2021
3245 Clear 26 1010 78 10000 3.79 172 20:55 27.01.2021
3246 Clear 26 1010 78 10000 3.79 172 20:30 27.01.2021
3247 Clear 26 1011 77 10000 3.48 173 19:50 27.01.2021
3248 Clouds 27 1011 77 10000 3.03 177 19:26 27.01.2021
3249 Clouds 27 1011 76 10000 3.72 168 18:57 27.01.2021
3250 Clouds 27 1011 76 10000 3.72 168 18:38 27.01.2021
3251 Rain 27 1011 76 10000 3.39 178 18:20 27.01.2021
3252 Clouds 27 1011 75 10000 3.39 178 17:39 27.01.2021
3253 Clear 27 1011 74 10000 3.99 187 16:58 27.01.2021
3254 Rain 27 1011 73 10000 3.99 187 16:39 27.01.2021
3255 Rain 27 1011 73 10000 4.45 187 16:21 27.01.2021
3256 Rain 27 1011 71 10000 4.45 187 15:49 27.01.2021
3257 Rain 28 1010 71 10000 3.89 190 15:29 27.01.2021
3258 Rain 28 1010 69 10000 3.89 190 14:38 27.01.2021
3259 Rain 28 1009 69 10000 3.69 199 14:18 27.01.2021
3260 Clear 30 1009 67 10000 3.54 195 13:35 27.01.2021
3261 Rain 31 1008 66 10000 4.58 200 12:42 27.01.2021
3262 Rain 31 1008 65 10000 4.58 200 12:42 27.01.2021
3263 Rain 31 1008 66 10000 4.58 200 12:42 27.01.2021
3264 Rain 31 1008 65 10000 5.01 191 12:24 27.01.2021
3265 Rain 31 1008 60 10000 5.01 191 11:50 27.01.2021
3266 Rain 33 1007 46 10000 2.82 178 11:26 27.01.2021
3267 Rain 33 1007 48 10000 2.82 178 10:48 27.01.2021
3268 Rain 34 1007 48 10000 1.77 141 10:26 27.01.2021
3269 Clouds 34 1007 48 10000 1.77 141 09:56 27.01.2021
3270 Clouds 33 1007 49 10000 2.21 117 09:29 27.01.2021
3271 Clouds 32 1009 46 8000 3.09 90 08:47 27.01.2021
3272 Clouds 33 1010 51 8000 3.6 60 07:57 27.01.2021
3273 Clouds 33 1009 52 10000 2.68 113 07:37 27.01.2021
3274 Clouds 33 1009 52 10000 2.89 126 06:38 27.01.2021
3275 Clouds 32 1012 66 7000 3.6 90 05:56 27.01.2021
3276 Clouds 32 1010 56 10000 3.17 116 05:34 27.01.2021
3277 Clouds 28 1011 79 10000 1.34 152 02:46 27.01.2021
3278 Clouds 27 1010 83 10000 1.68 176 02:20 27.01.2021
3279 Clouds 28 1010 83 10000 1.68 176 01:32 27.01.2021
3280 Clouds 26 1010 94 9000 2.06 140 00:27 27.01.2021
3281 Clouds 26 1010 94 9000 1.54 150 23:40 26.01.2021
3282 Clouds 26 1010 94 9000 1.54 150 23:40 26.01.2021
3283 Clouds 26 1010 94 9000 1.54 150 23:19 26.01.2021
3284 Clouds 26 1009 89 9000 2.06 170 22:39 26.01.2021
3285 Clouds 26 1009 89 9000 2.06 170 22:19 26.01.2021
3286 Clear 27 1008 81 10000 2.25 175 21:51 26.01.2021
3287 Clear 27 1008 80 10000 2.51 173 21:24 26.01.2021
3288 Clear 27 1008 79 10000 2.51 173 20:43 26.01.2021
3289 Clear 27 1008 79 10000 2.52 170 20:24 26.01.2021
3290 Clear 27 1009 77 10000 2.52 170 19:51 26.01.2021
3291 Clear 27 1009 76 10000 2.52 170 19:30 26.01.2021
3292 Clear 27 1009 76 10000 2.52 170 19:30 26.01.2021
3293 Clouds 27 1009 76 10000 3.47 174 18:59 26.01.2021
3294 Clouds 27 1009 76 10000 3.47 174 18:41 26.01.2021
3295 Clouds 27 1009 75 10000 3.63 175 18:22 26.01.2021
3296 Rain 27 1009 75 10000 3.63 175 17:47 26.01.2021
3297 Rain 29 1009 75 10000 4.44 182 17:22 26.01.2021
3298 Rain 29 1009 74 10000 4.44 182 16:43 26.01.2021
3299 Rain 30 1009 72 10000 4.47 184 16:20 26.01.2021
3300 Clouds 29 1009 72 10000 4.47 184 15:50 26.01.2021
3301 Rain 31 1009 71 10000 4.47 184 15:30 26.01.2021
3302 Rain 31 1008 69 10000 3.77 193 14:49 26.01.2021
3303 Rain 30 1008 68 10000 3.82 196 14:30 26.01.2021
3304 Rain 30 1008 68 10000 3.82 196 14:30 26.01.2021
3305 Rain 29 1007 65 10000 3.82 196 13:42 26.01.2021
3306 Rain 31 1007 64 10000 4.43 194 13:24 26.01.2021
3307 Rain 31 1007 62 10000 4.38 186 12:45 26.01.2021
3308 Rain 31 1007 61 10000 3.18 189 12:25 26.01.2021
3309 Clear 32 1006 58 10000 3.18 189 11:58 26.01.2021
3310 Clear 32 1006 55 10000 3.18 189 11:38 26.01.2021
3311 Clear 32 1006 51 10000 2.06 173 10:47 26.01.2021
3312 Rain 34 1008 46 9000 3.6 80 10:29 26.01.2021
3313 Rain 34 1008 49 9000 2.57 90 09:47 26.01.2021
3314 Clouds 34 1008 49 9000 3.6 130 09:26 26.01.2021
3315 Clouds 34 1009 55 9000 3.09 130 08:53 26.01.2021
3316 Clouds 34 1009 49 9000 3.6 120 08:33 26.01.2021
3317 Clouds 32 1010 49 9000 2.57 130 07:47 26.01.2021
3318 Clouds 31 1011 51 9000 2.57 0 06:23 26.01.2021
3319 Clouds 32 1012 55 9000 1.54 0 05:43 26.01.2021
3320 Clear 29 1011 67 10000 0.3 161 04:28 26.01.2021
3321 Clear 28 1010 75 10000 0.21 162 02:44 26.01.2021
3322 Clouds 26 1010 94 9000 2.06 30 00:56 26.01.2021
3323 Clouds 26 1010 94 9000 2.06 50 23:39 25.01.2021
3324 Rain 28 1008 80 10000 1.91 182 22:57 25.01.2021
3325 Clouds 28 1008 80 10000 1.91 182 22:38 25.01.2021
3326 Rain 26 1008 80 10000 2.46 183 21:50 25.01.2021
3327 Rain 28 1008 80 10000 2.44 183 21:28 25.01.2021
3328 Rain 25 1010 88 9000 2.06 200 20:52 25.01.2021
3329 Rain 25 1010 88 9000 2.06 200 20:33 25.01.2021
3330 Rain 26 1010 88 9000 2.06 210 19:52 25.01.2021
3331 Rain 26 1011 78 9000 2.06 200 19:32 25.01.2021
3332 Rain 26 1011 78 9000 2.06 210 18:49 25.01.2021
3333 Rain 26 1011 78 9000 1.03 220 18:28 25.01.2021
3334 Rain 26 1011 78 9000 2.06 180 17:58 25.01.2021
3335 Clear 26 1011 78 10000 1.54 200 17:40 25.01.2021
3336 Rain 27 1009 74 10000 4.13 199 17:22 25.01.2021
3337 Rain 27 1009 70 10000 4.13 199 16:41 25.01.2021
3338 Rain 27 1011 74 10000 1.54 180 16:22 25.01.2021
3339 Rain 27 1009 68 10000 4.45 189 15:50 25.01.2021
3340 Rain 29 1009 66 10000 3.99 197 15:31 25.01.2021
3341 Rain 28 1009 65 10000 3.99 197 14:50 25.01.2021
3342 Clear 30 1009 64 10000 3.9 204 14:19 25.01.2021
3343 Clear 30 1009 63 10000 3.9 204 13:54 25.01.2021
3344 Clear 30 1009 63 10000 3.9 204 13:54 25.01.2021
3345 Rain 30 1008 60 10000 4.63 200 13:28 25.01.2021
3346 Clear 31 1008 58 10000 4.59 198 12:46 25.01.2021
3347 Clear 31 1008 57 10000 3.44 211 12:24 25.01.2021
3348 Rain 32 1007 56 10000 3.44 211 11:55 25.01.2021
3349 Rain 33 1007 55 10000 2.08 229 11:19 25.01.2021
3350 Rain 33 1007 52 10000 2.08 229 10:42 25.01.2021
3351 Rain 33 1007 53 10000 1.51 223 10:20 25.01.2021
3352 Rain 33 1007 53 10000 1.51 223 09:46 25.01.2021
3353 Rain 33 1007 54 10000 1.35 192 09:27 25.01.2021
3354 Clear 33 1008 55 10000 1.35 192 08:30 25.01.2021
3355 Clear 33 1009 57 10000 1.31 164 07:45 25.01.2021
3356 Clear 32 1009 57 10000 1.61 148 07:25 25.01.2021
3357 Clear 30 1011 66 10000 2.16 187 04:58 25.01.2021
3358 Mist 26 1012 100 5000 1.03 30 01:33 25.01.2021
3359 Clear 26 1011 94 9000 2.52 177 23:51 24.01.2021
3360 Clear 26 1011 94 9000 1.03 110 23:19 24.01.2021
3361 Clear 26 1009 81 10000 2.86 178 22:44 24.01.2021
3362 Clear 25 1011 88 9000 1.54 170 22:21 24.01.2021
3363 Clear 25 1011 88 9000 1.03 130 21:51 24.01.2021
3364 Clear 25 1010 83 9000 1.03 190 21:24 24.01.2021
3365 Clear 25 1010 83 9000 1.03 190 21:24 24.01.2021
3366 Clear 26 1009 79 10000 3.86 199 20:46 24.01.2021
3367 Clear 26 1009 79 10000 4.35 194 20:22 24.01.2021
3368 Clear 26 1009 78 10000 4.35 194 19:53 24.01.2021
3369 Clear 26 1009 78 10000 4.35 194 19:53 24.01.2021
3370 Clear 27 1009 77 10000 4.75 195 19:27 24.01.2021
3371 Clouds 26 1010 76 10000 4.79 195 18:58 24.01.2021
3372 Clouds 26 1011 69 9000 2.57 200 18:39 24.01.2021
3373 Clear 27 1010 75 10000 4.98 197 18:20 24.01.2021
3374 Clear 27 1010 73 10000 4.98 197 17:50 24.01.2021
3375 Clear 27 1010 72 10000 4.86 200 17:29 24.01.2021
3376 Clear 27 1010 70 10000 4.86 200 16:59 24.01.2021
3377 Clear 26 1010 69 10000 4.86 200 16:39 24.01.2021
3378 Clear 27 1010 66 10000 4.2 199 16:19 24.01.2021
3379 Clear 27 1010 63 10000 4.2 199 15:43 24.01.2021
3380 Rain 27 1010 60 10000 4.08 194 15:19 24.01.2021
3381 Rain 28 1009 59 10000 4.08 194 14:43 24.01.2021
3382 Rain 28 1009 57 10000 4.11 188 13:48 24.01.2021
3383 Rain 30 1009 57 10000 4.13 188 13:30 24.01.2021
3384 Clouds 29 1008 58 10000 4.28 191 12:50 24.01.2021
3385 Clouds 30 1008 56 10000 4.79 193 12:21 24.01.2021
3386 Rain 31 1008 55 10000 4.79 193 11:52 24.01.2021
3387 Rain 30 1008 53 10000 4.74 195 11:25 24.01.2021
3388 Rain 31 1008 54 10000 4.74 195 10:50 24.01.2021
3389 Rain 32 1008 54 10000 4.82 193 10:29 24.01.2021
3390 Rain 32 1008 54 10000 4.09 187 09:23 24.01.2021
3391 Rain 32 1009 51 10000 1.54 110 08:59 24.01.2021
3392 Clouds 32 1010 51 9000 2.06 160 08:26 24.01.2021
3393 Mist 27 1014 78 4000 2.06 130 03:37 24.01.2021
3394 Clear 26 1011 77 10000 2.6 193 02:18 24.01.2021
3395 Rain 25 1011 94 6000 2.06 110 00:27 24.01.2021
3396 Rain 24 1011 88 7000 2.06 110 23:57 23.01.2021
3397 Rain 27 1009 77 10000 3.68 181 23:29 23.01.2021
3398 Rain 25 1011 83 9000 1.03 130 22:57 23.01.2021
3399 Rain 25 1011 83 9000 1.54 160 22:38 23.01.2021
3400 Rain 25 1010 78 9000 1.54 150 21:57 23.01.2021
3401 Rain 27 1009 74 10000 4.39 183 21:23 23.01.2021
3402 Rain 25 1011 73 9000 2.57 180 20:50 23.01.2021
3403 Rain 26 1009 73 10000 4.46 182 20:29 23.01.2021
3404 Rain 26 1011 69 9000 2.06 180 19:47 23.01.2021
3405 Rain 26 1011 69 9000 2.06 180 19:47 23.01.2021
3406 Rain 26 1010 70 10000 4.65 182 19:25 23.01.2021
3407 Rain 26 1010 69 10000 4.48 180 18:52 23.01.2021
3408 Rain 26 1010 67 10000 4.62 190 18:28 23.01.2021
3409 Rain 26 1010 65 10000 4.62 190 17:56 23.01.2021
3410 Clear 26 1010 64 10000 5.03 195 17:28 23.01.2021
3411 Rain 26 1010 62 10000 5.03 195 16:52 23.01.2021
3412 Rain 26 1010 61 10000 5.03 195 16:32 23.01.2021
3413 Rain 26 1011 61 9000 3.6 210 15:49 23.01.2021
3414 Rain 27 1011 68 10000 1.79 213 15:27 23.01.2021
3415 Clear 28 1009 55 10000 4.02 199 14:38 23.01.2021
3416 Rain 29 1011 68 10000 1.34 215 14:19 23.01.2021
3417 Clear 28 1009 53 10000 3.96 205 13:40 23.01.2021
3418 Rain 28 1008 52 10000 4.16 208 13:22 23.01.2021
3419 Rain 30 1008 58 10000 0.45 222 12:42 23.01.2021
3420 Rain 30 1008 56 10000 1.34 195 12:22 23.01.2021
3421 Clear 30 1007 48 10000 4.65 199 11:35 23.01.2021
3422 Clear 31 1007 47 10000 4.79 198 10:54 23.01.2021
3423 Clear 32 1007 46 10000 5.11 197 10:23 23.01.2021
3424 Rain 32 1007 46 10000 5.11 197 09:51 23.01.2021
3425 Rain 32 1006 46 10000 4.67 191 09:24 23.01.2021
3426 Rain 32 1007 47 10000 4.67 191 08:39 23.01.2021
3427 Rain 32 1008 42 10000 3.41 179 07:48 23.01.2021
3428 Rain 31 1009 42 10000 3.37 176 06:48 23.01.2021
3429 Rain 25 1010 70 10000 1.41 191 01:44 23.01.2021
3430 Rain 25 1009 68 10000 1.81 184 00:23 23.01.2021
3431 Rain 25 1008 66 10000 1.81 184 23:35 22.01.2021
3432 Clouds 26 1008 63 10000 1.9 182 22:41 22.01.2021
3433 Clouds 26 1008 63 10000 1.62 195 21:56 22.01.2021
3434 Clouds 26 1008 64 10000 1.62 195 21:37 22.01.2021
3435 Clouds 26 1008 64 10000 2.17 204 21:19 22.01.2021
3436 Rain 26 1008 66 10000 2.17 204 20:44 22.01.2021
3437 Rain 26 1008 67 10000 2.74 203 20:25 22.01.2021
3438 Rain 27 1008 62 10000 2.74 203 19:37 22.01.2021
3439 Rain 27 1009 60 10000 3.34 206 19:18 22.01.2021
3440 Rain 27 1009 57 10000 3.79 203 18:41 22.01.2021
3441 Rain 27 1009 56 10000 4.56 201 18:23 22.01.2021
3442 Rain 26 1009 57 10000 4.56 201 17:44 22.01.2021
3443 Rain 26 1009 58 10000 4.53 204 17:24 22.01.2021
3444 Clouds 26 1009 58 10000 4.53 204 16:44 22.01.2021
3445 Clouds 26 1009 57 10000 4.29 197 16:23 22.01.2021
3446 Clouds 27 1009 54 10000 4.29 197 15:30 22.01.2021
3447 Clouds 28 1009 53 10000 3.9 187 14:59 22.01.2021
3448 Rain 28 1009 51 10000 3.9 187 14:31 22.01.2021
3449 Rain 28 1008 50 10000 3.28 182 13:50 22.01.2021
3450 Rain 28 1008 50 10000 3.09 185 13:31 22.01.2021
3451 Rain 29 1008 49 10000 3.07 190 12:52 22.01.2021
3452 Clouds 30 1008 47 10000 3.14 189 12:23 22.01.2021
3453 Rain 30 1007 43 10000 3.14 189 11:47 22.01.2021
3454 Rain 30 1007 41 10000 2.97 191 11:22 22.01.2021
3455 Clouds 31 1007 40 10000 2.97 191 10:45 22.01.2021
3456 Rain 31 1007 40 10000 2.07 190 09:59 22.01.2021
3457 Clouds 31 1007 41 10000 2.07 190 09:31 22.01.2021
3458 Rain 32 1009 37 8000 1.03 0 08:51 22.01.2021
3459 Rain 31 1009 37 9000 3.09 40 08:30 22.01.2021
3460 Rain 31 1011 37 9000 2.57 10 07:36 22.01.2021
3461 Rain 27 1013 57 4000 1.03 100 03:40 22.01.2021
3462 Rain 23 1010 64 10000 1.55 304 00:40 22.01.2021
3463 Clear 24 1009 61 10000 1.07 287 23:55 21.01.2021
3464 Clear 24 1009 61 10000 1.07 287 23:32 21.01.2021
3465 Clear 24 1008 58 10000 1.04 273 22:53 21.01.2021
3466 Clear 24 1009 57 10000 1.04 273 22:35 21.01.2021
3467 Rain 25 1009 57 10000 1.13 248 21:44 21.01.2021
3468 Rain 25 1008 56 10000 1.51 243 21:22 21.01.2021
3469 Clear 25 1008 56 10000 1.51 243 20:51 21.01.2021
3470 Clear 25 1008 56 10000 1.51 243 20:31 21.01.2021
3471 Rain 25 1009 55 10000 1.88 241 19:52 21.01.2021
3472 Rain 25 1009 55 10000 1.88 241 19:30 21.01.2021
3473 Rain 26 1009 54 10000 1.99 231 18:59 21.01.2021
3474 Clouds 26 1009 54 10000 1.99 231 18:40 21.01.2021
3475 Clouds 26 1009 54 10000 2.56 222 18:20 21.01.2021
3476 Clouds 26 1009 53 10000 2.56 222 17:51 21.01.2021
3477 Clouds 26 1009 53 10000 2.41 220 17:20 21.01.2021
3478 Clouds 27 1010 52 10000 2.41 220 16:49 21.01.2021
3479 Clouds 27 1010 52 10000 2.04 225 16:27 21.01.2021
3480 Clouds 27 1010 51 10000 2.04 225 15:59 21.01.2021
3481 Clouds 27 1010 50 10000 2.04 225 15:34 21.01.2021
3482 Clouds 28 1010 49 10000 1.85 238 14:53 21.01.2021
3483 Clouds 28 1010 48 10000 1.85 238 14:35 21.01.2021
3484 Rain 28 1009 47 10000 2.36 240 13:51 21.01.2021
3485 Clouds 27 1009 46 10000 2.36 240 13:32 21.01.2021
3486 Clouds 29 1009 44 10000 2.77 225 12:58 21.01.2021
3487 Clouds 28 1008 43 10000 2.77 225 12:39 21.01.2021
3488 Rain 29 1008 43 10000 2.58 204 12:20 21.01.2021
3489 Rain 29 1008 42 10000 2.58 204 11:45 21.01.2021
3490 Clouds 30 1009 37 10000 2.57 0 11:24 21.01.2021
3491 Clouds 30 1009 37 10000 2.57 140 10:51 21.01.2021
3492 Rain 30 1007 37 10000 1.04 136 10:28 21.01.2021
3493 Rain 30 1007 39 10000 1.04 136 09:43 21.01.2021
3494 Rain 30 1007 38 10000 0.78 76 09:24 21.01.2021
3495 Rain 30 1008 39 10000 0.78 76 08:39 21.01.2021
3496 Clear 30 1011 35 10000 2.06 0 07:59 21.01.2021
3497 Rain 29 1009 41 10000 1.39 57 07:26 21.01.2021
3498 Clouds 29 1012 39 9000 2.06 0 06:46 21.01.2021
3499 Rain 27 1012 47 10000 1.93 2 05:19 21.01.2021
3500 Clouds 22 1012 58 10000 1.87 326 02:24 21.01.2021
3501 Rain 23 1011 57 10000 1.75 323 00:44 21.01.2021
3502 Clouds 23 1010 56 10000 1.91 315 23:52 20.01.2021
3503 Clouds 23 1010 56 10000 1.91 315 23:31 20.01.2021
3504 Clouds 23 1009 56 10000 2.21 307 22:57 20.01.2021
3505 Clouds 24 1010 56 10000 2.21 307 22:36 20.01.2021
3506 Clouds 24 1009 54 10000 1.84 303 21:56 20.01.2021
3507 Clouds 24 1009 54 10000 1.74 297 21:24 20.01.2021
3508 Clouds 24 1009 54 10000 1.74 297 20:55 20.01.2021
3509 Clouds 24 1010 53 10000 1.23 277 20:24 20.01.2021
3510 Rain 24 1010 53 10000 1.23 277 19:55 20.01.2021
3511 Clouds 24 1012 49 10000 1.23 277 19:37 20.01.2021
3512 Clouds 24 1012 46 10000 1.31 257 19:18 20.01.2021
3513 Clouds 24 1012 45 10000 1.77 243 18:41 20.01.2021
3514 Clouds 24 1013 43 10000 1.85 240 17:56 20.01.2021
3515 Clouds 24 1013 43 10000 1.85 240 17:37 20.01.2021
3516 Clouds 25 1013 48 10000 1.81 251 16:52 20.01.2021
3517 Clouds 25 1012 70 10000 1.81 251 16:32 20.01.2021
3518 Clouds 27 1011 47 10000 1.98 253 15:48 20.01.2021
3519 Clouds 27 1011 46 10000 2.03 254 15:19 20.01.2021
3520 Clouds 27 1011 45 10000 2.03 254 14:46 20.01.2021
3521 Clouds 26 1011 45 10000 1.81 244 14:22 20.01.2021
3522 Clouds 26 1010 46 10000 1.81 244 13:41 20.01.2021
3523 Clouds 26 1010 45 10000 1.24 230 13:21 20.01.2021
3524 Clouds 27 1009 43 10000 1.24 230 12:35 20.01.2021
3525 Clouds 27 1009 42 10000 0.59 303 11:54 20.01.2021
3526 Clouds 28 1009 42 10000 0.59 303 11:35 20.01.2021
3527 Clouds 28 1009 42 10000 1.12 345 10:55 20.01.2021
3528 Clouds 29 1009 39 10000 1.09 359 10:28 20.01.2021
3529 Clouds 29 1008 38 10000 1.09 359 09:48 20.01.2021
3530 Clouds 29 1008 37 10000 1.14 26 09:24 20.01.2021
3531 Clouds 29 1009 37 10000 1.14 26 08:47 20.01.2021
3532 Clouds 29 1009 38 10000 1.46 40 08:26 20.01.2021
3533 Clouds 29 1010 39 10000 1.46 40 07:56 20.01.2021
3534 Clouds 29 1010 40 10000 1.71 42 07:25 20.01.2021
3535 Clouds 28 1015 44 8000 2.06 0 05:50 20.01.2021
3536 Haze 23 1016 60 5000 1.03 0 03:27 20.01.2021
3537 Mist 21 1014 77 5000 2.57 310 00:59 20.01.2021
3538 Clouds 22 1012 64 10000 2.1 332 00:31 20.01.2021
3539 Clouds 23 1011 62 10000 1.19 0 23:46 19.01.2021
3540 Clouds 23 1011 61 10000 1.1 35 23:19 19.01.2021
3541 Clouds 23 1011 60 10000 1.1 35 22:42 19.01.2021
3542 Clouds 23 1011 61 10000 1.92 81 22:22 19.01.2021
3543 Clouds 23 1011 60 10000 1.92 81 21:59 19.01.2021
3544 Clouds 23 1011 59 10000 1.92 81 21:40 19.01.2021
3545 Clouds 23 1011 59 10000 2.64 97 21:19 19.01.2021
3546 Clouds 24 1011 58 10000 2.64 97 20:42 19.01.2021
3547 Clouds 24 1011 58 10000 3 104 20:22 19.01.2021
3548 Clouds 24 1011 57 10000 3 104 19:41 19.01.2021
3549 Clouds 24 1012 56 10000 3.2 104 19:20 19.01.2021
3550 Clouds 24 1012 56 10000 2.51 99 18:40 19.01.2021
3551 Clouds 25 1012 55 10000 2.22 97 18:21 19.01.2021
3552 Clouds 25 1012 54 10000 2.22 97 17:45 19.01.2021
3553 Clouds 25 1012 53 10000 1.62 67 17:24 19.01.2021
3554 Clouds 25 1012 52 10000 1.62 67 16:48 19.01.2021
3555 Clouds 26 1012 52 10000 1.51 29 16:25 19.01.2021
3556 Clouds 26 1012 52 10000 1.51 29 15:56 19.01.2021
3557 Clouds 26 1012 51 10000 1.51 29 15:35 19.01.2021
3558 Clouds 26 1012 50 10000 1.76 7 14:51 19.01.2021
3559 Clouds 27 1012 50 10000 1.76 7 14:31 19.01.2021
3560 Clouds 27 1011 49 10000 1.09 4 13:56 19.01.2021
3561 Clouds 27 1011 49 10000 1.09 4 13:37 19.01.2021
3562 Clouds 27 1011 49 10000 0.67 13 13:19 19.01.2021
3563 Clouds 26 1011 48 10000 0.2 352 12:36 19.01.2021
3564 Clouds 26 1010 47 10000 0.71 6 12:18 19.01.2021
3565 Clouds 26 1010 46 10000 0.71 6 11:43 19.01.2021
3566 Clouds 28 1010 45 10000 1.04 15 11:22 19.01.2021
3567 Clouds 29 1012 56 10000 1.04 15 10:50 19.01.2021
3568 Clouds 29 1011 44 9000 4.12 320 10:29 19.01.2021
3569 Clouds 29 1010 37 10000 1.36 17 09:51 19.01.2021
3570 Clouds 28 1012 41 9000 3.6 320 09:20 19.01.2021
3571 Clouds 29 1010 31 10000 4.02 225 08:45 19.01.2021
3572 Clouds 29 1012 31 10000 1.34 225 07:57 19.01.2021
3573 Clouds 28 1013 42 10000 2.12 63 07:19 19.01.2021
3574 Clouds 24 1017 56 9000 2.06 100 04:50 19.01.2021
3575 Clouds 18 1016 68 8000 2.57 30 02:24 19.01.2021
3576 Clouds 19 1014 68 9000 3.09 10 00:45 19.01.2021
3577 Clear 19 1013 68 9000 3.09 30 23:57 18.01.2021
3578 Clear 20 1013 68 9000 3.09 20 23:28 18.01.2021
3579 Clear 20 1013 68 9000 3.6 20 22:44 18.01.2021
3580 Clear 20 1013 64 9000 3.09 10 22:23 18.01.2021
3581 Clear 20 1013 72 9000 2.06 20 21:48 18.01.2021
3582 Clear 20 1013 68 9000 2.57 10 21:23 18.01.2021
3583 Clear 20 1013 68 9000 0.51 40 20:57 18.01.2021
3584 Clear 22 1014 68 9000 3.42 79 20:34 18.01.2021
3585 Clear 22 1014 68 9000 4.34 69 19:54 18.01.2021
3586 Clear 21 1014 68 9000 2.06 50 19:35 18.01.2021
3587 Clear 21 1014 64 9000 2.06 70 18:53 18.01.2021
3588 Clouds 21 1014 68 9000 2.06 70 18:33 18.01.2021
3589 Clear 24 1013 74 10000 4.74 63 17:52 18.01.2021
3590 Clear 24 1013 76 10000 0.45 25 17:32 18.01.2021
3591 Clear 25 1015 47 10000 5.05 58 16:54 18.01.2021
3592 Clear 25 1015 46 10000 5.05 58 16:33 18.01.2021
3593 Clear 24 1014 73 10000 5.43 55 15:56 18.01.2021
3594 Clear 25 1013 52 10000 5.43 55 15:37 18.01.2021
3595 Clear 25 1015 48 10000 5.82 60 15:18 18.01.2021
3596 Clear 24 1013 72 10000 5.82 60 14:41 18.01.2021
3597 Clouds 26 1014 57 10000 2.57 340 14:22 18.01.2021
3598 Clouds 26 1013 57 10000 2.57 330 13:44 18.01.2021
3599 Clouds 28 1014 47 10000 4.57 57 13:21 18.01.2021
3600 Clouds 26 1011 48 10000 4.85 56 12:47 18.01.2021
3601 Clouds 26 1012 65 10000 1.79 341 12:19 18.01.2021
3602 Clouds 27 1012 44 10000 4.63 330 11:48 18.01.2021
3603 Clouds 30 1013 45 10000 4.1 67 11:27 18.01.2021
3604 Clouds 30 1012 49 10000 4.1 67 10:49 18.01.2021
3605 Clouds 29 1012 49 10000 4.1 67 10:30 18.01.2021
3606 Clouds 29 1011 45 10000 0.45 53 09:40 18.01.2021
3607 Clouds 29 1011 45 10000 0.45 55 09:18 18.01.2021
3608 Clouds 29 1012 45 10000 0.89 55 08:31 18.01.2021
3609 Clouds 29 1013 46 10000 4.83 71 07:55 18.01.2021
3610 Clear 28 1015 46 10000 0.45 63 06:35 18.01.2021
3611 Clear 25 1017 48 10000 1.79 58 04:46 18.01.2021
3612 Clear 25 1017 49 10000 1.34 56 04:27 18.01.2021
3613 Clear 24 1017 49 10000 1.34 52 03:52 18.01.2021
3614 Clear 23 1018 60 10000 4.12 100 03:29 18.01.2021
3615 Clear 23 1018 64 10000 4.12 110 02:58 18.01.2021
3616 Clear 22 1017 73 10000 3.09 110 02:19 18.01.2021
3617 Clear 21 1015 73 10000 1.54 130 00:41 18.01.2021
3618 Clear 21 1015 68 10000 1.54 70 23:57 17.01.2021
3619 Clear 22 1014 68 10000 1.54 70 23:39 17.01.2021
3620 Clear 22 1014 68 10000 1.54 70 23:19 17.01.2021
3621 Clouds 23 1014 68 10000 3.09 40 22:24 17.01.2021
3622 Clouds 23 1014 60 10000 3.09 90 21:45 17.01.2021
3623 Clear 25 1012 56 10000 0.45 72 21:27 17.01.2021
3624 Clouds 24 1014 60 10000 3.6 90 20:55 17.01.2021
3625 Clear 25 1012 55 10000 6.85 72 20:37 17.01.2021
3626 Clear 26 1013 54 10000 0.45 65 20:18 17.01.2021
3627 Clear 25 1013 53 10000 7.07 71 19:40 17.01.2021
3628 Clouds 26 1014 58 10000 4.02 62 18:57 17.01.2021
3629 Clouds 28 1015 39 10000 7.49 70 18:30 17.01.2021
3630 Clouds 27 993 100 10000 0.89 59 17:52 17.01.2021
3631 Clouds 27 1017 49 10000 8.71 70 17:34 17.01.2021
3632 Clouds 28 1013 66 10000 6.43 60 16:56 17.01.2021
3633 Clouds 28 1015 68 10000 2.68 37 16:37 17.01.2021
3634 Clouds 28 1015 68 10000 2.68 37 16:37 17.01.2021
3635 Clouds 28 1017 49 10000 6.26 58 16:18 17.01.2021
3636 Clouds 28 1012 48 10000 6.26 58 15:37 17.01.2021
3637 Rain 28 1014 68 10000 2.68 20 15:19 17.01.2021
3638 Clouds 28 1014 51 10000 6.79 60 14:42 17.01.2021
3639 Rain 28 1012 48 10000 0.45 105 14:23 17.01.2021
3640 Clear 29 1011 47 10000 5.92 52 13:43 17.01.2021
3641 Clear 29 1011 47 10000 5.92 52 13:43 17.01.2021
3642 Clouds 29 1011 46 10000 4.37 48 13:24 17.01.2021
3643 Clouds 29 1011 46 10000 5.03 57 12:46 17.01.2021
3644 Clouds 29 1010 45 10000 4.45 58 12:25 17.01.2021
3645 Clouds 31 1010 68 10000 0.89 15 11:26 17.01.2021
3646 Clouds 31 1009 41 10000 0.45 55 10:57 17.01.2021
3647 Clouds 31 1009 41 10000 0.45 73 10:37 17.01.2021
3648 Clouds 31 1009 43 10000 1.79 79 10:18 17.01.2021
3649 Rain 31 1009 44 10000 0.89 76 09:18 17.01.2021
3650 Clouds 31 1009 49 10000 2.79 51 08:41 17.01.2021
3651 Clear 29 1013 69 10000 2.87 81 04:39 17.01.2021
3652 Clear 28 1014 70 10000 2.35 99 04:20 17.01.2021
3653 Clear 26 1012 82 10000 1.84 116 01:37 17.01.2021
3654 Clouds 25 1011 84 10000 1.87 161 00:21 17.01.2021
3655 Clouds 26 1010 84 10000 1.87 161 23:54 16.01.2021
3656 Clouds 26 1010 84 10000 1.85 174 23:26 16.01.2021
3657 Clouds 26 1010 84 10000 1.85 174 22:58 16.01.2021
3658 Clouds 26 1009 83 10000 2.12 181 22:26 16.01.2021
3659 Clouds 25 1009 83 10000 2.12 181 21:50 16.01.2021
3660 Clouds 25 1009 83 10000 2.51 170 21:23 16.01.2021
3661 Clouds 25 1009 82 10000 2.51 170 20:52 16.01.2021
3662 Clouds 25 1009 81 10000 2.84 165 20:28 16.01.2021
3663 Clouds 24 1009 80 10000 2.84 165 19:50 16.01.2021
3664 Clouds 25 1009 80 10000 2.84 165 19:30 16.01.2021
3665 Clear 25 1009 79 10000 4.05 190 18:47 16.01.2021
3666 Clear 25 1009 79 10000 4.43 192 18:28 16.01.2021
3667 Clear 26 1009 78 10000 4.43 192 17:59 16.01.2021
3668 Clear 26 1009 78 10000 4.43 192 17:39 16.01.2021
3669 Clear 26 1009 78 10000 4.51 195 17:21 16.01.2021
3670 Clear 25 1009 76 10000 4.51 195 16:42 16.01.2021
3671 Clear 25 1009 75 10000 4.42 192 16:18 16.01.2021
3672 Clear 25 1009 74 10000 4.42 192 15:41 16.01.2021
3673 Clear 28 1010 80 10000 0.45 143 14:34 16.01.2021
3674 Rain 27 1010 47 10000 4.01 182 13:54 16.01.2021
3675 Rain 28 1009 75 10000 1.79 152 13:31 16.01.2021
3676 Rain 27 1008 60 10000 3.97 181 12:49 16.01.2021
3677 Rain 28 1007 59 10000 3.97 181 12:31 16.01.2021
3678 Rain 29 1007 54 10000 4.32 190 11:56 16.01.2021
3679 Clear 30 1007 52 10000 4.74 194 11:27 16.01.2021
3680 Clear 30 1007 52 10000 4.74 194 10:59 16.01.2021
3681 Rain 30 1007 51 10000 4.74 194 10:41 16.01.2021
3682 Clear 30 1006 51 10000 4.18 196 09:57 16.01.2021
3683 Clear 30 1007 52 10000 3.55 194 09:21 16.01.2021
3684 Rain 30 1007 53 10000 3.4 188 08:19 16.01.2021
3685 Clear 30 1009 59 10000 3.56 180 06:52 16.01.2021
3686 Clear 28 1010 63 10000 3.51 173 05:32 16.01.2021
3687 Clear 27 1011 71 10000 2.81 175 03:38 16.01.2021
3688 Clear 26 1011 72 10000 2.73 176 02:42 16.01.2021
3689 Mist 23 1011 88 3000 2.81 171 00:46 16.01.2021
3690 Clear 25 1009 80 10000 2.84 169 00:23 16.01.2021
3691 Clear 25 1009 78 10000 2.84 169 23:37 15.01.2021
3692 Clear 24 1009 77 10000 2.49 175 22:39 15.01.2021
3693 Clear 24 1009 77 10000 2.68 181 22:21 15.01.2021
3694 Mist 22 1010 78 5000 1.54 120 21:42 15.01.2021
3695 Clear 23 1010 73 6000 2.79 188 20:49 15.01.2021
3696 Clear 25 1009 88 10000 3.26 188 20:24 15.01.2021
3697 Rain 25 1010 86 10000 3.26 188 19:48 15.01.2021
3698 Rain 25 1010 86 10000 3.26 188 19:48 15.01.2021
3699 Rain 24 1009 70 10000 3.83 187 19:29 15.01.2021
3700 Rain 24 1011 68 6000 1.03 210 18:54 15.01.2021
3701 Rain 25 1009 66 10000 3.71 195 18:21 15.01.2021
3702 Rain 24 1009 64 10000 3.71 195 17:59 15.01.2021
3703 Rain 24 1009 63 10000 3.71 195 17:40 15.01.2021
3704 Rain 24 1009 63 10000 3.71 195 17:40 15.01.2021
3705 Clear 26 1009 62 10000 3.94 209 17:21 15.01.2021
3706 Clear 26 1009 59 10000 3.94 209 16:44 15.01.2021
3707 Rain 26 1009 58 10000 3.62 208 16:23 15.01.2021
3708 Clouds 26 1009 57 10000 3.62 208 15:41 15.01.2021
3709 Clear 27 1009 55 10000 2.97 216 15:21 15.01.2021
3710 Rain 27 1009 55 10000 2.97 216 14:43 15.01.2021
3711 Rain 27 1008 55 10000 2.91 228 14:24 15.01.2021
3712 Clear 28 1008 50 10000 2.91 228 13:41 15.01.2021
3713 Rain 29 1007 48 10000 2.67 228 13:21 15.01.2021
3714 Clouds 28 1007 44 10000 2.67 228 12:49 15.01.2021
3715 Rain 29 1007 44 10000 2.97 222 12:31 15.01.2021
3716 Rain 30 1006 43 10000 2.26 223 11:46 15.01.2021
3717 Rain 30 1006 41 10000 1.53 204 11:23 15.01.2021
3718 Rain 31 1006 39 10000 1.53 204 10:53 15.01.2021
3719 Rain 31 1006 38 10000 1.53 204 10:33 15.01.2021
3720 Rain 31 1006 39 10000 1.06 170 09:53 15.01.2021
3721 Clouds 30 1006 39 10000 1.06 170 09:34 15.01.2021
3722 Clouds 31 1007 40 10000 0.45 67 08:37 15.01.2021
3723 Rain 30 1007 41 10000 1.39 115 08:18 15.01.2021
3724 Clouds 30 1008 41 10000 1.39 115 07:39 15.01.2021
3725 Clouds 30 1008 41 10000 1.94 111 07:18 15.01.2021
3726 Haze 25 1013 64 5000 2.57 110 03:46 15.01.2021
3727 Clouds 21 1011 77 6000 1.44 35 00:57 15.01.2021
3728 Clouds 21 1011 83 6000 1.03 10 23:47 14.01.2021
3729 Clouds 21 1011 82 6000 1.37 4 22:59 14.01.2021
3730 Clouds 21 1011 82 6000 1.37 4 22:40 14.01.2021
3731 Clouds 21 1011 82 6000 1.8 356 22:22 14.01.2021
3732 Clouds 22 1011 77 7000 1.8 356 21:42 14.01.2021
3733 Rain 23 1011 77 7000 1.88 352 21:21 14.01.2021
3734 Clouds 23 1011 73 7000 1.03 60 20:49 14.01.2021
3735 Clear 24 1009 57 10000 0.96 326 20:25 14.01.2021
3736 Clear 24 1009 54 10000 0.96 326 19:43 14.01.2021
3737 Clear 25 1009 54 10000 1.6 286 19:25 14.01.2021
3738 Clear 25 1010 54 10000 1.6 286 18:52 14.01.2021
3739 Clear 25 1010 54 10000 2.07 255 18:27 14.01.2021
3740 Clear 25 1010 53 10000 2.07 255 17:46 14.01.2021
3741 Rain 26 1010 53 10000 1.77 245 17:26 14.01.2021
3742 Clear 26 1010 51 10000 1.77 245 16:43 14.01.2021
3743 Rain 26 1010 50 10000 1.92 219 15:58 14.01.2021
3744 Rain 26 1011 49 10000 1.92 219 15:39 14.01.2021
3745 Rain 26 1011 50 10000 2.24 212 14:59 14.01.2021
3746 Rain 27 1010 49 10000 2.24 212 14:37 14.01.2021
3747 Clear 27 1010 49 10000 2.21 215 14:18 14.01.2021
3748 Rain 28 1010 47 10000 2.21 215 13:48 14.01.2021
3749 Rain 28 1010 46 10000 1.68 223 13:20 14.01.2021
3750 Rain 28 1009 44 10000 1.68 223 12:38 14.01.2021
3751 Rain 28 1009 44 10000 0.6 309 12:18 14.01.2021
3752 Rain 29 1009 42 10000 0.6 309 11:42 14.01.2021
3753 Rain 29 1009 41 10000 1.14 355 11:20 14.01.2021
3754 Rain 29 1009 40 10000 1.14 355 10:50 14.01.2021
3755 Clouds 29 1009 34 10000 1.5 10 10:22 14.01.2021
3756 Clouds 30 1009 34 10000 1.5 10 09:45 14.01.2021
3757 Clouds 29 1009 34 10000 1.75 12 09:22 14.01.2021
3758 Clouds 29 1009 34 10000 1.75 12 08:48 14.01.2021
3759 Clouds 30 1012 34 10000 2.57 40 08:22 14.01.2021
3760 Clouds 29 1012 34 9000 2.06 320 07:45 14.01.2021
3761 Clouds 28 1014 36 9000 3.09 300 06:46 14.01.2021
3762 Clear 27 1013 39 10000 3.01 355 05:46 14.01.2021
3763 Mist 19 1013 77 5000 1.03 350 00:45 14.01.2021
3764 Mist 19 1013 77 5000 1.54 40 23:54 13.01.2021
3765 Clear 20 1013 77 6000 2.57 350 23:22 13.01.2021
3766 Clear 20 1012 68 8000 2.06 10 22:29 13.01.2021
3767 Clear 20 1012 68 8000 2.57 350 21:57 13.01.2021
3768 Clear 20 1013 68 8000 3.6 340 21:38 13.01.2021
3769 Clear 20 1013 63 8000 3.09 340 20:58 13.01.2021
3770 Clear 20 1013 63 8000 2.06 330 20:30 13.01.2021
3771 Clear 21 1013 60 8000 2.57 320 19:58 13.01.2021
3772 Clear 21 1014 60 8000 1.54 300 19:39 13.01.2021
3773 Clouds 21 1014 60 8000 1.54 300 19:19 13.01.2021
3774 Clouds 21 1014 60 8000 1.65 320 18:40 13.01.2021
3775 Clouds 22 1014 60 8000 0.51 0 17:51 13.01.2021
3776 Clouds 24 1012 49 10000 2.17 289 17:25 13.01.2021
3777 Clouds 23 1014 49 8000 2.06 270 16:51 13.01.2021
3778 Clouds 25 1012 50 10000 1.57 275 16:22 13.01.2021
3779 Clouds 24 1014 49 8000 1.57 275 15:53 13.01.2021
3780 Clouds 24 1014 49 8000 1.03 310 15:35 13.01.2021
3781 Clouds 26 1012 47 10000 1.14 273 14:48 13.01.2021
3782 Clouds 26 1012 45 10000 0.85 281 13:53 13.01.2021
3783 Clouds 27 1011 45 10000 0.85 281 13:31 13.01.2021
3784 Clouds 27 1011 44 10000 0.61 318 12:47 13.01.2021
3785 Clouds 27 1011 42 10000 0.64 11 12:28 13.01.2021
3786 Clouds 28 1011 40 10000 0.64 11 11:55 13.01.2021
3787 Clouds 28 1011 39 10000 0.64 11 11:35 13.01.2021
3788 Clear 27 1011 37 10000 0.59 33 10:56 13.01.2021
3789 Clear 28 1011 35 10000 0.59 33 10:37 13.01.2021
3790 Clear 28 1011 34 10000 0.59 78 10:18 13.01.2021
3791 Clear 28 1013 36 8000 3.6 320 09:31 13.01.2021
3792 Clear 28 1013 34 9000 3.6 320 08:52 13.01.2021
3793 Clear 28 1014 36 9000 4.12 350 08:31 13.01.2021
3794 Clear 27 1015 36 9000 2.57 30 07:35 13.01.2021
3795 Clouds 28 1013 34 10000 2.32 39 06:56 13.01.2021
3796 Clear 22 1016 38 10000 3.02 19 04:21 13.01.2021
3797 Clear 22 1018 45 8000 3.09 360 03:48 13.01.2021
3798 Clear 21 1016 39 10000 2.98 0 03:29 13.01.2021
3799 Clouds 18 1016 55 8000 3.09 320 01:32 13.01.2021
3800 Clouds 18 1015 55 8000 2.57 320 00:29 13.01.2021
3801 Clouds 18 1015 55 8000 2.06 340 23:22 12.01.2021
3802 Clouds 18 1014 55 8000 2.57 330 22:46 12.01.2021
3803 Clouds 18 1014 55 8000 2.57 330 22:46 12.01.2021
3804 Clouds 19 1015 55 8000 2.06 340 22:24 12.01.2021
3805 Clouds 19 1015 51 8000 3.09 340 21:51 12.01.2021
3806 Clouds 19 1015 48 8000 3.09 360 21:30 12.01.2021
3807 Clouds 19 1015 52 8000 2.57 10 20:49 12.01.2021
3808 Clouds 19 1016 59 8000 2.57 20 20:27 12.01.2021
3809 Clouds 19 1016 59 8000 2.06 40 19:55 12.01.2021
3810 Clouds 20 1016 55 8000 2.57 50 19:35 12.01.2021
3811 Clouds 20 1017 55 8000 2.57 40 18:46 12.01.2021
3812 Clouds 20 1017 52 8000 2.57 20 18:24 12.01.2021
3813 Clouds 20 1016 55 8000 1.54 30 17:44 12.01.2021
3814 Clouds 21 1016 55 8000 2.06 50 17:25 12.01.2021
3815 Clouds 21 1016 49 8000 3.6 50 16:44 12.01.2021
3816 Clouds 21 1016 49 8000 4.12 40 16:24 12.01.2021
3817 Clouds 22 1016 46 8000 4.63 20 15:41 12.01.2021
3818 Clouds 22 1016 46 8000 4.63 20 15:21 12.01.2021
3819 Clouds 23 1015 43 8000 5.66 20 14:43 12.01.2021
3820 Rain 23 1015 43 8000 5.66 20 14:23 12.01.2021
3821 Clouds 23 1014 40 8000 5.66 10 13:52 12.01.2021
3822 Clouds 24 1014 40 8000 5.14 20 13:18 12.01.2021
3823 Clouds 25 1013 38 8000 5.66 10 12:24 12.01.2021
3824 Clouds 26 1013 38 9000 4.63 20 11:41 12.01.2021
3825 Clouds 28 1011 39 10000 2.54 16 10:55 12.01.2021
3826 Clouds 28 1011 38 10000 2.17 15 10:25 12.01.2021
3827 Clouds 28 1011 39 10000 2.17 15 09:58 12.01.2021
3828 Clouds 28 1011 39 10000 2.17 15 09:38 12.01.2021
3829 Clouds 28 1012 39 10000 1.83 19 09:18 12.01.2021
3830 Clouds 27 1012 40 10000 1.8 11 08:26 12.01.2021
3831 Clouds 25 1017 43 9000 2.06 100 07:37 12.01.2021
3832 Clouds 24 1017 46 9000 2.06 360 06:49 12.01.2021
3833 Clouds 23 1019 52 9000 1.54 20 05:34 12.01.2021
3834 Clouds 20 1020 59 9000 2.57 100 03:27 12.01.2021
3835 Clouds 18 1019 63 8000 4.12 110 02:21 12.01.2021
3836 Clouds 19 1018 67 8000 4.63 100 01:31 12.01.2021
3837 Clouds 19 1018 67 8000 4.63 100 01:31 12.01.2021
3838 Clouds 19 1018 67 8000 4.63 100 01:31 12.01.2021
3839 Clear 19 1016 63 10000 3.09 70 23:57 11.01.2021
3840 Clear 19 1016 63 10000 3.09 50 23:36 11.01.2021
3841 Clear 19 1016 63 10000 3.09 50 23:18 11.01.2021
3842 Clear 20 1016 59 10000 3.6 30 22:45 11.01.2021
3843 Clear 20 1015 59 10000 4.63 20 22:26 11.01.2021
3844 Clouds 20 1015 59 10000 4.63 20 21:42 11.01.2021
3845 Clouds 21 1015 59 10000 4.63 20 21:23 11.01.2021
3846 Clouds 21 1015 60 10000 5.14 20 20:47 11.01.2021
3847 Clouds 22 1015 60 10000 5.14 20 20:28 11.01.2021
3848 Clouds 22 1015 64 10000 5.14 20 19:57 11.01.2021
3849 Clouds 22 1016 68 10000 3.6 30 19:34 11.01.2021
3850 Clouds 23 1016 64 10000 3.09 40 18:46 11.01.2021
3851 Clouds 23 1016 68 10000 1.54 60 18:27 11.01.2021
3852 Clouds 24 1016 68 10000 2.57 70 17:56 11.01.2021
3853 Clouds 24 1016 64 10000 3.6 70 17:38 11.01.2021
3854 Clouds 24 1016 64 10000 3.6 70 17:19 11.01.2021
3855 Clouds 25 1016 60 10000 4.12 60 16:40 11.01.2021
3856 Clouds 25 1016 60 10000 4.12 60 16:40 11.01.2021
3857 Clouds 27 1014 52 10000 8.34 76 16:21 11.01.2021
3858 Clouds 25 1015 57 10000 4.63 70 15:49 11.01.2021
3859 Clouds 28 1014 52 10000 6.96 71 15:27 11.01.2021
3860 Clouds 26 1014 50 9000 5.14 90 14:40 11.01.2021
3861 Clouds 27 1014 53 9000 3.6 90 13:58 11.01.2021
3862 Clouds 27 1013 53 9000 3.09 100 13:38 11.01.2021
3863 Clouds 29 1012 50 10000 5.03 72 13:18 11.01.2021
3864 Clouds 28 1011 49 10000 6.23 77 12:36 11.01.2021
3865 Clouds 29 1011 48 10000 4.97 81 11:57 11.01.2021
3866 Clouds 29 1011 48 10000 4.97 81 11:36 11.01.2021
3867 Clouds 30 1011 45 10000 4.48 85 10:53 11.01.2021
3868 Clouds 31 1011 44 10000 4.17 88 10:26 11.01.2021
3869 Clouds 30 1012 45 10000 4.12 100 09:44 11.01.2021
3870 Clouds 30 1011 43 10000 3.9 87 09:22 11.01.2021
3871 Clouds 30 1011 43 10000 3.9 87 08:46 11.01.2021
3872 Clouds 30 1011 43 10000 3.65 85 08:19 11.01.2021
3873 Clouds 29 1012 43 10000 3.25 80 07:29 11.01.2021
3874 Clouds 29 1013 43 10000 3.25 80 06:59 11.01.2021
3875 Clouds 29 1013 44 10000 3.06 90 06:23 11.01.2021
3876 Clouds 23 1014 73 8000 1.03 60 01:46 11.01.2021
3877 Clouds 22 1013 73 10000 2.06 30 00:38 11.01.2021
3878 Clouds 22 1012 68 10000 2.57 50 23:36 10.01.2021
3879 Clouds 22 1011 73 10000 2.06 30 22:49 10.01.2021
3880 Clouds 22 1011 73 10000 2.57 30 22:27 10.01.2021
3881 Clouds 23 1011 73 10000 2.06 360 21:46 10.01.2021
3882 Clouds 23 1012 73 10000 1.54 340 21:21 10.01.2021
3883 Clouds 23 1012 73 10000 2.8 61 20:57 10.01.2021
3884 Clouds 23 1012 73 10000 2.8 61 20:33 10.01.2021
3885 Clouds 24 1013 73 10000 3.31 77 19:58 10.01.2021
3886 Clouds 24 1013 68 10000 1.03 70 19:36 10.01.2021
3887 Clouds 24 1013 68 10000 1.03 70 19:18 10.01.2021
3888 Clouds 25 1013 68 10000 2.06 60 18:41 10.01.2021
3889 Clouds 25 1013 68 10000 2.06 60 18:19 10.01.2021
3890 Clear 27 1012 54 10000 4.13 90 17:22 10.01.2021
3891 Clear 28 1012 53 10000 4.13 90 16:37 10.01.2021
3892 Clear 28 1012 53 10000 3.61 92 16:18 10.01.2021
3893 Clear 28 1012 51 10000 2.77 91 15:25 10.01.2021
3894 Clear 28 1011 50 10000 2.77 91 14:52 10.01.2021
3895 Clear 29 1011 49 10000 2.77 91 14:33 10.01.2021
3896 Clear 29 1010 48 10000 2.69 77 13:55 10.01.2021
3897 Clear 29 1010 47 10000 2.69 77 13:37 10.01.2021
3898 Clouds 29 1010 46 10000 2.81 76 13:18 10.01.2021
3899 Clouds 29 1009 45 10000 2.87 71 12:50 10.01.2021
3900 Clouds 28 1009 45 10000 2.87 71 12:31 10.01.2021
3901 Clouds 30 1010 45 10000 4.12 70 11:40 10.01.2021
3902 Clouds 31 1009 44 10000 3.62 75 11:19 10.01.2021
3903 Clouds 31 1009 44 10000 3.62 75 11:19 10.01.2021
3904 Clouds 31 1008 42 10000 3.62 75 10:38 10.01.2021
3905 Clouds 31 1009 41 10000 0.89 111 10:20 10.01.2021
3906 Clouds 31 1009 42 10000 0.89 29 09:27 10.01.2021
3907 Clouds 31 1009 43 10000 0.89 53 08:22 10.01.2021
3908 Clouds 30 1010 43 10000 0.45 109 07:31 10.01.2021
3909 Clouds 29 1014 51 9000 3.09 10 06:20 10.01.2021
3910 Clouds 28 1014 50 9000 3.09 20 05:37 10.01.2021
3911 Clouds 24 1014 60 9000 2.06 300 03:26 10.01.2021
3912 Clouds 21 1013 73 8000 2.06 310 01:28 10.01.2021
3913 Clear 22 1012 68 10000 2.1 309 23:51 09.01.2021
3914 Clear 22 1012 73 10000 2.1 309 23:33 09.01.2021
3915 Clear 22 1012 68 10000 2.06 50 22:48 09.01.2021
3916 Clouds 23 1010 60 10000 1.61 58 22:19 09.01.2021
3917 Clear 22 1012 73 10000 2.06 60 21:57 09.01.2021
3918 Clear 22 1012 73 10000 1.54 60 21:39 09.01.2021
3919 Clouds 24 1010 59 10000 2.02 74 21:19 09.01.2021
3920 Clouds 24 1010 59 10000 2.02 74 20:44 09.01.2021
3921 Clear 24 1013 68 10000 2.57 120 19:45 09.01.2021
3922 Clear 24 1013 68 10000 2.06 100 19:23 09.01.2021
3923 Clear 25 1013 64 10000 2.57 110 18:56 09.01.2021
3924 Clear 24 1013 64 10000 2.06 120 18:34 09.01.2021
3925 Clear 25 1013 60 10000 1.54 80 17:50 09.01.2021
3926 Clear 25 1013 60 10000 1.03 100 17:31 09.01.2021
3927 Clear 26 1014 64 10000 2.06 60 16:36 09.01.2021
3928 Clear 26 1012 56 10000 3.79 82 15:53 09.01.2021
3929 Clear 26 1012 55 10000 3.79 82 15:33 09.01.2021
3930 Clear 26 1011 55 10000 2.63 68 14:42 09.01.2021
3931 Clear 28 1011 54 10000 2.75 64 14:21 09.01.2021
3932 Clear 26 1010 53 10000 2.75 64 13:50 09.01.2021
3933 Clear 29 1010 53 10000 2.75 64 13:31 09.01.2021
3934 Clouds 27 1010 53 10000 3.1 73 12:55 09.01.2021
3935 Clear 29 1011 54 10000 3.6 60 12:26 09.01.2021
3936 Clear 27 1011 51 10000 4.12 60 11:56 09.01.2021
3937 Clouds 28 1009 49 10000 3.44 73 11:35 09.01.2021
3938 Clouds 30 1009 48 10000 0.45 52 10:55 09.01.2021
3939 Clouds 30 1009 47 10000 0.45 108 10:36 09.01.2021
3940 Clear 30 1010 51 10000 4.63 70 09:54 09.01.2021
3941 Clear 30 1010 51 10000 4.63 90 09:29 09.01.2021
3942 Rain 31 1009 46 10000 0.45 104 09:00 09.01.2021
3943 Clouds 30 1010 46 10000 1.34 83 07:43 09.01.2021
3944 Clouds 30 1012 47 10000 0.89 84 06:40 09.01.2021
3945 Clouds 27 1015 57 10000 2.06 10 04:54 09.01.2021
3946 Clouds 24 1015 64 10000 4.63 110 03:25 09.01.2021
3947 Clear 22 1014 64 10000 5.14 100 02:38 09.01.2021
3948 Clear 22 1014 64 10000 5.14 100 02:19 09.01.2021
3949 Clouds 23 1012 78 10000 2.57 90 00:37 09.01.2021
3950 Clouds 23 1012 78 10000 2.57 90 00:19 09.01.2021
3951 Clouds 24 1011 73 10000 2.06 80 23:26 08.01.2021
3952 Clouds 24 1011 68 10000 2.57 60 22:25 08.01.2021
3953 Clouds 24 1011 64 10000 3.6 50 21:46 08.01.2021
3954 Clouds 24 1011 68 10000 3.6 50 20:57 08.01.2021
3955 Clouds 26 1011 64 10000 4.12 40 20:26 08.01.2021
3956 Clouds 26 1011 69 10000 4.12 30 19:55 08.01.2021
3957 Clouds 28 1010 60 10000 0.45 57 19:22 08.01.2021
3958 Clouds 28 1010 60 10000 5.74 69 18:36 08.01.2021
3959 Clouds 28 1010 59 10000 6.1 75 18:18 08.01.2021
3960 Clouds 29 1010 58 10000 6.1 75 17:45 08.01.2021
3961 Clouds 29 1010 57 10000 6.12 74 17:22 08.01.2021
3962 Clouds 29 1010 56 10000 0.45 62 16:34 08.01.2021
3963 Clouds 29 1010 56 10000 6.26 80 15:44 08.01.2021
3964 Clouds 30 1010 57 10000 0.45 83 14:56 08.01.2021
3965 Rain 30 1010 58 10000 0.89 83 14:35 08.01.2021
3966 Clouds 30 1009 57 10000 5.48 86 13:44 08.01.2021
3967 Clouds 31 1009 57 10000 4.04 82 13:18 08.01.2021
3968 Clouds 30 1009 56 10000 0.45 70 12:45 08.01.2021
3969 Clouds 30 1008 54 10000 0.45 101 12:19 08.01.2021
3970 Clouds 30 1008 53 10000 0.45 97 11:43 08.01.2021
3971 Clouds 31 1009 54 10000 5.66 90 11:23 08.01.2021
3972 Clouds 32 1009 54 10000 5.66 110 10:49 08.01.2021
3973 Clouds 32 1009 48 10000 5.66 90 10:26 08.01.2021
3974 Clouds 31 1009 51 10000 6.69 90 09:44 08.01.2021
3975 Clouds 32 1009 51 10000 7.2 90 09:25 08.01.2021
3976 Clouds 31 1009 54 10000 7.2 80 08:23 08.01.2021
3977 Clouds 31 1010 54 10000 7.2 100 07:25 08.01.2021
3978 Clouds 31 1011 53 10000 5.62 70 04:47 08.01.2021
3979 Clouds 26 1009 78 10000 2.57 60 23:46 07.01.2021
3980 Clouds 26 1009 78 10000 2.57 60 23:46 07.01.2021
3981 Clouds 28 1008 65 10000 4.32 83 23:28 07.01.2021
3982 Clouds 28 1007 65 10000 4.32 83 22:44 07.01.2021
3983 Clouds 28 1007 65 10000 4.32 85 22:21 07.01.2021
3984 Clouds 28 1007 63 10000 4.32 85 21:41 07.01.2021
3985 Clouds 28 1007 62 10000 4.57 94 21:22 07.01.2021
3986 Clouds 29 1007 61 10000 4.57 94 20:45 07.01.2021
3987 Clouds 29 1008 61 10000 4.46 96 20:26 07.01.2021
3988 Rain 29 1008 60 10000 4.46 96 19:42 07.01.2021
3989 Clouds 29 1008 60 10000 4.11 106 19:20 07.01.2021
3990 Clouds 30 1009 60 10000 3.96 103 18:30 07.01.2021
3991 Clouds 30 1009 59 10000 3.89 110 17:42 07.01.2021
3992 Rain 30 1009 59 10000 3.28 90 17:22 07.01.2021
3993 Clouds 30 1009 58 10000 3.28 90 16:52 07.01.2021
3994 Clouds 30 1009 57 10000 2.81 59 16:24 07.01.2021
3995 Clouds 30 1009 55 10000 2.81 59 15:37 07.01.2021
3996 Clouds 30 1009 54 10000 2.86 31 14:45 07.01.2021
3997 Clouds 30 1009 54 10000 2.81 22 14:26 07.01.2021
3998 Clouds 30 1008 52 10000 2.81 22 13:41 07.01.2021
3999 Clear 30 1008 51 10000 1.9 54 13:18 07.01.2021
4000 Clear 30 1008 51 10000 1.9 54 13:18 07.01.2021
4001 Clear 30 1007 50 10000 1.9 54 12:35 07.01.2021
4002 Rain 31 1007 49 10000 2.36 51 11:52 07.01.2021
4003 Rain 32 1007 48 10000 2.36 51 11:34 07.01.2021
4004 Rain 32 1006 44 10000 2.36 40 10:48 07.01.2021
4005 Clear 32 1006 46 10000 2.24 35 10:20 07.01.2021
4006 Clear 32 1006 44 10000 2.24 35 09:46 07.01.2021
4007 Clear 33 1006 45 10000 2.42 33 09:18 07.01.2021
4008 Clear 33 1007 44 10000 2.52 38 08:27 07.01.2021
4009 Clear 32 1007 47 10000 2.52 38 07:46 07.01.2021
4010 Clear 32 1008 48 10000 2.66 46 07:18 07.01.2021
4011 Clouds 29 1011 49 10000 3.23 77 04:22 07.01.2021
4012 Clear 27 1009 64 10000 2.48 89 00:29 07.01.2021
4013 Clouds 26 1010 78 10000 2.48 89 23:45 06.01.2021
4014 Clear 28 1008 59 10000 2.44 89 22:39 06.01.2021
4015 Clouds 27 1008 58 10000 2.37 95 21:44 06.01.2021
4016 Clouds 27 1008 57 10000 2.43 96 21:23 06.01.2021
4017 Rain 27 1008 57 10000 2.43 96 20:53 06.01.2021
4018 Rain 27 1008 56 10000 2.72 99 20:24 06.01.2021
4019 Rain 27 1008 56 10000 2.72 99 20:24 06.01.2021
4020 Rain 27 1009 55 10000 2.72 99 19:54 06.01.2021
4021 Clouds 28 1010 69 10000 2.72 99 19:36 06.01.2021
4022 Clouds 29 1009 55 10000 3.04 105 19:18 06.01.2021
4023 Clouds 30 1009 55 10000 2.83 106 18:40 06.01.2021
4024 Clouds 30 1009 55 10000 3.33 104 18:21 06.01.2021
4025 Clouds 30 1009 56 10000 3.33 104 17:42 06.01.2021
4026 Clouds 30 1009 56 10000 3.77 105 17:22 06.01.2021
4027 Clouds 31 1009 55 10000 3.77 105 16:41 06.01.2021
4028 Clouds 31 1011 55 10000 2.6 320 16:19 06.01.2021
4029 Clouds 30 1011 58 10000 2.6 310 15:50 06.01.2021
4030 Rain 30 1011 58 10000 2.6 310 15:28 06.01.2021
4031 Clouds 32 1009 51 10000 2.24 41 14:44 06.01.2021
4032 Clouds 31 1009 51 10000 1.56 39 14:19 06.01.2021
4033 Clouds 31 1009 50 10000 1.56 39 13:42 06.01.2021
4034 Clouds 31 1008 50 10000 1.48 61 13:20 06.01.2021
4035 Clouds 31 1008 50 10000 1.88 54 12:46 06.01.2021
4036 Clouds 32 1007 47 10000 2.14 59 11:51 06.01.2021
4037 Clouds 32 1007 45 10000 2.65 54 11:24 06.01.2021
4038 Clouds 32 1007 42 10000 2.65 54 10:46 06.01.2021
4039 Clouds 33 1008 41 10000 2.6 130 09:58 06.01.2021
4040 Clouds 33 1006 42 10000 2.92 63 09:40 06.01.2021
4041 Rain 33 1007 42 10000 3.07 66 08:56 06.01.2021
4042 Clouds 33 1007 42 10000 3.14 70 08:21 06.01.2021
4043 Clouds 33 1008 42 10000 3.14 70 07:54 06.01.2021
4044 Clouds 32 1012 48 10000 1.5 100 06:45 06.01.2021
4045 Clear 31 1011 50 10000 2.89 82 05:32 06.01.2021
4046 Clear 30 1012 54 10000 2.15 85 04:31 06.01.2021
4047 Clear 26 1012 65 10000 1.37 15 02:45 06.01.2021
4048 Clear 26 1012 67 10000 1.44 349 02:22 06.01.2021
4049 Clear 27 1010 65 10000 1.55 349 00:22 06.01.2021
4050 Clear 28 1009 62 10000 1.21 12 22:59 05.01.2021
4051 Clear 28 1009 62 10000 1.21 12 22:40 05.01.2021
4052 Clear 28 1008 61 10000 1.46 54 22:20 05.01.2021
4053 Clear 28 1008 61 10000 1.46 54 21:37 05.01.2021
4054 Clear 29 1009 60 10000 1.75 77 20:37 05.01.2021
4055 Clear 29 1009 59 10000 1.68 83 20:18 05.01.2021
4056 Clear 29 1009 59 10000 1.68 83 19:41 05.01.2021
4057 Clouds 29 1010 58 10000 1.98 98 19:21 05.01.2021
4058 Clouds 29 1010 57 10000 2.26 93 18:42 05.01.2021
4059 Clouds 29 1010 56 10000 2.47 108 18:21 05.01.2021
4060 Clouds 30 1011 56 10000 2.47 108 17:47 05.01.2021
4061 Clouds 30 1011 55 10000 2.86 112 17:26 05.01.2021
4062 Clouds 28 1011 55 10000 2.86 112 16:51 05.01.2021
4063 Clouds 30 1011 55 10000 2.58 98 16:21 05.01.2021
4064 Clouds 30 1011 54 10000 2.58 98 15:49 05.01.2021
4065 Clouds 30 1011 53 10000 1.4 71 14:50 05.01.2021
4066 Rain 30 1011 53 10000 1.45 74 14:25 05.01.2021
4067 Clouds 29 1011 53 10000 1.45 74 13:46 05.01.2021
4068 Clouds 29 1012 51 10000 1.5 340 13:22 05.01.2021
4069 Clouds 29 1011 51 10000 2.1 350 12:47 05.01.2021
4070 Rain 30 1011 45 10000 2.6 340 12:24 05.01.2021
4071 Clouds 30 1011 48 10000 2.6 310 11:39 05.01.2021
4072 Clouds 30 1011 48 10000 2.6 310 11:39 05.01.2021
4073 Clouds 30 1011 48 10000 2.6 310 11:39 05.01.2021
4074 Clouds 30 1011 48 10000 2.6 310 11:39 05.01.2021
4075 Clouds 30 1011 48 10000 2.6 310 11:39 05.01.2021
4076 Clouds 32 1011 43 10000 1.5 0 10:46 05.01.2021
4077 Clouds 32 1011 43 10000 1.5 0 10:27 05.01.2021
4078 Rain 31 1011 45 10000 2.1 70 09:49 05.01.2021
4079 Rain 31 1011 45 10000 3.1 70 09:28 05.01.2021
4080 Clouds 33 1011 43 10000 2.1 0 08:27 05.01.2021
4081 Clear 32 1013 45 10000 2.6 20 06:47 05.01.2021
4082 Clear 29 1013 48 10000 1.13 36 04:50 05.01.2021
4083 Clear 24 1013 64 10000 2.16 2 00:50 05.01.2021
4084 Clear 24 1012 64 10000 2.87 5 23:46 04.01.2021
4085 Clear 25 1012 63 10000 3.27 2 23:25 04.01.2021
4086 Clear 25 1012 63 10000 3.27 2 22:54 04.01.2021
4087 Clear 25 1012 63 10000 3.27 2 22:34 04.01.2021
4088 Clear 25 1011 62 10000 3.29 356 21:49 04.01.2021
4089 Clear 25 1011 62 10000 3.29 356 21:31 04.01.2021
4090 Clear 25 1012 62 10000 3.1 353 20:48 04.01.2021
4091 Clear 25 1012 61 10000 2.79 352 20:29 04.01.2021
4092 Clear 25 1012 61 10000 2.79 352 19:52 04.01.2021
4093 Clear 25 1013 60 10000 2.3 8 19:25 04.01.2021
4094 Clear 26 1013 58 10000 2.3 8 18:55 04.01.2021
4095 Clear 26 1013 57 10000 1.78 30 18:24 04.01.2021
4096 Clouds 27 1013 61 10000 1 40 17:44 04.01.2021
4097 Clouds 27 1013 65 10000 2.15 43 17:25 04.01.2021
4098 Clear 27 1013 55 10000 2.15 43 16:47 04.01.2021
4099 Clouds 28 1013 69 10000 2.85 39 16:27 04.01.2021
4100 Clear 28 1014 54 10000 2.85 39 15:49 04.01.2021
4101 Clear 28 1013 54 10000 3.28 39 15:28 04.01.2021
4102 Clear 29 1013 68 10000 3.28 39 14:42 04.01.2021
4103 Clouds 29 1012 54 10000 2.1 50 13:47 04.01.2021
4104 Clouds 29 1012 68 10000 1.34 16 13:24 04.01.2021
4105 Clouds 29 1011 51 10000 4.1 10 12:42 04.01.2021
4106 Clouds 30 1011 48 10000 3.1 10 11:58 04.01.2021
4107 Clouds 30 1011 48 10000 3.6 30 11:22 04.01.2021
4108 Clouds 31 1011 48 10000 3.1 20 10:49 04.01.2021
4109 Clouds 31 1011 48 10000 3.1 20 10:28 04.01.2021
4110 Clouds 30 1011 48 10000 2.6 10 09:53 04.01.2021
4111 Clear 30 1011 48 10000 4.1 10 09:20 04.01.2021
4112 Clear 30 1011 48 10000 2.6 360 08:45 04.01.2021
4113 Clear 30 1012 48 10000 3.6 40 07:55 04.01.2021
4114 Clear 29 1012 51 10000 4.6 20 07:31 04.01.2021
4115 Clouds 28 1014 54 9000 4.1 340 05:32 04.01.2021
4116 Clouds 24 1015 67 10000 1.34 6 02:45 04.01.2021
4117 Clouds 24 1013 50 10000 2.19 5 00:40 04.01.2021
4118 Clouds 24 1013 51 10000 2.48 350 23:49 03.01.2021
4119 Clouds 24 1013 51 10000 2.48 350 23:49 03.01.2021
4120 Clouds 24 1013 51 10000 2.3 342 23:21 03.01.2021
4121 Clouds 23 1012 67 10000 0.45 3 22:52 03.01.2021
4122 Clouds 24 1012 51 10000 2.3 342 22:30 03.01.2021
4123 Clear 24 1012 73 10000 3.1 30 21:48 03.01.2021
4124 Clouds 25 1012 50 10000 2.01 36 21:26 03.01.2021
4125 Clear 24 1012 73 10000 2.01 36 20:45 03.01.2021
4126 Clouds 25 1012 54 10000 2.66 57 20:26 03.01.2021
4127 Clouds 26 1012 81 10000 0.45 351 19:55 03.01.2021
4128 Clouds 26 1013 58 10000 2.66 57 19:34 03.01.2021
4129 Clouds 26 1013 45 10000 2.83 68 18:56 03.01.2021
4130 Clouds 26 1013 44 10000 2.28 49 18:38 03.01.2021
4131 Clouds 29 1013 50 10000 2.29 63 17:59 03.01.2021
4132 Clouds 30 1013 43 10000 2.29 63 17:40 03.01.2021
4133 Clouds 30 1013 43 10000 2.29 67 17:22 03.01.2021
4134 Rain 29 1012 50 10000 2.29 67 16:42 03.01.2021
4135 Clear 29 1012 50 10000 2.48 53 16:19 03.01.2021
4136 Rain 29 1012 50 10000 2.48 53 15:45 03.01.2021
4137 Clear 29 1012 50 10000 2.9 45 15:23 03.01.2021
4138 Clear 29 1011 50 10000 2.9 45 14:45 03.01.2021
4139 Rain 28 1011 50 10000 3.33 36 14:24 03.01.2021
4140 Clear 29 1011 49 10000 3.33 36 13:39 03.01.2021
4141 Clear 29 1011 49 10000 2.94 27 13:21 03.01.2021
4142 Clear 29 1010 44 10000 2.3 30 11:57 03.01.2021
4143 Clear 28 1009 43 10000 2.3 30 11:39 03.01.2021
4144 Clear 29 1010 42 10000 3.1 20 11:21 03.01.2021
4145 Clear 30 1010 42 10000 3.1 30 10:34 03.01.2021
4146 Clouds 30 1010 40 10000 4.6 40 09:52 03.01.2021
4147 Clouds 30 1010 40 10000 4.6 40 09:28 03.01.2021
4148 Clouds 31 1011 40 10000 2.6 0 08:32 03.01.2021
4149 Clear 30 1013 42 10000 2.1 350 06:57 03.01.2021
4150 Clear 25 1013 45 10000 2.47 350 03:30 03.01.2021
4151 Clear 23 1015 51 10000 2.61 325 02:26 03.01.2021
4152 Clear 22 1012 59 10000 2.62 320 00:33 03.01.2021
4153 Clear 22 1011 59 10000 2.75 320 23:52 02.01.2021
4154 Clear 22 1011 58 10000 2.56 313 23:19 02.01.2021
4155 Clear 22 1011 58 10000 2.56 313 22:47 02.01.2021
4156 Clear 22 1011 58 10000 2.37 307 22:29 02.01.2021
4157 Clear 22 1013 64 10000 2.1 330 21:48 02.01.2021
4158 Clear 22 1013 64 10000 2.1 330 21:28 02.01.2021
4159 Clear 22 1013 60 10000 1.5 320 20:45 02.01.2021
4160 Clear 23 1011 55 10000 1.63 308 20:25 02.01.2021
4161 Clear 23 1014 60 10000 1.5 360 19:46 02.01.2021
4162 Clear 24 1012 52 10000 1.4 336 19:20 02.01.2021
4163 Clear 24 1012 51 10000 1.02 338 18:47 02.01.2021
4164 Clouds 24 1012 50 10000 1.8 13 18:29 02.01.2021
4165 Clouds 25 1013 49 10000 1.8 13 17:46 02.01.2021
4166 Clouds 25 1013 48 10000 2.5 20 17:26 02.01.2021
4167 Clouds 25 1013 47 10000 2.5 20 16:42 02.01.2021
4168 Clouds 25 1013 47 10000 3.52 17 16:21 02.01.2021
4169 Clouds 26 1013 46 10000 3.52 17 15:43 02.01.2021
4170 Clouds 25 1013 46 10000 4.25 16 15:25 02.01.2021
4171 Clouds 26 1012 45 10000 4.25 16 14:37 02.01.2021
4172 Clouds 26 1012 45 10000 4.71 13 14:18 02.01.2021
4173 Clouds 26 1012 44 10000 4.71 13 13:39 02.01.2021
4174 Clear 27 1012 44 10000 4.64 7 12:54 02.01.2021
4175 Clear 27 1011 43 10000 4.29 4 12:32 02.01.2021
4176 Clear 27 1011 42 10000 3.61 355 11:57 02.01.2021
4177 Clear 28 1012 39 10000 4.6 340 11:22 02.01.2021
4178 Clear 28 1012 39 10000 4.6 340 10:56 02.01.2021
4179 Clear 29 1012 39 10000 4.1 350 10:31 02.01.2021
4180 Clear 29 1012 39 10000 4.1 320 09:54 02.01.2021
4181 Clear 29 1012 39 10000 4.1 320 09:28 02.01.2021
4182 Clear 28 1013 44 10000 4.1 330 08:51 02.01.2021
4183 Clear 28 1013 44 10000 4.1 330 08:28 02.01.2021
4184 Clear 28 1014 50 10000 3.6 310 07:49 02.01.2021
4185 Clouds 28 1012 41 10000 1.57 16 07:22 02.01.2021
4186 Clear 27 1016 47 10000 2.6 0 06:52 02.01.2021
4187 Clouds 26 1014 45 10000 2.06 2 05:45 02.01.2021
4188 Clear 21 1015 68 10000 3.6 30 00:59 02.01.2021
4189 Clear 21 1015 68 10000 2.6 20 00:37 02.01.2021
4190 Clear 21 1014 63 10000 3.6 20 23:57 01.01.2021
4191 Clear 21 1014 68 10000 3.1 20 23:22 01.01.2021
4192 Clouds 20 1012 56 10000 1.77 35 22:48 01.01.2021
4193 Clear 20 1014 64 10000 2.6 20 22:26 01.01.2021
4194 Clear 21 1014 64 10000 3.1 20 21:44 01.01.2021
4195 Clear 20 1015 64 10000 2.6 30 21:22 01.01.2021
4196 Clear 20 1015 64 10000 2.6 30 20:54 01.01.2021
4197 Clear 21 1015 64 10000 1.5 20 20:23 01.01.2021
4198 Clear 21 1015 64 10000 1.5 20 19:59 01.01.2021
4199 Clouds 22 1013 56 10000 2.76 26 19:41 01.01.2021
4200 Clear 21 1015 64 10000 2.6 20 19:20 01.01.2021
4201 Clear 21 1015 64 10000 2.1 30 18:42 01.01.2021
4202 Clouds 23 1014 54 10000 2.88 42 18:22 01.01.2021
4203 Clear 22 1016 60 10000 2.1 20 17:43 01.01.2021
4204 Clouds 24 1014 53 10000 2.98 61 17:23 01.01.2021
4205 Clear 22 1016 60 10000 3.1 30 16:45 01.01.2021
4206 Clear 23 1016 56 10000 2.6 20 15:58 01.01.2021
4207 Clear 23 1016 53 10000 2.6 110 15:39 01.01.2021
4208 Clouds 24 1014 52 10000 3.11 58 14:42 01.01.2021
4209 Clouds 24 1014 52 10000 3.1 46 14:21 01.01.2021
4210 Clouds 24 1013 51 10000 3.1 46 13:37 01.01.2021
4211 Clouds 25 1014 54 10000 3.1 100 12:51 01.01.2021
4212 Clouds 26 1013 50 10000 2.37 24 12:27 01.01.2021
4213 Clouds 26 1012 49 10000 2.37 24 11:42 01.01.2021
4214 Clouds 28 1012 43 10000 2.24 20 11:19 01.01.2021
4215 Clouds 28 1011 42 10000 2.24 20 10:56 01.01.2021
4216 Clouds 29 1011 41 10000 2.17 26 10:26 01.01.2021
4217 Clouds 29 1011 40 10000 2.17 26 09:30 01.01.2021
4218 Clouds 28 1012 40 10000 2.01 26 08:30 01.01.2021
4219 Clear 26 1016 50 10000 3.1 360 06:46 01.01.2021
4220 Clouds 23 1016 47 10000 1.37 22 04:50 01.01.2021
4221 Clouds 18 1016 72 9000 3.6 10 01:43 01.01.2021
4222 Clouds 19 1015 72 9000 3.1 30 00:32 01.01.2021
4223 Clouds 19 1015 72 9000 3.6 30 23:41 31.12.2020
4224 Clouds 20 1015 68 9000 2.6 20 23:21 31.12.2020
4225 Clouds 20 1013 59 10000 3.46 68 22:42 31.12.2020
4226 Clouds 20 1015 64 9000 3.1 30 22:23 31.12.2020
4227 Clouds 21 1015 64 9000 3.1 30 21:56 31.12.2020
4228 Clouds 21 1014 64 9000 3.6 10 21:36 31.12.2020
4229 Clear 21 1013 55 10000 3.1 64 20:58 31.12.2020
4230 Clouds 21 1015 68 9000 2.1 20 20:30 31.12.2020
4231 Clouds 21 1015 68 9000 2.1 20 20:30 31.12.2020
4232 Clear 21 1013 54 10000 2.96 58 19:51 31.12.2020
4233 Clear 21 1013 54 10000 2.96 58 19:33 31.12.2020
4234 Clouds 22 1014 53 10000 3.59 58 18:55 31.12.2020
4235 Clouds 22 1016 68 9000 1.5 50 18:25 31.12.2020
4236 Clouds 23 1014 51 10000 5.06 65 17:48 31.12.2020
4237 Clouds 23 1014 51 10000 5.81 67 17:28 31.12.2020
4238 Clouds 23 1014 51 10000 5.81 67 16:57 31.12.2020
4239 Clouds 23 1014 51 10000 5.81 67 16:38 31.12.2020
4240 Clouds 23 1014 50 10000 6.31 67 16:19 31.12.2020
4241 Clouds 24 1014 50 10000 6.31 67 15:42 31.12.2020
4242 Clouds 25 1015 53 10000 4.1 90 15:19 31.12.2020
4243 Clouds 25 1013 50 10000 6.54 68 14:41 31.12.2020
4244 Clouds 25 1013 49 10000 6.35 68 14:23 31.12.2020
4245 Clouds 25 1013 49 10000 6.35 68 13:57 31.12.2020
4246 Clouds 25 1013 48 10000 6.35 68 13:36 31.12.2020
4247 Clouds 25 1012 48 10000 5.88 72 13:18 31.12.2020
4248 Clouds 26 1012 48 10000 6.76 72 12:45 31.12.2020
4249 Clouds 26 1012 48 10000 5.48 77 12:27 31.12.2020
4250 Clouds 26 1012 47 10000 5.48 77 11:47 31.12.2020
4251 Clouds 26 1012 47 10000 5.48 77 11:47 31.12.2020
4252 Clouds 26 1012 47 10000 5.48 77 11:47 31.12.2020
4253 Clouds 27 1011 47 10000 4.12 75 11:28 31.12.2020
4254 Clouds 27 1011 47 10000 4.12 75 11:28 31.12.2020
4255 Clouds 27 1011 47 10000 4.12 75 11:28 31.12.2020
4256 Clouds 28 1012 51 10000 4.1 100 10:41 31.12.2020
4257 Clouds 29 1011 45 10000 3.55 72 10:23 31.12.2020
4258 Clouds 29 1010 45 10000 3.55 72 09:48 31.12.2020
4259 Clouds 29 1010 44 10000 3.38 66 09:24 31.12.2020
4260 Clouds 29 1011 42 10000 3.38 66 08:47 31.12.2020
4261 Clouds 29 1011 43 10000 3.33 52 08:29 31.12.2020
4262 Clear 28 1013 48 10000 1.5 20 07:54 31.12.2020
4263 Rain 28 1014 51 10000 3.6 80 07:24 31.12.2020
4264 Clouds 27 1014 46 10000 4.12 43 05:30 31.12.2020
4265 Clouds 23 1016 60 10000 3.6 40 03:33 31.12.2020
4266 Clouds 22 1016 68 10000 3.1 20 02:36 31.12.2020
4267 Clouds 22 1015 77 10000 2.6 50 01:55 31.12.2020
4268 Clouds 22 1015 77 10000 2.6 50 01:34 31.12.2020
4269 Clouds 22 1013 60 10000 5.83 79 00:56 31.12.2020
4270 Clouds 23 1012 59 10000 5.6 78 00:26 31.12.2020
4271 Clouds 23 1011 59 10000 5.49 75 23:21 30.12.2020
4272 Clouds 23 1011 59 10000 5.49 75 22:59 30.12.2020
4273 Clouds 23 1013 69 10000 3.1 80 22:35 30.12.2020
4274 Clouds 23 1013 69 10000 2.1 50 21:52 30.12.2020
4275 Clouds 24 1013 69 10000 2.1 50 21:27 30.12.2020
4276 Clouds 24 1013 69 10000 2.6 50 20:53 30.12.2020
4277 Clouds 24 1013 69 10000 2.6 70 20:28 30.12.2020
4278 Clouds 25 1013 61 10000 4.1 40 19:58 30.12.2020
4279 Clouds 25 1013 61 10000 4.1 40 19:37 30.12.2020
4280 Clouds 26 1012 54 10000 5.4 70 19:18 30.12.2020
4281 Clouds 26 1012 53 10000 6.41 77 18:38 30.12.2020
4282 Clouds 26 1012 53 10000 6.54 73 18:20 30.12.2020
4283 Clouds 27 1011 52 10000 6.54 73 17:43 30.12.2020
4284 Clouds 27 1011 52 10000 7.34 66 17:24 30.12.2020
4285 Clouds 27 1011 49 10000 7.34 66 16:44 30.12.2020
4286 Clouds 28 1012 54 10000 3.1 50 15:51 30.12.2020
4287 Clouds 29 1012 54 10000 3.1 50 15:30 30.12.2020
4288 Rain 28 1012 57 10000 3.1 50 14:58 30.12.2020
4289 Rain 29 1012 57 10000 3.1 50 14:39 30.12.2020
4290 Clouds 30 1011 48 10000 4.1 90 14:18 30.12.2020
4291 Rain 31 1010 45 10000 3.1 110 13:18 30.12.2020
4292 Clouds 31 1010 40 10000 5.1 120 12:26 30.12.2020
4293 Rain 32 1009 38 10000 5.1 110 11:44 30.12.2020
4294 Rain 33 1009 36 10000 5.1 120 11:22 30.12.2020
4295 Rain 33 1009 36 10000 5.1 120 10:57 30.12.2020
4296 Clouds 33 1009 41 10000 5.1 90 10:37 30.12.2020
4297 Rain 33 1009 41 10000 4.6 90 10:18 30.12.2020
4298 Clouds 33 1009 41 10000 5.1 100 09:41 30.12.2020
4299 Clouds 33 1009 41 10000 5.1 100 09:41 30.12.2020
4300 Clouds 33 1009 43 10000 4.1 80 08:36 30.12.2020
4301 Clouds 33 1011 46 10000 3.6 70 07:50 30.12.2020
4302 Clouds 33 1011 46 10000 4.1 70 07:24 30.12.2020
4303 Clouds 32 1012 45 10000 5.1 90 06:40 30.12.2020
4304 Clouds 32 1012 48 10000 7.2 70 05:47 30.12.2020
4305 Clouds 32 1012 48 10000 7.2 70 05:28 30.12.2020
4306 Clouds 30 1013 54 10000 6.2 80 03:29 30.12.2020
4307 Clouds 29 1012 69 8000 4.6 90 02:52 30.12.2020
4308 Clouds 29 1011 67 10000 2.95 72 02:31 30.12.2020
4309 Rain 28 1010 82 10000 1.47 63 01:44 30.12.2020
4310 Clouds 28 1010 84 10000 1.37 32 01:26 30.12.2020
4311 Clouds 28 1009 84 10000 1.46 12 00:40 30.12.2020
4312 Rain 28 1009 84 10000 1 7 00:21 30.12.2020
4313 Rain 29 1008 83 10000 1 7 23:42 29.12.2020
4314 Rain 29 1008 83 10000 1.01 327 23:24 29.12.2020
4315 Rain 29 1008 82 10000 1.01 327 22:46 29.12.2020
4316 Rain 29 1008 82 10000 0.93 277 22:26 29.12.2020
4317 Rain 29 1008 82 10000 0.93 277 21:54 29.12.2020
4318 Clouds 29 1008 81 10000 0.93 277 21:36 29.12.2020
4319 Clouds 30 1008 80 10000 1.28 230 20:55 29.12.2020
4320 Clouds 30 1008 79 10000 1.28 230 20:37 29.12.2020
4321 Clear 30 1008 79 10000 1.64 211 20:19 29.12.2020
4322 Clear 30 1008 77 10000 1.64 211 19:40 29.12.2020
4323 Rain 30 1008 75 10000 1.98 193 19:20 29.12.2020
4324 Clouds 30 1008 73 10000 1.98 193 18:46 29.12.2020
4325 Rain 30 1008 71 10000 1.88 184 18:27 29.12.2020
4326 Rain 31 1009 68 10000 1.88 184 17:44 29.12.2020
4327 Rain 31 1009 68 10000 1.64 214 17:20 29.12.2020
4328 Clouds 31 1009 65 10000 1.64 214 16:39 29.12.2020
4329 Clouds 31 1009 64 10000 1.75 244 16:18 29.12.2020
4330 Rain 31 1008 63 10000 1.75 244 15:37 29.12.2020
4331 Clouds 31 1008 62 10000 2.25 251 14:59 29.12.2020
4332 Rain 31 1008 61 10000 2.25 251 14:36 29.12.2020
4333 Clouds 31 529 71 10000 2.36 245 14:18 29.12.2020
4334 Rain 31 529 71 10000 2.36 245 13:45 29.12.2020
4335 Clouds 31 529 71 10000 1.71 229 13:21 29.12.2020
4336 Clouds 32 1008 55 9000 3.1 310 12:38 29.12.2020
4337 Clouds 32 1007 55 9000 3.6 320 12:19 29.12.2020
4338 Rain 33 1007 52 10000 3.6 330 11:53 29.12.2020
4339 Clouds 33 1007 52 10000 3.6 330 11:31 29.12.2020
4340 Clouds 33 1007 52 10000 3.1 300 10:30 29.12.2020
4341 Clouds 34 1007 49 10000 3.1 350 09:49 29.12.2020
4342 Clouds 34 1007 52 10000 2.6 330 09:22 29.12.2020
4343 Clouds 34 1007 52 10000 2.6 330 08:53 29.12.2020
4344 Clouds 34 1009 52 10000 1 0 08:23 29.12.2020
4345 Clouds 34 1010 55 10000 1.5 20 07:26 29.12.2020
4346 Clouds 34 1010 59 10000 1.5 80 06:27 29.12.2020
4347 Clouds 32 1012 70 8000 2.1 160 04:49 29.12.2020
4348 Clear 26 1010 94 10000 1 60 00:49 29.12.2020
4349 Clear 26 1009 94 10000 1 60 00:20 29.12.2020
4350 Rain 26 1009 88 10000 0.92 220 23:34 28.12.2020
4351 Rain 26 1009 88 10000 1.74 215 22:28 28.12.2020
4352 Rain 27 1009 88 10000 1.74 215 21:45 28.12.2020
4353 Rain 27 1009 88 10000 2.53 204 21:26 28.12.2020
4354 Rain 27 1009 83 10000 2.1 210 20:43 28.12.2020
4355 Rain 28 1008 80 10000 2.65 202 20:22 28.12.2020
4356 Rain 29 1008 79 10000 2.65 202 19:49 28.12.2020
4357 Rain 28 1008 78 10000 2.55 209 19:25 28.12.2020
4358 Rain 28 1008 78 10000 2.32 214 18:53 28.12.2020
4359 Rain 27 1010 78 10000 2.1 210 18:28 28.12.2020
4360 Rain 29 1009 75 10000 2.49 209 17:47 28.12.2020
4361 Rain 29 1009 74 10000 2.5 207 17:29 28.12.2020
4362 Rain 29 1009 73 10000 2.5 207 16:50 28.12.2020
4363 Clouds 29 1009 72 10000 2.19 218 16:28 28.12.2020
4364 Rain 29 1009 70 10000 2.19 218 15:53 28.12.2020
4365 Rain 29 1010 74 10000 2.6 210 15:30 28.12.2020
4366 Rain 30 1009 70 10000 2.1 230 14:29 28.12.2020
4367 Rain 30 1008 65 10000 2.66 235 13:39 28.12.2020
4368 Rain 30 1008 64 10000 2.49 223 13:19 28.12.2020
4369 Clouds 31 1008 59 10000 3.1 240 12:26 28.12.2020
4370 Rain 31 1008 59 10000 2.1 200 11:49 28.12.2020
4371 Rain 32 1008 59 10000 2.1 200 11:30 28.12.2020
4372 Clouds 32 1006 58 10000 1.68 180 10:56 28.12.2020
4373 Rain 32 1006 57 10000 1.32 159 10:29 28.12.2020
4374 Rain 32 1006 57 10000 1.32 159 09:53 28.12.2020
4375 Clouds 32 1006 57 10000 1.51 132 09:22 28.12.2020
4376 Rain 32 1006 58 10000 1.51 132 08:58 28.12.2020
4377 Clouds 33 1011 55 10000 2.6 70 06:52 28.12.2020
4378 Rain 31 1010 62 10000 0.73 16 04:56 28.12.2020
4379 Clear 30 1012 79 10000 0.5 0 03:26 28.12.2020
4380 Rain 29 1009 75 10000 0.92 302 01:52 28.12.2020
4381 Rain 27 1008 82 10000 1.39 217 23:52 27.12.2020
4382 Rain 27 1007 80 10000 1.49 235 23:20 27.12.2020
4383 Clouds 28 1007 79 10000 1.3 234 22:24 27.12.2020
4384 Clear 28 1007 78 10000 1.26 227 21:27 27.12.2020
4385 Rain 28 1007 78 10000 1.26 227 20:56 27.12.2020
4386 Rain 28 1008 77 10000 1.73 219 19:49 27.12.2020
4387 Clouds 27 1010 78 10000 1.5 220 19:23 27.12.2020
4388 Clouds 28 1008 76 10000 2.02 217 18:49 27.12.2020
4389 Clear 29 1008 75 10000 2.8 198 18:20 27.12.2020
4390 Clear 29 1008 74 10000 2.8 198 17:56 27.12.2020
4391 Clear 29 1008 73 10000 2.8 198 17:35 27.12.2020
4392 Clouds 28 1010 69 10000 2.1 200 16:55 27.12.2020
4393 Rain 28 1009 69 10000 2.74 182 16:21 27.12.2020
4394 Clouds 28 1009 67 10000 2.74 182 15:30 27.12.2020
4395 Rain 28 1009 66 10000 2.77 194 14:49 27.12.2020
4396 Clouds 29 1008 65 10000 2.77 194 14:31 27.12.2020
4397 Rain 30 1008 61 10000 3.39 204 13:30 27.12.2020
4398 Rain 30 1007 59 10000 3.63 194 12:55 27.12.2020
4399 Clouds 31 1008 55 10000 1 220 12:24 27.12.2020
4400 Rain 32 1008 49 10000 1 210 11:41 27.12.2020
4401 Rain 32 1008 52 10000 1.5 80 10:58 27.12.2020
4402 Rain 32 1008 52 10000 1.5 80 10:39 27.12.2020
4403 Clouds 32 1008 52 10000 3.6 60 10:19 27.12.2020
4404 Clouds 33 1009 49 10000 2.1 60 08:53 27.12.2020
4405 Clouds 33 1009 49 10000 2.1 60 08:28 27.12.2020
4406 Clouds 34 1010 46 10000 2.1 180 07:28 27.12.2020
4407 Clear 32 1012 62 10000 3.1 80 05:47 27.12.2020
4408 Clear 31 1013 58 10000 2.1 120 04:59 27.12.2020
4409 Clear 29 1013 69 10000 1.5 120 03:23 27.12.2020
4410 Clear 28 1011 74 10000 0.91 94 01:47 27.12.2020
4411 Clouds 27 1009 73 10000 0.39 167 00:26 27.12.2020
4412 Rain 28 1009 73 10000 0.39 167 23:42 26.12.2020
4413 Clouds 28 1009 73 10000 0.5 176 23:21 26.12.2020
4414 Clouds 26 1009 75 10000 0.5 176 22:40 26.12.2020
4415 Clouds 28 1009 74 10000 0.47 155 22:18 26.12.2020
4416 Clouds 28 1009 74 10000 0.47 155 21:52 26.12.2020
4417 Clouds 28 1009 73 10000 1.09 144 21:24 26.12.2020
4418 Clouds 28 1009 73 10000 1.09 144 20:43 26.12.2020
4419 Clouds 26 1010 71 10000 1.57 129 20:20 26.12.2020
4420 Clouds 27 1010 69 10000 1.82 111 19:30 26.12.2020
4421 Clouds 27 1011 67 10000 1.82 111 18:54 26.12.2020
4422 Clouds 27 1011 67 10000 1.46 184 18:32 26.12.2020
4423 Clouds 27 1011 65 10000 1.48 166 17:46 26.12.2020
4424 Clouds 27 1011 65 10000 1.26 134 17:27 26.12.2020
4425 Clouds 29 1011 63 10000 1.26 134 16:38 26.12.2020
4426 Clouds 30 1011 61 10000 1.2 115 15:57 26.12.2020
4427 Clouds 30 1010 61 10000 0.45 170 15:20 26.12.2020
4428 Clouds 31 1010 61 10000 0.45 170 14:30 26.12.2020
4429 Clouds 29 1010 61 10000 0.3 200 13:56 26.12.2020
4430 Clouds 29 1010 61 10000 0.3 200 13:56 26.12.2020
4431 Clouds 31 1009 61 10000 0.3 200 13:36 26.12.2020
4432 Clouds 30 1009 59 10000 0.22 21 12:53 26.12.2020
4433 Clouds 29 1008 58 10000 1.79 228 12:30 26.12.2020
4434 Clouds 30 1008 58 10000 1.64 227 11:58 26.12.2020
4435 Clouds 30 1008 57 10000 1.64 227 11:39 26.12.2020
4436 Clouds 30 1008 55 10000 1.25 197 11:18 26.12.2020
4437 Clouds 31 1009 55 10000 2.6 100 10:42 26.12.2020
4438 Clouds 31 1009 58 8000 3.6 90 10:22 26.12.2020
4439 Clouds 32 1009 55 8000 2.6 60 09:39 26.12.2020
4440 Clouds 32 1010 55 8000 3.1 110 08:41 26.12.2020
4441 Clouds 32 1010 55 8000 3.6 120 08:18 26.12.2020
4442 Clouds 32 1012 52 8000 3.6 90 07:20 26.12.2020
4443 Clouds 29 1012 56 10000 2.75 68 03:53 26.12.2020
4444 Clouds 27 1014 66 10000 1.67 60 02:24 26.12.2020
4445 Clouds 26 1010 73 10000 0.85 11 00:28 26.12.2020
4446 Clouds 26 1009 72 10000 0.85 11 23:43 25.12.2020
4447 Rain 26 1009 71 10000 1.01 15 23:25 25.12.2020
4448 Clouds 26 1009 70 10000 1.01 15 22:51 25.12.2020
4449 Clouds 26 1009 70 10000 1.17 37 22:25 25.12.2020
4450 Clouds 26 1009 70 10000 1.17 37 21:37 25.12.2020
4451 Clouds 26 1009 69 10000 1.32 40 21:19 25.12.2020
4452 Clouds 25 1009 68 10000 1.32 40 20:38 25.12.2020
4453 Clouds 25 1009 67 10000 1.59 35 19:52 25.12.2020
4454 Clouds 27 1009 67 10000 1.98 39 19:33 25.12.2020
4455 Clouds 27 1010 65 10000 1.98 39 18:39 25.12.2020
4456 Clouds 27 1010 65 10000 1.43 44 17:57 25.12.2020
4457 Clouds 27 1010 65 10000 1.43 44 17:35 25.12.2020
4458 Rain 27 1010 64 10000 1.48 54 16:48 25.12.2020
4459 Clouds 28 1010 63 10000 1.51 58 16:20 25.12.2020
4460 Clouds 28 1010 62 10000 1.51 58 15:39 25.12.2020
4461 Clouds 28 1010 62 10000 1.67 57 15:21 25.12.2020
4462 Clouds 28 1010 61 10000 1.67 57 14:31 25.12.2020
4463 Clouds 28 1009 61 10000 2.42 64 13:46 25.12.2020
4464 Clouds 28 1009 61 10000 3.1 69 13:26 25.12.2020
4465 Clouds 28 1009 60 10000 2.95 80 12:47 25.12.2020
4466 Clouds 29 1009 59 10000 3.31 77 12:25 25.12.2020
4467 Clouds 29 1008 58 10000 3.31 77 11:46 25.12.2020
4468 Clouds 30 1008 58 10000 3.47 81 11:21 25.12.2020
4469 Clouds 30 1009 52 9000 3.1 90 10:32 25.12.2020
4470 Clouds 30 1009 55 9000 4.6 60 09:49 25.12.2020
4471 Clouds 30 1010 62 9000 1.5 130 08:51 25.12.2020
4472 Clouds 30 1010 62 9000 1.5 130 08:29 25.12.2020
4473 Clouds 31 1012 65 8000 2.1 140 06:49 25.12.2020
4474 Clouds 28 1011 64 10000 1.65 93 05:24 25.12.2020
4475 Clouds 26 1011 66 10000 2.3 18 02:19 25.12.2020
4476 Clouds 26 1010 69 8000 2.6 10 00:19 25.12.2020
4477 Clouds 26 1010 73 8000 1 360 23:29 24.12.2020
4478 Clouds 25 1009 73 8000 2.6 340 22:53 24.12.2020
4479 Clouds 25 1009 73 8000 2.1 350 22:24 24.12.2020
4480 Clear 25 1008 63 10000 2.69 358 21:43 24.12.2020
4481 Clear 25 1008 62 10000 2.95 351 20:53 24.12.2020
4482 Clouds 26 1010 69 8000 1.5 350 19:34 24.12.2020
4483 Rain 27 1009 57 10000 3.01 359 18:21 24.12.2020
4484 Clear 27 1009 57 10000 3.01 359 17:38 24.12.2020
4485 Clear 27 1009 57 10000 2.63 23 17:20 24.12.2020
4486 Clear 29 1009 55 10000 3.57 17 16:25 24.12.2020
4487 Clear 28 1009 55 10000 3.57 17 15:43 24.12.2020
4488 Clear 29 1008 54 10000 4.28 10 15:21 24.12.2020
4489 Rain 29 1008 54 10000 4.28 10 14:56 24.12.2020
4490 Clear 29 1008 54 10000 4.52 12 14:24 24.12.2020
4491 Clear 29 1008 52 10000 4.52 12 13:49 24.12.2020
4492 Clear 29 1008 52 10000 4.52 12 13:30 24.12.2020
4493 Clouds 30 1008 51 10000 4.18 13 12:56 24.12.2020
4494 Clouds 30 1007 50 10000 4.18 13 12:37 24.12.2020
4495 Clouds 31 1007 49 10000 3.34 15 12:18 24.12.2020
4496 Clouds 31 1007 48 10000 3.34 15 11:38 24.12.2020
4497 Clouds 30 1007 48 10000 3.13 21 11:18 24.12.2020
4498 Clouds 31 1006 47 10000 3.13 21 10:43 24.12.2020
4499 Clouds 31 1006 45 10000 3.2 25 09:54 24.12.2020
4500 Clouds 32 1006 45 10000 3.2 25 09:35 24.12.2020
4501 Clouds 31 1007 46 10000 3.49 23 08:48 24.12.2020
4502 Clouds 31 1010 51 8000 4.1 10 07:51 24.12.2020
4503 Clouds 31 1010 51 8000 4.1 10 07:51 24.12.2020
4504 Clear 30 1008 45 10000 4.5 18 07:30 24.12.2020
4505 Clear 29 1009 48 10000 5.26 9 06:23 24.12.2020
4506 Clear 27 1008 52 10000 5.17 360 03:23 24.12.2020
4507 Clear 24 1010 61 10000 4.52 355 01:48 24.12.2020
4508 Clouds 24 1011 69 8000 2.1 340 01:18 24.12.2020
4509 Clouds 24 1011 69 8000 2.1 340 01:18 24.12.2020
4510 Clouds 23 1010 73 8000 2.6 340 00:23 24.12.2020
4511 Clouds 23 1010 73 8000 2.1 350 23:56 23.12.2020
4512 Clouds 23 1010 73 8000 2.1 350 23:38 23.12.2020
4513 Clouds 23 1009 68 8000 3.6 350 23:18 23.12.2020
4514 Clouds 24 1008 59 10000 4.15 348 22:42 23.12.2020
4515 Clouds 24 1008 59 10000 3.95 346 22:19 23.12.2020
4516 Clouds 23 1009 64 8000 3.1 330 21:32 23.12.2020
4517 Clouds 23 1010 69 8000 3.1 340 20:59 23.12.2020
4518 Clouds 24 1008 59 10000 3.73 346 20:37 23.12.2020
4519 Clouds 24 1008 59 10000 3.95 347 20:19 23.12.2020
4520 Clouds 23 1011 69 8000 3.1 330 19:42 23.12.2020
4521 Clouds 23 1011 73 8000 2.6 340 19:22 23.12.2020
4522 Clouds 24 1011 73 8000 2.6 340 18:52 23.12.2020
4523 Clouds 25 1009 58 10000 3.89 348 18:34 23.12.2020
4524 Clouds 24 1011 69 8000 3.1 350 17:43 23.12.2020
4525 Clouds 25 1009 56 10000 4.09 347 17:22 23.12.2020
4526 Rain 26 1009 55 10000 4.09 347 16:56 23.12.2020
4527 Clouds 26 1009 54 10000 3.99 350 16:31 23.12.2020
4528 Clouds 26 1009 53 10000 3.99 350 15:59 23.12.2020
4529 Clouds 26 1009 52 10000 3.99 350 15:39 23.12.2020
4530 Clouds 26 1009 52 10000 3.77 352 15:21 23.12.2020
4531 Clouds 26 1009 51 10000 3.77 352 14:45 23.12.2020
4532 Clouds 27 1010 54 8000 2.6 310 14:22 23.12.2020
4533 Clear 27 1008 50 10000 3.84 358 13:46 23.12.2020
4534 Clouds 27 1008 50 10000 4.01 359 13:20 23.12.2020
4535 Clouds 27 1007 50 10000 4.02 359 12:55 23.12.2020
4536 Rain 27 1007 50 10000 4.02 359 12:31 23.12.2020
4537 Clouds 28 1007 49 10000 4.12 4 11:56 23.12.2020
4538 Clouds 28 1007 46 10000 4.12 4 11:36 23.12.2020
4539 Clouds 28 1007 45 10000 4.32 7 10:56 23.12.2020
4540 Clouds 30 1004 42 10000 4.32 7 10:38 23.12.2020
4541 Clouds 30 1004 43 10000 4.78 0 09:38 23.12.2020
4542 Clouds 30 1004 43 10000 4.78 0 09:38 23.12.2020
4543 Clouds 30 1004 42 10000 4.82 1 08:57 23.12.2020
4544 Clouds 30 1004 42 10000 4.82 1 08:33 23.12.2020
4545 Clouds 30 1005 42 10000 4.86 6 07:49 23.12.2020
4546 Clouds 29 1009 45 10000 4.99 10 06:42 23.12.2020
4547 Clouds 28 1007 44 10000 5.34 8 05:58 23.12.2020
4548 Clouds 27 1011 46 10000 5.79 5 05:23 23.12.2020
4549 Clouds 21 1013 72 8000 2.6 340 01:59 23.12.2020
4550 Clouds 21 1012 72 8000 3.1 350 00:33 23.12.2020
4551 Clouds 21 1011 72 8000 3.1 340 23:43 22.12.2020
4552 Clouds 21 1011 72 8000 2.6 340 23:22 22.12.2020
4553 Clouds 21 1011 72 8000 3.6 350 22:42 22.12.2020
4554 Clouds 21 1011 68 8000 4.1 350 22:24 22.12.2020
4555 Clouds 21 1011 68 8000 3.1 340 21:50 22.12.2020
4556 Clouds 21 1012 68 8000 3.1 330 21:20 22.12.2020
4557 Clouds 21 1012 68 8000 3.1 330 20:53 22.12.2020
4558 Clouds 21 1012 68 8000 3.6 330 20:35 22.12.2020
4559 Clouds 23 1012 64 8000 4.1 340 19:54 22.12.2020
4560 Clouds 23 1012 68 8000 3.6 340 19:29 22.12.2020
4561 Clear 22 1012 68 8000 4.1 340 18:59 22.12.2020
4562 Clear 22 1012 68 8000 4.1 340 18:38 22.12.2020
4563 Clear 23 1013 68 8000 3.1 340 18:20 22.12.2020
4564 Clear 23 1013 68 8000 3.1 350 17:38 22.12.2020
4565 Clear 23 1013 64 8000 3.1 340 17:18 22.12.2020
4566 Clear 23 1013 60 8000 3.6 330 16:47 22.12.2020
4567 Clear 23 1013 60 8000 3.6 330 16:47 22.12.2020
4568 Clear 24 1013 57 8000 3.6 330 16:21 22.12.2020
4569 Clear 25 1013 57 8000 4.1 330 15:46 22.12.2020
4570 Clear 25 1013 57 8000 4.1 330 15:28 22.12.2020
4571 Clear 25 1012 53 8000 3.1 330 14:57 22.12.2020
4572 Clear 25 1012 53 8000 3.1 330 14:38 22.12.2020
4573 Clear 25 1012 53 8000 3.6 330 14:18 22.12.2020
4574 Clear 26 1012 53 8000 3.6 330 13:42 22.12.2020
4575 Clouds 27 1010 46 10000 5.69 12 13:18 22.12.2020
4576 Clouds 27 1010 44 8000 4.1 340 12:44 22.12.2020
4577 Clouds 27 1010 44 8000 4.1 340 12:26 22.12.2020
4578 Clouds 27 1010 44 8000 5.1 350 11:57 22.12.2020
4579 Clouds 28 1010 44 8000 5.7 330 11:39 22.12.2020
4580 Clouds 29 1010 42 8000 5.7 340 11:19 22.12.2020
4581 Clouds 29 1008 40 10000 5.19 6 10:47 22.12.2020
4582 Clouds 30 1005 41 10000 5.14 1 10:24 22.12.2020
4583 Clouds 30 1008 39 10000 5.14 1 09:55 22.12.2020
4584 Clouds 30 1006 41 10000 4.92 357 09:23 22.12.2020
4585 Clouds 30 1006 41 10000 4.92 357 08:51 22.12.2020
4586 Clouds 29 1011 39 8000 5.1 360 08:29 22.12.2020
4587 Clouds 28 1009 40 10000 4.17 358 07:47 22.12.2020
4588 Clouds 28 1011 41 10000 3.28 12 06:38 22.12.2020
4589 Clouds 27 1015 47 8000 2.6 0 05:41 22.12.2020
4590 Clouds 21 1016 60 10000 4.6 20 02:51 22.12.2020
4591 Clouds 20 1014 64 10000 3.6 10 00:44 22.12.2020
4592 Clouds 20 1013 64 10000 3.6 10 23:52 21.12.2020
4593 Clouds 20 1013 64 10000 3.6 10 23:29 21.12.2020
4594 Clouds 21 1013 68 10000 2.6 340 22:38 21.12.2020
4595 Clouds 21 1013 68 10000 3.1 340 22:19 21.12.2020
4596 Clouds 21 1013 68 10000 2.1 320 21:49 21.12.2020
4597 Clouds 21 1013 68 10000 2.1 320 21:31 21.12.2020
4598 Clouds 21 1014 64 10000 2.1 320 20:50 21.12.2020
4599 Clouds 22 1014 68 10000 2.2 3 20:25 21.12.2020
4600 Clouds 22 1014 64 10000 2.6 70 19:56 21.12.2020
4601 Clouds 22 1014 64 10000 2.6 70 19:37 21.12.2020
4602 Clouds 22 1014 64 10000 2.1 50 19:18 21.12.2020
4603 Clouds 22 1015 64 10000 2.6 40 18:50 21.12.2020
4604 Clouds 22 1015 64 10000 2.6 40 18:32 21.12.2020
4605 Clouds 22 1015 64 10000 2.6 50 17:43 21.12.2020
4606 Clouds 22 1015 64 10000 2.6 50 17:24 21.12.2020
4607 Clouds 24 1015 56 10000 4.1 30 16:47 21.12.2020
4608 Clouds 23 1015 56 10000 4.6 20 16:26 21.12.2020
4609 Clouds 24 1014 56 10000 5.1 30 15:45 21.12.2020
4610 Clouds 24 1014 50 10000 5.1 20 15:27 21.12.2020
4611 Clouds 24 1014 50 10000 5.1 30 14:56 21.12.2020
4612 Clouds 25 1013 50 10000 5.1 20 14:21 21.12.2020
4613 Clouds 26 1013 50 10000 4.6 20 13:42 21.12.2020
4614 Clouds 26 1013 50 10000 4.1 30 13:24 21.12.2020
4615 Clouds 26 1012 47 10000 5.1 20 12:43 21.12.2020
4616 Clouds 26 1012 44 10000 5.1 20 12:24 21.12.2020
4617 Clouds 27 1012 47 10000 5.1 10 11:55 21.12.2020
4618 Clouds 27 1012 47 10000 5.1 10 11:37 21.12.2020
4619 Clear 28 1012 44 10000 4.1 10 11:18 21.12.2020
4620 Clear 28 1012 44 10000 4.6 20 10:40 21.12.2020
4621 Clouds 30 1007 40 10000 3.13 8 10:21 21.12.2020
4622 Clear 29 1012 42 10000 4.1 20 09:43 21.12.2020
4623 Clear 29 1012 47 10000 3.1 20 09:24 21.12.2020
4624 Clear 29 1013 44 10000 3.6 360 08:47 21.12.2020
4625 Clear 28 1014 47 10000 3.6 340 07:48 21.12.2020
4626 Clear 27 1016 53 10000 2.1 0 06:22 21.12.2020
4627 Clouds 24 1017 60 10000 2.6 40 04:32 21.12.2020
4628 Clear 21 1015 72 10000 2.6 50 01:22 21.12.2020
4629 Clear 20 1015 68 10000 3.1 50 00:31 21.12.2020
4630 Clear 20 1014 68 10000 3.1 40 23:34 20.12.2020
4631 Clear 20 1014 72 10000 3.1 40 22:58 20.12.2020
4632 Clear 20 1014 72 10000 3.1 30 22:39 20.12.2020
4633 Clear 21 1014 68 10000 3.1 30 22:21 20.12.2020
4634 Clear 21 1014 68 10000 3.6 30 21:39 20.12.2020
4635 Clear 21 1014 68 10000 3.6 30 21:20 20.12.2020
4636 Clear 22 1014 64 10000 3.6 10 20:48 20.12.2020
4637 Clear 22 1014 64 10000 3.6 10 20:23 20.12.2020
4638 Clear 22 1015 68 10000 2.6 20 19:46 20.12.2020
4639 Clear 22 1015 68 10000 2.6 20 19:26 20.12.2020
4640 Clear 23 1015 64 10000 1 30 18:56 20.12.2020
4641 Clear 23 1015 64 10000 1 30 18:38 20.12.2020
4642 Clear 23 1015 64 10000 2.6 20 18:19 20.12.2020
4643 Clear 23 1015 64 10000 2.6 20 17:42 20.12.2020
4644 Clear 23 1015 64 10000 2.1 50 17:18 20.12.2020
4645 Clear 24 1015 60 10000 3.6 50 16:44 20.12.2020
4646 Clear 24 1015 57 10000 4.1 30 16:24 20.12.2020
4647 Clear 25 1015 57 10000 3.6 40 15:41 20.12.2020
4648 Clear 25 1015 53 10000 3.6 50 15:23 20.12.2020
4649 Clear 25 1014 69 10000 2.1 30 14:49 20.12.2020
4650 Rain 25 1014 69 10000 2.1 30 14:29 20.12.2020
4651 Clear 27 1014 61 10000 1.5 100 13:46 20.12.2020
4652 Clear 27 1013 61 10000 2.6 110 13:23 20.12.2020
4653 Clear 27 1013 50 10000 4.6 30 12:54 20.12.2020
4654 Clear 27 1013 50 10000 4.6 30 12:27 20.12.2020
4655 Clear 27 1012 47 10000 4.6 20 11:57 20.12.2020
4656 Clear 28 1012 45 10000 3.1 40 11:38 20.12.2020
4657 Clear 29 1012 48 10000 3.6 50 10:50 20.12.2020
4658 Clear 31 1007 38 10000 1.94 40 10:23 20.12.2020
4659 Clear 31 1007 38 10000 1.94 40 09:57 20.12.2020
4660 Clear 31 1007 38 10000 1.94 40 09:39 20.12.2020
4661 Clear 31 1007 38 10000 2.25 24 09:20 20.12.2020
4662 Clear 31 1008 38 10000 2.25 24 08:48 20.12.2020
4663 Clear 30 1013 48 10000 3.1 0 08:30 20.12.2020
4664 Clear 27 1015 54 10000 3.1 360 07:22 20.12.2020
4665 Clear 27 1016 57 10000 1 0 05:33 20.12.2020
4666 Clouds 22 1015 73 10000 2.6 40 01:31 20.12.2020
4667 Clouds 22 1014 73 10000 2.6 30 00:22 20.12.2020
4668 Clouds 23 1014 73 10000 3.1 20 23:18 19.12.2020
4669 Clouds 23 1014 69 10000 2.1 10 22:45 19.12.2020
4670 Clouds 23 1014 73 10000 2.72 25 22:25 19.12.2020
4671 Clouds 23 1014 73 10000 2.72 25 21:59 19.12.2020
4672 Clouds 23 1014 73 10000 1.5 70 21:40 19.12.2020
4673 Clouds 23 1014 73 10000 1.5 80 21:21 19.12.2020
4674 Clouds 23 1014 78 10000 2.53 42 20:40 19.12.2020
4675 Clouds 24 1014 78 10000 1 110 20:18 19.12.2020
4676 Clouds 24 1014 69 10000 2.1 50 19:50 19.12.2020
4677 Clouds 24 1014 69 10000 2.1 50 19:29 19.12.2020
4678 Clouds 24 1015 73 10000 1 30 18:37 19.12.2020
4679 Clouds 25 1015 69 10000 2.6 50 18:19 19.12.2020
4680 Clouds 26 1013 58 10000 2.8 66 17:44 19.12.2020
4681 Clouds 26 1013 57 10000 2.85 48 17:22 19.12.2020
4682 Clouds 25 1014 65 10000 3.1 30 16:43 19.12.2020
4683 Clouds 25 1014 65 10000 3.1 30 16:25 19.12.2020
4684 Clouds 26 1014 65 10000 3.1 30 15:55 19.12.2020
4685 Clouds 26 1014 57 10000 3.6 20 15:33 19.12.2020
4686 Clouds 27 1014 51 10000 4.1 10 14:40 19.12.2020
4687 Clouds 27 1013 54 10000 3.1 360 14:21 19.12.2020
4688 Clouds 28 1013 51 10000 4.1 20 13:41 19.12.2020
4689 Clouds 28 1012 51 10000 3.6 20 13:19 19.12.2020
4690 Clouds 28 1012 51 10000 3.6 10 12:43 19.12.2020
4691 Clouds 28 1012 51 10000 3.6 10 12:25 19.12.2020
4692 Clouds 29 1011 51 10000 3.1 10 11:56 19.12.2020
4693 Clouds 30 1010 49 10000 3.52 88 11:35 19.12.2020
4694 Clouds 29 1009 49 10000 3 96 10:43 19.12.2020
4695 Clouds 31 1009 50 10000 1.97 109 10:23 19.12.2020
4696 Clouds 32 1009 51 10000 1.97 109 09:45 19.12.2020
4697 Clouds 32 1009 47 10000 1.31 99 09:27 19.12.2020
4698 Clouds 31 1010 47 10000 0.93 17 08:25 19.12.2020
4699 Clouds 31 1011 46 10000 1.37 359 07:24 19.12.2020
4700 Clouds 30 1011 46 10000 1.37 359 06:51 19.12.2020
4701 Clouds 29 1012 48 10000 1.84 354 06:18 19.12.2020
4702 Clouds 28 1013 52 10000 2.08 341 05:18 19.12.2020
4703 Clouds 27 1013 55 10000 1.66 342 02:55 19.12.2020
4704 Clouds 24 1012 73 9000 1.5 110 00:36 19.12.2020
4705 Clouds 24 1012 73 9000 2.1 90 00:18 19.12.2020
4706 Clouds 24 1012 73 9000 2.1 110 23:45 18.12.2020
4707 Clouds 25 1012 73 9000 2.1 110 23:23 18.12.2020
4708 Clouds 25 1012 73 9000 0.5 110 22:45 18.12.2020
4709 Clouds 25 1010 63 10000 2.34 66 22:21 18.12.2020
4710 Clouds 26 1010 62 10000 2.34 66 21:50 18.12.2020
4711 Clouds 26 1010 62 10000 2.34 66 21:31 18.12.2020
4712 Clouds 26 1011 61 10000 3.29 62 20:40 18.12.2020
4713 Clouds 26 1011 61 10000 3.92 59 20:20 18.12.2020
4714 Clouds 26 1011 61 10000 3.92 59 19:42 18.12.2020
4715 Clouds 27 1011 60 10000 3.32 66 19:20 18.12.2020
4716 Clouds 27 1012 59 10000 3.83 62 18:41 18.12.2020
4717 Clouds 27 1013 69 10000 1.5 50 18:23 18.12.2020
4718 Rain 27 1013 69 10000 2.1 60 17:24 18.12.2020
4719 Rain 27 1013 61 10000 2.6 50 16:53 18.12.2020
4720 Clouds 27 1012 54 10000 3.29 59 16:27 18.12.2020
4721 Clouds 28 1012 53 10000 3.29 59 15:59 18.12.2020
4722 Clouds 28 1012 53 10000 3.29 59 15:41 18.12.2020
4723 Clouds 28 1012 53 10000 3.99 35 15:22 18.12.2020
4724 Clouds 30 1012 52 10000 3.99 35 14:54 18.12.2020
4725 Clouds 30 1011 51 10000 4.24 24 14:21 18.12.2020
4726 Clouds 30 1011 51 10000 4.24 24 14:21 18.12.2020
4727 Clouds 30 1011 51 10000 4.24 24 13:49 18.12.2020
4728 Rain 31 1011 50 10000 4.33 18 13:25 18.12.2020
4729 Rain 30 1010 48 10000 3.26 15 12:46 18.12.2020
4730 Clouds 31 1009 47 10000 2.52 356 11:51 18.12.2020
4731 Clouds 31 1009 47 10000 1.68 339 11:22 18.12.2020
4732 Clouds 32 1009 46 10000 1.68 339 10:39 18.12.2020
4733 Clouds 33 1008 47 10000 0.88 293 10:20 18.12.2020
4734 Clouds 33 1008 47 10000 0.88 293 09:39 18.12.2020
4735 Clouds 32 1008 46 10000 0.98 276 09:21 18.12.2020
4736 Clouds 32 1008 45 10000 0.98 276 08:53 18.12.2020
4737 Clouds 32 1008 45 10000 1.19 300 08:29 18.12.2020
4738 Clouds 32 1009 47 10000 1.19 300 07:39 18.12.2020
4739 Clouds 32 1010 47 10000 1.04 333 07:18 18.12.2020
4740 Clouds 32 1010 48 10000 1.7 297 06:46 18.12.2020
4741 Clear 32 1012 49 10000 0.89 312 05:41 18.12.2020
4742 Clear 30 1009 39 10000 0.32 336 04:51 18.12.2020
4743 Clouds 25 1013 83 9000 1.5 50 01:58 18.12.2020
4744 Clear 27 1011 58 10000 1.27 54 01:39 18.12.2020
4745 Clouds 26 1011 83 8000 0.5 110 23:58 17.12.2020
4746 Clouds 26 1011 78 8000 0.5 120 23:25 17.12.2020
4747 Clouds 26 1011 83 8000 2.1 120 22:54 17.12.2020
4748 Clouds 26 1010 66 10000 1.52 66 22:29 17.12.2020
4749 Clouds 27 1010 66 10000 1.52 66 21:57 17.12.2020
4750 Clouds 27 1009 65 10000 1.52 66 21:37 17.12.2020
4751 Clouds 27 1010 65 10000 1.24 74 21:19 17.12.2020
4752 Clouds 27 1010 65 10000 1.24 74 20:41 17.12.2020
4753 Clouds 27 1010 65 10000 1.33 103 20:19 17.12.2020
4754 Clouds 27 1011 64 10000 1.33 103 19:48 17.12.2020
4755 Clouds 27 1011 63 10000 1.76 127 19:24 17.12.2020
4756 Clouds 28 1011 61 10000 2.04 117 18:42 17.12.2020
4757 Clouds 28 1011 61 10000 2.61 120 18:23 17.12.2020
4758 Clouds 28 1011 61 10000 2.61 120 18:23 17.12.2020
4759 Clouds 28 1011 59 10000 2.61 120 17:54 17.12.2020
4760 Clouds 28 1011 59 10000 2.61 120 17:32 17.12.2020
4761 Clouds 28 1011 58 10000 2.64 121 16:46 17.12.2020
4762 Clouds 28 1011 57 10000 1.82 140 16:27 17.12.2020
4763 Rain 29 1011 58 10000 1.82 140 15:52 17.12.2020
4764 Rain 29 1011 58 10000 1.82 140 15:52 17.12.2020
4765 Clouds 29 1011 58 10000 1.82 140 15:34 17.12.2020
4766 Rain 28 1011 58 10000 1.41 182 14:55 17.12.2020
4767 Clouds 28 1011 57 10000 1.41 182 14:35 17.12.2020
4768 Clouds 31 1011 56 10000 1.4 195 13:58 17.12.2020
4769 Clouds 31 1010 56 10000 1.4 195 13:39 17.12.2020
4770 Rain 30 1010 55 10000 1.8 190 12:49 17.12.2020
4771 Clouds 30 1009 53 10000 2.08 178 12:27 17.12.2020
4772 Rain 31 1009 52 10000 2.08 178 11:46 17.12.2020
4773 Rain 31 1009 53 10000 2.15 183 11:26 17.12.2020
4774 Clouds 31 1009 51 10000 2.15 183 10:56 17.12.2020
4775 Rain 31 1008 49 10000 1.84 180 10:29 17.12.2020
4776 Clouds 32 1008 47 10000 1.84 180 09:31 17.12.2020
4777 Clouds 31 1009 47 10000 0.89 93 08:20 17.12.2020
4778 Clouds 31 1009 48 10000 0.89 93 07:40 17.12.2020
4779 Clouds 31 1010 48 10000 1.89 308 07:18 17.12.2020
4780 Clouds 31 1010 51 10000 1.89 308 06:42 17.12.2020
4781 Clouds 30 1010 51 10000 1.09 314 06:24 17.12.2020
4782 Clouds 26 1011 83 9000 2.1 70 00:55 17.12.2020
4783 Clouds 27 1011 78 9000 2.6 60 23:57 16.12.2020
4784 Clouds 27 1011 74 9000 2.1 120 23:22 16.12.2020
4785 Clouds 27 1011 74 9000 2.1 80 22:57 16.12.2020
4786 Clouds 27 1010 64 10000 1.93 68 22:36 16.12.2020
4787 Clear 27 1010 64 10000 1.92 66 21:54 16.12.2020
4788 Clear 27 1010 64 10000 1.92 66 21:36 16.12.2020
4789 Clouds 27 1010 65 10000 1.64 64 20:56 16.12.2020
4790 Clouds 27 1010 65 10000 1.64 64 20:37 16.12.2020
4791 Rain 28 1011 66 10000 1.39 47 20:18 16.12.2020
4792 Clouds 28 1011 66 10000 0.83 52 19:20 16.12.2020
4793 Clouds 28 1011 65 10000 3.38 58 18:56 16.12.2020
4794 Clouds 28 1011 65 10000 3.19 59 18:29 16.12.2020
4795 Clouds 28 1011 63 10000 3.19 59 17:51 16.12.2020
4796 Clouds 28 1011 63 10000 2.8 80 17:29 16.12.2020
4797 Rain 29 1012 60 10000 2.8 80 16:40 16.12.2020
4798 Rain 29 1012 60 10000 3.36 80 16:22 16.12.2020
4799 Rain 30 1011 60 10000 3.36 80 15:51 16.12.2020
4800 Clouds 30 1012 60 10000 3.54 64 15:28 16.12.2020
4801 Clouds 30 1011 61 10000 3.54 64 14:48 16.12.2020
4802 Rain 30 1011 63 10000 3.9 47 14:28 16.12.2020
4803 Clouds 30 1011 60 10000 3.9 47 13:50 16.12.2020
4804 Clouds 30 1010 60 10000 3.9 47 13:31 16.12.2020
4805 Clouds 30 1010 60 10000 4.31 35 12:56 16.12.2020
4806 Clouds 30 1010 60 10000 4.31 35 12:36 16.12.2020
4807 Clouds 30 1009 59 10000 4.11 31 11:41 16.12.2020
4808 Clouds 30 1009 58 10000 3.88 30 11:22 16.12.2020
4809 Rain 30 1009 57 10000 3.88 30 10:49 16.12.2020
4810 Clouds 32 1009 56 10000 3.51 33 10:26 16.12.2020
4811 Clouds 32 1009 56 10000 3.51 33 09:48 16.12.2020
4812 Clouds 32 1009 55 10000 3.37 45 08:45 16.12.2020
4813 Clouds 32 1010 54 10000 4.01 61 07:59 16.12.2020
4814 Clouds 32 1010 54 10000 4.01 61 07:39 16.12.2020
4815 Clouds 31 1011 55 10000 4.78 69 06:57 16.12.2020
4816 Clouds 30 1010 61 10000 3.96 75 03:28 16.12.2020
4817 Clouds 27 1012 74 10000 2.82 74 01:27 16.12.2020
4818 Clouds 28 1012 88 7000 1.5 60 23:46 15.12.2020
4819 Clouds 28 1012 88 7000 1.5 20 22:49 15.12.2020
4820 Clouds 28 1010 72 10000 2.03 43 22:25 15.12.2020
4821 Clouds 28 1010 72 10000 2.03 43 21:58 15.12.2020
4822 Clouds 28 1010 73 10000 2.03 43 21:40 15.12.2020
4823 Clouds 28 1010 72 10000 1.82 17 21:21 15.12.2020
4824 Clouds 28 1011 71 10000 1.82 17 20:44 15.12.2020
4825 Clouds 28 1011 71 10000 1.79 342 20:26 15.12.2020
4826 Clouds 28 1011 71 10000 1.79 342 19:52 15.12.2020
4827 Clouds 29 1011 70 10000 0.82 316 19:26 15.12.2020
4828 Rain 29 1011 69 10000 0.9 314 18:39 15.12.2020
4829 Rain 29 1012 69 10000 0.63 248 18:21 15.12.2020
4830 Rain 29 1011 68 10000 0.63 248 17:44 15.12.2020
4831 Rain 29 1011 68 10000 0.65 210 17:25 15.12.2020
4832 Rain 29 1011 67 10000 0.65 210 16:43 15.12.2020
4833 Clouds 29 1011 66 10000 0.59 192 16:25 15.12.2020
4834 Rain 29 1012 63 10000 0.59 192 15:38 15.12.2020
4835 Clouds 30 1012 60 10000 0.88 168 15:18 15.12.2020
4836 Clouds 30 1012 62 9000 1 0 14:42 15.12.2020
4837 Clouds 30 1011 58 10000 0.77 154 14:20 15.12.2020
4838 Clouds 30 1011 62 9000 2.1 330 13:49 15.12.2020
4839 Clouds 30 1010 57 10000 0.7 179 13:25 15.12.2020
4840 Clouds 30 1010 56 10000 0.33 231 12:46 15.12.2020
4841 Clouds 31 1010 58 9000 2.1 40 12:19 15.12.2020
4842 Clouds 31 1010 55 9000 3.1 40 11:52 15.12.2020
4843 Clouds 33 1010 52 10000 1.5 90 11:24 15.12.2020
4844 Clouds 34 1010 52 10000 2.1 80 10:49 15.12.2020
4845 Clouds 33 1008 52 10000 2.34 70 10:20 15.12.2020
4846 Clouds 33 1009 53 10000 2.34 70 09:44 15.12.2020
4847 Clouds 33 1009 53 10000 2.57 72 09:26 15.12.2020
4848 Clouds 33 1010 49 9000 2.6 130 08:46 15.12.2020
4849 Rain 33 1011 52 9000 2.1 190 08:24 15.12.2020
4850 Clouds 33 1009 52 10000 2.89 69 07:47 15.12.2020
4851 Clouds 33 1010 52 10000 3.38 67 07:18 15.12.2020
4852 Clouds 33 1011 51 10000 3.98 63 05:55 15.12.2020
4853 Clouds 28 1010 79 10000 2.59 53 00:54 15.12.2020
4854 Clouds 29 1009 78 10000 2.64 51 23:54 14.12.2020
4855 Clouds 29 1009 78 10000 2.23 51 23:21 14.12.2020
4856 Clouds 29 1009 77 10000 2.23 51 22:44 14.12.2020
4857 Rain 29 1009 77 10000 1.85 61 22:22 14.12.2020
4858 Clouds 29 1008 77 10000 1.85 61 21:41 14.12.2020
4859 Clouds 29 1010 76 10000 1.54 80 21:18 14.12.2020
4860 Clouds 29 1010 76 10000 1.54 80 20:48 14.12.2020
4861 Clouds 29 1010 75 10000 1.86 99 20:27 14.12.2020
4862 Clouds 29 1010 74 10000 1.86 99 19:44 14.12.2020
4863 Clouds 29 1010 74 10000 2.35 94 19:25 14.12.2020
4864 Rain 29 1010 73 10000 2.26 128 18:44 14.12.2020
4865 Clouds 30 1010 72 10000 1.8 125 18:24 14.12.2020
4866 Clouds 30 1010 72 10000 1.8 125 17:45 14.12.2020
4867 Rain 30 1010 72 10000 1.59 123 17:21 14.12.2020
4868 Rain 30 1010 72 10000 1.59 123 16:42 14.12.2020
4869 Rain 30 1010 72 10000 2.05 112 16:23 14.12.2020
4870 Rain 30 1010 71 10000 2.05 112 15:33 14.12.2020
4871 Clouds 30 1009 71 10000 2.01 94 14:51 14.12.2020
4872 Rain 30 1009 70 10000 2.01 94 14:32 14.12.2020
4873 Rain 30 1009 70 10000 1.21 65 13:57 14.12.2020
4874 Rain 30 1009 70 10000 1.21 65 13:35 14.12.2020
4875 Rain 30 1009 70 7000 3.1 260 12:56 14.12.2020
4876 Clouds 30 1009 70 7000 3.1 260 12:34 14.12.2020
4877 Clouds 31 1008 66 9000 3.1 270 11:58 14.12.2020
4878 Rain 31 1008 66 9000 3.6 270 11:25 14.12.2020
4879 Clouds 33 1008 66 9000 4.6 240 10:28 14.12.2020
4880 Clouds 33 1008 59 9000 2.6 50 09:53 14.12.2020
4881 Clouds 33 1008 59 9000 3.1 30 09:25 14.12.2020
4882 Clouds 34 1009 55 9000 4.1 40 08:44 14.12.2020
4883 Rain 34 1009 55 9000 4.6 40 08:23 14.12.2020
4884 Rain 33 1005 51 10000 2.89 91 07:22 14.12.2020
4885 Rain 33 1010 58 10000 1.76 98 06:43 14.12.2020
4886 Clouds 32 1010 69 10000 0.77 95 04:19 14.12.2020
4887 Clouds 30 1010 81 10000 1.21 354 02:25 14.12.2020
4888 Clouds 29 1009 82 10000 0.8 290 00:51 14.12.2020
4889 Clouds 29 1008 81 10000 1.04 284 00:29 14.12.2020
4890 Clouds 29 1008 80 10000 1.04 284 23:44 13.12.2020
4891 Clouds 29 1007 80 10000 1.11 257 23:18 13.12.2020
4892 Mist 28 1008 94 5000 2.1 70 22:43 13.12.2020
4893 Clouds 30 1007 80 10000 1.45 236 22:18 13.12.2020
4894 Clouds 30 1007 79 10000 1.45 236 21:42 13.12.2020
4895 Rain 29 1007 78 10000 1.57 227 20:57 13.12.2020
4896 Clouds 30 1007 77 10000 1.57 227 20:32 13.12.2020
4897 Clouds 30 1007 75 10000 1.56 228 19:49 13.12.2020
4898 Clouds 30 1007 74 10000 1.22 208 19:25 13.12.2020
4899 Rain 30 1007 73 10000 1.13 232 18:57 13.12.2020
4900 Clouds 30 1008 73 10000 1.13 232 18:38 13.12.2020
4901 Clouds 30 1008 73 10000 1.07 248 18:18 13.12.2020
4902 Rain 30 1008 73 10000 1.07 248 17:45 13.12.2020
4903 Rain 30 1008 69 10000 1.2 253 17:18 13.12.2020
4904 Clouds 30 1008 67 10000 1.2 253 16:50 13.12.2020
4905 Clouds 30 1008 67 10000 1.2 253 16:31 13.12.2020
4906 Clouds 31 1009 67 10000 0.7 259 15:48 13.12.2020
4907 Rain 31 1008 65 10000 0.19 284 15:27 13.12.2020
4908 Clouds 31 1008 63 10000 0.19 284 14:48 13.12.2020
4909 Rain 31 1008 63 10000 0.83 316 14:29 13.12.2020
4910 Rain 31 1008 62 10000 0.83 316 13:56 13.12.2020
4911 Clouds 31 1007 62 10000 0.83 316 13:35 13.12.2020
4912 Rain 31 1007 61 10000 0.94 350 12:59 13.12.2020
4913 Rain 31 1006 62 10000 1.51 346 12:25 13.12.2020
4914 Rain 31 1006 61 10000 1.51 346 11:59 13.12.2020
4915 Clouds 32 1006 62 10000 1.51 346 11:33 13.12.2020
4916 Clouds 32 1002 49 10000 1.81 334 10:45 13.12.2020
4917 Rain 31 1005 61 10000 1.73 338 10:21 13.12.2020
4918 Rain 31 1005 59 10000 1.73 338 09:47 13.12.2020
4919 Rain 33 1007 59 10000 1.5 40 08:52 13.12.2020
4920 Rain 33 1007 59 10000 1.5 40 08:52 13.12.2020
4921 Clouds 34 1003 46 10000 1.56 345 08:30 13.12.2020
4922 Rain 33 1007 55 10000 1.86 359 07:25 13.12.2020
4923 Rain 29 1010 69 9000 2.1 340 03:24 13.12.2020
4924 Clouds 29 1010 69 9000 1.5 330 02:32 13.12.2020
4925 Clear 29 1008 59 10000 3.27 341 01:36 13.12.2020
4926 Rain 27 1009 74 9000 2.1 340 00:44 13.12.2020
4927 Clouds 28 1009 74 9000 2.6 340 23:45 12.12.2020
4928 Clouds 27 1009 74 9000 2.6 340 23:26 12.12.2020
4929 Rain 28 1009 74 9000 2.1 350 22:36 12.12.2020
4930 Clouds 29 1009 69 9000 1.5 330 21:47 12.12.2020
4931 Clouds 29 1007 63 10000 3.06 2 21:20 12.12.2020
4932 Clouds 29 1009 74 9000 3.06 2 20:46 12.12.2020
4933 Clouds 30 1007 62 10000 3 358 20:21 12.12.2020
4934 Rain 30 1008 62 10000 3 358 19:53 12.12.2020
4935 Rain 30 1008 62 10000 3 358 19:34 12.12.2020
4936 Clouds 30 1008 62 10000 2.8 357 18:56 12.12.2020
4937 Clouds 30 1008 62 10000 2.81 356 18:38 12.12.2020
4938 Clouds 30 1008 62 10000 2.52 353 18:20 12.12.2020
4939 Clouds 29 1010 69 9000 1 310 17:41 12.12.2020
4940 Clouds 30 1010 69 9000 2.38 342 16:44 12.12.2020
4941 Clouds 31 1009 60 10000 1.76 338 15:58 12.12.2020
4942 Clouds 30 1010 66 9000 1.76 338 15:39 12.12.2020
4943 Clouds 32 1009 59 10000 1.17 316 14:54 12.12.2020
4944 Clouds 32 1008 58 10000 0.71 292 14:22 12.12.2020
4945 Clouds 31 1008 57 10000 0.71 292 13:41 12.12.2020
4946 Clouds 31 1007 56 10000 0.46 321 13:23 12.12.2020
4947 Clouds 31 1007 55 10000 0.9 234 12:36 12.12.2020
4948 Clouds 32 1006 49 10000 0.06 213 11:20 12.12.2020
4949 Clouds 32 1006 48 10000 0.06 213 10:45 12.12.2020
4950 Clouds 33 1006 47 10000 0.24 129 09:24 12.12.2020
4951 Clouds 33 1007 46 10000 0.63 74 07:42 12.12.2020
4952 Clouds 28 1011 78 6000 2.1 310 01:41 12.12.2020
4953 Clouds 26 1010 78 7000 2.1 340 23:30 11.12.2020
4954 Clouds 26 1010 69 9000 2.1 350 20:57 11.12.2020
4955 Clouds 28 1011 65 9000 2.1 320 19:42 11.12.2020
4956 Rain 28 1012 65 9000 2.6 310 16:52 11.12.2020
4957 Clear 29 1010 53 10000 3.2 346 14:37 11.12.2020
4958 Clouds 30 1010 55 10000 3.1 310 13:45 11.12.2020
4959 Clouds 31 1009 48 10000 2.1 50 12:23 11.12.2020
4960 Clouds 32 1008 48 10000 3.1 60 11:54 11.12.2020
4961 Clouds 32 1008 48 10000 3.1 60 11:35 11.12.2020
4962 Rain 33 1008 44 10000 2.74 346 10:40 11.12.2020
4963 Clear 33 1009 42 10000 2.54 358 07:31 11.12.2020
4964 Clouds 31 1013 51 10000 3.1 30 05:36 11.12.2020
4965 Clouds 30 1014 57 10000 4.1 340 04:47 11.12.2020
4966 Clouds 24 1011 73 7000 2.1 300 00:48 11.12.2020
4967 Clouds 24 1011 69 8000 3.1 340 23:27 10.12.2020
4968 Clouds 25 1011 69 8000 3.6 350 21:37 10.12.2020
4969 Clouds 25 1011 69 8000 3.6 350 20:51 10.12.2020
4970 Clouds 26 1012 65 8000 3.1 340 20:26 10.12.2020
4971 Clouds 26 1012 65 8000 3.6 330 19:29 10.12.2020
4972 Clouds 27 1012 61 8000 3.6 320 18:47 10.12.2020
4973 Rain 27 1013 54 8000 3.1 320 17:26 10.12.2020
4974 Clear 27 1013 54 8000 3.1 340 15:58 10.12.2020
4975 Clear 27 1013 54 8000 2.6 350 15:19 10.12.2020
4976 Clear 28 1012 57 9000 2.6 330 14:42 10.12.2020
4977 Rain 29 1011 51 9000 3.1 330 13:26 10.12.2020
4978 Rain 29 1010 40 9000 4.1 330 11:54 10.12.2020
4979 Clouds 30 1010 54 10000 1.29 28 10:46 10.12.2020
4980 Clear 32 1006 37 10000 1.59 30 08:20 10.12.2020
4981 Clear 30 1012 42 9000 1.5 0 06:59 10.12.2020
4982 Clear 29 1013 68 10000 1.34 73 05:26 10.12.2020
4983 Rain 24 1013 78 7000 2.6 320 02:31 10.12.2020
4984 Clear 21 1011 77 8000 2.1 320 01:18 10.12.2020
4985 Clear 21 1011 78 9000 2.1 320 23:37 09.12.2020
4986 Clear 23 1011 69 9000 3.46 346 20:37 09.12.2020
4987 Clear 23 1012 69 9000 1 30 19:40 09.12.2020
4988 Clear 23 1012 64 9000 2.1 20 18:21 09.12.2020
4989 Clear 24 1013 64 9000 2.6 20 16:57 09.12.2020
4990 Clear 25 1013 61 9000 3.1 350 16:25 09.12.2020
4991 Clear 26 1012 61 9000 2.6 340 15:41 09.12.2020
4992 Clouds 26 1012 54 9000 2.6 330 14:49 09.12.2020
4993 Clouds 27 1012 54 9000 2.6 320 14:25 09.12.2020
4994 Clouds 29 1011 51 9000 3.1 320 13:19 09.12.2020
4995 Clouds 29 1011 51 9000 3.1 320 13:19 09.12.2020
4996 Clouds 29 1011 51 9000 3.1 320 12:57 09.12.2020
4997 Clouds 30 1010 45 10000 3.6 30 12:21 09.12.2020
4998 Clouds 30 1010 45 10000 3.1 30 11:32 09.12.2020
4999 Clouds 32 1010 40 9000 3.1 20 09:50 09.12.2020
5000 Clouds 32 1010 42 9000 3.6 40 08:27 09.12.2020
5001 Clouds 31 1014 51 9000 3.1 350 06:18 09.12.2020
5002 Clouds 28 1015 57 9000 2.1 50 04:46 09.12.2020
5003 Clouds 24 1014 73 8000 1.5 330 02:22 09.12.2020
5004 Clear 24 1012 73 10000 2.1 360 23:45 08.12.2020
5005 Clear 24 1012 73 10000 2.1 360 23:23 08.12.2020
5006 Clear 24 1012 69 10000 1.5 50 21:35 08.12.2020
5007 Clear 25 1013 83 10000 1 30 19:46 08.12.2020
5008 Clear 25 1013 83 10000 1 30 19:46 08.12.2020
5009 Clear 25 1013 73 10000 2.61 4 19:25 08.12.2020
5010 Clear 25 1013 73 10000 1.5 70 18:27 08.12.2020
5011 Rain 28 1014 65 10000 2.6 110 15:54 08.12.2020
5012 Clouds 28 1014 65 10000 2.1 120 14:34 08.12.2020
5013 Clouds 28 1013 61 10000 2.6 100 13:36 08.12.2020
5014 Clouds 29 1012 54 10000 3.6 350 12:32 08.12.2020
5015 Clouds 30 1011 51 10000 4.1 330 11:52 08.12.2020
5016 Clouds 31 1009 45 10000 1.6 330 10:49 08.12.2020
5017 Clouds 32 1009 45 10000 1.4 314 10:29 08.12.2020
5018 Clouds 32 1011 55 10000 3.1 40 08:53 08.12.2020
5019 Clouds 31 1010 48 10000 1.24 337 07:18 08.12.2020
5020 Clouds 27 1016 61 10000 2.1 50 03:43 08.12.2020
5021 Clouds 25 1014 69 9000 2.6 30 00:48 08.12.2020
5022 Clouds 24 1014 78 9000 2.6 20 00:25 08.12.2020
5023 Clouds 25 1013 69 9000 2.6 20 22:43 07.12.2020
5024 Clouds 25 1013 69 9000 2.1 40 21:58 07.12.2020
5025 Clouds 26 1014 61 9000 1.5 60 20:32 07.12.2020
5026 Clouds 26 1014 61 9000 3.1 20 18:47 07.12.2020
5027 Rain 27 1015 57 9000 3.1 20 17:29 07.12.2020
5028 Rain 28 1015 61 9000 3.1 340 16:55 07.12.2020
5029 Clouds 28 1014 57 9000 3.1 340 15:47 07.12.2020
5030 Clouds 28 1014 57 9000 3.1 340 15:19 07.12.2020
5031 Clouds 28 1014 54 10000 2.6 320 14:19 07.12.2020
5032 Clouds 29 1013 54 10000 3.1 30 13:23 07.12.2020
5033 Clouds 30 1012 51 10000 2.6 20 11:44 07.12.2020
5034 Clouds 31 1011 45 10000 3.1 20 11:19 07.12.2020
5035 Clouds 32 1010 44 10000 2.74 24 09:56 07.12.2020
5036 Clouds 31 1012 48 10000 2.6 360 08:26 07.12.2020
5037 Clouds 30 1012 45 10000 3.09 7 06:36 07.12.2020
5038 Clouds 28 1016 54 10000 2.1 50 04:50 07.12.2020
5039 Clouds 25 1015 73 8000 1.5 340 01:55 07.12.2020
5040 Clouds 22 1014 77 10000 2.6 350 00:27 07.12.2020
5041 Clouds 22 1013 73 10000 1 350 22:25 06.12.2020
5042 Clouds 23 1013 73 10000 1 350 20:58 06.12.2020
5043 Clouds 23 1014 73 10000 1.5 30 20:34 06.12.2020
5044 Clouds 23 1014 78 10000 1 50 19:55 06.12.2020
5045 Clouds 24 1014 69 10000 2.1 10 18:33 06.12.2020
5046 Clouds 25 1014 61 10000 2.1 340 16:52 06.12.2020
5047 Clouds 26 1014 54 10000 2.6 20 14:58 06.12.2020
5048 Clouds 26 1013 51 10000 3.6 20 13:45 06.12.2020
5049 Clouds 27 1013 57 10000 2.6 40 12:51 06.12.2020
5050 Clouds 28 1012 48 10000 4.1 20 11:59 06.12.2020
5051 Clouds 28 1012 48 10000 3.6 40 11:34 06.12.2020
5052 Clouds 29 1012 42 10000 4.1 10 10:47 06.12.2020
5053 Clouds 29 1012 45 10000 3.1 30 09:57 06.12.2020
5054 Clear 30 1012 48 10000 3.1 330 08:29 06.12.2020
5055 Clouds 29 1012 46 10000 2.85 2 06:37 06.12.2020
5056 Clear 21 1014 77 10000 2.6 340 00:58 06.12.2020
5057 Clear 21 1014 77 10000 2.6 0 00:39 06.12.2020
5058 Clear 22 1014 73 10000 2.6 350 00:21 06.12.2020
5059 Clear 22 1014 73 10000 2.6 340 22:43 05.12.2020
5060 Clear 22 1014 68 10000 3.1 350 22:20 05.12.2020
5061 Clear 23 1014 68 10000 2.6 350 21:47 05.12.2020
5062 Clear 23 1014 68 10000 2.6 350 21:23 05.12.2020
5063 Rain 24 1015 64 10000 2.6 10 19:21 05.12.2020
5064 Clear 24 1015 69 10000 3.1 20 18:39 05.12.2020
5065 Clear 25 1015 64 10000 2.1 50 17:20 05.12.2020
5066 Rain 25 1015 64 10000 2.1 40 16:29 05.12.2020
5067 Clear 25 1015 64 10000 3.1 40 15:37 05.12.2020
5068 Clear 26 1014 54 10000 3.6 20 14:24 05.12.2020
5069 Clear 28 1012 48 10000 2.6 20 11:52 05.12.2020
5070 Clear 28 1012 48 10000 2.6 20 11:30 05.12.2020
5071 Clear 28 1012 45 10000 2.6 60 10:29 05.12.2020
5072 Clear 28 1014 47 10000 2.6 50 07:48 05.12.2020
5073 Clear 27 1016 50 10000 3.6 30 06:22 05.12.2020
5074 Clear 25 1017 60 10000 3.1 60 03:39 05.12.2020
5075 Clear 22 1014 68 10000 5.1 40 23:48 04.12.2020
5076 Clear 23 1013 68 10000 4.6 40 21:59 04.12.2020
5077 Clear 24 1012 55 10000 5.25 71 19:57 04.12.2020
5078 Clear 25 1014 60 10000 5.1 60 18:47 04.12.2020
5079 Clear 25 1015 60 10000 3.6 60 17:54 04.12.2020
5080 Clouds 25 1015 57 10000 3.6 50 17:19 04.12.2020
5081 Clear 28 1013 49 10000 6.32 71 15:34 04.12.2020
5082 Clouds 27 1012 57 10000 2.6 110 13:38 04.12.2020
5083 Clouds 27 1012 54 10000 2.1 110 13:20 04.12.2020
5084 Clouds 29 1011 51 10000 2.1 100 12:47 04.12.2020
5085 Clear 31 1006 38 10000 3.22 52 10:38 04.12.2020
5086 Clouds 30 1010 51 10000 1.5 60 09:37 04.12.2020
5087 Clouds 29 1014 51 10000 2.6 60 06:41 04.12.2020
5088 Clear 28 1015 51 10000 3.6 50 05:20 04.12.2020
5089 Clouds 23 1014 69 10000 2.1 80 01:54 04.12.2020
5090 Clouds 24 1012 78 10000 2.6 70 22:51 03.12.2020
5091 Clouds 24 1012 78 10000 2.6 60 21:56 03.12.2020
5092 Clouds 26 1013 65 10000 3.1 80 20:47 03.12.2020
5093 Clouds 26 1013 69 10000 3.1 70 19:26 03.12.2020
5094 Clouds 26 1014 65 10000 2.1 90 18:49 03.12.2020
5095 Clouds 27 1014 74 10000 2.1 80 17:22 03.12.2020
5096 Clouds 27 1014 74 10000 2.1 80 16:59 03.12.2020
5097 Clouds 29 1014 65 10000 2.1 60 15:34 03.12.2020
5098 Clouds 29 1012 57 10000 5.92 68 14:50 03.12.2020
5099 Rain 29 1012 57 10000 5.56 74 14:25 03.12.2020
5100 Clouds 29 1012 58 10000 2.6 110 12:55 03.12.2020
5101 Clouds 30 1011 58 10000 2.6 120 12:25 03.12.2020
5102 Clouds 31 1010 58 10000 4.1 100 11:22 03.12.2020
5103 Clouds 31 1009 49 10000 2.84 51 08:49 03.12.2020
5104 Clouds 28 1015 65 10000 2.1 90 04:24 03.12.2020
5105 Clouds 26 1013 69 10000 3.6 40 02:20 03.12.2020
5106 Clouds 25 1012 73 10000 3.1 30 00:42 03.12.2020
5107 Clouds 26 1011 78 10000 2.6 20 22:47 02.12.2020
5108 Clouds 26 1011 78 10000 2.1 40 21:56 02.12.2020
5109 Clouds 27 1012 78 10000 2.6 50 20:52 02.12.2020
5110 Clouds 27 1012 74 10000 2.6 60 20:34 02.12.2020
5111 Clouds 27 1012 74 10000 1.5 60 19:55 02.12.2020
5112 Clouds 27 1013 69 10000 1.5 80 17:53 02.12.2020
5113 Clouds 28 1013 65 10000 1.5 80 17:34 02.12.2020
5114 Clouds 28 1013 65 10000 1.5 80 16:59 02.12.2020
5115 Rain 28 1012 62 10000 3.1 130 14:47 02.12.2020
5116 Clouds 30 1010 55 10000 1.5 30 11:34 02.12.2020
5117 Clouds 30 1010 58 10000 1.5 80 10:28 02.12.2020
5118 Clouds 30 1011 55 10000 2.6 40 08:29 02.12.2020
5119 Clouds 26 1013 73 10000 2.6 30 00:57 02.12.2020
5120 Clouds 26 1012 69 10000 2.1 20 22:21 01.12.2020
5121 Clouds 27 1013 69 10000 1.5 50 20:46 01.12.2020
5122 Clouds 26 1014 69 10000 1.5 60 19:34 01.12.2020
5123 Clouds 27 1014 65 10000 2.6 50 17:34 01.12.2020
5124 Clouds 28 1014 65 10000 3.1 30 15:40 01.12.2020
5125 Clouds 29 1012 61 10000 3.1 10 13:37 01.12.2020
5126 Clouds 29 1011 58 10000 2.6 10 11:44 01.12.2020
5127 Clouds 29 1011 58 10000 2.6 10 11:26 01.12.2020
5128 Clouds 29 1011 58 10000 3.6 40 10:37 01.12.2020
5129 Clouds 29 1013 58 10000 2.6 40 08:20 01.12.2020
5130 Clouds 28 1015 54 10000 3.1 50 06:46 01.12.2020
5131 Clouds 26 1015 65 10000 4.6 20 01:51 01.12.2020
5132 Clouds 26 1015 65 10000 4.6 20 01:51 01.12.2020
5133 Clouds 25 1014 65 10000 4.6 20 00:52 01.12.2020
5134 Clouds 26 1013 69 10000 2.6 20 23:21 30.11.2020
5135 Clouds 26 1013 69 10000 2.1 30 22:42 30.11.2020
5136 Clouds 26 1013 69 10000 2.6 20 22:23 30.11.2020
5137 Clouds 26 1014 69 10000 2.1 30 20:47 30.11.2020
5138 Clouds 26 1014 65 10000 1.5 50 19:42 30.11.2020
5139 Clouds 26 1014 65 10000 1.5 50 19:42 30.11.2020
5140 Clouds 27 1014 69 10000 2.1 40 18:22 30.11.2020
5141 Clouds 27 1014 69 10000 2.6 30 17:46 30.11.2020
5142 Clouds 28 1014 65 10000 2.1 60 16:54 30.11.2020
5143 Clouds 28 1013 69 10000 2.6 60 15:45 30.11.2020
5144 Clouds 28 1012 65 10000 2.6 60 14:21 30.11.2020
5145 Clouds 29 1012 58 10000 3.1 100 13:41 30.11.2020
5146 Clouds 29 1011 55 10000 3.6 90 12:26 30.11.2020
5147 Clouds 29 1011 51 10000 4.1 60 11:57 30.11.2020
5148 Clouds 30 1010 48 10000 3.6 40 10:25 30.11.2020
5149 Clouds 30 1010 48 10000 3.1 70 09:35 30.11.2020
5150 Clouds 30 1010 48 10000 3.1 70 09:35 30.11.2020
5151 Clouds 28 1014 51 10000 3.96 65 04:27 30.11.2020
5152 Clouds 26 1013 73 10000 2.6 50 23:29 29.11.2020
5153 Clouds 26 1012 65 10000 2.6 40 21:47 29.11.2020
5154 Clouds 26 1012 65 10000 2.6 40 21:28 29.11.2020
5155 Clouds 27 1013 65 10000 4.6 20 19:31 29.11.2020
5156 Clouds 28 1014 58 10000 4.6 20 17:46 29.11.2020
5157 Clouds 28 1014 58 10000 4.6 20 17:46 29.11.2020
5158 Clouds 29 1013 62 10000 1 0 14:53 29.11.2020
5159 Clouds 29 1011 62 10000 1.5 100 12:46 29.11.2020
5160 Rain 30 1011 55 10000 2.1 130 11:41 29.11.2020
5161 Clouds 31 1011 52 10000 3.6 340 08:55 29.11.2020
5162 Clouds 31 1011 52 10000 3.1 310 08:36 29.11.2020
5163 Clouds 27 1014 61 10000 3.1 90 03:30 29.11.2020
5164 Clear 25 1012 78 10000 2.1 70 23:18 28.11.2020
5165 Clear 25 1012 78 10000 2.6 30 22:50 28.11.2020
5166 Clouds 27 1011 60 10000 3.91 11 20:27 28.11.2020
5167 Clear 27 1013 69 10000 3.1 20 19:29 28.11.2020
5168 Clear 27 1014 65 10000 3.1 10 18:58 28.11.2020
5169 Clouds 27 1012 57 10000 3.08 33 18:22 28.11.2020
5170 Clouds 27 1014 65 10000 3.6 30 16:58 28.11.2020
5171 Clouds 28 1012 56 10000 3.33 53 14:59 28.11.2020
5172 Clouds 29 1011 55 10000 4.32 48 13:55 28.11.2020
5173 Clouds 31 1009 47 10000 3.51 47 11:28 28.11.2020
5174 Clouds 32 1009 42 10000 4.31 59 09:26 28.11.2020
5175 Clouds 28 1010 42 10000 4.22 73 03:48 28.11.2020
5176 Clear 27 1014 69 10000 2.35 60 01:54 28.11.2020
5177 Clouds 26 1012 73 10000 2.1 20 23:22 27.11.2020
5178 Clouds 26 1012 73 10000 1 0 22:38 27.11.2020
5179 Clouds 27 1011 60 10000 3.33 42 20:40 27.11.2020
5180 Clouds 27 1014 74 10000 2.1 50 19:34 27.11.2020
5181 Clouds 27 1014 65 10000 3.1 20 18:57 27.11.2020
5182 Clouds 27 1014 69 10000 3.1 40 16:55 27.11.2020
5183 Clouds 27 1014 69 10000 3.1 40 16:55 27.11.2020
5184 Clouds 27 1014 69 10000 3.1 40 16:55 27.11.2020
5185 Clouds 28 1013 65 10000 2.6 30 14:45 27.11.2020
5186 Clouds 30 1011 55 10000 4.82 46 13:20 27.11.2020
5187 Clouds 30 1012 66 10000 4.1 30 12:47 27.11.2020
5188 Clouds 30 1011 58 10000 4.6 40 11:34 27.11.2020
5189 Clouds 31 1010 52 10000 4.17 46 10:44 27.11.2020
5190 Clouds 31 1010 51 10000 4.27 51 09:51 27.11.2020
5191 Clear 26 1012 83 10000 2.6 30 23:39 26.11.2020
5192 Clear 26 1010 65 10000 3 31 22:25 26.11.2020
5193 Clear 26 1012 78 10000 2.1 30 21:45 26.11.2020
5194 Clear 27 1012 74 10000 3.1 50 20:43 26.11.2020
5195 Clear 28 1013 65 10000 3.6 70 18:36 26.11.2020
5196 Clear 29 1012 52 10000 5.3 59 17:20 26.11.2020
5197 Clear 30 1011 55 10000 4.16 58 13:58 26.11.2020
5198 Clouds 30 1010 53 10000 4.32 53 12:57 26.11.2020
5199 Clouds 31 1009 53 10000 3.93 56 12:38 26.11.2020
5200 Clouds 32 1008 51 10000 3.63 31 10:46 26.11.2020
5201 Clouds 32 1008 49 10000 3.45 39 10:23 26.11.2020
5202 Clouds 33 1008 48 10000 3.45 39 09:34 26.11.2020
5203 Clouds 33 1008 47 10000 3.57 53 08:57 26.11.2020
5204 Clouds 32 1008 47 10000 3.57 53 08:33 26.11.2020
5205 Clouds 26 1014 78 10000 2.1 20 02:18 26.11.2020
5206 Clouds 27 1011 78 10000 1.5 50 22:18 25.11.2020
5207 Clouds 28 1011 78 10000 2.1 50 20:32 25.11.2020
5208 Clouds 29 1012 74 10000 1 70 18:59 25.11.2020
5209 Clouds 29 1012 70 10000 2.63 34 17:29 25.11.2020
5210 Clouds 29 1012 70 10000 2.17 56 15:44 25.11.2020
5211 Clouds 30 1012 66 10000 2.79 62 14:58 25.11.2020
5212 Clouds 30 1010 62 10000 2.1 60 13:46 25.11.2020
5213 Clouds 31 1010 62 10000 2.1 60 12:47 25.11.2020
5214 Clouds 32 1009 55 10000 3.6 70 11:23 25.11.2020
5215 Clouds 32 1009 55 10000 4.1 50 09:21 25.11.2020
5216 Clouds 33 1010 52 10000 3.1 80 08:50 25.11.2020
5217 Clouds 33 1012 55 10000 2.6 40 07:21 25.11.2020
5218 Clouds 30 1014 69 10000 2.6 40 03:49 25.11.2020
5219 Clouds 26 1012 78 10000 1.5 320 01:49 25.11.2020
5220 Clouds 27 1011 78 10000 2.1 350 00:19 25.11.2020
5221 Clouds 27 1011 78 10000 1.5 10 23:35 24.11.2020
5222 Clouds 27 1010 78 10000 2.6 10 22:39 24.11.2020
5223 Clouds 27 1010 78 10000 2.6 10 22:39 24.11.2020
5224 Clouds 27 1011 78 10000 2.1 20 21:35 24.11.2020
5225 Clouds 28 1011 74 10000 1.5 60 20:58 24.11.2020
5226 Clouds 28 1012 78 10000 2.1 40 19:48 24.11.2020
5227 Clouds 30 1011 65 10000 2.93 45 17:32 24.11.2020
5228 Clouds 30 1011 64 10000 2.94 45 16:58 24.11.2020
5229 Clouds 30 1011 63 10000 2.94 45 16:37 24.11.2020
5230 Rain 31 1011 62 10000 2.92 55 15:56 24.11.2020
5231 Clouds 31 1011 61 10000 3.01 67 15:19 24.11.2020
5232 Clouds 30 1011 60 10000 3.01 67 14:44 24.11.2020
5233 Clouds 30 1010 56 10000 2.83 61 13:34 24.11.2020
5234 Clouds 30 1009 55 10000 2.8 47 12:39 24.11.2020
5235 Clouds 31 1008 53 10000 2.26 54 11:59 24.11.2020
5236 Clouds 32 1008 53 10000 2.15 79 11:24 24.11.2020
5237 Clouds 32 1008 50 10000 1.93 94 10:25 24.11.2020
5238 Clouds 33 1008 48 10000 1.93 94 09:39 24.11.2020
5239 Clouds 32 1005 41 10000 1.86 87 08:58 24.11.2020
5240 Clear 33 1011 51 10000 2.85 74 05:53 24.11.2020
5241 Clouds 27 1012 83 9000 2.6 340 00:41 24.11.2020
5242 Clear 27 1010 71 10000 3.07 31 22:24 23.11.2020
5243 Clear 27 1010 70 10000 3.14 37 21:29 23.11.2020
5244 Clear 29 1010 69 10000 3.26 44 20:29 23.11.2020
5245 Clear 28 1010 69 10000 3.26 44 19:56 23.11.2020
5246 Clouds 29 1011 71 10000 3.96 59 17:53 23.11.2020
5247 Clouds 30 1011 69 10000 3.84 69 16:56 23.11.2020
5248 Clouds 29 1011 69 10000 3.38 76 14:50 23.11.2020
5249 Clouds 29 1011 70 10000 2.1 90 13:58 23.11.2020
5250 Rain 30 1010 66 10000 3.1 110 12:41 23.11.2020
5251 Clouds 30 1010 58 10000 3.6 30 11:59 23.11.2020
5252 Rain 31 1009 55 10000 4.6 20 11:40 23.11.2020
5253 Clouds 33 1008 62 10000 2 16 09:59 23.11.2020
5254 Clouds 34 1007 56 10000 1.92 56 08:58 23.11.2020
5255 Clouds 33 1008 56 10000 2.68 68 07:58 23.11.2020
5256 Rain 29 1015 62 10000 3.1 66 03:32 23.11.2020
5257 Mist 27 1012 94 5000 3.1 332 23:51 22.11.2020
5258 Rain 27 1010 82 10000 2.43 345 22:23 22.11.2020
5259 Rain 27 1010 80 10000 2.2 347 21:24 22.11.2020
5260 Rain 28 1010 78 10000 2.02 347 20:27 22.11.2020
5261 Clouds 28 1010 78 10000 1.7 354 19:29 22.11.2020
5262 Clouds 28 1011 77 10000 2.17 11 18:23 22.11.2020
5263 Clouds 30 1011 76 10000 2.16 46 16:26 22.11.2020
5264 Rain 30 1011 75 10000 2.13 39 15:27 22.11.2020
5265 Rain 30 1010 72 10000 1.13 16 13:32 22.11.2020
5266 Clouds 30 1010 74 10000 3.6 310 12:43 22.11.2020
5267 Clouds 32 1009 69 10000 0.38 195 11:54 22.11.2020
5268 Clouds 32 1008 64 10000 0.87 171 10:51 22.11.2020
5269 Rain 32 1008 62 10000 0.87 171 10:33 22.11.2020
5270 Rain 31 1014 88 8000 2.6 330 04:39 22.11.2020
5271 Rain 26 1010 90 10000 1.35 312 23:56 21.11.2020
5272 Rain 27 1010 83 10000 1.26 316 22:41 21.11.2020
5273 Rain 26 1010 94 10000 1 190 21:31 21.11.2020
5274 Rain 26 1011 94 10000 0.64 328 20:49 21.11.2020
5275 Thunderstorm 26 1010 94 10000 0.81 240 20:20 21.11.2020
5276 Rain 28 1009 87 10000 0.81 240 19:42 21.11.2020
5277 Rain 28 1009 85 10000 1.18 221 18:54 21.11.2020
5278 Rain 28 1010 84 10000 1.62 177 17:30 21.11.2020
5279 Rain 28 1010 82 6408 1.86 150 16:44 21.11.2020
5280 Clouds 28 1011 83 10000 2.1 180 15:40 21.11.2020
5281 Clouds 29 1011 78 10000 2.1 170 15:20 21.11.2020
5282 Rain 28 1011 83 10000 2.6 170 14:40 21.11.2020
5283 Clouds 29 1009 74 10000 5.7 130 12:44 21.11.2020
5284 Clouds 31 1009 62 10000 2.6 140 12:21 21.11.2020
5285 Clouds 31 1008 74 10000 1.04 173 11:36 21.11.2020
5286 Clouds 33 1007 70 10000 0.5 0 10:27 21.11.2020
5287 Clouds 33 1008 74 10000 4.1 250 08:52 21.11.2020
5288 Rain 33 1009 74 9000 6.2 200 07:58 21.11.2020
5289 Rain 32 1011 70 7000 2.6 0 05:40 21.11.2020
5290 Mist 30 1010 88 5000 1.82 352 01:56 21.11.2020
5291 Clouds 28 1009 94 8000 0.5 80 23:59 20.11.2020
5292 Clouds 28 1008 94 8000 0.5 90 22:31 20.11.2020
5293 Clouds 28 1008 88 8000 1.5 150 21:44 20.11.2020
5294 Clouds 28 1009 88 8000 0.5 0 21:21 20.11.2020
5295 Clouds 28 1009 88 8000 0.5 0 21:21 20.11.2020
5296 Rain 28 1009 88 8000 1 140 19:52 20.11.2020
5297 Clouds 28 1010 83 8000 1.5 180 18:53 20.11.2020
5298 Clouds 29 1010 79 8000 2.6 180 17:58 20.11.2020
5299 Clouds 30 1010 79 8000 3.6 200 17:29 20.11.2020
5300 Clouds 31 1010 74 9000 2.1 170 16:40 20.11.2020
5301 Rain 31 1010 70 9000 2.6 200 15:59 20.11.2020
5302 Clouds 31 1010 66 9000 3.1 230 15:34 20.11.2020
5303 Clouds 31 1008 67 10000 1.84 85 13:48 20.11.2020
5304 Clouds 31 1007 62 10000 1.8 76 13:19 20.11.2020
5305 Rain 32 1007 59 10000 1.8 76 12:39 20.11.2020
5306 Clouds 33 1007 55 10000 2.6 260 11:46 20.11.2020
5307 Clouds 33 1007 59 10000 3.6 260 11:20 20.11.2020
5308 Clouds 34 1003 49 10000 2.27 74 09:31 20.11.2020
5309 Rain 34 1006 58 10000 2.33 60 08:26 20.11.2020
5310 Rain 35 1007 61 10000 2.33 60 07:34 20.11.2020
5311 Clouds 32 1011 70 7000 1.5 60 03:44 20.11.2020
5312 Clouds 28 1008 78 10000 3.27 349 22:47 19.11.2020
5313 Rain 29 1008 78 10000 3.19 349 22:26 19.11.2020
5314 Clouds 30 1008 74 10000 1.5 210 21:46 19.11.2020
5315 Clouds 29 1009 70 10000 2.85 358 20:33 19.11.2020
5316 Rain 29 1009 70 10000 1.5 220 19:53 19.11.2020
5317 Rain 30 1009 66 10000 2.1 250 19:24 19.11.2020
5318 Clouds 30 1009 70 10000 2.6 180 17:40 19.11.2020
5319 Rain 31 1009 66 10000 2.1 280 16:54 19.11.2020
5320 Clouds 31 1009 66 10000 2.6 290 15:41 19.11.2020
5321 Rain 32 1007 55 10000 2.44 19 15:23 19.11.2020
5322 Rain 32 1007 54 10000 2.32 23 13:46 19.11.2020
5323 Clouds 33 1006 54 10000 2.13 32 13:20 19.11.2020
5324 Rain 33 1007 49 10000 2.6 120 12:40 19.11.2020
5325 Clouds 33 1006 46 10000 2.1 120 12:19 19.11.2020
5326 Rain 34 1006 46 10000 2.1 110 11:36 19.11.2020
5327 Rain 35 1006 46 10000 2.6 100 10:53 19.11.2020
5328 Rain 35 1005 40 10000 1.47 73 10:18 19.11.2020
5329 Rain 36 1002 47 10000 1.47 73 09:42 19.11.2020
5330 Rain 36 1002 46 10000 1.68 84 09:24 19.11.2020
5331 Rain 36 1003 49 10000 1.85 75 08:19 19.11.2020
5332 Clouds 29 1010 79 7000 2.03 358 02:44 19.11.2020
5333 Clouds 28 1010 88 9000 2.13 353 01:30 19.11.2020
5334 Clear 27 1009 83 10000 2.12 357 23:52 18.11.2020
5335 Clear 28 1009 78 10000 2.13 359 23:24 18.11.2020
5336 Clear 28 1009 83 10000 2.13 359 22:30 18.11.2020
5337 Clear 28 1009 78 10000 1.5 140 21:47 18.11.2020
5338 Clear 28 1009 78 10000 1.5 140 21:27 18.11.2020
5339 Clear 29 1009 78 10000 1.5 350 20:41 18.11.2020
5340 Clear 29 1010 70 10000 1.5 340 19:46 18.11.2020
5341 Rain 29 1010 70 10000 1.5 340 19:25 18.11.2020
5342 Clear 30 1010 66 10000 2.1 320 18:49 18.11.2020
5343 Clear 30 1010 70 10000 1.48 33 17:55 18.11.2020
5344 Clear 30 1010 70 10000 1.48 33 17:35 18.11.2020
5345 Clear 30 1010 66 10000 1.5 330 16:22 18.11.2020
5346 Clouds 31 1009 62 9000 2.1 320 14:49 18.11.2020
5347 Clouds 31 1009 62 9000 2.1 320 14:29 18.11.2020
5348 Clouds 31 1009 62 9000 2.6 320 13:37 18.11.2020
5349 Clouds 32 1008 59 8000 3.1 330 12:47 18.11.2020
5350 Clouds 32 1008 59 10000 3.6 350 12:18 18.11.2020
5351 Rain 33 1008 55 10000 2.1 360 11:25 18.11.2020
5352 Clouds 34 1007 52 10000 3.1 20 10:31 18.11.2020
5353 Clouds 35 1006 47 10000 1.08 41 08:52 18.11.2020
5354 Clouds 34 1007 47 10000 0.75 37 07:36 18.11.2020
5355 Clouds 34 1008 47 10000 1.7 18 06:28 18.11.2020
5356 Clouds 27 1009 83 9000 1.5 320 00:22 18.11.2020
5357 Clouds 27 1009 88 9000 2.63 347 23:30 17.11.2020
5358 Clouds 27 1009 83 10000 2.39 354 22:45 17.11.2020
5359 Clouds 27 1009 83 10000 2.33 355 22:27 17.11.2020
5360 Clouds 28 1009 78 10000 2.33 355 21:48 17.11.2020
5361 Clouds 28 1009 78 10000 2.27 355 21:28 17.11.2020
5362 Clouds 28 1009 78 10000 2.27 355 20:43 17.11.2020
5363 Clouds 28 1009 78 10000 2.12 2 20:23 17.11.2020
5364 Clouds 28 1009 78 10000 2.12 2 20:23 17.11.2020
5365 Clouds 29 1010 78 10000 2.12 2 19:44 17.11.2020
5366 Clouds 29 1010 74 10000 1.84 15 18:23 17.11.2020
5367 Clouds 29 1010 70 10000 1.84 15 17:31 17.11.2020
5368 Clouds 30 1010 70 10000 1.83 16 16:36 17.11.2020
5369 Clouds 30 1010 74 10000 1.5 10 15:57 17.11.2020
5370 Clouds 30 1010 66 10000 2.6 330 15:36 17.11.2020
5371 Clouds 30 1010 66 10000 2.6 340 14:58 17.11.2020
5372 Clear 31 1009 60 10000 3.5 13 14:29 17.11.2020
5373 Clear 31 1008 58 10000 3.5 13 13:45 17.11.2020
5374 Clouds 31 1009 59 10000 2.6 320 13:20 17.11.2020
5375 Clouds 32 1009 55 10000 2.1 60 12:41 17.11.2020
5376 Clouds 32 1008 52 10000 3.1 60 11:44 17.11.2020
5377 Clouds 33 1008 52 10000 2.6 60 10:56 17.11.2020
5378 Clouds 33 1008 52 10000 2.6 60 10:36 17.11.2020
5379 Clouds 33 1008 52 10000 1.5 30 09:51 17.11.2020
5380 Clouds 33 1006 49 10000 0.79 52 09:29 17.11.2020
5381 Clouds 34 1007 46 10000 1.19 38 08:25 17.11.2020
5382 Clouds 34 1007 48 10000 1.19 38 07:49 17.11.2020
5383 Clouds 34 1009 49 10000 1.81 20 06:54 17.11.2020
5384 Clouds 31 1013 62 9000 1.5 40 04:20 17.11.2020
5385 Clouds 29 1012 69 9000 1.5 50 02:53 17.11.2020
5386 Clouds 27 1011 83 9000 1.5 20 01:25 17.11.2020
5387 Clouds 27 1011 83 9000 1.5 20 01:25 17.11.2020
5388 Clouds 26 1011 88 9000 1.5 10 00:55 17.11.2020
5389 Clouds 26 1010 83 9000 2.75 337 23:49 16.11.2020
5390 Clouds 26 1010 83 9000 2.47 346 23:29 16.11.2020
5391 Clouds 26 1010 78 9000 1.5 330 22:47 16.11.2020
5392 Clouds 27 1010 83 9000 2.43 350 22:20 16.11.2020
5393 Clouds 27 1011 83 9000 1 40 21:46 16.11.2020
5394 Clouds 27 1011 83 9000 1 40 21:24 16.11.2020
5395 Clouds 27 1011 78 9000 1 80 20:38 16.11.2020
5396 Clouds 28 1011 78 9000 2.12 354 20:20 16.11.2020
5397 Clouds 28 1011 78 9000 2.12 354 19:38 16.11.2020
5398 Clouds 27 1011 78 9000 2.01 4 19:19 16.11.2020
5399 Rain 28 1012 78 9000 1.96 8 18:31 16.11.2020
5400 Clouds 28 1012 69 9000 2.1 80 17:47 16.11.2020
5401 Clouds 28 1012 69 9000 2.1 80 17:21 16.11.2020
5402 Clouds 29 1012 69 9000 2.6 70 16:53 16.11.2020
5403 Rain 30 1012 69 9000 2.6 70 16:28 16.11.2020
5404 Clouds 29 1012 66 10000 1.5 60 15:51 16.11.2020
5405 Rain 30 1012 66 10000 1.5 60 15:29 16.11.2020
5406 Clouds 29 1012 66 10000 1 60 14:55 16.11.2020
5407 Clouds 30 1011 66 10000 2.1 60 14:28 16.11.2020
5408 Clouds 30 1011 66 10000 2.6 70 13:30 16.11.2020
5409 Clouds 30 1010 58 10000 1.5 80 12:33 16.11.2020
5410 Clouds 31 1010 55 10000 3.1 100 11:43 16.11.2020
5411 Clouds 32 1010 52 10000 3.1 90 11:24 16.11.2020
5412 Clouds 32 1010 52 10000 3.6 90 10:46 16.11.2020
5413 Clouds 33 1008 49 10000 2.72 66 10:26 16.11.2020
5414 Clouds 33 1008 48 10000 2.72 66 09:53 16.11.2020
5415 Clouds 33 1008 47 10000 2.72 66 09:34 16.11.2020
5416 Clouds 32 1011 55 10000 3.6 60 08:48 16.11.2020
5417 Clouds 32 1011 55 10000 4.1 60 08:22 16.11.2020
5418 Clouds 32 1012 52 10000 4.1 60 07:34 16.11.2020
5419 Clouds 32 1010 49 10000 2.9 67 06:46 16.11.2020
5420 Clouds 32 1012 50 10000 2.59 52 05:49 16.11.2020
5421 Clouds 31 1013 53 10000 1.74 27 03:54 16.11.2020
5422 Clouds 25 1013 83 10000 2.1 70 01:45 16.11.2020
5423 Clouds 25 1012 83 10000 2.1 70 00:42 16.11.2020
5424 Clouds 25 1011 73 10000 1.5 100 23:32 15.11.2020
5425 Clouds 26 1011 78 10000 2.1 130 22:58 15.11.2020
5426 Clouds 26 1011 74 10000 1.5 110 22:26 15.11.2020
5427 Clouds 26 1011 74 10000 2.1 120 21:56 15.11.2020
5428 Clouds 26 1011 74 10000 2.6 130 21:36 15.11.2020
5429 Clouds 26 1011 74 10000 2.1 100 20:58 15.11.2020
5430 Clouds 27 1012 69 10000 2.6 110 20:39 15.11.2020
5431 Clouds 27 1012 69 10000 2.1 100 19:57 15.11.2020
5432 Clouds 27 1012 69 10000 2.1 90 19:38 15.11.2020
5433 Clouds 27 1012 69 10000 2.6 110 19:20 15.11.2020
5434 Clouds 28 1012 69 10000 2.6 110 18:45 15.11.2020
5435 Clouds 29 1012 69 10000 2.6 110 18:25 15.11.2020
5436 Clouds 28 1012 69 10000 2.6 90 17:57 15.11.2020
5437 Clouds 28 1012 61 10000 3.6 90 17:39 15.11.2020
5438 Clouds 29 1012 61 10000 1 0 17:19 15.11.2020
5439 Clouds 29 1012 58 10000 1.67 65 16:39 15.11.2020
5440 Clouds 29 1012 48 10000 1.91 39 16:18 15.11.2020
5441 Clouds 29 1012 51 10000 1.91 39 15:43 15.11.2020
5442 Clear 30 1011 45 10000 2.24 21 15:23 15.11.2020
5443 Clear 29 1011 45 10000 2.24 21 14:51 15.11.2020
5444 Clear 29 1011 51 10000 2.59 10 14:26 15.11.2020
5445 Clear 29 1010 51 10000 1.5 140 13:42 15.11.2020
5446 Clear 30 1010 48 10000 2.1 130 13:18 15.11.2020
5447 Clear 30 1010 48 10000 2.1 90 12:46 15.11.2020
5448 Clear 30 1009 48 10000 2.1 50 12:19 15.11.2020
5449 Clear 31 1009 45 10000 3.1 60 11:44 15.11.2020
5450 Clear 31 1009 43 10000 2.1 90 11:18 15.11.2020
5451 Clear 31 1009 43 10000 2.1 90 11:18 15.11.2020
5452 Clear 32 1009 45 10000 3.6 30 10:50 15.11.2020
5453 Clear 32 1009 45 10000 3.6 30 10:30 15.11.2020
5454 Clear 32 1009 43 10000 3.1 10 09:46 15.11.2020
5455 Clear 32 1009 43 10000 3.1 10 09:46 15.11.2020
5456 Clear 33 1009 43 10000 3.1 10 09:24 15.11.2020
5457 Clear 33 1010 38 10000 3.6 10 08:54 15.11.2020
5458 Clear 33 1010 38 10000 3.6 10 08:54 15.11.2020
5459 Clear 33 1010 38 10000 3.1 20 08:32 15.11.2020
5460 Clear 33 1011 38 10000 2.1 30 07:44 15.11.2020
5461 Clouds 32 1011 36 10000 2.9 20 05:37 15.11.2020
5462 Clouds 31 1014 39 10000 3.08 20 04:52 15.11.2020
5463 Clouds 24 1012 73 8000 2.89 354 01:37 15.11.2020
5464 Clouds 25 1011 69 10000 1.5 310 00:30 15.11.2020
5465 Clouds 23 1011 73 10000 2.1 340 23:42 14.11.2020
5466 Clouds 24 1011 73 10000 1 350 22:53 14.11.2020
5467 Clouds 24 1011 69 10000 2.6 310 22:33 14.11.2020
5468 Clouds 24 1011 60 10000 1.5 320 21:55 14.11.2020
5469 Clouds 24 1011 60 10000 2.11 360 21:36 14.11.2020
5470 Clouds 25 1011 60 10000 2.13 349 21:18 14.11.2020
5471 Clouds 25 1011 61 10000 2.13 349 20:34 14.11.2020
5472 Clouds 25 1011 61 10000 2.43 346 19:58 14.11.2020
5473 Clouds 25 1011 65 10000 2.43 346 19:36 14.11.2020
5474 Clouds 25 1011 65 10000 2.43 346 19:36 14.11.2020
5475 Clouds 26 1012 61 10000 2.26 1 18:55 14.11.2020
5476 Clouds 26 1012 57 10000 1.5 10 18:37 14.11.2020
5477 Clouds 26 1012 57 10000 1.5 20 18:19 14.11.2020
5478 Clouds 27 1012 57 10000 2.49 16 17:42 14.11.2020
5479 Clouds 27 1012 61 10000 2.6 50 17:23 14.11.2020
5480 Clouds 26 1012 61 10000 3.1 40 16:46 14.11.2020
5481 Clouds 26 1012 61 10000 3.1 40 16:26 14.11.2020
5482 Clouds 26 1012 61 10000 2.6 40 15:53 14.11.2020
5483 Clouds 28 1010 43 10000 3.57 19 15:30 14.11.2020
5484 Clouds 28 1011 48 10000 2.1 350 14:50 14.11.2020
5485 Rain 28 1011 48 10000 2.1 350 14:26 14.11.2020
5486 Clouds 29 1010 39 10000 2.6 340 13:49 14.11.2020
5487 Clouds 29 1010 39 10000 2.6 340 13:27 14.11.2020
5488 Clouds 29 1009 37 10000 3.6 20 12:49 14.11.2020
5489 Clouds 29 1009 37 10000 3.6 20 12:30 14.11.2020
5490 Clouds 29 1009 40 10000 3.1 30 11:48 14.11.2020
5491 Clouds 31 1009 40 10000 3.1 30 11:30 14.11.2020
5492 Clouds 32 1007 35 10000 4.45 19 10:50 14.11.2020
5493 Clouds 32 1009 38 10000 4.6 20 10:27 14.11.2020
5494 Clouds 32 1009 38 10000 4.6 20 10:27 14.11.2020
5495 Clouds 32 1009 38 10000 2.6 360 09:56 14.11.2020
5496 Clouds 30 1009 35 10000 3.6 360 09:38 14.11.2020
5497 Clouds 31 1009 38 10000 3.1 30 09:19 14.11.2020
5498 Clear 32 1010 40 10000 3.6 350 08:39 14.11.2020
5499 Clear 32 1011 40 10000 3.1 360 07:52 14.11.2020
5500 Clear 31 1011 48 10000 4.1 340 07:31 14.11.2020
5501 Clear 31 1012 45 10000 3.6 350 06:36 14.11.2020
5502 Clear 31 1012 45 10000 3.6 350 06:36 14.11.2020
5503 Clouds 29 1011 38 10000 2.99 20 05:52 14.11.2020
5504 Clear 28 1014 51 10000 1.5 10 04:22 14.11.2020
5505 Clouds 24 1012 69 9000 2.73 39 01:25 14.11.2020
5506 Clouds 23 1011 78 9000 1.5 10 23:50 13.11.2020
5507 Clouds 23 1011 78 9000 1.5 10 23:29 13.11.2020
5508 Clouds 24 1011 73 9000 2.1 360 22:55 13.11.2020
5509 Clouds 24 1011 73 9000 2.1 360 22:55 13.11.2020
5510 Clouds 24 1011 69 10000 3.17 23 22:29 13.11.2020
5511 Clouds 24 1011 69 10000 3.17 23 21:59 13.11.2020
5512 Clouds 25 1011 73 10000 3.17 23 21:41 13.11.2020
5513 Clouds 25 1011 69 10000 2.87 19 21:22 13.11.2020
5514 Clouds 25 1012 69 10000 1 30 20:44 13.11.2020
5515 Clouds 26 1012 61 10000 2.22 21 20:23 13.11.2020
5516 Clouds 26 1012 65 10000 1.5 40 19:47 13.11.2020
5517 Clouds 25 1012 65 10000 1.5 40 19:24 13.11.2020
5518 Clouds 26 1013 65 10000 2.1 80 18:58 13.11.2020
5519 Clouds 26 1013 65 10000 2.1 80 18:26 13.11.2020
5520 Clouds 26 1013 65 10000 3.1 50 17:43 13.11.2020
5521 Clouds 26 1013 65 10000 3.1 50 17:43 13.11.2020
5522 Clouds 26 1013 65 10000 3.1 50 17:43 13.11.2020
5523 Clouds 26 1013 69 10000 2.1 50 17:19 13.11.2020
5524 Clouds 27 1013 65 10000 2.1 70 16:50 13.11.2020
5525 Clouds 27 1013 65 10000 2.1 70 16:50 13.11.2020
5526 Clouds 27 1012 61 10000 3.1 60 16:24 13.11.2020
5527 Clouds 27 1012 61 10000 3.1 60 15:52 13.11.2020
5528 Clouds 27 1012 61 10000 3.1 50 15:32 13.11.2020
5529 Clouds 28 1012 54 9000 4.1 50 14:50 13.11.2020
5530 Clouds 28 1012 54 9000 4.1 50 14:25 13.11.2020
5531 Clouds 28 1011 54 9000 3.6 30 13:53 13.11.2020
5532 Clouds 29 1011 51 9000 4.1 30 13:27 13.11.2020
5533 Clouds 30 1010 51 9000 4.6 20 12:48 13.11.2020
5534 Clouds 30 1010 51 9000 4.6 20 12:25 13.11.2020
5535 Clouds 30 1009 45 9000 4.1 340 11:50 13.11.2020
5536 Clouds 31 1009 45 9000 4.1 340 11:32 13.11.2020
5537 Clouds 31 1008 41 10000 3.66 35 10:58 13.11.2020
5538 Clouds 32 1008 39 10000 3.66 35 10:39 13.11.2020
5539 Clouds 32 1008 39 10000 2.84 30 10:21 13.11.2020
5540 Clouds 32 1009 43 10000 3.1 320 09:42 13.11.2020
5541 Clouds 32 1010 38 10000 2.6 110 09:20 13.11.2020
5542 Clouds 32 1010 38 10000 1.5 0 08:50 13.11.2020
5543 Clouds 32 1011 40 10000 1.5 0 08:20 13.11.2020
5544 Clouds 32 1011 43 10000 2.1 350 07:44 13.11.2020
5545 Clouds 32 1011 43 10000 2.1 350 07:26 13.11.2020
5546 Clouds 31 1013 43 10000 2.1 240 06:49 13.11.2020
5547 Clouds 31 1011 38 10000 4.54 49 05:43 13.11.2020
5548 Clouds 30 1011 40 10000 5.46 62 05:23 13.11.2020
5549 Clouds 25 1013 78 9000 2.29 43 01:45 13.11.2020
5550 Clouds 24 1012 78 9000 2.94 16 00:51 13.11.2020
5551 Clouds 24 1012 78 9000 1 70 00:31 13.11.2020
5552 Clouds 24 1012 83 9000 2.1 40 23:38 12.11.2020
5553 Clouds 24 1012 83 9000 3.6 40 23:19 12.11.2020
5554 Clouds 24 1012 83 9000 3.1 30 22:48 12.11.2020
5555 Clouds 24 1012 83 9000 3.1 30 22:30 12.11.2020
5556 Clouds 24 1012 83 9000 2.6 20 21:43 12.11.2020
5557 Clouds 24 1012 83 9000 2.6 20 21:24 12.11.2020
5558 Clouds 24 1012 83 9000 2.6 20 20:58 12.11.2020
5559 Clouds 25 1012 78 9000 2.1 350 20:39 12.11.2020
5560 Clouds 25 1013 78 9000 2.6 350 20:19 12.11.2020
5561 Clouds 25 1013 78 9000 3.1 330 19:44 12.11.2020
5562 Clouds 25 1013 78 9000 3.1 330 19:26 12.11.2020
5563 Clouds 25 1014 78 9000 3.1 10 18:48 12.11.2020
5564 Clouds 25 1014 78 9000 2.1 360 18:23 12.11.2020
5565 Rain 25 1014 78 9000 2.6 340 17:45 12.11.2020
5566 Clouds 25 1014 78 9000 2.6 10 17:26 12.11.2020
5567 Clouds 25 1014 78 9000 3.1 10 16:47 12.11.2020
5568 Rain 25 1014 78 9000 3.1 10 16:26 12.11.2020
5569 Rain 25 1014 78 9000 3.1 20 15:57 12.11.2020
5570 Rain 25 1014 78 9000 3.1 30 15:39 12.11.2020
5571 Rain 26 1012 71 10000 4.1 26 15:20 12.11.2020
5572 Clouds 26 1012 71 10000 4.1 26 14:43 12.11.2020
5573 Clouds 27 1012 71 10000 3.82 26 14:25 12.11.2020
5574 Clouds 27 1012 70 10000 3.82 26 13:49 12.11.2020
5575 Clouds 27 1011 70 10000 4.22 30 13:21 12.11.2020
5576 Clouds 27 1011 70 10000 4.22 30 12:59 12.11.2020
5577 Clouds 26 1011 70 10000 4.22 30 12:38 12.11.2020
5578 Clouds 27 1011 70 10000 4.79 25 12:18 12.11.2020
5579 Clouds 27 1010 70 10000 4.79 25 11:42 12.11.2020
5580 Clouds 28 1011 70 10000 4.52 26 11:22 12.11.2020
5581 Clouds 28 1010 69 10000 4.52 26 10:41 12.11.2020
5582 Rain 28 1010 69 10000 4.33 42 10:23 12.11.2020
5583 Clouds 28 1010 69 10000 4.33 42 09:42 12.11.2020
5584 Rain 28 1010 68 10000 4.29 48 09:22 12.11.2020
5585 Clouds 29 1010 68 10000 4.29 48 08:41 12.11.2020
5586 Rain 29 1010 67 10000 4.57 57 08:22 12.11.2020
5587 Rain 29 1010 67 10000 4.57 57 08:21 12.11.2020
5588 Clouds 29 1010 67 10000 4.57 57 07:59 12.11.2020
5589 Clouds 28 1011 67 10000 4.57 57 07:40 12.11.2020
5590 Clouds 28 1011 67 10000 4.41 64 06:58 12.11.2020
5591 Clouds 28 1012 68 10000 4.41 64 06:40 12.11.2020
5592 Clouds 26 1015 73 10000 3.6 20 04:39 12.11.2020
5593 Clouds 24 1014 78 10000 4.6 30 03:20 12.11.2020
5594 Clouds 23 1013 78 10000 3.6 60 00:54 12.11.2020
5595 Clouds 23 1012 78 10000 4.6 30 23:47 11.11.2020
5596 Rain 23 1012 78 10000 4.6 30 23:25 11.11.2020
5597 Clouds 24 1012 78 10000 4.6 30 22:57 11.11.2020
5598 Clouds 24 1012 78 10000 3.6 30 22:38 11.11.2020
5599 Clouds 24 1012 78 10000 3.6 40 22:18 11.11.2020
5600 Clouds 24 1012 73 10000 5.1 20 21:41 11.11.2020
5601 Clouds 24 1012 73 10000 5.1 20 21:23 11.11.2020
5602 Clouds 24 1012 73 10000 5.7 20 20:55 11.11.2020
5603 Clouds 24 1013 73 10000 4.6 20 20:37 11.11.2020
5604 Clouds 24 1013 73 10000 5.1 10 20:18 11.11.2020
5605 Clouds 24 1013 73 10000 4.6 20 19:46 11.11.2020
5606 Clouds 24 1013 73 10000 4.6 20 19:28 11.11.2020
5607 Clouds 24 1014 73 10000 4.1 20 18:47 11.11.2020
5608 Clouds 24 1014 73 10000 4.1 20 18:27 11.11.2020
5609 Clouds 24 1014 73 10000 4.6 10 17:41 11.11.2020
5610 Clouds 24 1014 78 10000 4.1 10 17:22 11.11.2020
5611 Clouds 24 1014 78 10000 4.6 10 16:46 11.11.2020
5612 Clouds 24 1014 78 10000 4.6 10 16:28 11.11.2020
5613 Clouds 24 1014 78 10000 4.6 10 15:47 11.11.2020
5614 Clouds 25 1013 78 10000 5.1 20 15:26 11.11.2020
5615 Clouds 25 1013 78 10000 5.1 20 14:52 11.11.2020
5616 Clouds 25 1013 73 10000 6.2 10 14:33 11.11.2020
5617 Clouds 25 1012 73 10000 5.7 10 13:55 11.11.2020
5618 Clouds 25 1012 73 10000 6.7 10 13:33 11.11.2020
5619 Clouds 25 1011 78 10000 8.7 20 12:41 11.11.2020
5620 Clouds 26 1011 69 10000 9.8 20 12:20 11.11.2020
5621 Clouds 26 1011 69 10000 7.2 20 11:49 11.11.2020
5622 Clouds 26 1011 69 10000 7.2 20 11:29 11.11.2020
5623 Clouds 27 1011 65 10000 8.7 20 10:40 11.11.2020
5624 Clouds 27 1011 65 10000 8.7 20 10:21 11.11.2020
5625 Clouds 27 1011 61 10000 8.2 10 09:45 11.11.2020
5626 Clouds 28 1011 61 10000 8.2 10 09:26 11.11.2020
5627 Clouds 28 1012 61 10000 9.3 10 08:46 11.11.2020
5628 Clouds 28 1010 50 10000 7.15 25 08:27 11.11.2020
5629 Rain 28 1010 52 10000 7.15 25 07:49 11.11.2020
5630 Clouds 27 1011 52 10000 7.42 18 07:18 11.11.2020
5631 Clouds 26 1014 65 10000 8.7 10 06:26 11.11.2020
5632 Clouds 24 1016 73 10000 7.2 10 03:57 11.11.2020
5633 Clouds 26 1013 57 10000 4.6 20 01:31 11.11.2020
5634 Clouds 26 1012 57 10000 4.1 20 00:28 11.11.2020
5635 Clear 26 1012 57 10000 4.1 20 23:49 10.11.2020
5636 Clear 26 1011 57 10000 4.6 10 23:24 10.11.2020
5637 Clear 26 1011 57 10000 4.6 10 22:57 10.11.2020
5638 Clear 26 1011 57 10000 4.1 20 22:27 10.11.2020
5639 Clear 26 1011 57 10000 3.6 20 21:44 10.11.2020
5640 Clear 26 1011 57 10000 3.6 20 21:25 10.11.2020
5641 Clear 26 1012 57 10000 4.1 20 20:59 10.11.2020
5642 Clear 26 1012 57 10000 4.1 20 20:41 10.11.2020
5643 Clear 27 1012 54 10000 4.1 20 20:22 10.11.2020
5644 Clear 27 1012 54 10000 4.1 10 19:47 10.11.2020
5645 Rain 27 1012 54 10000 4.1 10 19:28 10.11.2020
5646 Rain 27 1013 54 10000 4.1 10 18:58 10.11.2020
5647 Clear 27 1013 57 10000 3.6 10 18:39 10.11.2020
5648 Clear 27 1013 61 10000 3.1 20 18:18 10.11.2020
5649 Clear 27 1013 61 10000 3.1 20 17:43 10.11.2020
5650 Rain 27 1013 61 10000 3.6 30 17:25 10.11.2020
5651 Clear 28 1013 57 10000 3.1 10 16:44 10.11.2020
5652 Rain 27 1012 61 10000 2.6 40 16:24 10.11.2020
5653 Clear 27 1012 61 10000 2.6 40 15:56 10.11.2020
5654 Clear 28 1012 61 10000 3.1 50 15:37 10.11.2020
5655 Clear 28 1012 57 10000 3.6 50 15:19 10.11.2020
5656 Clear 28 1011 57 10000 3.1 40 14:41 10.11.2020
5657 Clear 28 1011 57 10000 4.1 30 14:21 10.11.2020
5658 Clear 29 1010 54 10000 3.6 30 13:41 10.11.2020
5659 Clear 29 1010 51 10000 4.6 20 13:23 10.11.2020
5660 Clear 29 1010 51 10000 4.6 20 12:58 10.11.2020
5661 Clear 29 1009 48 10000 5.1 10 12:38 10.11.2020
5662 Clear 30 1009 42 10000 6.2 10 12:20 10.11.2020
5663 Clear 31 1008 45 10000 4.6 10 11:38 10.11.2020
5664 Clear 31 1008 43 10000 3.6 30 11:19 10.11.2020
5665 Clear 31 1008 43 10000 3.1 40 10:42 10.11.2020
5666 Clear 31 1008 43 10000 3.1 40 10:24 10.11.2020
5667 Clouds 32 1008 45 10000 2.1 0 09:49 10.11.2020
5668 Clouds 32 1008 45 10000 2.1 0 09:26 10.11.2020
5669 Clouds 32 1009 45 10000 2.6 50 08:57 10.11.2020
5670 Clouds 32 1009 45 10000 2.1 50 08:30 10.11.2020
5671 Clouds 32 1010 45 10000 2.6 40 07:47 10.11.2020
5672 Clouds 31 1010 45 10000 2.6 40 07:27 10.11.2020
5673 Clouds 32 1011 48 10000 3.1 10 06:58 10.11.2020
5674 Clouds 31 1011 55 10000 3.6 70 06:37 10.11.2020
5675 Clouds 30 1012 54 10000 3.1 40 05:27 10.11.2020
5676 Clouds 27 1013 69 10000 3.1 30 02:57 10.11.2020
5677 Clouds 25 1013 83 10000 3.1 20 01:38 10.11.2020
5678 Clouds 24 1012 83 10000 1.5 30 00:24 10.11.2020
5679 Clouds 25 1011 78 10000 1.5 30 23:42 09.11.2020
5680 Clouds 25 1011 78 10000 1.85 35 22:57 09.11.2020
5681 Clouds 25 1011 78 10000 2.1 50 22:38 09.11.2020
5682 Clouds 25 1011 78 10000 2.1 50 22:19 09.11.2020
5683 Clouds 25 1011 78 10000 2.1 50 22:19 09.11.2020
5684 Clouds 25 1012 78 10000 2.6 30 21:40 09.11.2020
5685 Clouds 25 1011 73 10000 3.1 60 21:20 09.11.2020
5686 Clouds 26 1012 78 10000 2.1 40 20:41 09.11.2020
5687 Clouds 26 1012 73 10000 2.6 50 20:21 09.11.2020
5688 Clouds 26 1013 73 10000 2.6 30 19:43 09.11.2020
5689 Clouds 26 1013 73 10000 2.6 30 19:23 09.11.2020
5690 Rain 26 1013 69 10000 2.1 40 18:56 09.11.2020
5691 Rain 26 1013 69 10000 2.1 40 18:56 09.11.2020
5692 Clouds 26 1013 73 10000 2.1 40 18:37 09.11.2020
5693 Clouds 27 1013 73 10000 2.1 50 18:18 09.11.2020
5694 Clouds 27 1013 74 10000 2.6 40 17:42 09.11.2020
5695 Rain 27 1013 74 10000 2.1 30 17:24 09.11.2020
5696 Clouds 27 1013 74 10000 2.6 30 16:41 09.11.2020
5697 Clouds 28 1013 65 10000 3.1 60 16:20 09.11.2020
5698 Clouds 28 1013 61 10000 3.1 60 15:42 09.11.2020
5699 Rain 28 1013 61 10000 3.1 60 15:24 09.11.2020
5700 Clouds 29 1012 61 10000 3.6 60 14:46 09.11.2020
5701 Rain 29 1012 61 10000 3.6 60 14:27 09.11.2020
5702 Clouds 29 1012 65 10000 3.6 30 13:52 09.11.2020
5703 Clouds 29 1011 58 10000 4.1 30 13:21 09.11.2020
5704 Clouds 30 1010 58 10000 3.6 50 12:50 09.11.2020
5705 Clouds 30 1010 58 10000 3.6 50 12:26 09.11.2020
5706 Clouds 30 1010 58 10000 3.6 30 11:59 09.11.2020
5707 Clouds 30 1010 55 10000 4.1 30 11:41 09.11.2020
5708 Clouds 31 1010 55 10000 4.6 40 11:22 09.11.2020
5709 Clouds 31 1009 55 10000 3.6 30 10:43 09.11.2020
5710 Clouds 31 1009 52 10000 3.6 30 10:24 09.11.2020
5711 Clouds 32 1008 45 10000 3.81 55 09:51 09.11.2020
5712 Clouds 32 1008 45 10000 3.64 54 09:25 09.11.2020
5713 Clouds 32 1010 52 10000 3.1 60 08:44 09.11.2020
5714 Clouds 32 1011 48 10000 5.1 60 08:21 09.11.2020
5715 Clouds 32 1009 45 10000 3.99 59 07:41 09.11.2020
5716 Clouds 32 1009 45 10000 4.31 64 07:21 09.11.2020
5717 Clouds 31 1010 46 10000 3.74 58 06:37 09.11.2020
5718 Clouds 29 1014 61 9000 5.1 50 03:31 09.11.2020
5719 Clouds 27 1013 78 9000 3.1 30 01:44 09.11.2020
5720 Clouds 25 1013 83 9000 2.6 20 00:59 09.11.2020
5721 Clear 25 1012 83 10000 2.6 50 23:53 08.11.2020
5722 Clear 25 1012 83 10000 2.6 50 23:53 08.11.2020
5723 Clear 25 1011 78 10000 3.1 40 23:30 08.11.2020
5724 Clear 25 1012 78 10000 3.1 50 22:55 08.11.2020
5725 Clear 25 1012 78 10000 2.6 30 22:36 08.11.2020
5726 Clear 25 1012 78 10000 2.1 20 22:18 08.11.2020
5727 Clouds 25 1012 78 10000 3.1 10 21:38 08.11.2020
5728 Clouds 25 1012 78 10000 2.6 10 21:19 08.11.2020
5729 Clouds 26 1012 78 10000 3.1 360 20:39 08.11.2020
5730 Clouds 26 1012 78 10000 3.1 360 20:39 08.11.2020
5731 Clouds 26 1013 78 10000 2.6 350 20:21 08.11.2020
5732 Clouds 26 1013 78 10000 2.6 350 19:57 08.11.2020
5733 Clouds 26 1013 78 10000 2.6 10 19:39 08.11.2020
5734 Clouds 27 1013 74 10000 2.6 10 19:20 08.11.2020
5735 Clouds 27 1013 74 10000 2.1 20 18:47 08.11.2020
5736 Clouds 27 1014 74 10000 2.1 40 18:21 08.11.2020
5737 Clouds 27 1014 74 10000 2.1 40 17:57 08.11.2020
5738 Clouds 27 1014 74 10000 2.6 50 17:37 08.11.2020
5739 Rain 28 1014 69 10000 2.6 50 17:19 08.11.2020
5740 Clouds 28 1014 69 10000 2.6 50 16:47 08.11.2020
5741 Clouds 28 1014 65 10000 2.6 70 16:21 08.11.2020
5742 Rain 28 1014 65 10000 2.6 70 15:56 08.11.2020
5743 Clouds 28 1013 65 10000 2.6 60 15:38 08.11.2020
5744 Clouds 29 1013 61 10000 3.1 50 15:19 08.11.2020
5745 Clouds 29 1013 58 10000 4.1 50 14:38 08.11.2020
5746 Clouds 29 1012 58 10000 5.1 50 14:20 08.11.2020
5747 Clouds 29 1012 58 10000 4.1 50 13:45 08.11.2020
5748 Clouds 29 1012 58 10000 4.1 50 13:45 08.11.2020
5749 Clouds 29 1012 62 10000 4.1 40 13:21 08.11.2020
5750 Clouds 30 1011 58 10000 3.1 80 12:42 08.11.2020
5751 Clouds 30 1011 58 10000 3.1 80 12:42 08.11.2020
5752 Clouds 30 1011 58 10000 3.1 80 12:24 08.11.2020
5753 Clouds 30 1011 58 10000 3.1 90 11:57 08.11.2020
5754 Clouds 30 1011 62 10000 4.6 70 11:38 08.11.2020
5755 Clouds 30 1011 58 10000 3.6 60 11:20 08.11.2020
5756 Clouds 30 1011 58 10000 4.1 70 10:49 08.11.2020
5757 Clouds 31 1011 55 10000 3.6 50 10:18 08.11.2020
5758 Clouds 30 1011 55 10000 3.6 60 09:42 08.11.2020
5759 Clouds 31 1011 55 10000 3.6 60 09:24 08.11.2020
5760 Clouds 30 1012 58 10000 4.1 330 08:49 08.11.2020
5761 Clouds 30 1012 58 10000 4.1 330 08:30 08.11.2020
5762 Rain 30 1012 62 10000 4.1 320 07:53 08.11.2020
5763 Clouds 30 1013 62 10000 2.6 0 07:33 08.11.2020
5764 Clouds 29 1014 58 10000 2.6 60 06:50 08.11.2020
5765 Clouds 29 1012 51 10000 4.83 71 05:55 08.11.2020
5766 Clouds 29 1015 58 10000 4.6 80 05:26 08.11.2020
5767 Clear 28 1015 61 10000 4.6 90 03:39 08.11.2020
5768 Mist 26 1014 88 4000 2.59 45 01:49 08.11.2020
5769 Mist 26 1014 88 4000 1.5 320 01:18 08.11.2020
5770 Clouds 25 1013 94 6000 1 250 00:23 08.11.2020
5771 Clouds 26 1013 88 6000 1.5 290 23:43 07.11.2020
5772 Clouds 25 1013 94 6000 1 220 23:24 07.11.2020
5773 Clouds 25 1013 94 7000 1 230 22:41 07.11.2020
5774 Clouds 25 1013 88 8000 2.1 270 22:21 07.11.2020
5775 Clouds 25 1013 88 8000 2.6 250 21:45 07.11.2020
5776 Clouds 27 1013 88 8000 2.1 270 21:21 07.11.2020
5777 Clouds 27 1013 88 8000 2.1 260 20:50 07.11.2020
5778 Clouds 27 1013 88 8000 2.1 260 20:31 07.11.2020
5779 Rain 27 1013 83 9000 2.1 270 19:51 07.11.2020
5780 Rain 28 1012 82 10000 5.28 59 19:29 07.11.2020
5781 Clouds 27 1014 88 9000 0.5 0 18:58 07.11.2020
5782 Clouds 28 1012 79 10000 5.28 59 18:38 07.11.2020
5783 Rain 28 1012 79 10000 4.35 62 18:19 07.11.2020
5784 Clouds 28 1012 80 10000 4.35 62 17:40 07.11.2020
5785 Clouds 28 1012 79 10000 3.13 62 17:22 07.11.2020
5786 Clouds 28 1013 79 10000 3.13 62 16:42 07.11.2020
5787 Rain 28 1012 79 10000 2.7 52 16:23 07.11.2020
5788 Clouds 28 1012 79 10000 2.7 52 15:43 07.11.2020
5789 Rain 28 1012 79 10000 3.11 37 15:23 07.11.2020
5790 Clouds 28 1012 79 10000 3.11 37 14:48 07.11.2020
5791 Clouds 28 1012 78 10000 3.11 37 14:30 07.11.2020
5792 Rain 27 1013 83 8000 2.1 150 13:59 07.11.2020
5793 Clouds 27 1013 83 8000 2.1 150 13:31 07.11.2020
5794 Rain 26 1012 78 8000 1.5 130 12:58 07.11.2020
5795 Rain 28 1012 78 10000 2.6 130 12:30 07.11.2020
5796 Clouds 28 1011 74 10000 3.1 130 11:45 07.11.2020
5797 Rain 28 1011 74 10000 3.1 130 11:24 07.11.2020
5798 Clouds 29 1011 69 10000 2.6 130 10:46 07.11.2020
5799 Clouds 29 1011 69 10000 3.1 120 10:28 07.11.2020
5800 Rain 29 1011 69 10000 3.1 120 09:58 07.11.2020
5801 Clouds 29 1011 74 10000 2.6 120 09:37 07.11.2020
5802 Clouds 29 1011 74 10000 2.6 110 08:58 07.11.2020
5803 Clouds 29 1011 66 10000 4.1 80 08:37 07.11.2020
5804 Clouds 29 1012 70 10000 3.1 60 08:18 07.11.2020
5805 Clouds 29 1012 70 10000 3.1 80 07:32 07.11.2020
5806 Clouds 29 1013 70 10000 2.6 60 06:48 07.11.2020
5807 Clouds 29 1012 59 10000 4.32 64 05:37 07.11.2020
5808 Clouds 28 1015 74 10000 2.1 60 03:25 07.11.2020
5809 Clouds 27 1013 83 10000 2.6 30 01:44 07.11.2020
5810 Clouds 27 1013 83 10000 2.6 30 01:25 07.11.2020
5811 Clouds 28 1012 83 10000 3.1 30 00:27 07.11.2020
5812 Clouds 28 1012 78 10000 1.5 360 23:25 06.11.2020
5813 Clouds 28 1012 78 10000 1.5 10 22:45 06.11.2020
5814 Clouds 28 1010 65 10000 2.71 34 22:20 06.11.2020
5815 Clouds 28 1010 65 10000 2.71 34 21:58 06.11.2020
5816 Clouds 28 1010 65 10000 2.71 34 21:40 06.11.2020
5817 Clouds 28 1012 69 10000 2.36 24 21:18 06.11.2020
5818 Clouds 28 1010 64 10000 2.36 24 20:43 06.11.2020
5819 Clouds 28 1010 64 10000 2.69 24 20:19 06.11.2020
5820 Clouds 28 1011 63 10000 2.69 24 19:45 06.11.2020
5821 Clouds 28 1012 83 10000 2.92 12 19:26 06.11.2020
5822 Clear 29 1011 62 10000 2.92 12 18:47 06.11.2020
5823 Clouds 29 1011 62 10000 2.83 23 18:47 06.11.2020
5824 Clear 29 1011 62 10000 3.08 33 18:26 06.11.2020
5825 Clear 29 1011 62 10000 3.08 33 17:52 06.11.2020
5826 Clear 29 1011 62 10000 3.08 33 17:31 06.11.2020
5827 Clear 29 1011 63 10000 3.14 46 16:58 06.11.2020
5828 Clear 30 1011 63 10000 3.14 46 16:33 06.11.2020
5829 Clear 29 1011 64 10000 3.74 47 15:55 06.11.2020
5830 Clear 29 1011 63 10000 3.74 47 15:33 06.11.2020
5831 Rain 29 1011 62 10000 3.62 49 14:54 06.11.2020
5832 Clear 29 1011 63 10000 3.82 58 14:28 06.11.2020
5833 Clear 30 1010 63 10000 3.82 58 13:50 06.11.2020
5834 Rain 30 1010 63 10000 3.9 63 13:26 06.11.2020
5835 Clouds 30 1009 62 10000 3.9 63 12:55 06.11.2020
5836 Clouds 31 1009 61 10000 4.51 65 12:36 06.11.2020
5837 Rain 29 1011 94 7000 5.7 330 12:18 06.11.2020
5838 Rain 31 1010 62 10000 4.6 20 11:36 06.11.2020
5839 Clouds 31 1008 52 10000 4.3 68 10:52 06.11.2020
5840 Clouds 32 1008 52 10000 4.3 68 10:32 06.11.2020
5841 Clouds 32 1008 51 10000 3.71 50 09:50 06.11.2020
5842 Clouds 32 1008 50 10000 2.96 28 09:28 06.11.2020
5843 Clouds 33 1008 48 10000 2.96 28 08:58 06.11.2020
5844 Clouds 33 1009 49 10000 2.96 28 08:40 06.11.2020
5845 Clouds 33 1009 47 10000 2.72 356 08:18 06.11.2020
5846 Clouds 33 1010 47 10000 2.72 356 07:40 06.11.2020
5847 Clear 32 1010 47 10000 2.3 348 07:18 06.11.2020
5848 Clear 32 1010 47 10000 2.3 348 07:18 06.11.2020
5849 Clear 33 1011 46 10000 2.46 5 06:39 06.11.2020
5850 Clear 32 1012 47 10000 2.29 344 05:36 06.11.2020
5851 Clouds 26 1013 83 10000 2.6 330 01:45 06.11.2020
5852 Clouds 26 1012 83 10000 2.53 357 00:24 06.11.2020
5853 Clouds 26 1011 83 10000 2.53 357 23:47 05.11.2020
5854 Clouds 26 1011 83 10000 1 50 23:19 05.11.2020
5855 Clouds 26 1011 83 10000 1 30 22:42 05.11.2020
5856 Clouds 26 1011 83 10000 2.81 356 22:24 05.11.2020
5857 Clouds 26 1011 78 10000 1 110 21:44 05.11.2020
5858 Rain 26 1011 78 10000 1 110 21:24 05.11.2020
5859 Clouds 26 1011 83 10000 1.5 60 20:59 05.11.2020
5860 Clouds 26 1012 83 10000 2.1 50 20:41 05.11.2020
5861 Clouds 26 1012 83 10000 2.1 50 20:41 05.11.2020
5862 Clouds 26 1012 78 10000 1.5 30 20:21 05.11.2020
5863 Clouds 27 1012 78 10000 2.1 60 19:44 05.11.2020
5864 Clouds 27 1012 78 10000 2.1 60 19:25 05.11.2020
5865 Clouds 27 1012 78 10000 1 60 18:55 05.11.2020
5866 Clouds 27 1013 74 10000 2.6 50 18:37 05.11.2020
5867 Clouds 27 1013 78 10000 2.6 40 18:18 05.11.2020
5868 Clouds 27 1013 78 10000 2.6 40 17:41 05.11.2020
5869 Clouds 27 1013 74 10000 3.1 30 17:23 05.11.2020
5870 Clouds 28 1013 74 10000 3.1 40 16:43 05.11.2020
5871 Clouds 29 1012 60 10000 1.85 68 16:24 05.11.2020
5872 Clouds 29 1013 62 10000 3.6 10 15:50 05.11.2020
5873 Rain 29 1013 62 10000 3.6 10 15:26 05.11.2020
5874 Clouds 30 1012 70 10000 3.1 340 14:50 05.11.2020
5875 Clouds 30 1012 70 10000 3.1 340 14:31 05.11.2020
5876 Clouds 30 1011 66 10000 3.6 350 13:51 05.11.2020
5877 Clouds 30 1011 66 10000 3.6 350 13:33 05.11.2020
5878 Clouds 30 1011 62 10000 3.6 340 12:54 05.11.2020
5879 Clouds 30 1011 62 10000 3.1 320 12:30 05.11.2020
5880 Clouds 31 1010 58 10000 3.1 330 11:58 05.11.2020
5881 Clouds 31 1010 62 10000 4.1 340 11:38 05.11.2020
5882 Clouds 31 1010 58 10000 4.1 340 11:19 05.11.2020
5883 Clouds 31 1010 58 10000 3.6 320 10:45 05.11.2020
5884 Clouds 32 1010 58 10000 3.6 320 10:26 05.11.2020
5885 Clouds 32 1010 58 10000 4.6 330 09:48 05.11.2020
5886 Rain 33 1010 59 10000 4.6 330 09:23 05.11.2020
5887 Clouds 33 1010 55 10000 3.6 300 08:45 05.11.2020
5888 Clouds 33 1010 55 10000 3.6 300 08:26 05.11.2020
5889 Clouds 33 1011 55 10000 1 0 07:42 05.11.2020
5890 Clouds 33 1012 62 10000 1.5 0 07:22 05.11.2020
5891 Clouds 32 1012 62 10000 1.5 0 06:42 05.11.2020
5892 Clouds 31 1013 55 10000 0.5 0 05:53 05.11.2020
5893 Clouds 27 1013 78 10000 1.79 336 01:38 05.11.2020
5894 Clouds 26 1012 83 10000 1.41 351 00:33 05.11.2020
5895 Clouds 26 1011 88 10000 1 120 23:45 04.11.2020
5896 Clouds 26 1011 88 10000 1 120 23:45 04.11.2020
5897 Clouds 27 1011 88 10000 1 120 23:26 04.11.2020
5898 Clouds 26 1011 83 10000 2.1 120 22:53 04.11.2020
5899 Clouds 26 1011 83 10000 2.1 120 22:31 04.11.2020
5900 Clouds 26 1011 83 10000 1.5 140 21:59 04.11.2020
5901 Clouds 26 1011 88 10000 1.5 70 21:41 04.11.2020
5902 Clouds 27 1010 68 10000 1.93 59 21:22 04.11.2020
5903 Clouds 27 1012 78 10000 1.5 60 20:44 04.11.2020
5904 Clouds 27 1010 66 10000 2.18 73 20:26 04.11.2020
5905 Clouds 27 1012 83 10000 1 100 19:49 04.11.2020
5906 Rain 28 1011 66 10000 2.03 80 19:30 04.11.2020
5907 Rain 28 1011 66 10000 2.03 80 19:30 04.11.2020
5908 Clouds 28 1012 74 10000 1.5 110 18:55 04.11.2020
5909 Clouds 28 1012 74 10000 1.5 110 18:55 04.11.2020
5910 Clouds 28 1012 74 10000 1.5 100 18:37 04.11.2020
5911 Clouds 28 1012 78 10000 1 120 18:18 04.11.2020
5912 Clouds 29 1013 74 10000 1 120 17:40 04.11.2020
5913 Rain 29 1011 63 10000 1.6 115 17:22 04.11.2020
5914 Clouds 29 1011 64 10000 1.6 115 16:41 04.11.2020
5915 Clouds 29 1011 64 10000 1.6 115 16:41 04.11.2020
5916 Clouds 29 1012 70 10000 2.1 320 16:23 04.11.2020
5917 Clouds 29 1012 66 10000 1.09 105 15:48 04.11.2020
5918 Clouds 29 1012 66 10000 0.47 81 15:25 04.11.2020
5919 Clouds 29 1012 66 10000 1.5 310 14:59 04.11.2020
5920 Clouds 29 1012 66 10000 2.1 330 14:41 04.11.2020
5921 Clouds 29 1011 70 10000 1.5 20 14:21 04.11.2020
5922 Clouds 29 1011 74 10000 1.5 40 13:45 04.11.2020
5923 Clouds 30 1010 66 10000 2.1 340 13:20 04.11.2020
5924 Clouds 30 1010 66 10000 2.1 340 12:53 04.11.2020
5925 Clouds 30 1010 66 10000 2.1 350 12:27 04.11.2020
5926 Clouds 30 1010 66 10000 3.1 350 11:59 04.11.2020
5927 Clouds 30 1010 66 10000 3.6 340 11:40 04.11.2020
5928 Rain 31 1009 53 10000 2.17 70 11:20 04.11.2020
5929 Clouds 31 1009 58 10000 3.6 320 10:46 04.11.2020
5930 Clouds 32 1008 47 10000 2.78 74 10:22 04.11.2020
5931 Clouds 32 1008 46 10000 2.78 74 09:53 04.11.2020
5932 Clouds 32 1008 47 10000 3.38 80 09:23 04.11.2020
5933 Clouds 32 1009 45 10000 3.38 80 08:46 04.11.2020
5934 Clouds 32 1009 45 10000 3.43 79 08:20 04.11.2020
5935 Clouds 32 1009 45 10000 3.43 79 07:50 04.11.2020
5936 Clouds 32 1010 47 10000 3.65 76 07:27 04.11.2020
5937 Clear 32 1011 47 10000 3.22 70 06:46 04.11.2020
5938 Clear 33 1011 49 10000 3.56 74 06:27 04.11.2020
5939 Clear 30 1013 56 10000 2.45 72 03:46 04.11.2020
5940 Clear 28 1013 74 10000 2.1 90 02:20 04.11.2020
5941 Clouds 26 1012 88 10000 2.6 40 00:43 04.11.2020
5942 Clouds 26 1011 78 10000 1.5 100 23:44 03.11.2020
5943 Clouds 26 1011 83 10000 2.1 120 23:21 03.11.2020
5944 Clouds 26 1011 83 10000 2.1 100 22:41 03.11.2020
5945 Clouds 26 1011 83 10000 2.6 100 22:21 03.11.2020
5946 Clouds 26 1011 83 10000 2.6 100 21:56 03.11.2020
5947 Clouds 27 1011 78 10000 2.6 110 21:37 03.11.2020
5948 Clouds 27 1011 78 10000 2.1 100 21:19 03.11.2020
5949 Clouds 27 1011 78 10000 2.1 90 20:43 03.11.2020
5950 Clouds 28 1012 78 10000 2.1 70 20:22 03.11.2020
5951 Clouds 28 1012 78 10000 1.5 60 19:43 03.11.2020
5952 Clouds 29 1012 78 10000 2.1 50 19:22 03.11.2020
5953 Clouds 28 1012 78 10000 2.6 50 18:45 03.11.2020
5954 Clouds 29 1013 74 10000 2.6 70 18:21 03.11.2020
5955 Clouds 29 1013 74 10000 2.6 70 17:58 03.11.2020
5956 Clouds 29 1013 69 10000 2.6 80 17:40 03.11.2020
5957 Clouds 29 1013 70 10000 3.1 90 17:21 03.11.2020
5958 Clouds 30 1013 62 10000 3.6 90 16:44 03.11.2020
5959 Clouds 30 1013 66 10000 2.6 90 16:22 03.11.2020
5960 Clouds 30 1012 66 10000 2.6 70 15:43 03.11.2020
5961 Clear 31 1011 59 10000 2.95 77 15:24 03.11.2020
5962 Clear 31 1011 57 10000 2.95 77 14:49 03.11.2020
5963 Rain 31 1011 56 10000 2.95 77 14:30 03.11.2020
5964 Clouds 31 1011 58 10000 1.5 80 13:46 03.11.2020
5965 Clouds 32 1010 54 10000 2.34 66 13:23 03.11.2020
5966 Clouds 31 1010 62 10000 2.1 50 12:59 03.11.2020
5967 Clouds 31 1010 62 10000 2.6 40 12:37 03.11.2020
5968 Clouds 31 1010 55 10000 2.6 50 12:18 03.11.2020
5969 Clouds 31 1009 58 10000 3.1 30 11:41 03.11.2020
5970 Clouds 32 1009 58 10000 3.6 30 11:20 03.11.2020
5971 Clouds 32 1009 55 10000 3.1 30 10:39 03.11.2020
5972 Clouds 32 1009 52 10000 3.6 310 10:20 03.11.2020
5973 Clouds 33 1008 48 10000 2.91 69 09:51 03.11.2020
5974 Clouds 33 1008 47 10000 2.91 69 09:33 03.11.2020
5975 Clouds 33 1008 47 10000 2.91 69 09:33 03.11.2020
5976 Clouds 34 1008 46 10000 3.27 71 08:55 03.11.2020
5977 Clouds 33 1008 46 10000 3.27 71 08:34 03.11.2020
5978 Clouds 33 1011 52 10000 5.7 60 07:49 03.11.2020
5979 Clear 33 1009 47 10000 3.64 78 07:22 03.11.2020
5980 Clear 32 1010 49 10000 3.52 78 06:45 03.11.2020
5981 Clouds 31 1014 58 10000 7.7 80 05:19 03.11.2020
5982 Clouds 28 1014 69 10000 5.1 90 01:51 03.11.2020
5983 Clear 29 1012 70 10000 4.04 60 00:40 03.11.2020
5984 Clouds 28 1012 69 10000 3.6 80 23:51 02.11.2020
5985 Clouds 27 1012 74 10000 3.1 100 23:33 02.11.2020
5986 Clouds 28 1012 74 10000 2.6 90 22:49 02.11.2020
5987 Clouds 28 1012 74 10000 2.6 90 22:30 02.11.2020
5988 Clouds 28 1012 74 10000 2.6 80 21:58 02.11.2020
5989 Clouds 28 1012 78 10000 2.6 80 21:37 02.11.2020
5990 Clouds 29 1012 78 10000 1.5 100 21:19 02.11.2020
5991 Clouds 29 1012 78 10000 2.1 80 20:39 02.11.2020
5992 Clouds 29 1012 74 10000 2.1 110 20:20 02.11.2020
5993 Clouds 29 1013 78 10000 1.5 90 19:45 02.11.2020
5994 Clouds 29 1013 78 10000 1.5 90 19:27 02.11.2020
5995 Clouds 29 1013 74 10000 2.1 60 18:55 02.11.2020
5996 Clouds 29 1013 74 10000 1.5 80 18:37 02.11.2020
5997 Clouds 29 1013 74 10000 3.1 50 18:19 02.11.2020
5998 Clouds 29 1013 74 10000 2.6 40 17:40 02.11.2020
5999 Clouds 29 1013 78 10000 2.6 30 17:21 02.11.2020
6000 Clouds 30 1012 74 10000 3.6 20 16:49 02.11.2020
6001 Clouds 30 1012 70 10000 3.6 30 16:28 02.11.2020
6002 Clouds 30 1012 70 10000 3.6 30 15:55 02.11.2020
6003 Clouds 30 1012 70 10000 3.6 20 15:36 02.11.2020
6004 Clouds 30 1012 70 10000 3.6 20 15:18 02.11.2020
6005 Clouds 30 1011 70 10000 3.1 20 14:41 02.11.2020
6006 Clouds 30 1011 70 10000 3.6 20 14:19 02.11.2020
6007 Clouds 30 1010 66 10000 3.6 30 13:46 02.11.2020
6008 Clouds 30 1010 66 10000 4.1 30 13:21 02.11.2020
6009 Clouds 31 1010 66 10000 2.6 40 12:43 02.11.2020
6010 Clouds 31 1010 62 10000 3.1 60 12:21 02.11.2020
6011 Clouds 32 1009 62 10000 3.1 40 11:45 02.11.2020
6012 Clouds 33 1008 53 10000 3.05 73 11:20 02.11.2020
6013 Clouds 33 1008 52 10000 3.05 73 10:46 02.11.2020
6014 Clouds 33 1008 50 10000 2.49 64 10:24 02.11.2020
6015 Clouds 34 1008 48 10000 2.49 64 09:55 02.11.2020
6016 Clouds 33 1008 50 10000 1.96 38 09:27 02.11.2020
6017 Clouds 33 1008 49 10000 1.96 38 08:50 02.11.2020
6018 Clouds 33 1008 48 10000 1.67 18 08:29 02.11.2020
6019 Clouds 33 1008 49 10000 1.67 18 07:59 02.11.2020
6020 Clouds 32 1011 62 10000 2.6 0 07:38 02.11.2020
6021 Clouds 32 1012 59 10000 2.6 110 06:44 02.11.2020
6022 Clouds 31 1012 59 10000 0.64 40 04:59 02.11.2020
6023 Clouds 27 1012 94 9000 1.89 12 01:26 02.11.2020
6024 Clouds 27 1011 94 9000 1.68 352 00:37 02.11.2020
6025 Clouds 27 1011 94 9000 1.77 0 23:56 01.11.2020
6026 Clouds 27 1010 85 10000 1.77 0 23:37 01.11.2020
6027 Clouds 27 1010 84 10000 2.05 1 23:19 01.11.2020
6028 Clouds 27 1011 94 10000 2.05 1 22:41 01.11.2020
6029 Clouds 27 1011 94 10000 2.34 359 22:18 01.11.2020
6030 Clouds 27 1011 94 10000 2.34 359 21:41 01.11.2020
6031 Clouds 26 1011 94 10000 2.45 7 21:23 01.11.2020
6032 Clouds 27 1010 82 10000 2.45 7 20:46 01.11.2020
6033 Rain 28 1010 82 10000 2.36 15 20:25 01.11.2020
6034 Clouds 28 1010 83 10000 2.36 15 19:46 01.11.2020
6035 Rain 28 1010 83 10000 2.04 14 19:28 01.11.2020
6036 Rain 28 1010 82 10000 2.04 14 18:57 01.11.2020
6037 Clouds 28 1011 82 10000 2.19 5 18:38 01.11.2020
6038 Rain 28 1011 82 10000 2.21 356 18:19 01.11.2020
6039 Rain 28 1011 82 10000 2.21 356 18:19 01.11.2020
6040 Clouds 28 1011 81 10000 2.21 356 17:43 01.11.2020
6041 Rain 28 1011 81 10000 2.41 353 17:25 01.11.2020
6042 Clouds 29 1011 80 10000 2.41 353 16:45 01.11.2020
6043 Rain 29 1011 80 10000 2.69 347 16:26 01.11.2020
6044 Rain 29 1010 80 10000 2.69 347 15:57 01.11.2020
6045 Rain 29 1010 79 10000 2.69 347 15:38 01.11.2020
6046 Rain 29 1010 79 10000 2.69 347 15:38 01.11.2020
6047 Rain 29 1010 79 10000 2.57 345 15:18 01.11.2020
6048 Rain 29 1010 78 10000 2.57 345 14:45 01.11.2020
6049 Rain 30 1009 77 10000 2.21 329 14:22 01.11.2020
6050 Rain 30 1009 77 10000 2.21 329 13:56 01.11.2020
6051 Clouds 30 1009 76 10000 2.21 329 13:37 01.11.2020
6052 Rain 30 1009 75 10000 1.99 320 13:19 01.11.2020
6053 Clouds 30 1008 74 10000 1.95 322 12:38 01.11.2020
6054 Rain 30 1008 74 10000 1.49 308 12:18 01.11.2020
6055 Clouds 31 1008 72 10000 1.49 308 11:47 01.11.2020
6056 Rain 31 1008 72 10000 0.79 316 11:18 01.11.2020
6057 Clouds 31 1008 71 10000 0.79 316 10:42 01.11.2020
6058 Rain 32 1010 76 10000 0.36 334 10:24 01.11.2020
6059 Clouds 30 1008 71 10000 0.36 334 09:49 01.11.2020
6060 Rain 31 1010 38 10000 1.03 91 09:19 01.11.2020
6061 Clouds 30 1011 74 10000 2.1 120 08:38 01.11.2020
6062 Clouds 29 1011 74 10000 2.6 140 07:51 01.11.2020
6063 Clouds 32 1012 74 10000 2.1 120 06:48 01.11.2020
6064 Clouds 27 1013 88 10000 1.5 60 02:22 01.11.2020
6065 Clear 28 1011 84 10000 1.86 30 01:31 01.11.2020
6066 Clouds 25 1012 94 10000 3.6 30 23:51 31.10.2020
6067 Clouds 26 1011 94 9000 5.1 10 23:23 31.10.2020
6068 Clouds 26 1011 94 9000 3.6 10 22:45 31.10.2020
6069 Clouds 26 1011 94 9000 3.6 10 22:45 31.10.2020
6070 Rain 28 1010 88 10000 2.14 337 22:24 31.10.2020
6071 Clouds 28 1010 88 10000 2.14 337 21:46 31.10.2020
6072 Rain 28 1010 88 10000 1.65 339 21:22 31.10.2020
6073 Clouds 28 1009 87 10000 1.65 339 20:43 31.10.2020
6074 Rain 28 1009 87 10000 0.84 339 20:20 31.10.2020
6075 Rain 28 1010 86 10000 0.84 339 19:44 31.10.2020
6076 Rain 28 1010 86 10000 0.52 344 19:25 31.10.2020
6077 Clouds 28 1010 86 10000 0.52 344 18:59 31.10.2020
6078 Clouds 28 1010 85 5462 0.88 91 18:41 31.10.2020
6079 Clouds 28 1011 85 6214 1.25 108 17:47 31.10.2020
6080 Rain 28 1011 85 4922 2.07 106 17:27 31.10.2020
6081 Clouds 28 1011 85 4922 2.07 106 16:57 31.10.2020
6082 Clouds 28 1011 85 4922 2.07 106 16:37 31.10.2020
6083 Clouds 28 1011 84 10000 2.14 111 15:56 31.10.2020
6084 Rain 28 1011 84 10000 2.86 104 15:26 31.10.2020
6085 Clouds 29 1010 84 10000 2.86 104 14:58 31.10.2020
6086 Clouds 29 1010 84 10000 2.86 104 14:37 31.10.2020
6087 Rain 29 1010 84 10000 2.94 102 14:18 31.10.2020
6088 Rain 29 1009 83 10000 2.94 102 13:43 31.10.2020
6089 Rain 29 1009 83 10000 2.79 101 13:20 31.10.2020
6090 Rain 29 1010 94 10000 1 130 12:27 31.10.2020
6091 Rain 29 1010 88 10000 2.1 270 11:47 31.10.2020
6092 Rain 31 1010 72 10000 2.35 154 11:28 31.10.2020
6093 Rain 31 1010 88 10000 2.6 190 10:54 31.10.2020
6094 Rain 31 1010 94 9000 4.6 160 10:33 31.10.2020
6095 Rain 29 1008 70 10000 3.6 30 09:41 31.10.2020
6096 Rain 31 1009 74 10000 3.1 30 09:20 31.10.2020
6097 Clouds 32 1010 74 10000 3.1 340 08:28 31.10.2020
6098 Clouds 31 1010 83 10000 1.5 340 07:48 31.10.2020
6099 Clouds 31 1010 83 10000 1.5 340 07:26 31.10.2020
6100 Clouds 33 1009 64 10000 3.98 113 06:38 31.10.2020
6101 Clouds 30 1013 83 10000 1.5 20 03:50 31.10.2020
6102 Clouds 27 1013 88 10000 3.1 93 02:51 31.10.2020
6103 Clouds 27 1012 94 9000 1.81 31 01:23 31.10.2020
6104 Clouds 27 1011 94 9000 1.81 31 00:46 31.10.2020
6105 Clouds 26 1011 94 7000 1.4 1 23:49 30.10.2020
6106 Clouds 26 1010 94 7000 1.34 352 23:23 30.10.2020
6107 Clouds 26 1010 100 7000 1 100 22:43 30.10.2020
6108 Clouds 27 1010 100 7000 1 100 22:24 30.10.2020
6109 Rain 27 1010 100 7000 1 80 21:52 30.10.2020
6110 Clouds 27 1011 100 7000 0.5 70 21:29 30.10.2020
6111 Clouds 27 1009 85 6873 1.32 327 20:59 30.10.2020
6112 Clouds 27 1009 84 6873 1.32 327 20:37 30.10.2020
6113 Rain 27 1009 84 10000 1.23 353 20:19 30.10.2020
6114 Rain 27 1009 82 10000 1.23 353 19:44 30.10.2020
6115 Rain 27 1010 81 10000 1.27 340 19:18 30.10.2020
6116 Rain 27 1010 80 10000 1.27 340 18:45 30.10.2020
6117 Clouds 28 1012 94 10000 2.1 120 18:27 30.10.2020
6118 Clouds 27 1010 79 10000 0.07 236 17:48 30.10.2020
6119 Rain 27 1010 78 10000 1.25 188 17:22 30.10.2020
6120 Rain 27 1010 78 10000 1.25 188 17:22 30.10.2020
6121 Rain 28 1010 78 10000 1.25 188 16:57 30.10.2020
6122 Clouds 28 1010 78 10000 1.25 188 16:36 30.10.2020
6123 Clouds 28 1010 78 10000 1.25 188 16:36 30.10.2020
6124 Rain 28 1010 78 10000 2.27 182 16:18 30.10.2020
6125 Clouds 28 1010 76 10000 2.27 182 15:40 30.10.2020
6126 Rain 28 1010 75 10000 2.68 176 15:19 30.10.2020
6127 Clouds 28 1010 75 10000 2.68 176 14:44 30.10.2020
6128 Clouds 28 1009 75 10000 2.85 176 14:25 30.10.2020
6129 Clouds 28 1009 75 10000 2.85 176 13:45 30.10.2020
6130 Clouds 28 1009 74 10000 3.03 180 13:21 30.10.2020
6131 Rain 27 1008 73 10000 3.03 180 12:52 30.10.2020
6132 Rain 29 1009 70 10000 4.1 150 12:22 30.10.2020
6133 Rain 29 1008 69 10000 3.71 178 11:56 30.10.2020
6134 Rain 29 1007 68 10000 3.85 183 11:23 30.10.2020
6135 Rain 30 1007 66 10000 3.85 183 10:52 30.10.2020
6136 Rain 30 1006 65 10000 3.37 178 10:26 30.10.2020
6137 Rain 30 1006 63 10000 3.37 178 09:57 30.10.2020
6138 Rain 31 1006 62 10000 3.37 178 09:38 30.10.2020
6139 Clouds 31 1006 63 10000 2.76 160 09:19 30.10.2020
6140 Clouds 31 1009 70 10000 2.6 90 08:32 30.10.2020
6141 Clouds 30 1009 74 10000 2.1 80 07:54 30.10.2020
6142 Clouds 30 1010 74 9000 2.1 120 07:36 30.10.2020
6143 Clouds 30 1010 74 9000 2.1 110 07:18 30.10.2020
6144 Clouds 29 1011 74 9000 3.6 120 05:59 30.10.2020
6145 Clouds 27 1011 88 8000 2.6 120 03:47 30.10.2020
6146 Clouds 24 1010 100 5000 3.1 60 01:24 30.10.2020
6147 Clouds 24 1009 100 8000 1.65 95 23:59 29.10.2020
6148 Clouds 24 1009 100 8000 1.65 95 23:41 29.10.2020
6149 Clouds 24 1009 100 8000 1.94 64 23:23 29.10.2020
6150 Clouds 24 1009 100 8000 1.94 64 22:44 29.10.2020
6151 Clouds 24 1009 100 8000 2.33 36 22:25 29.10.2020
6152 Clouds 24 1009 100 9000 2.33 36 21:49 29.10.2020
6153 Rain 24 1009 100 9000 2.04 21 21:24 29.10.2020
6154 Rain 25 1009 100 9000 2.04 21 20:43 29.10.2020
6155 Rain 25 1007 84 10000 2.25 12 20:24 29.10.2020
6156 Rain 25 1008 83 10000 2.25 12 19:56 29.10.2020
6157 Rain 25 1008 83 10000 2.25 12 19:38 29.10.2020
6158 Rain 25 1008 82 10000 1.8 3 19:18 29.10.2020
6159 Rain 25 1008 82 10000 1.84 2 18:45 29.10.2020
6160 Clouds 25 1008 81 10000 1.89 351 18:25 29.10.2020
6161 Rain 25 1009 81 10000 1.89 351 17:42 29.10.2020
6162 Clouds 25 1010 94 9000 2.6 310 17:22 29.10.2020
6163 Clouds 25 1010 94 9000 2.6 310 17:22 29.10.2020
6164 Clouds 25 1010 94 9000 2.6 290 16:52 29.10.2020
6165 Clouds 25 1010 94 9000 3.1 300 16:23 29.10.2020
6166 Rain 25 1010 94 9000 3.1 300 15:58 29.10.2020
6167 Clouds 25 1010 88 9000 3.6 340 15:40 29.10.2020
6168 Clouds 25 1009 88 9000 2.6 320 15:21 29.10.2020
6169 Rain 25 1009 88 9000 2.1 320 14:46 29.10.2020
6170 Clouds 26 1008 88 9000 3.1 330 14:24 29.10.2020
6171 Clouds 26 1008 88 9000 3.1 330 13:59 29.10.2020
6172 Rain 26 1007 83 9000 3.1 340 13:39 29.10.2020
6173 Clouds 26 1007 83 9000 4.1 340 13:21 29.10.2020
6174 Clouds 27 1006 73 10000 2.51 7 12:40 29.10.2020
6175 Clouds 27 1006 83 10000 3.1 340 12:19 29.10.2020
6176 Clouds 27 1006 78 10000 3.6 320 11:45 29.10.2020
6177 Clouds 28 1006 78 10000 3.6 320 11:24 29.10.2020
6178 Clouds 28 1005 74 10000 3.6 310 10:37 29.10.2020
6179 Clouds 28 1005 74 10000 3.1 330 10:19 29.10.2020
6180 Clouds 28 1005 74 10000 3.1 330 09:53 29.10.2020
6181 Rain 28 1005 74 10000 3.1 320 09:28 29.10.2020
6182 Rain 28 1006 78 10000 3.1 330 08:55 29.10.2020
6183 Rain 28 1006 74 10000 3.1 310 08:33 29.10.2020
6184 Clouds 28 1006 78 10000 3.1 280 07:54 29.10.2020
6185 Clouds 28 1007 74 10000 2.6 300 07:35 29.10.2020
6186 Clouds 27 1008 83 10000 3.1 290 06:56 29.10.2020
6187 Rain 26 1009 94 6000 4.1 330 04:52 29.10.2020
6188 Rain 27 1009 88 9000 2.6 350 02:59 29.10.2020
6189 Rain 27 1005 73 10000 3.79 31 00:57 29.10.2020
6190 Rain 27 1005 73 10000 3.12 52 00:31 29.10.2020
6191 Rain 27 1004 73 10000 2.77 54 23:45 28.10.2020
6192 Rain 27 1004 73 10000 2.66 36 23:21 28.10.2020
6193 Rain 27 1006 78 9000 2.6 270 22:44 28.10.2020
6194 Rain 27 1006 78 9000 2.6 270 22:26 28.10.2020
6195 Rain 27 1006 78 9000 2.6 270 22:26 28.10.2020
6196 Rain 27 1006 78 9000 2.6 270 21:58 28.10.2020
6197 Rain 27 1005 69 10000 3.17 32 21:39 28.10.2020
6198 Rain 27 1005 68 10000 2.65 26 21:18 28.10.2020
6199 Rain 27 1005 67 10000 2.65 26 20:41 28.10.2020
6200 Rain 28 1005 67 7272 1.73 350 20:20 28.10.2020
6201 Rain 27 1006 67 7272 1.73 350 19:49 28.10.2020
6202 Rain 28 1006 67 10000 2.27 301 19:28 28.10.2020
6203 Rain 28 1006 68 10000 2.27 301 18:47 28.10.2020
6204 Rain 28 1007 68 10000 2.12 306 18:21 28.10.2020
6205 Rain 29 1007 68 10000 2.12 306 17:44 28.10.2020
6206 Rain 29 1007 68 10000 2.31 317 17:25 28.10.2020
6207 Rain 29 1007 68 10000 2.31 317 16:56 28.10.2020
6208 Clouds 29 1008 68 10000 2.31 317 16:38 28.10.2020
6209 Rain 29 1007 68 10000 2.17 317 16:19 28.10.2020
6210 Rain 29 1007 67 10000 2.17 317 15:37 28.10.2020
6211 Rain 29 1007 67 10000 1.68 319 15:18 28.10.2020
6212 Rain 29 1007 66 10000 1.68 319 14:42 28.10.2020
6213 Rain 29 1007 65 10000 2.06 340 14:22 28.10.2020
6214 Clouds 29 1005 63 10000 2 356 12:41 28.10.2020
6215 Clouds 29 1005 63 10000 2.66 345 12:22 28.10.2020
6216 Clouds 30 1005 62 10000 2.66 345 11:55 28.10.2020
6217 Clouds 30 1005 61 10000 2.66 345 11:36 28.10.2020
6218 Rain 30 1004 60 10000 3.1 360 11:18 28.10.2020
6219 Rain 31 1006 62 9000 5.1 340 10:42 28.10.2020
6220 Rain 31 1006 62 9000 5.1 340 10:24 28.10.2020
6221 Clouds 31 1004 57 10000 3.55 7 09:43 28.10.2020
6222 Clouds 31 1004 55 10000 4.24 10 09:22 28.10.2020
6223 Clouds 32 1005 54 10000 4.24 10 08:49 28.10.2020
6224 Clouds 32 1005 55 10000 4.56 10 08:28 28.10.2020
6225 Rain 32 1006 57 10000 4.56 10 07:50 28.10.2020
6226 Rain 32 1006 58 10000 4.56 10 07:30 28.10.2020
6227 Rain 32 1006 58 10000 4.56 10 07:30 28.10.2020
6228 Clouds 31 1007 63 10000 4.3 356 06:42 28.10.2020
6229 Rain 30 1010 70 10000 3.1 350 05:53 28.10.2020
6230 Rain 30 1011 74 10000 4.1 30 05:21 28.10.2020
6231 Rain 29 1011 78 10000 3.6 330 04:26 28.10.2020
6232 Clouds 27 1010 88 10000 3.6 340 02:26 28.10.2020
6233 Clouds 27 1009 88 10000 3.1 320 01:51 28.10.2020
6234 Clouds 25 1008 94 10000 2.1 310 00:22 28.10.2020
6235 Clouds 25 1008 94 10000 2.6 300 23:43 27.10.2020
6236 Rain 25 1008 94 10000 2.1 300 23:20 27.10.2020
6237 Rain 25 1008 94 10000 3.1 330 22:44 27.10.2020
6238 Rain 26 1008 94 10000 2.6 340 22:19 27.10.2020
6239 Rain 26 1008 94 10000 2.6 340 22:19 27.10.2020
6240 Rain 26 1008 94 10000 2.6 340 21:56 27.10.2020
6241 Clouds 26 1008 94 10000 2.1 340 21:37 27.10.2020
6242 Clouds 26 1008 94 10000 2.1 340 21:37 27.10.2020
6243 Rain 26 1009 88 10000 3.1 320 21:19 27.10.2020
6244 Rain 26 1009 88 10000 3.1 320 20:45 27.10.2020
6245 Clouds 26 1009 88 10000 3.1 320 20:23 27.10.2020
6246 Rain 27 1009 88 10000 2.6 330 19:55 27.10.2020
6247 Rain 26 1009 88 10000 3.1 310 19:36 27.10.2020
6248 Rain 26 1009 88 10000 3.1 310 19:18 27.10.2020
6249 Rain 27 1008 74 10000 3.52 336 18:44 27.10.2020
6250 Rain 27 1008 73 10000 3.74 343 18:21 27.10.2020
6251 Rain 27 1008 72 10000 3.74 343 17:44 27.10.2020
6252 Rain 28 1008 71 10000 3.78 341 17:22 27.10.2020
6253 Rain 28 1009 70 10000 3.78 341 16:57 27.10.2020
6254 Clouds 27 1009 70 10000 3.78 341 16:39 27.10.2020
6255 Rain 28 1008 70 10000 3.08 346 16:21 27.10.2020
6256 Rain 28 1008 68 10000 3.08 346 15:41 27.10.2020
6257 Rain 29 1009 68 10000 3.24 7 15:23 27.10.2020
6258 Clouds 29 1008 67 10000 3.24 7 14:48 27.10.2020
6259 Rain 29 1008 69 10000 3.27 6 14:29 27.10.2020
6260 Rain 29 1008 68 10000 3.27 6 13:56 27.10.2020
6261 Rain 29 1008 68 10000 3.27 6 13:56 27.10.2020
6262 Rain 29 1007 66 10000 3.09 339 13:25 27.10.2020
6263 Rain 29 1007 65 10000 2.9 321 12:43 27.10.2020
6264 Rain 28 1006 65 10000 2.38 307 12:24 27.10.2020
6265 Clouds 29 1006 62 10000 2.38 307 11:44 27.10.2020
6266 Rain 29 1006 63 10000 2.29 293 11:26 27.10.2020
6267 Clouds 29 1005 62 10000 2.29 293 10:54 27.10.2020
6268 Clouds 29 1005 62 10000 2.29 293 10:36 27.10.2020
6269 Clouds 30 1005 62 10000 2.34 293 10:18 27.10.2020
6270 Clouds 31 1005 60 10000 2.23 292 09:28 27.10.2020
6271 Clouds 31 1006 59 10000 2.23 292 08:56 27.10.2020
6272 Clouds 30 1006 61 10000 1.75 306 08:27 27.10.2020
6273 Clouds 30 1009 78 9000 3.6 30 07:52 27.10.2020
6274 Clouds 29 1009 78 9000 3.6 30 07:33 27.10.2020
6275 Clouds 29 1010 66 9000 1.65 353 06:49 27.10.2020
6276 Clouds 29 1010 66 9000 1 0 06:19 27.10.2020
6277 Clouds 29 1010 74 9000 2.6 50 05:44 27.10.2020
6278 Clouds 28 1011 74 9000 2.1 30 04:57 27.10.2020
6279 Clouds 26 1010 83 10000 3 50 02:40 27.10.2020
6280 Rain 26 1009 83 10000 1 60 00:59 27.10.2020
6281 Clouds 26 1008 83 10000 2.04 39 23:59 26.10.2020
6282 Clouds 26 1008 83 10000 2.04 39 23:36 26.10.2020
6283 Clouds 26 1008 78 10000 1.5 60 22:56 26.10.2020
6284 Clouds 26 1008 78 10000 1.5 60 22:30 26.10.2020
6285 Clouds 26 1008 78 10000 2.1 20 21:56 26.10.2020
6286 Clouds 26 1008 78 10000 1.94 41 21:36 26.10.2020
6287 Rain 27 1007 68 10000 1.11 54 21:18 26.10.2020
6288 Clouds 26 1007 69 10000 1.11 54 20:46 26.10.2020
6289 Clouds 27 1007 67 10000 1.17 94 20:26 26.10.2020
6290 Clouds 27 1007 65 10000 1.17 94 19:49 26.10.2020
6291 Clouds 27 1007 65 10000 1.43 123 19:28 26.10.2020
6292 Rain 27 1008 65 10000 2.57 115 18:57 26.10.2020
6293 Clouds 27 1008 66 10000 2.57 115 18:36 26.10.2020
6294 Clouds 27 1008 65 10000 2.3 119 18:18 26.10.2020
6295 Clouds 28 1009 64 10000 2.3 119 17:40 26.10.2020
6296 Clouds 28 1009 63 10000 1.72 117 17:22 26.10.2020
6297 Clouds 28 1009 62 10000 1.72 117 16:44 26.10.2020
6298 Clouds 28 1009 62 10000 1.27 114 16:22 26.10.2020
6299 Clouds 28 1009 61 10000 1.27 114 15:44 26.10.2020
6300 Rain 28 1009 60 10000 1.19 103 15:25 26.10.2020
6301 Rain 28 1009 58 10000 1.19 103 14:54 26.10.2020
6302 Rain 28 1008 58 10000 1.19 103 14:35 26.10.2020
6303 Clouds 29 1008 61 10000 1.42 115 13:46 26.10.2020
6304 Clouds 29 1007 59 10000 1.25 125 13:28 26.10.2020
6305 Clouds 30 1007 55 10000 1.38 109 12:58 26.10.2020
6306 Clouds 30 1006 56 10000 1.38 109 12:36 26.10.2020
6307 Clouds 30 1006 56 10000 1.56 97 12:18 26.10.2020
6308 Clouds 31 1006 56 10000 1.56 97 11:45 26.10.2020
6309 Clouds 31 1006 56 10000 1.88 96 11:23 26.10.2020
6310 Clouds 31 1005 55 10000 1.88 96 10:57 26.10.2020
6311 Clouds 31 1006 55 10000 3.1 30 10:38 26.10.2020
6312 Clouds 32 1007 52 10000 3.1 40 10:18 26.10.2020
6313 Clouds 32 1007 58 10000 3.6 50 09:31 26.10.2020
6314 Clouds 32 1006 52 10000 1.39 121 08:58 26.10.2020
6315 Clouds 32 1006 52 10000 1.04 79 08:26 26.10.2020
6316 Clouds 32 1007 49 10000 1.04 79 07:48 26.10.2020
6317 Clouds 32 1007 50 10000 1.46 12 07:28 26.10.2020
6318 Clouds 32 1009 46 10000 2.14 355 05:46 26.10.2020
6319 Clouds 31 1010 52 10000 1.56 348 04:19 26.10.2020
6320 Clouds 29 1011 65 10000 1.5 100 03:21 26.10.2020
6321 Clouds 26 1010 78 10000 2.1 100 01:34 26.10.2020
6322 Clouds 26 1008 67 10000 1.63 49 00:36 26.10.2020
6323 Clouds 26 1008 66 10000 1.62 58 23:51 25.10.2020
6324 Clouds 27 1009 83 10000 2.1 80 23:30 25.10.2020
6325 Clouds 27 1009 83 10000 2.1 80 22:48 25.10.2020
6326 Clouds 27 1007 65 10000 1.86 57 22:30 25.10.2020
6327 Clouds 27 1007 65 10000 1.86 57 22:30 25.10.2020
6328 Clouds 27 1007 65 10000 1.89 59 21:55 25.10.2020
6329 Clouds 27 1007 65 10000 1.89 59 21:36 25.10.2020
6330 Clouds 27 1008 65 10000 1.65 63 21:18 25.10.2020
6331 Clouds 27 1008 66 10000 1.65 63 20:43 25.10.2020
6332 Rain 27 1008 65 10000 0.99 71 20:23 25.10.2020
6333 Rain 27 1008 65 10000 0.99 71 19:56 25.10.2020
6334 Rain 27 1008 65 10000 0.99 71 19:37 25.10.2020
6335 Rain 27 1008 64 10000 0.76 56 19:19 25.10.2020
6336 Clouds 27 1009 64 10000 0.56 126 18:41 25.10.2020
6337 Clouds 28 1009 63 10000 0.36 96 18:22 25.10.2020
6338 Clouds 28 1009 63 10000 0.36 96 18:22 25.10.2020
6339 Rain 28 1009 63 10000 0.36 96 17:56 25.10.2020
6340 Rain 28 1009 62 10000 0.36 96 17:38 25.10.2020
6341 Rain 28 1009 62 10000 0.58 14 17:19 25.10.2020
6342 Rain 28 1009 60 10000 0.58 14 16:44 25.10.2020
6343 Clouds 28 1009 60 10000 0.64 345 16:25 25.10.2020
6344 Rain 29 1009 58 10000 0.64 345 15:47 25.10.2020
6345 Rain 28 1010 61 10000 0.46 338 15:27 25.10.2020
6346 Rain 29 1010 58 10000 1.5 300 14:54 25.10.2020
6347 Rain 29 1009 56 10000 0.46 338 14:30 25.10.2020
6348 Clouds 29 1009 54 10000 1.04 30 13:45 25.10.2020
6349 Rain 29 1008 54 10000 0.88 34 13:25 25.10.2020
6350 Rain 29 1009 51 10000 2.6 310 12:57 25.10.2020
6351 Clouds 29 1009 48 10000 2.6 330 12:39 25.10.2020
6352 Clouds 30 1009 48 10000 3.1 330 12:21 25.10.2020
6353 Clouds 30 1007 51 10000 0.73 36 11:42 25.10.2020
6354 Clouds 30 1007 49 10000 1.2 21 11:20 25.10.2020
6355 Clouds 31 1007 48 10000 1.2 21 10:47 25.10.2020
6356 Rain 32 1007 47 10000 2.52 18 10:26 25.10.2020
6357 Rain 32 1007 46 10000 2.52 18 09:52 25.10.2020
6358 Clouds 32 1007 45 10000 2.61 6 09:23 25.10.2020
6359 Clouds 33 1009 43 10000 3.1 340 08:59 25.10.2020
6360 Clouds 33 1007 40 10000 2.61 6 08:40 25.10.2020
6361 Clouds 33 1007 40 10000 2.47 4 08:22 25.10.2020
6362 Clouds 33 1008 42 10000 2.47 4 07:43 25.10.2020
6363 Clouds 32 1010 46 10000 1.97 1 06:53 25.10.2020
6364 Rain 32 1010 46 10000 1.54 20 06:28 25.10.2020
6365 Clouds 31 1010 45 10000 1.12 39 05:20 25.10.2020
6366 Clouds 30 1011 48 10000 1.12 39 04:50 25.10.2020
6367 Clouds 25 1011 82 10000 1.01 16 02:30 25.10.2020
6368 Clear 25 1010 78 10000 1.5 50 00:54 25.10.2020
6369 Clear 25 1010 78 10000 1.5 60 00:28 25.10.2020
6370 Clear 26 1010 83 10000 1.5 50 23:55 24.10.2020
6371 Clear 26 1010 78 10000 1 30 23:35 24.10.2020
6372 Clear 26 1010 83 10000 1.88 321 22:58 24.10.2020
6373 Clear 26 1010 83 10000 0.5 50 22:40 24.10.2020
6374 Clear 26 1010 83 10000 0.5 50 22:21 24.10.2020
6375 Clear 27 1011 83 10000 1.5 20 21:44 24.10.2020
6376 Clear 27 1011 83 10000 1.5 20 21:44 24.10.2020
6377 Clear 27 1011 83 10000 1.5 20 21:44 24.10.2020
6378 Clear 26 1011 74 10000 1.5 324 21:22 24.10.2020
6379 Clear 26 1011 74 10000 1.5 324 20:58 24.10.2020
6380 Clear 26 1011 74 10000 1.5 324 20:39 24.10.2020
6381 Clear 28 1012 74 10000 0.88 332 20:20 24.10.2020
6382 Clouds 28 1010 59 10000 0.83 326 19:40 24.10.2020
6383 Clouds 27 1010 58 10000 0.6 298 19:22 24.10.2020
6384 Clouds 28 1010 57 10000 0.6 298 18:49 24.10.2020
6385 Rain 28 1012 69 10000 1 0 18:28 24.10.2020
6386 Clear 29 1012 65 10000 1.5 360 17:43 24.10.2020
6387 Clouds 29 1011 57 10000 0.39 57 17:25 24.10.2020
6388 Clear 28 1012 61 10000 2.6 340 16:48 24.10.2020
6389 Clear 28 1012 61 10000 2.6 340 16:30 24.10.2020
6390 Clear 29 1011 58 10000 1.5 330 15:42 24.10.2020
6391 Clear 29 1011 58 10000 1.5 330 15:20 24.10.2020
6392 Clear 29 1010 62 10000 2.1 330 14:57 24.10.2020
6393 Clear 29 1010 62 10000 2.6 330 14:29 24.10.2020
6394 Clear 30 1009 58 10000 3.6 330 13:50 24.10.2020
6395 Clear 30 1009 58 10000 3.6 330 13:32 24.10.2020
6396 Clear 30 1009 55 10000 4.6 330 12:59 24.10.2020
6397 Clear 30 1008 58 10000 5.1 340 12:37 24.10.2020
6398 Clear 31 1008 43 10000 2.6 120 12:19 24.10.2020
6399 Clear 32 1008 43 10000 2.6 120 11:45 24.10.2020
6400 Clear 32 1008 40 10000 2.1 140 11:19 24.10.2020
6401 Clear 32 1008 40 10000 1.5 170 10:42 24.10.2020
6402 Clear 32 1008 40 10000 1.5 170 10:24 24.10.2020
6403 Clear 32 1009 40 10000 2.1 0 09:44 24.10.2020
6404 Clear 32 1009 40 10000 2.1 0 09:25 24.10.2020
6405 Clear 32 1009 45 10000 2.6 80 08:54 24.10.2020
6406 Clear 32 1010 45 10000 3.1 110 08:18 24.10.2020
6407 Clear 32 1010 48 10000 3.6 90 07:49 24.10.2020
6408 Clear 31 1011 45 10000 1.5 0 07:20 24.10.2020
6409 Clear 31 1011 48 10000 3.1 100 06:44 24.10.2020
6410 Clear 30 1012 54 10000 3.1 80 04:59 24.10.2020
6411 Clouds 27 1009 63 10000 1.27 338 02:20 24.10.2020
6412 Clouds 25 1009 65 10000 1.76 337 00:44 24.10.2020
6413 Clouds 25 1009 65 10000 1.97 321 00:23 24.10.2020
6414 Clouds 26 1009 66 10000 1.97 321 23:59 23.10.2020
6415 Clouds 26 1009 66 10000 1.97 321 23:37 23.10.2020
6416 Rain 26 1009 66 10000 1.64 314 23:18 23.10.2020
6417 Clouds 26 1009 64 10000 1.64 314 22:42 23.10.2020
6418 Rain 26 1009 64 10000 0.98 328 22:21 23.10.2020
6419 Clouds 26 1009 63 10000 0.98 328 21:52 23.10.2020
6420 Rain 27 1009 63 10000 0.45 10 21:28 23.10.2020
6421 Rain 27 1010 61 10000 0.45 10 20:44 23.10.2020
6422 Clouds 26 1010 61 10000 0.95 69 20:25 23.10.2020
6423 Rain 27 1010 61 10000 0.95 69 19:59 23.10.2020
6424 Rain 26 1010 62 10000 1.59 71 19:37 23.10.2020
6425 Rain 26 1010 62 10000 2.29 85 19:18 23.10.2020
6426 Rain 27 1010 62 10000 2.29 85 18:39 23.10.2020
6427 Clouds 27 1010 63 10000 2.16 88 18:20 23.10.2020
6428 Rain 27 1012 69 10000 2.1 130 17:44 23.10.2020
6429 Rain 28 1012 69 10000 2.1 130 17:21 23.10.2020
6430 Clouds 28 1012 65 10000 1.5 90 17:21 23.10.2020
6431 Rain 28 1011 69 10000 1.5 100 16:47 23.10.2020
6432 Rain 28 1011 69 10000 1.5 100 16:26 23.10.2020
6433 Rain 29 1010 62 10000 2.1 120 15:47 23.10.2020
6434 Rain 29 1010 62 10000 2.1 120 15:25 23.10.2020
6435 Rain 28 1010 65 10000 1.41 21 14:57 23.10.2020
6436 Clouds 29 1009 62 10000 1.5 120 14:39 23.10.2020
6437 Rain 29 1009 62 10000 2.1 110 14:20 23.10.2020
6438 Clouds 29 1008 58 10000 2.6 110 13:38 23.10.2020
6439 Clouds 29 1008 55 10000 3.1 110 13:20 23.10.2020
6440 Clouds 30 1008 52 10000 1.5 140 12:47 23.10.2020
6441 Clouds 31 1006 52 10000 0.2 267 12:27 23.10.2020
6442 Clouds 31 1006 50 10000 0.2 267 11:47 23.10.2020
6443 Clouds 31 1007 48 10000 1 120 11:22 23.10.2020
6444 Clouds 31 1007 52 10000 2.1 70 10:46 23.10.2020
6445 Rain 32 1007 52 10000 2.1 70 10:25 23.10.2020
6446 Rain 32 1007 52 10000 2.1 70 10:25 23.10.2020
6447 Clouds 31 1008 52 10000 2.6 180 09:46 23.10.2020
6448 Rain 31 1006 46 10000 2.46 89 09:27 23.10.2020
6449 Rain 31 1006 47 10000 2.46 89 08:53 23.10.2020
6450 Clouds 31 1007 46 10000 2.46 89 08:33 23.10.2020
6451 Clouds 31 1008 47 10000 1.19 74 07:46 23.10.2020
6452 Clouds 30 1008 48 10000 2.16 86 07:22 23.10.2020
6453 Clouds 30 1009 53 10000 2.81 89 06:20 23.10.2020
6454 Clouds 29 1010 57 10000 2.81 89 05:35 23.10.2020
6455 Clouds 26 1009 70 10000 2.83 84 02:32 23.10.2020
6456 Clouds 26 1009 88 10000 1.5 110 01:30 23.10.2020
6457 Clouds 26 1009 88 10000 1 190 00:47 23.10.2020
6458 Clouds 26 1007 76 10000 0.96 60 23:48 22.10.2020
6459 Clouds 26 1007 75 10000 1 69 23:26 22.10.2020
6460 Rain 27 1007 75 10000 1 69 22:49 22.10.2020
6461 Rain 27 1007 74 10000 1.16 76 22:27 22.10.2020
6462 Rain 26 1008 73 10000 1.16 76 21:59 22.10.2020
6463 Rain 26 1008 73 10000 1.16 76 21:41 22.10.2020
6464 Clouds 27 1008 73 10000 1.52 75 21:21 22.10.2020
6465 Rain 27 1008 72 10000 1.52 75 20:45 22.10.2020
6466 Rain 27 1008 72 10000 1.4 50 20:26 22.10.2020
6467 Rain 27 1009 71 10000 1.4 50 19:58 22.10.2020
6468 Rain 27 1009 70 10000 1.4 50 19:39 22.10.2020
6469 Rain 27 1010 70 10000 1.27 23 19:18 22.10.2020
6470 Rain 27 1010 69 10000 1.27 23 18:42 22.10.2020
6471 Rain 27 1010 69 10000 2.07 4 18:19 22.10.2020
6472 Rain 27 1009 69 10000 2.07 4 17:45 22.10.2020
6473 Clouds 27 1009 69 10000 2.31 350 17:22 22.10.2020
6474 Clouds 27 1009 67 10000 2.31 350 16:46 22.10.2020
6475 Clouds 29 1009 67 10000 2.37 332 16:25 22.10.2020
6476 Rain 29 1009 66 10000 2.37 332 15:56 22.10.2020
6477 Clouds 29 1008 66 10000 2.37 332 15:38 22.10.2020
6478 Clouds 29 1008 65 10000 1.91 315 15:19 22.10.2020
6479 Clouds 29 1008 64 10000 1.91 315 14:42 22.10.2020
6480 Clouds 29 1007 63 10000 1.83 316 14:23 22.10.2020
6481 Clouds 29 1007 62 10000 1.83 316 13:45 22.10.2020
6482 Clouds 29 1007 61 10000 2.11 315 13:23 22.10.2020
6483 Clouds 30 1006 61 10000 2.11 315 12:44 22.10.2020
6484 Clouds 30 1006 61 10000 2.56 319 12:22 22.10.2020
6485 Clouds 30 1005 60 10000 2.56 319 11:47 22.10.2020
6486 Clouds 30 1005 58 10000 3.42 313 11:19 22.10.2020
6487 Clouds 31 1005 55 10000 3.42 313 10:49 22.10.2020
6488 Clouds 31 1005 53 10000 4.26 309 10:26 22.10.2020
6489 Clouds 31 1005 49 10000 4.26 309 09:46 22.10.2020
6490 Clouds 31 1005 47 10000 3.64 314 09:25 22.10.2020
6491 Clouds 31 1006 47 10000 3.64 314 08:47 22.10.2020
6492 Clouds 31 1006 47 10000 2.44 340 08:27 22.10.2020
6493 Clouds 31 1007 50 10000 2.55 329 07:48 22.10.2020
6494 Clouds 31 1008 49 10000 1.79 11 07:29 22.10.2020
6495 Clouds 30 1008 53 10000 1.79 11 06:46 22.10.2020
6496 Clouds 30 1009 55 10000 2.5 62 06:24 22.10.2020
6497 Clouds 30 1010 56 10000 2.5 62 05:39 22.10.2020
6498 Clouds 26 1010 69 10000 2.73 50 03:26 22.10.2020
6499 Clouds 25 1009 94 10000 2.38 29 01:34 22.10.2020
6500 Clouds 25 1009 94 10000 2.38 29 01:34 22.10.2020
6501 Clouds 25 1009 94 10000 2.38 29 01:34 22.10.2020
6502 Clouds 26 1009 88 10000 2.61 7 00:24 22.10.2020
6503 Clouds 25 1009 88 10000 2.1 360 23:44 21.10.2020
6504 Clouds 26 1009 83 10000 2.6 340 23:22 21.10.2020
6505 Clouds 26 1009 83 10000 2.1 320 22:39 21.10.2020
6506 Clouds 26 1009 83 10000 2.1 310 22:19 21.10.2020
6507 Clouds 26 1009 83 10000 2.1 320 21:46 21.10.2020
6508 Rain 26 1010 83 10000 1.5 320 21:20 21.10.2020
6509 Clouds 26 1010 83 10000 1.5 320 20:59 21.10.2020
6510 Clouds 26 1010 83 10000 1.5 350 20:41 21.10.2020
6511 Clouds 26 1011 83 10000 2.6 330 20:18 21.10.2020
6512 Clouds 26 1011 78 10000 2.1 340 19:41 21.10.2020
6513 Clouds 26 1011 78 10000 2.6 350 19:23 21.10.2020
6514 Clouds 26 1011 78 10000 2.6 350 18:53 21.10.2020
6515 Rain 26 1011 78 10000 2.6 340 18:30 21.10.2020
6516 Rain 26 1011 78 10000 2.6 20 17:51 21.10.2020
6517 Rain 26 1011 78 10000 3.6 360 17:22 21.10.2020
6518 Rain 26 1011 78 10000 3.6 360 16:59 21.10.2020
6519 Rain 26 1011 78 10000 3.6 360 16:59 21.10.2020
6520 Clouds 27 1011 78 10000 3.6 360 16:39 21.10.2020
6521 Rain 27 1009 75 10000 2.76 11 16:20 21.10.2020
6522 Clouds 27 1009 74 10000 2.76 11 15:45 21.10.2020
6523 Clouds 27 1008 74 10000 3.02 23 15:22 21.10.2020
6524 Clouds 27 1008 74 10000 3.02 23 14:49 21.10.2020
6525 Clouds 27 1007 73 10000 2.87 33 14:29 21.10.2020
6526 Clouds 27 1007 72 10000 2.87 33 13:58 21.10.2020
6527 Clouds 28 1007 73 10000 1.92 57 13:40 21.10.2020
6528 Rain 28 1007 73 10000 1.48 63 13:20 21.10.2020
6529 Clouds 28 1006 72 10000 1.48 63 12:40 21.10.2020
6530 Rain 28 1006 72 10000 1.03 32 12:20 21.10.2020
6531 Clouds 28 1006 73 10000 1.03 32 11:46 21.10.2020
6532 Rain 28 1006 73 10000 0.72 359 11:20 21.10.2020
6533 Clouds 29 1006 70 10000 0.72 359 10:47 21.10.2020
6534 Rain 29 1006 69 10000 0.89 321 10:26 21.10.2020
6535 Clouds 29 1006 69 10000 0.89 321 09:57 21.10.2020
6536 Clouds 29 1007 69 10000 0.89 321 09:35 21.10.2020
6537 Clouds 29 1007 68 10000 1.61 340 08:57 21.10.2020
6538 Clouds 29 1007 69 10000 1.61 340 08:39 21.10.2020
6539 Rain 29 1007 68 10000 1.88 6 08:21 21.10.2020
6540 Clouds 29 1008 69 10000 1.88 6 07:38 21.10.2020
6541 Clouds 29 1009 69 10000 1.7 8 06:55 21.10.2020
6542 Clouds 29 1009 69 10000 1.7 8 06:32 21.10.2020
6543 Clouds 27 1011 74 10000 1.86 29 04:47 21.10.2020
6544 Clouds 25 1010 86 10000 3.15 349 02:26 21.10.2020
6545 Clouds 25 1010 88 10000 3.1 350 23:51 20.10.2020
6546 Clouds 24 1009 84 10000 3.82 344 23:20 20.10.2020
6547 Rain 24 1009 84 10000 3.82 344 22:30 20.10.2020
6548 Clouds 24 1009 83 10000 3.47 353 21:51 20.10.2020
6549 Clouds 25 1009 83 10000 3.66 1 21:21 20.10.2020
6550 Clouds 25 1009 83 10000 3.66 1 21:21 20.10.2020
6551 Rain 25 1009 82 10000 3.66 1 20:59 20.10.2020
6552 Clouds 25 1009 82 10000 3.66 1 20:41 20.10.2020
6553 Clouds 25 1009 82 10000 3.66 1 20:41 20.10.2020
6554 Rain 25 1009 82 10000 3.62 11 20:22 20.10.2020
6555 Rain 25 1010 82 10000 3.58 10 19:44 20.10.2020
6556 Clouds 25 1010 82 10000 3.66 7 19:22 20.10.2020
6557 Rain 26 1010 82 10000 3.66 7 18:55 20.10.2020
6558 Clouds 26 1010 82 10000 3.66 7 18:37 20.10.2020
6559 Clouds 26 1010 82 10000 3.66 7 18:37 20.10.2020
6560 Rain 26 1010 81 10000 4.21 0 17:50 20.10.2020
6561 Rain 26 1010 81 10000 4.21 0 17:32 20.10.2020
6562 Rain 26 1010 80 10000 4.29 355 16:49 20.10.2020
6563 Rain 26 1010 80 10000 4.29 355 16:31 20.10.2020
6564 Clouds 26 1009 81 10000 4.34 353 15:59 20.10.2020
6565 Clouds 26 1009 81 10000 4.34 353 15:59 20.10.2020
6566 Rain 26 1009 81 10000 4.34 353 15:41 20.10.2020
6567 Rain 27 1009 81 10000 4.47 351 15:22 20.10.2020
6568 Clouds 27 1009 81 10000 4.47 351 14:44 20.10.2020
6569 Rain 27 1008 81 10000 4.8 347 14:24 20.10.2020
6570 Rain 28 1008 81 10000 5.18 349 13:56 20.10.2020
6571 Rain 26 1007 81 10000 5.18 349 13:37 20.10.2020
6572 Rain 26 1007 82 10000 5.28 341 13:19 20.10.2020
6573 Rain 26 1006 83 10000 5.28 341 12:40 20.10.2020
6574 Rain 27 1007 84 10000 4.93 336 12:22 20.10.2020
6575 Rain 27 1006 86 10000 4.93 336 11:45 20.10.2020
6576 Rain 28 1006 86 10000 4.22 331 11:27 20.10.2020
6577 Clouds 28 1007 83 10000 4.22 331 10:40 20.10.2020
6578 Clouds 27 1007 82 10000 3.59 328 10:21 20.10.2020
6579 Clouds 27 1007 76 10000 3.59 328 09:43 20.10.2020
6580 Clouds 27 1007 74 10000 3.33 317 09:19 20.10.2020
6581 Clouds 27 1007 74 10000 3.33 317 08:39 20.10.2020
6582 Clouds 28 1007 71 10000 3.16 318 07:54 20.10.2020
6583 Clouds 28 1008 72 10000 2.9 311 07:26 20.10.2020
6584 Clouds 28 1009 74 10000 2.9 311 06:34 20.10.2020
6585 Clouds 27 1009 78 10000 2.51 319 05:53 20.10.2020
6586 Clouds 26 1010 83 10000 2.79 340 03:58 20.10.2020
6587 Clouds 24 1009 86 10000 2.88 335 02:30 20.10.2020
6588 Clouds 24 1010 88 9000 2.1 330 01:20 20.10.2020
6589 Clouds 24 1010 88 9000 2.1 330 00:49 20.10.2020
6590 Clouds 24 1009 88 9000 2.6 360 00:22 20.10.2020
6591 Clouds 24 1009 88 9000 2.6 340 23:47 19.10.2020
6592 Clouds 25 1007 86 10000 2.32 337 23:24 19.10.2020
6593 Rain 25 1007 85 10000 2.32 337 22:44 19.10.2020
6594 Clouds 25 1007 85 10000 2.18 345 22:24 19.10.2020
6595 Clouds 25 1007 85 10000 2.18 345 22:24 19.10.2020
6596 Clouds 24 1007 84 10000 2.18 345 21:48 19.10.2020
6597 Rain 24 1007 84 10000 2.68 349 21:22 19.10.2020
6598 Rain 24 1007 84 10000 2.68 349 20:52 19.10.2020
6599 Rain 25 1008 83 10000 2.68 349 20:33 19.10.2020
6600 Rain 25 1008 83 10000 3.36 345 19:54 19.10.2020
6601 Rain 25 1008 83 10000 3.36 345 19:36 19.10.2020
6602 Rain 25 1008 84 10000 3.56 347 19:18 19.10.2020
6603 Rain 25 1008 84 10000 3.56 347 18:42 19.10.2020
6604 Rain 25 1008 83 10000 3.65 346 18:18 19.10.2020
6605 Rain 25 1008 83 10000 3.65 346 18:18 19.10.2020
6606 Rain 25 1008 83 10000 3.65 346 17:44 19.10.2020
6607 Rain 25 1008 83 10000 3.82 346 17:24 19.10.2020
6608 Rain 26 1008 83 10000 3.82 346 16:46 19.10.2020
6609 Rain 26 1008 83 10000 4.09 352 16:28 19.10.2020
6610 Rain 26 1008 82 10000 4.09 352 15:44 19.10.2020
6611 Clouds 26 1008 82 10000 4.35 353 15:25 19.10.2020
6612 Rain 26 1007 82 10000 4.35 353 14:52 19.10.2020
6613 Clouds 26 1007 81 10000 4.34 351 14:27 19.10.2020
6614 Clouds 26 1007 80 10000 3.93 355 13:54 19.10.2020
6615 Clouds 26 1006 80 10000 3.93 355 13:34 19.10.2020
6616 Clouds 26 1006 79 10000 3.99 351 12:59 19.10.2020
6617 Clouds 26 1006 79 10000 3.99 351 12:40 19.10.2020
6618 Clouds 26 1006 78 10000 3.75 341 12:22 19.10.2020
6619 Clouds 27 1005 79 10000 3.75 341 11:40 19.10.2020
6620 Clouds 27 1005 79 10000 3.69 333 11:19 19.10.2020
6621 Clouds 26 1005 79 10000 3.69 333 10:43 19.10.2020
6622 Clouds 27 1005 81 10000 3.25 326 10:21 19.10.2020
6623 Clouds 27 1006 81 10000 3.25 326 09:50 19.10.2020
6624 Clouds 26 1006 80 10000 2.76 317 09:22 19.10.2020
6625 Clouds 27 1006 82 10000 2.76 317 08:49 19.10.2020
6626 Clouds 26 1007 82 10000 2.88 318 08:23 19.10.2020
6627 Clouds 26 1007 82 10000 2.88 318 07:52 19.10.2020
6628 Clouds 26 1007 80 10000 1.3 350 07:19 19.10.2020
6629 Clouds 26 1008 82 10000 1.34 5 06:19 19.10.2020
6630 Clouds 24 1010 94 8000 3.1 350 03:50 19.10.2020
6631 Clouds 25 1008 89 10000 0.61 358 03:32 19.10.2020
6632 Clouds 23 1008 100 7000 0.58 126 00:57 19.10.2020
6633 Clouds 23 1008 100 10000 1.5 360 00:24 19.10.2020
6634 Clouds 23 1008 100 10000 1.5 50 23:47 18.10.2020
6635 Clouds 23 1008 100 10000 1.5 50 23:25 18.10.2020
6636 Clouds 24 1008 94 10000 0.12 347 22:52 18.10.2020
6637 Clouds 24 1008 94 10000 1.5 340 22:22 18.10.2020
6638 Clouds 24 1008 94 10000 1.5 340 21:55 18.10.2020
6639 Clouds 24 1008 94 10000 2.1 330 21:36 18.10.2020
6640 Clouds 24 1008 94 10000 1.5 340 21:18 18.10.2020
6641 Clouds 24 1009 94 10000 2.1 340 20:40 18.10.2020
6642 Rain 24 1007 87 10000 0.63 324 20:19 18.10.2020
6643 Clouds 24 1007 88 10000 0.93 170 19:43 18.10.2020
6644 Rain 24 1007 88 10000 0.92 172 19:25 18.10.2020
6645 Clouds 24 1009 88 10000 2.6 20 18:48 18.10.2020
6646 Clouds 24 1009 88 10000 2.6 20 18:26 18.10.2020
6647 Clouds 24 1009 88 10000 3.1 20 17:43 18.10.2020
6648 Clouds 24 1009 88 10000 3.1 20 17:25 18.10.2020
6649 Clouds 24 1009 88 10000 2.6 30 16:45 18.10.2020